# Wetter Temperatur Luftdruck Luftfeuchtigkeit Sichtweite Windgeschwindigkeit Windrichtung Zeit
1 Haze 29 1005 83 4000 1.5 230 07:38 14.07.2020
2 Haze 28 1005 88 4000 1 240 07:18 14.07.2020
3 Haze 28 1005 88 4000 1 240 06:47 14.07.2020
4 Mist 27 1005 88 3000 1 280 06:24 14.07.2020
5 Mist 27 1004 94 3000 1 240 05:36 14.07.2020
6 Mist 26 1004 100 3000 1 220 04:37 14.07.2020
7 Mist 26 1004 100 2500 1 240 03:48 14.07.2020
8 Mist 26 1003 94 1800 2.1 240 02:58 14.07.2020
9 Mist 26 1003 100 1800 1.5 230 02:25 14.07.2020
10 Mist 26 1003 94 2500 1.43 253 01:37 14.07.2020
11 Clouds 28 1001 77 0 2.16 254 00:55 14.07.2020
12 Mist 26 1003 100 2500 2.16 254 00:37 14.07.2020
13 Mist 26 1003 100 2500 2.5 238 00:19 14.07.2020
14 Mist 26 1003 100 2500 2.5 238 23:38 13.07.2020
15 Mist 26 1003 100 2500 2.29 232 23:19 13.07.2020
16 Mist 26 1003 100 2500 2.29 232 22:43 13.07.2020
17 Mist 26 1003 100 2500 2.03 242 22:22 13.07.2020
18 Mist 26 1004 100 2500 2.03 242 21:59 13.07.2020
19 Mist 26 1004 100 2500 2.03 242 21:41 13.07.2020
20 Mist 26 1004 100 2500 0.99 218 21:21 13.07.2020
21 Haze 26 1004 100 2500 0.99 218 20:58 13.07.2020
22 Haze 26 1004 100 2500 0.99 218 20:40 13.07.2020
23 Haze 26 1004 100 2500 0.91 267 20:21 13.07.2020
24 Rain 26 1004 100 2500 0.91 267 19:56 13.07.2020
25 Rain 26 1004 100 2500 0.91 267 19:38 13.07.2020
26 Rain 26 1004 100 2500 1.18 275 19:18 13.07.2020
27 Rain 26 1004 94 2500 2.1 170 18:42 13.07.2020
28 Rain 26 1004 94 2500 2.1 170 18:24 13.07.2020
29 Thunderstorm 26 1004 94 2500 1 140 17:58 13.07.2020
30 Thunderstorm 26 1004 94 2500 1.5 140 17:39 13.07.2020
31 Thunderstorm 26 1004 94 2500 1.5 140 17:21 13.07.2020
32 Thunderstorm 27 1003 88 2500 1 140 16:56 13.07.2020
33 Thunderstorm 27 1002 88 2500 3.1 340 16:37 13.07.2020
34 Thunderstorm 27 1002 88 2500 3.1 340 16:18 13.07.2020
35 Thunderstorm 27 1002 88 2500 3.1 340 15:56 13.07.2020
36 Rain 26 1001 94 2000 3.6 220 15:37 13.07.2020
37 Rain 26 1001 94 2000 3.6 220 15:18 13.07.2020
38 Rain 26 1001 94 1800 4.6 240 14:56 13.07.2020
39 Haze 27 1001 94 2500 2.6 210 14:36 13.07.2020
40 Haze 27 1001 94 2500 2.6 210 14:18 13.07.2020
41 Haze 31 1001 70 5000 4.1 200 13:42 13.07.2020
42 Haze 31 1001 70 5000 4.1 200 13:21 13.07.2020
43 Haze 32 1000 66 5000 4.6 220 12:54 13.07.2020
44 Haze 34 1001 52 5000 2.1 290 12:36 13.07.2020
45 Haze 34 1001 52 5000 2.1 290 12:36 13.07.2020
46 Haze 33 1002 55 5000 2.1 300 12:18 13.07.2020
47 Haze 33 1002 55 5000 2.1 300 11:40 13.07.2020
48 Haze 33 1002 55 5000 2.1 300 11:22 13.07.2020
49 Haze 32 1003 66 5000 2.6 300 10:43 13.07.2020
50 Haze 32 1003 66 5000 2.6 300 10:20 13.07.2020
51 Haze 33 1003 63 5000 3.1 320 09:54 13.07.2020
52 Haze 32 1004 62 5000 2.1 280 09:36 13.07.2020
53 Haze 32 1004 62 5000 2.1 280 09:18 13.07.2020
54 Haze 31 1005 66 5000 3.1 310 08:42 13.07.2020
55 Haze 31 1005 66 5000 3.1 310 08:21 13.07.2020
56 Haze 29 1005 79 5000 1.5 300 07:22 13.07.2020
57 Haze 29 1005 79 5000 1.5 300 06:53 13.07.2020
58 Haze 29 1005 79 4000 1.5 340 06:33 13.07.2020
59 Haze 27 1005 88 3000 3.1 270 05:30 13.07.2020
60 Mist 24 1005 100 2000 2.23 305 02:45 13.07.2020
61 Mist 24 1004 100 2000 1 210 01:42 13.07.2020
62 Mist 24 1004 100 2000 1 210 01:21 13.07.2020
63 Rain 27 1001 79 0 2.58 284 00:40 13.07.2020
64 Mist 25 1004 94 2000 2.1 230 00:20 13.07.2020
65 Mist 25 1004 94 2000 2.1 230 23:41 12.07.2020
66 Mist 25 1004 94 2000 2.1 230 23:23 12.07.2020
67 Rain 25 1004 100 2000 1 200 22:56 12.07.2020
68 Rain 25 1004 100 2000 1 200 22:37 12.07.2020
69 Rain 25 1004 100 2000 1 200 22:18 12.07.2020
70 Rain 25 1005 100 2000 1.5 210 21:55 12.07.2020
71 Rain 25 1005 100 2000 1.5 210 21:55 12.07.2020
72 Rain 25 1005 100 2000 1.5 210 21:37 12.07.2020
73 Rain 25 1005 100 2000 1.5 210 21:19 12.07.2020
74 Thunderstorm 25 1005 100 2000 1.5 240 20:42 12.07.2020
75 Thunderstorm 25 1005 100 2000 1.5 240 20:20 12.07.2020
76 Thunderstorm 25 1006 100 2000 1 230 19:59 12.07.2020
77 Thunderstorm 25 1006 100 1500 2.6 200 19:39 12.07.2020
78 Thunderstorm 25 1005 94 1000 2.6 260 19:20 12.07.2020
79 Haze 28 1004 78 4000 3.6 190 18:44 12.07.2020
80 Haze 28 1004 78 4000 3.6 190 18:21 12.07.2020
81 Haze 28 1004 78 4000 3.6 190 17:59 12.07.2020
82 Haze 29 1004 79 4000 1.5 180 17:38 12.07.2020
83 Haze 29 1004 79 4000 1.5 180 17:20 12.07.2020
84 Haze 30 1003 70 4000 0.85 277 16:47 12.07.2020
85 Haze 31 1003 66 4000 0.89 308 16:22 12.07.2020
86 Haze 31 1003 66 4000 0.89 308 15:50 12.07.2020
87 Haze 31 1002 70 4000 1 210 15:30 12.07.2020
88 Haze 32 1002 62 5000 1 230 14:58 12.07.2020
89 Haze 32 1002 62 5000 1.5 240 14:39 12.07.2020
90 Haze 32 1002 62 5000 1.5 240 14:39 12.07.2020
91 Haze 32 1002 62 5000 1.5 240 14:19 12.07.2020
92 Haze 33 1002 59 5000 2.1 250 13:40 12.07.2020
93 Haze 33 1002 59 5000 2.1 250 13:21 12.07.2020
94 Haze 33 1002 59 5000 1.5 290 12:56 12.07.2020
95 Haze 34 1003 52 5000 1.5 320 12:38 12.07.2020
96 Haze 34 1003 52 5000 1.5 320 12:18 12.07.2020
97 Haze 34 1003 52 5000 4.6 260 11:44 12.07.2020
98 Haze 34 1003 52 5000 4.6 260 11:20 12.07.2020
99 Haze 32 1004 62 5000 1.5 300 10:44 12.07.2020
100 Haze 32 1004 62 5000 1.5 300 10:23 12.07.2020
101 Haze 32 1004 62 5000 1.5 300 09:58 12.07.2020
102 Haze 32 1005 59 5000 1 310 09:40 12.07.2020
103 Haze 32 1005 59 5000 1 310 09:20 12.07.2020
104 Haze 31 1006 66 5000 3.1 260 08:43 12.07.2020
105 Haze 31 1006 66 5000 3.1 260 08:24 12.07.2020
106 Haze 31 1006 66 5000 3.1 260 07:58 12.07.2020
107 Haze 31 1006 66 5000 2.1 330 07:40 12.07.2020
108 Haze 31 1006 66 5000 2.1 330 07:21 12.07.2020
109 Haze 30 1006 70 4000 4.1 270 06:49 12.07.2020
110 Haze 30 1006 70 4000 5.1 270 06:21 12.07.2020
111 Haze 28 1006 83 3000 3.1 270 05:23 12.07.2020
112 Haze 27 1005 83 3000 3.1 260 04:44 12.07.2020
113 Haze 27 1005 88 3000 2.6 210 04:24 12.07.2020
114 Haze 26 1003 94 3000 1 200 03:34 12.07.2020
115 Haze 26 1003 94 3000 1 200 02:47 12.07.2020
116 Haze 26 1003 94 3000 1 200 02:47 12.07.2020
117 Haze 26 1003 94 3000 1 200 01:44 12.07.2020
118 Haze 26 1004 94 3000 1 200 00:44 12.07.2020
119 Haze 26 1004 94 3000 1 200 00:23 12.07.2020
120 Haze 26 1003 94 3000 2.1 200 23:56 11.07.2020
121 Haze 26 1003 94 3000 2.1 200 23:38 11.07.2020
122 Haze 26 1003 94 3000 2.1 200 23:19 11.07.2020
123 Haze 26 1004 88 3000 1 200 22:45 11.07.2020
124 Haze 26 1004 88 3000 1 200 22:26 11.07.2020
125 Clouds 28 1002 72 0 3.04 240 21:59 11.07.2020
126 Clouds 28 1002 72 0 3.04 240 21:40 11.07.2020
127 Haze 27 1005 88 3000 1.5 200 21:21 11.07.2020
128 Haze 27 1005 88 3000 1.5 200 20:56 11.07.2020
129 Haze 27 1005 88 3000 1.5 200 20:38 11.07.2020
130 Haze 27 1005 88 3000 1.5 200 20:19 11.07.2020
131 Haze 28 1005 83 3000 1.5 210 19:56 11.07.2020
132 Haze 28 1005 83 3000 1.5 210 19:38 11.07.2020
133 Haze 28 1005 83 3000 2.1 200 19:19 11.07.2020
134 Haze 28 1005 83 3000 2.1 200 18:54 11.07.2020
135 Haze 28 1004 78 3000 1 200 18:36 11.07.2020
136 Haze 28 1004 78 3000 1 200 18:36 11.07.2020
137 Haze 28 1004 78 3000 1 200 18:18 11.07.2020
138 Haze 29 1004 74 3000 3.07 242 17:40 11.07.2020
139 Haze 29 1004 74 3000 2.95 250 17:21 11.07.2020
140 Haze 29 1003 74 3000 1 210 16:58 11.07.2020
141 Haze 29 1003 79 4000 1 210 16:38 11.07.2020
142 Haze 29 1003 79 4000 1 210 16:19 11.07.2020
143 Haze 31 1003 66 4000 2.1 240 15:42 11.07.2020
144 Haze 31 1003 66 4000 2.1 240 15:21 11.07.2020
145 Haze 31 1002 66 4000 2.6 250 14:59 11.07.2020
146 Haze 32 1002 62 4000 2.1 300 14:40 11.07.2020
147 Haze 32 1002 62 4000 2.1 300 14:22 11.07.2020
148 Haze 32 1002 62 4000 3.1 260 13:44 11.07.2020
149 Haze 32 1002 62 4000 3.1 260 13:23 11.07.2020
150 Haze 32 1003 62 4000 3.1 260 12:59 11.07.2020
151 Haze 32 1003 62 4000 3.6 260 12:41 11.07.2020
152 Haze 32 1003 62 4000 3.6 260 12:22 11.07.2020
153 Haze 32 1003 62 4000 3.1 260 11:57 11.07.2020
154 Haze 31 1003 74 4000 1.5 180 11:39 11.07.2020
155 Haze 31 1003 74 4000 1.5 180 11:19 11.07.2020
156 Haze 31 1004 66 4000 3.1 230 10:44 11.07.2020
157 Haze 31 1004 70 5000 4.6 260 10:25 11.07.2020
158 Haze 31 1004 66 4000 3.6 280 09:45 11.07.2020
159 Haze 31 1005 62 4000 4.6 280 09:21 11.07.2020
160 Haze 31 1005 66 3000 3.6 280 08:59 11.07.2020
161 Haze 30 1006 74 3000 2.1 310 08:37 11.07.2020
162 Haze 30 1006 74 3000 2.1 310 08:18 11.07.2020
163 Haze 30 1006 74 3000 4.6 250 07:41 11.07.2020
164 Haze 28 1006 78 3000 4.1 280 07:20 11.07.2020
165 Haze 28 1006 78 3000 4.1 280 06:55 11.07.2020
166 Haze 28 1006 83 3000 2.6 260 06:22 11.07.2020
167 Haze 27 1006 88 3000 1 210 05:22 11.07.2020
168 Haze 26 1005 94 3000 1.5 200 04:55 11.07.2020
169 Haze 26 1005 94 3000 1.5 200 04:32 11.07.2020
170 Haze 25 1004 100 3000 1 230 02:59 11.07.2020
171 Haze 25 1004 100 3000 1 230 02:37 11.07.2020
172 Haze 25 1003 100 3000 1.5 210 01:32 11.07.2020
173 Haze 25 1003 100 3000 3.1 210 00:59 11.07.2020
174 Haze 25 1003 100 3000 3.1 210 00:40 11.07.2020
175 Haze 25 1003 100 3000 3.1 210 00:21 11.07.2020
176 Haze 25 1003 94 3000 2.6 210 23:57 10.07.2020
177 Haze 25 1003 94 3000 2.6 210 23:39 10.07.2020
178 Haze 25 1003 94 3000 2.6 210 23:18 10.07.2020
179 Rain 25 1004 94 3000 2.6 210 22:43 10.07.2020
180 Rain 25 1004 94 3000 2.6 210 22:20 10.07.2020
181 Rain 25 1004 94 3000 2.6 210 21:55 10.07.2020
182 Haze 25 1005 94 3000 2.1 210 21:36 10.07.2020
183 Haze 25 1005 94 3000 2.1 210 21:18 10.07.2020
184 Haze 25 1005 94 3000 2.1 210 21:18 10.07.2020
185 Haze 25 1005 94 3000 2.6 200 20:41 10.07.2020
186 Haze 25 1005 94 3000 2.6 200 20:22 10.07.2020
187 Haze 25 1005 100 3000 1 180 19:57 10.07.2020
188 Haze 25 1005 100 3000 1 180 19:39 10.07.2020
189 Haze 25 1005 100 3000 1 160 19:20 10.07.2020
190 Haze 25 1005 94 3000 3.52 218 18:41 10.07.2020
191 Haze 25 1005 94 3000 3.12 224 18:20 10.07.2020
192 Haze 26 1004 88 3000 3.12 224 17:58 10.07.2020
193 Haze 26 1004 88 3000 1 260 17:39 10.07.2020
194 Haze 26 1004 88 3000 1 260 17:20 10.07.2020
195 Haze 26 1003 88 3000 3.6 210 16:43 10.07.2020
196 Haze 26 1003 88 3000 3.6 210 16:21 10.07.2020
197 Haze 26 1003 88 3000 3.6 210 15:48 10.07.2020
198 Haze 27 1003 78 3000 4.1 220 15:26 10.07.2020
199 Thunderstorm 27 1003 83 3000 3.6 240 14:59 10.07.2020
200 Thunderstorm 27 1003 83 3000 3.6 240 14:40 10.07.2020
201 Thunderstorm 27 1003 83 3000 3.6 240 14:20 10.07.2020
202 Thunderstorm 27 1003 83 3000 3.6 240 14:20 10.07.2020
203 Thunderstorm 27 1003 78 3000 3.6 220 13:57 10.07.2020
204 Haze 27 1002 78 2000 4.1 200 13:38 10.07.2020
205 Thunderstorm 28 1003 74 2000 1 180 13:20 10.07.2020
206 Thunderstorm 28 1003 74 2000 1 180 12:56 10.07.2020
207 Thunderstorm 28 1003 83 1000 4.1 200 12:37 10.07.2020
208 Thunderstorm 28 1003 83 1000 4.1 200 12:19 10.07.2020
209 Haze 29 1003 79 3000 4.6 160 11:41 10.07.2020
210 Haze 31 1003 66 4000 3.1 210 11:20 10.07.2020
211 Haze 32 1004 62 4000 3.1 240 10:56 10.07.2020
212 Haze 31 1004 70 5000 1.5 320 10:38 10.07.2020
213 Haze 31 1004 70 5000 1.5 320 10:18 10.07.2020
214 Haze 31 1005 62 5000 2.1 240 09:40 10.07.2020
215 Haze 31 1005 62 5000 2.1 240 09:22 10.07.2020
216 Haze 31 1006 66 4000 2.1 330 08:58 10.07.2020
217 Haze 30 1006 74 4000 3.1 280 08:40 10.07.2020
218 Haze 30 1006 74 4000 3.1 280 08:21 10.07.2020
219 Haze 29 1006 79 4000 2.1 230 07:44 10.07.2020
220 Haze 29 1006 79 4000 2.1 230 07:23 10.07.2020
221 Haze 27 1006 88 4000 2.6 260 06:52 10.07.2020
222 Haze 27 1006 88 4000 2.6 260 06:27 10.07.2020
223 Haze 27 1005 88 4000 2.6 260 05:19 10.07.2020
224 Rain 29 1003 73 0 4.57 299 03:42 10.07.2020
225 Haze 25 1003 100 3000 3.46 283 02:53 10.07.2020
226 Rain 27 1002 79 0 3.78 272 01:53 10.07.2020
227 Haze 25 1003 94 3000 2.1 210 00:49 10.07.2020
228 Haze 25 1003 94 3000 2.1 210 00:21 10.07.2020
229 Haze 25 1003 100 3000 2.1 210 23:55 09.07.2020
230 Haze 25 1003 100 3000 2.1 210 23:36 09.07.2020
231 Haze 25 1003 100 3000 2.1 210 23:18 09.07.2020
232 Haze 25 1003 100 3000 1.5 230 22:41 09.07.2020
233 Haze 25 1003 100 3000 1.5 230 22:21 09.07.2020
234 Haze 25 1003 100 3000 1.5 190 21:59 09.07.2020
235 Haze 25 1003 100 3000 1.5 190 21:39 09.07.2020
236 Haze 25 1003 100 3000 1.5 190 21:19 09.07.2020
237 Haze 26 1004 94 3000 2.6 230 20:58 09.07.2020
238 Haze 26 1004 94 3000 2.6 230 20:39 09.07.2020
239 Haze 26 1004 94 3000 2.6 230 20:21 09.07.2020
240 Haze 26 1004 94 4000 1 230 19:42 09.07.2020
241 Haze 26 1004 94 4000 1 230 19:21 09.07.2020
242 Haze 26 1004 94 4000 1 230 18:43 09.07.2020
243 Haze 26 1004 94 4000 1 230 18:25 09.07.2020
244 Haze 27 1004 88 4000 1 200 17:56 09.07.2020
245 Haze 27 1004 88 4000 1 210 17:38 09.07.2020
246 Haze 27 1004 88 4000 1 210 17:20 09.07.2020
247 Haze 27 1004 88 4000 3.6 210 16:56 09.07.2020
248 Haze 27 1004 88 4000 3.6 210 16:56 09.07.2020
249 Haze 27 1003 83 4000 2.1 190 16:38 09.07.2020
250 Haze 27 1003 83 4000 2.1 190 16:19 09.07.2020
251 Haze 27 1003 83 4000 2.1 190 15:55 09.07.2020
252 Haze 27 1003 83 4000 2.1 190 15:36 09.07.2020
253 Haze 27 1003 83 4000 2.1 240 15:18 09.07.2020
254 Haze 27 1003 83 4000 2.1 240 14:57 09.07.2020
255 Haze 27 1002 83 4000 3.1 220 14:39 09.07.2020
256 Haze 27 1002 83 4000 3.1 220 14:19 09.07.2020
257 Haze 28 1002 83 4000 2.6 190 13:55 09.07.2020
258 Haze 29 1002 79 4000 2.1 300 13:36 09.07.2020
259 Haze 29 1002 79 4000 2.1 300 13:18 09.07.2020
260 Rain 33 999 54 0 4.5 257 12:40 09.07.2020
261 Haze 31 1003 66 5000 2.6 250 12:21 09.07.2020
262 Haze 31 1003 66 5000 2.6 250 11:56 09.07.2020
263 Haze 31 1003 66 5000 2.6 250 11:37 09.07.2020
264 Haze 31 1003 66 5000 2.6 250 11:18 09.07.2020
265 Haze 31 1003 70 5000 2.6 260 10:55 09.07.2020
266 Haze 31 1004 74 5000 4.6 250 10:37 09.07.2020
267 Haze 31 1004 74 5000 4.6 250 10:18 09.07.2020
268 Haze 30 1004 74 5000 3.6 250 09:41 09.07.2020
269 Haze 30 1004 74 5000 3.6 250 09:22 09.07.2020
270 Haze 30 1004 74 5000 4.1 230 08:45 09.07.2020
271 Haze 29 1005 79 5000 2.6 230 08:25 09.07.2020
272 Haze 29 1006 74 5000 2.6 230 07:47 09.07.2020
273 Haze 29 1006 74 5000 2.6 230 07:25 09.07.2020
274 Haze 29 1006 70 5000 4.6 250 06:54 09.07.2020
275 Haze 29 1006 74 5000 2.6 250 06:20 09.07.2020
276 Haze 27 1005 83 5000 2.1 240 05:26 09.07.2020
277 Haze 26 1004 83 5000 1.5 250 04:28 09.07.2020
278 Haze 25 1004 88 2000 5.1 280 02:33 09.07.2020
279 Thunderstorm 26 1004 83 2000 4.6 290 01:39 09.07.2020
280 Thunderstorm 26 1004 83 2000 4.6 290 00:53 09.07.2020
281 Haze 26 1004 83 2000 5.1 260 00:25 09.07.2020
282 Haze 27 1005 88 3000 1.54 207 23:47 08.07.2020
283 Haze 27 1005 94 3000 2.36 196 23:28 08.07.2020
284 Haze 27 1005 94 3000 2.36 196 22:58 08.07.2020
285 Rain 27 1003 80 0 2.36 196 22:40 08.07.2020
286 Haze 28 1005 83 3000 2.96 187 22:22 08.07.2020
287 Haze 28 1005 83 3000 2.96 187 21:58 08.07.2020
288 Haze 28 1005 83 3000 2.96 187 21:39 08.07.2020
289 Haze 28 1005 83 3000 3.15 206 21:20 08.07.2020
290 Haze 28 1006 83 3000 3.15 206 20:54 08.07.2020
291 Haze 28 1006 83 3000 3.15 206 20:54 08.07.2020
292 Haze 28 1006 83 3000 3.15 206 20:36 08.07.2020
293 Haze 28 1006 83 3000 3.64 200 20:18 08.07.2020
294 Haze 28 1006 88 3000 3.64 200 19:42 08.07.2020
295 Haze 28 1006 88 3000 3.48 201 19:22 08.07.2020
296 Haze 28 1006 83 3000 3.48 201 18:57 08.07.2020
297 Haze 28 1006 88 4000 3.48 201 18:39 08.07.2020
298 Haze 28 1006 88 4000 3.15 208 18:19 08.07.2020
299 Haze 29 1005 79 4000 1 260 17:55 08.07.2020
300 Haze 29 1005 79 4000 1 260 17:37 08.07.2020
301 Haze 29 1005 79 4000 1 260 17:18 08.07.2020
302 Haze 29 1005 74 4000 1.5 200 16:39 08.07.2020
303 Haze 29 1005 74 4000 1.5 200 16:20 08.07.2020
304 Haze 30 1004 74 4000 2.6 190 15:58 08.07.2020
305 Haze 31 1003 66 4000 1.5 170 15:39 08.07.2020
306 Haze 31 1003 66 4000 1.5 170 15:19 08.07.2020
307 Haze 31 1003 66 4000 1.5 160 14:46 08.07.2020
308 Haze 31 1003 66 4000 1.5 180 14:28 08.07.2020
309 Haze 32 1003 59 4000 1.5 220 13:58 08.07.2020
310 Haze 33 1003 55 5000 1.5 210 13:40 08.07.2020
311 Haze 33 1003 55 5000 1.5 210 13:20 08.07.2020
312 Clouds 32 1004 62 6000 2.1 200 12:43 08.07.2020
313 Clouds 32 1004 62 6000 2.1 200 12:21 08.07.2020
314 Clouds 32 1004 62 6000 2.6 190 11:56 08.07.2020
315 Clouds 32 1005 62 6000 3.6 180 11:38 08.07.2020
316 Clouds 32 1005 62 6000 3.6 180 11:20 08.07.2020
317 Clouds 32 1005 62 6000 2.6 200 10:44 08.07.2020
318 Clouds 31 1005 66 6000 2.1 210 10:25 08.07.2020
319 Clouds 31 1006 70 6000 2.1 210 09:46 08.07.2020
320 Clouds 30 1006 74 6000 2.1 180 09:25 08.07.2020
321 Clouds 30 1006 70 6000 2.1 180 08:57 08.07.2020
322 Clouds 30 1006 70 6000 1 210 08:38 08.07.2020
323 Clouds 30 1006 70 6000 1 210 08:19 08.07.2020
324 Clouds 29 1007 70 6000 2.6 250 07:43 08.07.2020
325 Clouds 29 1007 70 6000 2.6 250 07:22 08.07.2020
326 Haze 29 1007 70 5000 1.5 220 06:46 08.07.2020
327 Haze 28 1007 74 5000 1.5 220 06:27 08.07.2020
328 Haze 27 1007 78 5000 2.1 220 05:48 08.07.2020
329 Haze 26 1007 78 5000 1.5 200 04:50 08.07.2020
330 Haze 24 1006 94 3000 3.33 257 03:39 08.07.2020
331 Haze 24 1005 94 3000 1 180 02:19 08.07.2020
332 Haze 24 1005 94 3000 2.31 242 01:38 08.07.2020
333 Haze 24 1005 88 3000 1 230 00:51 08.07.2020
334 Haze 24 1005 88 3000 1 230 00:20 08.07.2020
335 Haze 24 1005 88 3000 2.1 200 23:43 07.07.2020
336 Haze 24 1005 88 3000 2.1 200 23:22 07.07.2020
337 Haze 25 1005 83 3000 1 230 22:56 07.07.2020
338 Haze 25 1005 83 3000 1 230 22:38 07.07.2020
339 Haze 25 1005 83 3000 1 230 22:19 07.07.2020
340 Haze 26 1006 83 3000 2.6 240 21:42 07.07.2020
341 Haze 26 1006 83 3000 2.6 240 21:42 07.07.2020
342 Haze 26 1006 83 3000 2.6 240 21:22 07.07.2020
343 Haze 27 1006 78 3000 2.6 180 20:59 07.07.2020
344 Rain 27 1003 79 0 3.64 222 20:41 07.07.2020
345 Haze 28 1006 83 3000 2.1 180 20:23 07.07.2020
346 Haze 28 1006 83 3000 2.1 180 19:56 07.07.2020
347 Haze 28 1006 83 3000 2.1 180 19:37 07.07.2020
348 Haze 28 1005 83 3000 1 190 19:19 07.07.2020
349 Haze 28 1005 83 3000 1 190 18:55 07.07.2020
350 Haze 28 1005 83 3000 2.1 180 18:37 07.07.2020
351 Haze 28 1005 83 3000 2.1 180 18:18 07.07.2020
352 Haze 29 1005 79 3000 2.1 190 17:44 07.07.2020
353 Haze 29 1005 79 3000 2.1 190 17:23 07.07.2020
354 Haze 29 1004 79 3000 1 170 16:59 07.07.2020
355 Haze 29 1004 79 3000 1 170 16:59 07.07.2020
356 Haze 29 1004 79 4000 1 170 16:40 07.07.2020
357 Haze 29 1004 79 4000 1 170 16:21 07.07.2020
358 Haze 30 1003 74 4000 2.1 190 15:55 07.07.2020
359 Haze 30 1003 74 4000 1.5 180 15:36 07.07.2020
360 Haze 30 1003 74 4000 1.5 180 15:18 07.07.2020
361 Haze 31 1002 66 4000 1.5 190 14:42 07.07.2020
362 Haze 31 1002 66 4000 1.5 190 14:23 07.07.2020
363 Haze 31 1002 66 4000 2.6 200 13:43 07.07.2020
364 Haze 31 1002 66 4000 2.6 200 13:20 07.07.2020
365 Haze 31 1002 70 4000 3.1 180 12:56 07.07.2020
366 Haze 32 1003 66 4000 2.6 180 12:36 07.07.2020
367 Haze 32 1003 66 4000 2.6 180 12:36 07.07.2020
368 Haze 32 1003 66 4000 2.6 180 12:36 07.07.2020
369 Haze 32 1002 66 4000 2.1 220 12:18 07.07.2020
370 Haze 31 1003 70 4000 2.6 190 11:42 07.07.2020
371 Haze 31 1003 70 4000 2.6 190 11:21 07.07.2020
372 Haze 31 1004 66 4000 3.1 180 10:58 07.07.2020
373 Haze 31 1004 66 4000 3.1 180 10:39 07.07.2020
374 Haze 31 1004 66 4000 3.1 180 10:20 07.07.2020
375 Haze 30 1004 70 4000 3.6 210 09:42 07.07.2020
376 Haze 30 1004 70 4000 3.6 210 09:21 07.07.2020
377 Haze 29 1004 79 4000 2.1 180 08:43 07.07.2020
378 Haze 29 1004 79 4000 2.1 180 08:25 07.07.2020
379 Haze 29 1004 79 4000 3.1 180 07:58 07.07.2020
380 Haze 29 1004 79 4000 3.1 180 07:37 07.07.2020
381 Haze 29 1004 79 4000 3.1 180 07:19 07.07.2020
382 Haze 28 1004 78 4000 2.6 220 06:40 07.07.2020
383 Haze 28 1004 78 4000 2.6 220 06:22 07.07.2020
384 Haze 27 1003 94 3000 2.6 180 05:28 07.07.2020
385 Haze 27 1003 94 3000 2.44 169 04:44 07.07.2020
386 Mist 25 1002 100 2000 1.79 157 03:42 07.07.2020
387 Mist 25 1002 100 2000 1.5 165 02:57 07.07.2020
388 Mist 25 1001 100 3000 1.92 176 01:34 07.07.2020
389 Rain 25 1001 89 0 1.23 171 00:58 07.07.2020
390 Mist 25 1002 100 3000 1.23 171 00:39 07.07.2020
391 Mist 25 1002 100 3000 0.92 187 00:19 07.07.2020
392 Mist 25 1002 100 3000 0.92 187 23:42 06.07.2020
393 Mist 25 1002 100 3000 1.64 221 23:24 06.07.2020
394 Mist 25 1002 100 3000 1.64 221 22:56 06.07.2020
395 Mist 25 1002 100 3000 1.64 221 22:38 06.07.2020
396 Mist 25 1002 100 3000 2.37 209 22:18 06.07.2020
397 Rain 25 1002 88 0 2.37 209 21:56 06.07.2020
398 Mist 25 1003 100 3000 3.41 213 21:36 06.07.2020
399 Mist 25 1003 100 3000 4.2 215 21:18 06.07.2020
400 Mist 25 1003 100 3000 4.2 215 20:40 06.07.2020
401 Mist 25 1003 100 3000 5.29 211 20:20 06.07.2020
402 Mist 25 1003 100 3000 5.29 211 19:58 06.07.2020
403 Mist 25 1003 100 3000 5.29 211 19:40 06.07.2020
404 Mist 25 1003 100 3000 5.57 208 19:21 06.07.2020
405 Mist 25 1003 100 3000 5.57 208 18:57 06.07.2020
406 Mist 25 1003 100 3000 5.57 208 18:57 06.07.2020
407 Mist 26 1002 94 3000 5.57 208 18:39 06.07.2020
408 Mist 26 1002 94 3000 4.49 216 18:21 06.07.2020
409 Mist 26 1002 94 3000 4.49 216 17:46 06.07.2020
410 Rain 26 1002 100 2000 4.11 229 17:28 06.07.2020
411 Rain 25 1001 100 2000 4.11 229 16:59 06.07.2020
412 Rain 25 1001 100 2000 4.11 229 16:41 06.07.2020
413 Rain 25 1001 100 2000 4.6 230 16:21 06.07.2020
414 Rain 25 1001 100 2000 1 230 15:43 06.07.2020
415 Rain 25 1000 100 1500 4.65 232 15:25 06.07.2020
416 Thunderstorm 25 1000 100 1500 4.65 232 14:57 06.07.2020
417 Thunderstorm 25 1000 100 1500 4.65 232 14:38 06.07.2020
418 Thunderstorm 25 1000 100 1500 5.14 237 14:20 06.07.2020
419 Thunderstorm 25 1000 100 1500 1 270 13:55 06.07.2020
420 Thunderstorm 25 1000 94 1500 1.5 320 13:36 06.07.2020
421 Thunderstorm 25 1000 94 1500 1.5 320 13:36 06.07.2020
422 Thunderstorm 25 1000 94 1500 1.5 320 13:18 06.07.2020
423 Haze 28 1000 88 3000 4.1 220 12:42 06.07.2020
424 Haze 28 1000 83 3000 5.1 210 12:19 06.07.2020
425 Haze 28 1000 83 3000 5.1 210 11:57 06.07.2020
426 Haze 27 1000 88 3000 3.1 200 11:38 06.07.2020
427 Haze 27 1000 88 3000 3.1 200 11:19 06.07.2020
428 Haze 26 1001 94 3000 3.1 200 10:43 06.07.2020
429 Haze 26 1001 94 3000 3.1 200 10:22 06.07.2020
430 Haze 26 1001 94 3000 4.6 220 09:59 06.07.2020
431 Haze 25 1002 100 3000 2.6 210 09:41 06.07.2020
432 Haze 25 1002 100 3000 2.6 210 09:21 06.07.2020
433 Rain 25 1002 100 2500 3.1 210 08:55 06.07.2020
434 Rain 25 1002 100 1800 2.6 210 08:37 06.07.2020
435 Rain 25 1002 100 1800 2.6 210 08:19 06.07.2020
436 Rain 25 1002 100 1800 2.6 210 08:19 06.07.2020
437 Rain 25 1002 100 1800 2.1 230 07:43 06.07.2020
438 Rain 25 1002 100 1800 2.1 230 07:23 06.07.2020
439 Haze 26 1002 94 4000 2.6 250 06:40 06.07.2020
440 Haze 26 1002 94 4000 2.6 250 06:21 06.07.2020
441 Rain 25 1001 100 2000 2.1 240 05:38 06.07.2020
442 Rain 25 1001 94 2000 4.1 250 04:54 06.07.2020
443 Rain 26 1000 85 0 4 271 03:40 06.07.2020
444 Drizzle 24 1000 100 2500 2.1 250 02:22 06.07.2020
445 Drizzle 24 1000 100 2500 3.1 250 01:28 06.07.2020
446 Drizzle 24 999 100 2500 2.1 230 00:36 06.07.2020
447 Drizzle 24 999 100 2500 2.1 230 00:18 06.07.2020
448 Drizzle 25 1000 100 2500 3.1 260 23:41 05.07.2020
449 Drizzle 25 1000 100 2500 3.1 260 23:23 05.07.2020
450 Rain 25 1000 100 2000 2.1 250 22:59 05.07.2020
451 Rain 25 1000 100 2000 2.1 250 22:39 05.07.2020
452 Rain 25 1000 100 2000 2.1 250 22:19 05.07.2020
453 Rain 25 1001 100 2000 6.1 265 21:57 05.07.2020
454 Rain 25 1001 100 2000 6.1 265 21:38 05.07.2020
455 Rain 25 1001 100 2000 5.93 249 21:18 05.07.2020
456 Rain 25 1001 100 2500 5.93 249 20:56 05.07.2020
457 Rain 25 1001 100 2500 5.93 249 20:38 05.07.2020
458 Rain 25 1001 100 2500 6.26 251 20:19 05.07.2020
459 Rain 25 1001 100 2500 6.26 251 19:42 05.07.2020
460 Rain 25 1001 100 2500 6.7 243 19:21 05.07.2020
461 Rain 25 1001 100 2500 6.7 243 18:55 05.07.2020
462 Rain 25 1001 100 2500 6.7 243 18:37 05.07.2020
463 Rain 25 1001 100 2500 6.73 233 18:18 05.07.2020
464 Rain 25 1000 100 2500 6.73 233 17:42 05.07.2020
465 Rain 25 1000 100 2500 6.48 223 17:19 05.07.2020
466 Rain 25 999 100 2500 0.5 350 16:58 05.07.2020
467 Rain 25 999 100 2500 0.5 350 16:40 05.07.2020
468 Rain 25 999 100 2500 0.5 350 16:21 05.07.2020
469 Rain 25 998 100 2500 3.6 340 15:40 05.07.2020
470 Rain 25 998 100 2500 3.6 340 15:20 05.07.2020
471 Rain 25 998 100 2500 3.6 340 15:20 05.07.2020
472 Rain 25 998 100 2500 3.6 340 14:55 05.07.2020
473 Rain 25 998 100 3000 4.1 340 14:36 05.07.2020
474 Rain 25 998 100 3000 4.1 340 14:18 05.07.2020
475 Thunderstorm 26 998 88 3000 4.6 350 13:40 05.07.2020
476 Thunderstorm 26 998 88 3000 4.6 350 13:22 05.07.2020
477 Rain 29 998 79 3000 3.6 250 12:45 05.07.2020
478 Rain 29 998 79 3000 3.6 250 12:21 05.07.2020
479 Haze 30 998 79 4000 5.1 210 11:56 05.07.2020
480 Haze 30 998 79 4000 5.1 210 11:38 05.07.2020
481 Haze 30 998 79 4000 5.1 210 11:18 05.07.2020
482 Haze 29 999 83 4000 1.5 200 10:55 05.07.2020
483 Haze 30 1000 74 5000 3.6 200 10:36 05.07.2020
484 Haze 30 1000 74 5000 3.6 200 10:18 05.07.2020
485 Haze 30 1000 79 5000 2.6 210 09:41 05.07.2020
486 Haze 30 1000 79 5000 2.6 210 09:20 05.07.2020
487 Haze 29 1001 79 5000 1 290 08:56 05.07.2020
488 Haze 29 1001 79 5000 1 290 08:37 05.07.2020
489 Haze 29 1001 79 5000 4.59 205 07:59 05.07.2020
490 Haze 29 1002 79 5000 1 330 07:33 05.07.2020
491 Haze 28 1002 83 4000 2.6 260 06:58 05.07.2020
492 Haze 27 1002 88 4000 3.1 280 06:29 05.07.2020
493 Mist 25 1000 100 3000 1.5 240 03:57 05.07.2020
494 Mist 24 1000 100 3000 3.61 201 02:59 05.07.2020
495 Mist 24 1000 100 3000 2.73 238 02:36 05.07.2020
496 Rain 27 999 78 0 2.82 233 01:44 05.07.2020
497 Mist 24 1000 100 2000 1.5 200 01:26 05.07.2020
498 Mist 24 1000 100 2000 1.5 200 00:50 05.07.2020
499 Mist 24 1000 100 2000 1.5 200 00:28 05.07.2020
500 Rain 27 998 78 0 4.29 200 23:55 04.07.2020
501 Haze 25 1001 94 2000 4.29 200 23:32 04.07.2020
502 Haze 25 1001 94 2000 4.61 188 22:59 04.07.2020
503 Haze 25 1001 94 2000 4.61 188 22:40 04.07.2020
504 Haze 25 1001 94 2000 5.07 185 22:22 04.07.2020
505 Haze 25 1001 94 2000 1 240 21:58 04.07.2020
506 Rain 25 1001 94 2000 1.5 220 21:39 04.07.2020
507 Rain 25 1001 94 2000 1.5 220 21:20 04.07.2020
508 Rain 25 1002 94 2000 2.6 240 20:42 04.07.2020
509 Rain 25 1002 94 2000 2.6 240 20:21 04.07.2020
510 Rain 25 1002 94 2000 3.1 260 19:56 04.07.2020
511 Rain 25 1002 100 2000 3.1 260 19:37 04.07.2020
512 Rain 25 1002 100 2000 3.1 210 19:19 04.07.2020
513 Rain 25 1001 100 2000 1.5 220 18:43 04.07.2020
514 Rain 25 1000 100 2000 1.5 240 18:22 04.07.2020
515 Rain 25 1000 100 2000 2.1 240 17:45 04.07.2020
516 Rain 25 1000 100 2000 2.1 240 17:26 04.07.2020
517 Rain 25 1000 100 2000 2.1 240 17:26 04.07.2020
518 Thunderstorm 25 999 100 1500 1.5 290 16:59 04.07.2020
519 Thunderstorm 24 1000 100 1500 4.1 300 16:39 04.07.2020
520 Thunderstorm 24 1000 100 1500 4.1 300 16:21 04.07.2020
521 Thunderstorm 25 1000 94 1500 5.1 300 15:57 04.07.2020
522 Thunderstorm 27 999 94 3000 1 180 15:38 04.07.2020
523 Thunderstorm 27 999 94 3000 1 180 15:20 04.07.2020
524 Thunderstorm 27 998 94 3000 1 180 14:55 04.07.2020
525 Thunderstorm 27 998 94 3000 1 180 14:55 04.07.2020
526 Thunderstorm 27 998 94 3000 1 180 14:55 04.07.2020
527 Rain 27 998 94 3000 1.5 170 14:36 04.07.2020
528 Rain 27 998 94 3000 1.5 170 14:36 04.07.2020
529 Rain 27 998 94 3000 1.5 170 14:18 04.07.2020
530 Rain 27 998 94 3000 1.5 170 14:18 04.07.2020
531 Rain 29 998 83 4000 2.6 180 13:41 04.07.2020
532 Rain 29 998 83 4000 2.6 180 13:19 04.07.2020
533 Haze 31 998 74 4000 3.6 220 12:43 04.07.2020
534 Haze 31 998 74 4000 3.6 220 12:23 04.07.2020
535 Haze 31 999 74 4000 2.6 240 11:59 04.07.2020
536 Haze 31 999 74 4000 3.1 210 11:40 04.07.2020
537 Haze 31 999 74 4000 3.1 210 11:21 04.07.2020
538 Haze 31 1000 70 4000 5.44 198 10:42 04.07.2020
539 Haze 31 1000 70 4000 5.05 196 10:22 04.07.2020
540 Haze 31 1001 70 4000 1 300 09:59 04.07.2020
541 Haze 31 1001 70 4000 1 360 09:40 04.07.2020
542 Haze 31 1001 70 4000 1 360 09:20 04.07.2020
543 Haze 30 1002 74 4000 1 230 08:50 04.07.2020
544 Haze 30 1002 74 3000 1 230 08:32 04.07.2020
545 Haze 29 1002 83 3000 1.5 240 07:54 04.07.2020
546 Haze 29 1002 83 3000 1.5 240 07:35 04.07.2020
547 Haze 28 1002 83 3000 1.5 260 06:56 04.07.2020
548 Haze 27 1003 88 2000 1 240 06:23 04.07.2020
549 Mist 27 1002 88 1500 2.66 229 05:40 04.07.2020
550 Mist 26 1002 100 1500 1 220 04:55 04.07.2020
551 Mist 25 1000 100 2000 2.1 240 03:19 04.07.2020
552 Mist 25 1000 100 2000 1.5 220 02:27 04.07.2020
553 Mist 25 1000 100 3000 2.6 200 01:37 04.07.2020
554 Mist 25 1001 100 3000 1 210 00:45 04.07.2020
555 Mist 25 1001 100 3000 1 210 00:26 04.07.2020
556 Haze 25 1001 100 3000 1 210 23:41 03.07.2020
557 Haze 25 1001 100 3000 1 210 23:19 03.07.2020
558 Haze 25 1001 100 3000 1 200 22:59 03.07.2020
559 Haze 25 1001 100 3000 1 200 22:39 03.07.2020
560 Haze 25 1001 100 3000 1 200 22:21 03.07.2020
561 Haze 26 1002 94 3000 1 200 21:43 03.07.2020
562 Haze 26 1002 94 3000 1 200 21:20 03.07.2020
563 Haze 26 1002 94 3000 1 200 20:58 03.07.2020
564 Haze 26 1002 94 3000 1 200 20:39 03.07.2020
565 Haze 26 1002 94 3000 1 200 20:21 03.07.2020
566 Haze 26 1002 94 3000 2.1 220 19:42 03.07.2020
567 Haze 26 1002 94 3000 2.1 220 19:21 03.07.2020
568 Haze 26 1002 94 3000 2.1 220 18:57 03.07.2020
569 Haze 26 1002 94 3000 1 200 18:39 03.07.2020
570 Haze 26 1003 94 3000 1.5 220 18:20 03.07.2020
571 Haze 26 1002 94 3000 1.5 240 17:44 03.07.2020
572 Haze 26 1002 94 3000 1.5 240 17:22 03.07.2020
573 Haze 27 1002 88 3000 3.1 240 16:47 03.07.2020
574 Haze 27 1002 88 3000 3.6 240 16:29 03.07.2020
575 Haze 27 1001 88 3000 4.1 210 15:57 03.07.2020
576 Haze 28 1000 88 3000 2.1 300 15:38 03.07.2020
577 Haze 28 1000 88 3000 2.1 300 15:20 03.07.2020
578 Haze 29 999 74 3000 1 280 14:41 03.07.2020
579 Haze 29 999 74 3000 1 280 14:22 03.07.2020
580 Haze 29 999 70 3000 3.27 317 13:59 03.07.2020
581 Haze 29 998 70 3000 3.6 10 13:40 03.07.2020
582 Haze 29 998 70 3000 3.6 10 13:21 03.07.2020
583 Haze 29 1000 74 1500 5.1 340 12:40 03.07.2020
584 Thunderstorm 29 1000 74 1500 5.1 340 12:21 03.07.2020
585 Haze 31 1000 74 3000 2.1 300 11:44 03.07.2020
586 Haze 31 1000 74 3000 2.1 300 11:25 03.07.2020
587 Haze 31 1001 74 3000 1 330 10:59 03.07.2020
588 Haze 31 1001 74 3000 1 330 10:59 03.07.2020
589 Haze 31 1002 74 3000 2.6 270 10:40 03.07.2020
590 Haze 31 1002 74 3000 2.6 270 10:21 03.07.2020
591 Haze 30 1002 79 3000 1.5 200 09:57 03.07.2020
592 Rain 28 1002 94 3000 1 180 09:38 03.07.2020
593 Rain 28 1002 94 3000 1 180 09:18 03.07.2020
594 Thunderstorm 27 1003 88 3000 4.53 311 08:40 03.07.2020
595 Thunderstorm 27 1003 88 3000 4.51 312 08:19 03.07.2020
596 Thunderstorm 27 1003 88 3000 1 60 07:50 03.07.2020
597 Thunderstorm 27 1004 88 3000 1 40 07:28 03.07.2020
598 Thunderstorm 28 1004 83 3000 2.6 320 06:58 03.07.2020
599 Thunderstorm 28 1003 83 3000 4.54 307 06:25 03.07.2020
600 Thunderstorm 26 1003 94 3000 3.67 306 04:56 03.07.2020
601 Thunderstorm 26 1002 94 3000 2.04 303 03:45 03.07.2020
602 Haze 25 1001 100 3000 1.71 307 02:49 03.07.2020
603 Haze 25 1001 100 3000 1.8 314 02:29 03.07.2020
604 Haze 25 1001 100 3000 1.5 210 01:29 03.07.2020
605 Haze 25 1001 94 3000 1.5 210 00:56 03.07.2020
606 Haze 25 1001 94 3000 1.5 210 00:36 03.07.2020
607 Haze 25 1001 94 3000 1.5 210 23:49 02.07.2020
608 Haze 25 1001 94 3000 1.5 210 23:21 02.07.2020
609 Haze 25 1002 94 3000 1.5 230 22:58 02.07.2020
610 Haze 25 1002 94 3000 1.5 230 22:40 02.07.2020
611 Haze 25 1002 94 3000 1.5 230 22:20 02.07.2020
612 Haze 25 1002 100 3000 2.1 200 21:56 02.07.2020
613 Haze 25 1002 100 3000 2.1 200 21:38 02.07.2020
614 Haze 25 1002 100 3000 2.1 200 21:18 02.07.2020
615 Haze 25 1003 100 3000 1.57 309 20:57 02.07.2020
616 Haze 25 1003 100 3000 1.57 309 20:39 02.07.2020
617 Haze 25 1003 100 3000 2.19 325 20:18 02.07.2020
618 Haze 25 1003 100 3000 2.6 200 19:41 02.07.2020
619 Haze 25 1003 100 3000 2.6 200 19:22 02.07.2020
620 Haze 25 1003 100 3000 2.6 200 18:57 02.07.2020
621 Haze 25 1003 100 3000 5.1 210 18:39 02.07.2020
622 Haze 25 1003 100 3000 5.1 210 18:21 02.07.2020
623 Haze 26 1003 94 3000 3.6 210 17:41 02.07.2020
624 Haze 26 1003 94 3000 3.6 210 17:20 02.07.2020
625 Haze 26 1002 94 3000 3.6 210 16:58 02.07.2020
626 Haze 26 1002 94 3000 3.16 313 16:40 02.07.2020
627 Haze 26 1002 94 3000 3.39 315 16:20 02.07.2020
628 Haze 26 1001 94 3000 3.39 315 15:55 02.07.2020
629 Haze 26 1000 94 3000 3.39 315 15:36 02.07.2020
630 Haze 26 1000 94 3000 4.07 321 15:18 02.07.2020
631 Haze 25 999 94 3000 4.07 321 14:43 02.07.2020
632 Haze 25 999 94 3000 3.6 321 14:20 02.07.2020
633 Rain 24 999 100 2000 1 270 13:56 02.07.2020
634 Thunderstorm 25 1001 88 1500 1 270 13:36 02.07.2020
635 Thunderstorm 25 1001 88 1500 1 270 13:18 02.07.2020
636 Haze 30 1000 62 3000 5.1 10 12:41 02.07.2020
637 Haze 30 1000 62 3000 5.1 10 12:22 02.07.2020
638 Haze 35 1000 56 4000 5.1 270 11:45 02.07.2020
639 Haze 35 1000 59 5000 3.1 270 11:27 02.07.2020
640 Haze 34 1001 59 5000 1 320 10:58 02.07.2020
641 Haze 34 1002 59 5000 1 280 10:39 02.07.2020
642 Haze 34 1002 59 5000 1 280 10:21 02.07.2020
643 Haze 33 1002 59 5000 2.1 340 09:43 02.07.2020
644 Haze 33 1002 59 5000 2.1 340 09:22 02.07.2020
645 Haze 33 1003 59 5000 2.6 350 08:58 02.07.2020
646 Haze 32 1003 62 5000 2.6 330 08:39 02.07.2020
647 Haze 32 1003 62 5000 2.6 330 08:19 02.07.2020
648 Haze 32 1003 66 5000 2.1 310 07:41 02.07.2020
649 Haze 32 1003 66 5000 2.1 310 07:21 02.07.2020
650 Haze 30 1003 74 5000 2.1 240 06:41 02.07.2020
651 Haze 30 1003 74 5000 2.1 240 06:20 02.07.2020
652 Haze 29 1003 74 4000 2.1 250 05:47 02.07.2020
653 Haze 28 1003 78 4000 2.1 240 04:50 02.07.2020
654 Haze 26 1003 94 3000 2.53 317 03:33 02.07.2020
655 Haze 26 1002 88 3000 0.85 326 01:50 02.07.2020
656 Haze 27 1002 88 3000 1 270 00:28 02.07.2020
657 Haze 26 1002 94 3000 1 200 23:57 01.07.2020
658 Haze 26 1002 94 3000 1 200 23:39 01.07.2020
659 Haze 26 1002 94 3000 1 200 23:21 01.07.2020
660 Haze 27 1002 88 3000 2.1 240 22:55 01.07.2020
661 Haze 27 1002 88 3000 2.1 240 22:36 01.07.2020
662 Haze 27 1002 88 3000 2.1 240 22:18 01.07.2020
663 Haze 27 1003 88 3000 2.6 240 21:55 01.07.2020
664 Haze 27 1003 88 3000 2.6 240 21:37 01.07.2020
665 Haze 27 1003 88 3000 2.6 240 21:19 01.07.2020
666 Haze 28 1003 83 3000 1.5 210 20:44 01.07.2020
667 Haze 28 1003 83 3000 1.5 210 20:25 01.07.2020
668 Haze 28 1003 83 3000 2.39 228 19:56 01.07.2020
669 Haze 28 1003 83 3000 2.39 228 19:38 01.07.2020
670 Haze 28 1003 83 3000 3.15 221 19:19 01.07.2020
671 Haze 29 1003 79 4000 1 170 18:42 01.07.2020
672 Haze 29 1003 79 4000 1 170 18:21 01.07.2020
673 Haze 29 1003 83 4000 1.5 190 17:59 01.07.2020
674 Haze 29 1003 83 4000 2.94 244 17:41 01.07.2020
675 Haze 29 1003 83 4000 2.25 250 17:19 01.07.2020
676 Haze 29 1003 79 4000 1.5 190 16:48 01.07.2020
677 Haze 29 1002 79 4000 1.5 210 16:29 01.07.2020
678 Haze 31 1002 74 4000 2.3 242 15:57 01.07.2020
679 Haze 32 1001 62 4000 2.3 242 15:39 01.07.2020
680 Haze 32 1001 62 4000 2.34 237 15:20 01.07.2020
681 Haze 33 1001 55 4000 1 280 14:44 01.07.2020
682 Haze 33 1001 55 4000 1 300 14:22 01.07.2020
683 Haze 33 1001 52 4000 1.5 310 13:59 01.07.2020
684 Haze 32 1001 66 4000 1.5 310 13:39 01.07.2020
685 Haze 32 1001 66 4000 1.5 310 13:20 01.07.2020
686 Haze 32 1001 62 4000 2.91 249 12:58 01.07.2020
687 Haze 32 1002 62 4000 2.91 249 12:39 01.07.2020
688 Haze 32 1002 62 4000 2.7 252 12:20 01.07.2020
689 Haze 32 1003 66 4000 1 310 11:44 01.07.2020
690 Haze 32 1003 66 4000 1 310 11:44 01.07.2020
691 Haze 32 1003 66 4000 1 310 11:44 01.07.2020
692 Haze 32 1003 66 4000 1 310 11:44 01.07.2020
693 Haze 32 1003 66 4000 1 310 11:24 01.07.2020
694 Haze 31 1003 70 4000 1 270 10:58 01.07.2020
695 Haze 31 1004 70 4000 1.5 240 10:40 01.07.2020
696 Haze 31 1004 70 4000 1.5 240 10:21 01.07.2020
697 Haze 30 1004 66 4000 1.5 240 09:54 01.07.2020
698 Haze 30 1005 70 4000 1 260 09:36 01.07.2020
699 Haze 30 1005 70 4000 1 260 09:18 01.07.2020
700 Haze 29 1005 74 4000 2.92 248 08:41 01.07.2020
701 Haze 29 1005 74 4000 3.01 245 08:21 01.07.2020
702 Haze 27 1006 83 4000 3.01 245 07:54 01.07.2020
703 Haze 27 1006 78 4000 3.01 245 07:36 01.07.2020
704 Haze 27 1006 78 4000 3.08 228 07:18 01.07.2020
705 Haze 26 1006 83 3500 3.08 228 06:48 01.07.2020
706 Haze 25 1006 94 3500 2.96 216 06:25 01.07.2020
707 Haze 24 1005 94 3500 1 110 04:30 01.07.2020
708 Haze 24 1004 100 3500 1.86 223 03:45 01.07.2020
709 Haze 24 1004 100 3000 1.25 231 03:26 01.07.2020
710 Haze 23 1004 100 2000 1.25 231 02:35 01.07.2020
711 Haze 23 1003 100 2000 1 170 01:26 01.07.2020
712 Rain 23 1003 100 2000 3.1 300 00:40 01.07.2020
713 Rain 23 1003 100 2000 3.1 300 00:21 01.07.2020
714 Rain 23 1004 100 1500 3.1 310 23:41 30.06.2020
715 Rain 23 1004 100 1500 3.1 310 23:21 30.06.2020
716 Thunderstorm 23 1005 100 1500 1 250 22:43 30.06.2020
717 Thunderstorm 23 1005 100 1500 1 250 22:20 30.06.2020
718 Thunderstorm 23 1005 100 1200 3.6 260 21:55 30.06.2020
719 Thunderstorm 23 1006 100 1200 2.6 220 21:37 30.06.2020
720 Thunderstorm 23 1006 100 1200 2.6 220 21:19 30.06.2020
721 Thunderstorm 23 1006 100 1500 1.5 220 20:43 30.06.2020
722 Thunderstorm 23 1006 100 1500 1.5 220 20:21 30.06.2020
723 Thunderstorm 23 1006 100 500 2.6 10 19:47 30.06.2020
724 Thunderstorm 23 1006 100 500 2.6 10 19:22 30.06.2020
725 Thunderstorm 24 1006 94 500 5.1 340 18:59 30.06.2020
726 Haze 29 1005 70 3000 1 30 18:41 30.06.2020
727 Haze 30 1004 74 3000 1 160 18:20 30.06.2020
728 Haze 30 1004 70 3000 3.7 197 17:40 30.06.2020
729 Haze 30 1004 70 3000 3.45 194 17:21 30.06.2020
730 Haze 30 1003 70 3000 1.5 150 16:58 30.06.2020
731 Haze 30 1003 70 3000 1.5 150 16:58 30.06.2020
732 Haze 30 1003 70 3000 1.5 150 16:40 30.06.2020
733 Haze 30 1003 70 3000 1.5 150 16:21 30.06.2020
734 Haze 31 1002 70 4000 2.6 197 15:56 30.06.2020
735 Haze 31 1002 70 4000 1 170 15:38 30.06.2020
736 Haze 31 1002 70 4000 1 170 15:19 30.06.2020
737 Haze 33 1001 63 4000 2.23 195 14:43 30.06.2020
738 Haze 33 1001 63 4000 1.11 360 14:21 30.06.2020
739 Haze 33 1001 63 4000 1.11 360 13:57 30.06.2020
740 Haze 33 1001 59 4000 1.11 360 13:37 30.06.2020
741 Haze 33 1001 59 4000 1.11 360 13:37 30.06.2020
742 Haze 33 1001 59 4000 1.51 342 13:19 30.06.2020
743 Haze 33 1001 59 4000 1 180 12:55 30.06.2020
744 Haze 33 1002 59 4000 1.5 190 12:37 30.06.2020
745 Haze 32 1003 66 4000 1.5 210 12:18 30.06.2020
746 Haze 32 1003 66 4000 1.5 210 12:18 30.06.2020
747 Haze 32 1003 66 4000 1.5 210 11:56 30.06.2020
748 Haze 32 1003 66 4000 1.5 210 11:37 30.06.2020
749 Haze 32 1003 66 4000 1.5 210 11:18 30.06.2020
750 Haze 27 1004 83 3000 1 20 16:46 28.06.2020
751 Haze 27 1004 83 3000 1 20 16:28 28.06.2020
752 Haze 27 1004 83 3000 1.5 30 15:59 28.06.2020
753 Haze 27 1003 78 3000 1.87 327 15:39 28.06.2020
754 Haze 27 1003 78 3000 4.53 340 15:20 28.06.2020
755 Haze 26 1003 83 3000 3.1 320 14:55 28.06.2020
756 Thunderstorm 27 1003 83 3000 4.1 320 14:37 28.06.2020
757 Thunderstorm 27 1003 83 3000 4.1 320 14:19 28.06.2020
758 Haze 33 1002 59 4000 1 180 13:39 28.06.2020
759 Haze 33 1002 59 4000 1 180 13:21 28.06.2020
760 Haze 32 1002 62 4000 1.5 180 12:57 28.06.2020
761 Haze 32 1003 66 4000 1.5 190 12:38 28.06.2020
762 Haze 32 1003 66 4000 1.5 190 12:19 28.06.2020
763 Rain 31 1003 70 3000 3.85 231 11:58 28.06.2020
764 Rain 30 1003 74 3000 1 240 11:39 28.06.2020
765 Rain 30 1003 74 3000 1 240 11:20 28.06.2020
766 Rain 30 1003 74 3000 1 240 11:20 28.06.2020
767 Thunderstorm 28 1004 88 2000 3.6 260 10:57 28.06.2020
768 Haze 30 1005 70 5000 5.1 230 10:38 28.06.2020
769 Haze 30 1005 70 5000 5.1 230 10:19 28.06.2020
770 Haze 31 1005 66 5000 4.78 217 09:40 28.06.2020
771 Haze 31 1005 66 5000 3.91 239 09:21 28.06.2020
772 Haze 31 1006 66 5000 2.6 250 08:51 28.06.2020
773 Haze 31 1006 66 5000 3.1 270 08:32 28.06.2020
774 Haze 30 1006 70 5000 3.1 280 07:53 28.06.2020
775 Haze 30 1007 70 4000 3.6 270 07:30 28.06.2020
776 Haze 28 1007 78 4000 3.1 270 06:45 28.06.2020
777 Haze 28 1007 78 4000 3.1 270 06:26 28.06.2020
778 Haze 27 1007 83 4000 3.6 270 05:27 28.06.2020
779 Haze 26 1006 88 4000 1.5 290 03:45 28.06.2020
780 Haze 25 1005 88 3000 1.5 240 02:47 28.06.2020
781 Haze 25 1004 94 3000 1.5 220 01:56 28.06.2020
782 Haze 25 1004 94 3000 1.5 220 01:27 28.06.2020
783 Haze 25 1004 88 3000 1.5 220 00:48 28.06.2020
784 Haze 25 1004 88 3000 1.5 220 00:25 28.06.2020
785 Haze 26 1005 88 3000 1.5 230 23:42 27.06.2020
786 Haze 26 1005 88 3000 1.5 230 23:24 27.06.2020
787 Haze 26 1005 94 3000 1.5 200 22:58 27.06.2020
788 Haze 26 1005 94 3000 1.5 210 22:40 27.06.2020
789 Haze 26 1005 94 3000 1.5 210 22:20 27.06.2020
790 Haze 26 1006 88 3000 3.6 200 21:55 27.06.2020
791 Haze 26 1006 88 3000 3.6 200 21:55 27.06.2020
792 Haze 26 1006 88 3000 3.6 200 21:37 27.06.2020
793 Haze 26 1006 88 3000 3.6 200 21:18 27.06.2020
794 Haze 26 1006 88 3000 1 190 20:42 27.06.2020
795 Haze 26 1006 88 3000 1 190 20:19 27.06.2020
796 Haze 26 1006 88 3000 2.1 200 19:55 27.06.2020
797 Haze 26 1006 88 3000 2.1 200 19:36 27.06.2020
798 Haze 27 1005 78 3000 3.61 300 19:18 27.06.2020
799 Haze 27 1005 78 3000 3.61 300 18:43 27.06.2020
800 Haze 27 1005 78 3000 3.43 294 18:22 27.06.2020
801 Haze 27 1005 78 3000 3.43 294 17:55 27.06.2020
802 Haze 27 1005 78 3000 3.43 294 17:37 27.06.2020
803 Haze 27 1005 78 3000 3.23 283 17:19 27.06.2020
804 Thunderstorm 29 1004 74 4000 3.23 283 16:43 27.06.2020
805 Thunderstorm 29 1004 74 4000 3.61 266 16:24 27.06.2020
806 Haze 29 1003 79 5000 3.61 266 15:54 27.06.2020
807 Haze 29 1003 74 5000 3.61 266 15:36 27.06.2020
808 Haze 29 1003 74 5000 4.41 264 15:18 27.06.2020
809 Haze 29 1003 70 5000 4.41 264 14:41 27.06.2020
810 Haze 29 1003 70 5000 3.12 252 14:22 27.06.2020
811 Haze 31 1003 62 5000 1.5 250 13:57 27.06.2020
812 Haze 33 1003 59 5000 3.1 270 13:37 27.06.2020
813 Haze 33 1003 59 5000 1 210 13:19 27.06.2020
814 Haze 33 1003 59 5000 1 210 12:56 27.06.2020
815 Haze 33 1003 59 5000 1 250 12:37 27.06.2020
816 Haze 33 1003 59 5000 1 240 12:19 27.06.2020
817 Haze 33 1004 59 5000 1 250 11:41 27.06.2020
818 Haze 33 1004 59 5000 1 250 11:23 27.06.2020
819 Haze 32 1004 62 5000 2.1 230 10:57 27.06.2020
820 Haze 32 1005 62 5000 1 220 10:38 27.06.2020
821 Haze 32 1005 62 5000 1 220 10:18 27.06.2020
822 Haze 32 1006 66 5000 2.6 210 09:41 27.06.2020
823 Haze 32 1006 66 5000 2.6 210 09:21 27.06.2020
824 Haze 32 1006 66 5000 1.5 150 08:46 27.06.2020
825 Haze 31 1005 70 5000 2.1 180 08:23 27.06.2020
826 Haze 31 1005 70 4000 2.1 180 07:55 27.06.2020
827 Haze 30 1006 74 4000 3.56 255 07:37 27.06.2020
828 Haze 30 1006 74 4000 1 180 07:18 27.06.2020
829 Haze 29 1006 74 4000 1 270 06:35 27.06.2020
830 Haze 27 1006 83 3000 1 250 05:33 27.06.2020
831 Mist 26 1006 88 2500 2.6 260 04:19 27.06.2020
832 Mist 26 1006 88 2500 2.1 280 03:51 27.06.2020
833 Rain 25 1006 94 2500 1 260 02:47 27.06.2020
834 Rain 25 1006 94 2500 1 260 02:27 27.06.2020
835 Rain 25 1005 100 2500 2.1 300 01:39 27.06.2020
836 Thunderstorm 26 1004 94 2500 1.53 186 00:52 27.06.2020
837 Thunderstorm 25 1005 94 2500 0.86 189 23:57 26.06.2020
838 Thunderstorm 25 1005 94 2500 0.86 189 23:38 26.06.2020
839 Thunderstorm 25 1005 94 2500 0.3 153 23:20 26.06.2020
840 Thunderstorm 27 1005 78 2500 4.1 330 22:43 26.06.2020
841 Thunderstorm 27 1005 78 2500 4.1 330 22:24 26.06.2020
842 Haze 29 1005 79 3000 3.1 290 21:58 26.06.2020
843 Haze 29 1005 79 3000 3.1 290 21:40 26.06.2020
844 Haze 29 1005 79 3000 3.1 290 21:21 26.06.2020
845 Haze 29 1005 79 3000 0.3 146 20:58 26.06.2020
846 Haze 29 1005 79 3000 0.3 146 20:40 26.06.2020
847 Haze 29 1005 79 3000 0.97 355 20:18 26.06.2020
848 Haze 30 1006 74 4000 0.97 355 19:40 26.06.2020
849 Haze 31 1006 70 4000 1 10 19:20 26.06.2020
850 Haze 31 1006 70 4000 1 10 18:43 26.06.2020
851 Haze 31 1006 70 4000 1 10 18:25 26.06.2020
852 Haze 30 1005 74 4000 1 10 17:55 26.06.2020
853 Haze 31 1005 70 4000 1 20 17:37 26.06.2020
854 Haze 31 1005 70 4000 1 20 17:19 26.06.2020
855 Haze 31 1004 66 4000 1 20 16:42 26.06.2020
856 Haze 31 1004 66 4000 1 20 16:23 26.06.2020
857 Haze 32 1004 62 4000 3.6 360 15:41 26.06.2020
858 Haze 32 1004 62 4000 3.6 360 15:22 26.06.2020
859 Haze 32 1003 59 4000 3.6 10 14:58 26.06.2020
860 Haze 32 1003 62 4000 4.1 360 14:40 26.06.2020
861 Haze 32 1003 62 4000 4.1 360 14:22 26.06.2020
862 Haze 34 1003 56 4000 1 320 13:47 26.06.2020
863 Haze 34 1002 52 4000 1 260 13:25 26.06.2020
864 Haze 34 1003 56 4000 1.5 260 12:59 26.06.2020
865 Haze 34 1003 56 4000 2.6 250 12:40 26.06.2020
866 Haze 33 1004 55 4000 3.6 250 12:22 26.06.2020
867 Haze 33 1004 55 4000 3.6 250 11:57 26.06.2020
868 Haze 33 1004 55 4000 3.6 250 11:39 26.06.2020
869 Haze 33 1004 55 4000 3.6 250 11:20 26.06.2020
870 Haze 33 1005 59 5000 2.1 240 10:57 26.06.2020
871 Haze 32 1005 66 5000 1 240 10:37 26.06.2020
872 Haze 32 1005 66 5000 1 240 10:18 26.06.2020
873 Haze 32 1005 66 5000 2.1 210 09:43 26.06.2020
874 Haze 32 1005 66 5000 2.1 210 09:22 26.06.2020
875 Haze 31 1006 70 5000 3.6 220 08:51 26.06.2020
876 Haze 31 1006 70 5000 4.6 220 08:28 26.06.2020
877 Haze 30 1006 70 5000 5.1 200 07:52 26.06.2020
878 Haze 30 1006 70 5000 4.6 210 07:24 26.06.2020
879 Haze 30 1007 70 5000 3.6 200 06:57 26.06.2020
880 Haze 29 1007 79 5000 4.1 200 06:35 26.06.2020
881 Haze 29 1007 74 5000 2.1 180 05:58 26.06.2020
882 Haze 28 1007 78 4000 1.5 210 05:31 26.06.2020
883 Mist 25 1005 88 3000 3.14 189 02:42 26.06.2020
884 Mist 25 1005 88 3000 3.7 195 02:22 26.06.2020
885 Haze 25 1004 88 3000 3.32 195 00:58 26.06.2020
886 Haze 25 1004 88 3000 3.32 195 00:39 26.06.2020
887 Thunderstorm 26 1005 83 3000 3.03 189 23:48 25.06.2020
888 Thunderstorm 26 1005 83 3000 2.54 171 23:24 25.06.2020
889 Thunderstorm 27 1005 74 3000 1.5 340 22:59 25.06.2020
890 Thunderstorm 27 1005 74 3000 1.5 340 22:40 25.06.2020
891 Thunderstorm 27 1005 74 3000 1.5 340 22:40 25.06.2020
892 Thunderstorm 27 1005 74 3000 1.5 340 22:21 25.06.2020
893 Thunderstorm 27 1006 74 3000 2.6 330 21:58 25.06.2020
894 Thunderstorm 27 1006 74 3000 2.6 330 21:40 25.06.2020
895 Thunderstorm 27 1006 74 3000 2.6 330 21:40 25.06.2020
896 Thunderstorm 27 1006 74 3000 2.6 330 21:21 25.06.2020
897 Thunderstorm 27 1006 74 3000 1 310 20:59 25.06.2020
898 Thunderstorm 27 1006 74 3000 1 310 20:41 25.06.2020
899 Thunderstorm 27 1006 74 3000 1 310 20:22 25.06.2020
900 Thunderstorm 26 1006 83 3000 3.6 260 19:56 25.06.2020
901 Thunderstorm 26 1006 83 3000 3.6 260 19:37 25.06.2020
902 Thunderstorm 27 1006 78 3000 3.1 250 19:18 25.06.2020
903 Thunderstorm 28 1006 74 3000 2.6 230 18:40 25.06.2020
904 Thunderstorm 28 1006 74 3000 2.6 230 18:21 25.06.2020
905 Thunderstorm 30 1005 84 3000 1 150 17:55 25.06.2020
906 Thunderstorm 30 1005 79 3000 2.5 266 17:37 25.06.2020
907 Thunderstorm 30 1005 79 3000 1.7 221 17:18 25.06.2020
908 Thunderstorm 31 1003 79 3000 1 120 16:40 25.06.2020
909 Thunderstorm 31 1003 79 3000 1 120 16:20 25.06.2020
910 Haze 31 1003 79 3000 1 130 15:45 25.06.2020
911 Haze 32 1003 66 3000 1.79 199 15:27 25.06.2020
912 Haze 32 1003 70 3000 1.79 199 14:57 25.06.2020
913 Haze 33 1002 66 3000 1.5 110 14:39 25.06.2020
914 Haze 33 1002 66 3000 1.5 110 14:21 25.06.2020
915 Haze 33 1002 63 3000 2.1 160 13:55 25.06.2020
916 Haze 33 1002 63 3000 2.1 160 13:36 25.06.2020
917 Haze 33 1002 63 3000 2.1 160 13:18 25.06.2020
918 Haze 33 1002 63 3000 3.6 170 12:43 25.06.2020
919 Haze 33 1002 63 3000 3.6 170 12:20 25.06.2020
920 Haze 33 1003 66 3000 2.1 170 11:43 25.06.2020
921 Haze 33 1003 66 3000 2.1 170 11:25 25.06.2020
922 Haze 33 1003 66 3000 3.81 224 10:57 25.06.2020
923 Haze 33 1004 63 5000 1.5 170 10:39 25.06.2020
924 Haze 33 1004 63 5000 1.5 170 10:20 25.06.2020
925 Haze 32 1005 70 5000 1.5 200 09:41 25.06.2020
926 Haze 32 1005 70 5000 1.5 200 09:22 25.06.2020
927 Haze 32 1006 70 5000 2.1 220 08:47 25.06.2020
928 Haze 32 1006 70 5000 2.1 220 08:20 25.06.2020
929 Haze 30 1006 74 5000 1.5 240 07:46 25.06.2020
930 Haze 30 1006 74 5000 1.5 240 07:27 25.06.2020
931 Clouds 29 1007 83 0 1.5 260 06:51 25.06.2020
932 Clouds 29 1007 79 6000 2.1 240 06:27 25.06.2020
933 Clouds 29 1007 79 6000 2.1 240 05:51 25.06.2020
934 Mist 26 1006 100 1500 1 210 03:58 25.06.2020
935 Fog 26 1006 94 0 1.5 180 03:32 25.06.2020
936 Mist 25 1005 100 2000 2.99 178 02:42 25.06.2020
937 Mist 25 1005 100 3000 1 120 01:55 25.06.2020
938 Mist 25 1006 100 3000 1 120 01:20 25.06.2020
939 Rain 29 1004 71 0 2.45 168 00:43 25.06.2020
940 Haze 25 1006 100 3000 2.39 175 00:20 25.06.2020
941 Haze 25 1006 100 3000 2.39 175 23:44 24.06.2020
942 Haze 25 1006 100 3000 1.9 176 23:25 24.06.2020
943 Haze 26 1006 94 3000 1.9 176 22:58 24.06.2020
944 Haze 26 1006 94 3000 1.9 176 22:40 24.06.2020
945 Haze 26 1006 94 3000 1.57 187 22:20 24.06.2020
946 Haze 25 1007 100 3000 1.5 300 21:55 24.06.2020
947 Haze 25 1007 100 3000 1.5 300 21:36 24.06.2020
948 Haze 25 1007 100 3000 1.5 300 21:18 24.06.2020
949 Rain 26 1006 94 2500 2.23 185 20:58 24.06.2020
950 Rain 26 1006 94 2500 2.23 185 20:38 24.06.2020
951 Rain 26 1006 94 2500 2.33 183 20:20 24.06.2020
952 Thunderstorm 25 1007 100 2000 1 70 19:55 24.06.2020
953 Thunderstorm 25 1007 100 2000 1 70 19:36 24.06.2020
954 Thunderstorm 25 1007 100 2000 1 70 19:18 24.06.2020
955 Thunderstorm 25 1006 94 1500 1.5 50 18:57 24.06.2020
956 Thunderstorm 25 1006 94 1500 1.5 50 18:38 24.06.2020
957 Thunderstorm 24 1006 100 1200 2.6 50 18:19 24.06.2020
958 Thunderstorm 24 1006 100 1000 2.6 50 17:43 24.06.2020
959 Thunderstorm 24 1006 100 1000 2.6 50 17:21 24.06.2020
960 Thunderstorm 24 1006 100 800 2.6 270 16:58 24.06.2020
961 Haze 27 1005 94 2000 5.1 220 16:40 24.06.2020
962 Haze 27 1005 94 2000 5.1 220 16:21 24.06.2020
963 Haze 31 1004 66 4000 2.56 196 15:57 24.06.2020
964 Haze 31 1003 66 4000 1.5 30 15:39 24.06.2020
965 Haze 31 1003 66 4000 1.5 30 15:20 24.06.2020
966 Haze 32 1003 66 4000 1.5 30 14:54 24.06.2020
967 Haze 32 1003 66 4000 2.1 350 14:36 24.06.2020
968 Haze 32 1003 66 4000 2.1 350 14:18 24.06.2020
969 Haze 33 1003 63 4000 2.6 360 13:41 24.06.2020
970 Haze 32 1003 66 4000 1 20 13:19 24.06.2020
971 Haze 31 1003 70 5000 2.1 20 12:41 24.06.2020
972 Haze 31 1003 70 5000 2.1 20 12:20 24.06.2020
973 Haze 33 1004 59 5000 1.5 150 11:57 24.06.2020
974 Haze 34 1004 52 5000 1.5 130 11:38 24.06.2020
975 Haze 34 1004 52 5000 1.5 130 11:38 24.06.2020
976 Haze 34 1004 52 5000 1.5 130 11:19 24.06.2020
977 Haze 33 1005 63 5000 1 160 10:43 24.06.2020
978 Haze 33 1005 63 5000 1 160 10:19 24.06.2020
979 Haze 32 1006 66 5000 1 200 09:44 24.06.2020
980 Haze 32 1006 66 5000 1 200 09:23 24.06.2020
981 Haze 31 1007 74 5000 1 200 08:45 24.06.2020
982 Haze 31 1007 74 5000 1 200 08:26 24.06.2020
983 Haze 30 1007 74 5000 2.6 190 07:58 24.06.2020
984 Haze 30 1007 74 4000 1.5 230 07:40 24.06.2020
985 Haze 28 1007 83 4000 1.5 170 07:18 24.06.2020
986 Haze 28 1007 83 4000 1 220 06:40 24.06.2020
987 Haze 28 1007 83 5000 1.5 200 06:21 24.06.2020
988 Haze 28 1007 88 4000 1 180 05:32 24.06.2020
989 Haze 26 1007 94 3000 1.5 200 04:37 24.06.2020
990 Mist 25 1006 100 2500 1.88 223 03:37 24.06.2020
991 Mist 25 1005 100 2000 1.5 233 02:52 24.06.2020
992 Haze 25 1005 100 3000 1.87 245 01:46 24.06.2020
993 Haze 25 1005 100 3000 1 210 00:50 24.06.2020
994 Haze 25 1005 100 3000 1 210 00:31 24.06.2020
995 Haze 25 1006 100 3000 1 200 23:46 23.06.2020
996 Haze 25 1006 100 3000 1 200 23:21 23.06.2020
997 Haze 26 1006 94 3000 2.6 190 22:57 23.06.2020
998 Haze 26 1006 94 3000 2.6 190 22:38 23.06.2020
999 Haze 26 1006 94 3000 2.6 190 22:18 23.06.2020
1000 Haze 26 1006 100 3000 2.1 210 21:42 23.06.2020
1001 Haze 26 1006 100 3000 2.1 210 21:20 23.06.2020
1002 Haze 26 1006 100 3000 2.29 236 20:56 23.06.2020
1003 Haze 26 1006 100 3000 2.29 236 20:37 23.06.2020
1004 Haze 27 1006 94 3000 1.92 248 20:19 23.06.2020
1005 Haze 27 1006 94 3000 1.92 248 19:49 23.06.2020
1006 Haze 27 1006 94 3000 2.58 258 19:28 23.06.2020
1007 Haze 27 1006 94 3000 2.58 258 18:42 23.06.2020
1008 Haze 27 1006 94 3000 2.58 258 18:42 23.06.2020
1009 Haze 27 1006 94 3000 2.65 246 18:19 23.06.2020
1010 Haze 27 1006 94 3000 2.65 246 17:59 23.06.2020
1011 Haze 27 1005 94 3000 2.65 246 17:39 23.06.2020
1012 Haze 27 1005 94 3000 2.43 261 17:20 23.06.2020
1013 Haze 27 1005 94 3000 2.43 261 16:56 23.06.2020
1014 Haze 27 1004 100 3000 2.43 261 16:37 23.06.2020
1015 Haze 27 1004 100 3000 3.16 284 16:18 23.06.2020
1016 Haze 27 1004 100 3000 3.16 284 16:18 23.06.2020
1017 Haze 27 1003 100 3000 3.16 284 15:45 23.06.2020
1018 Haze 27 1003 100 3000 4 285 15:25 23.06.2020
1019 Haze 27 1003 94 3000 4 285 14:58 23.06.2020
1020 Mist 27 1003 94 2500 4 285 14:40 23.06.2020
1021 Mist 27 1003 94 2500 4.66 284 14:18 23.06.2020
1022 Mist 27 1003 94 2500 5.44 288 13:55 23.06.2020
1023 Mist 27 1003 94 2500 1 320 13:37 23.06.2020
1024 Rain 27 1003 88 2500 1 300 13:19 23.06.2020
1025 Rain 27 1004 94 2000 5.65 286 12:40 23.06.2020
1026 Rain 27 1004 94 2000 5.62 288 12:22 23.06.2020
1027 Rain 27 1005 94 2000 1 240 11:44 23.06.2020
1028 Rain 27 1005 94 2000 1 240 11:23 23.06.2020
1029 Rain 27 1005 94 2000 1.5 250 10:59 23.06.2020
1030 Rain 27 1005 94 3000 1 260 10:41 23.06.2020
1031 Rain 27 1005 94 3000 1 260 10:41 23.06.2020
1032 Rain 27 1005 94 3000 1 260 10:22 23.06.2020
1033 Haze 27 1005 88 4000 1 220 09:58 23.06.2020
1034 Haze 27 1005 88 3000 1 270 09:39 23.06.2020
1035 Haze 27 1005 88 3000 1 270 09:20 23.06.2020
1036 Haze 27 1005 88 3000 1 270 09:20 23.06.2020
1037 Mist 27 1006 88 2500 1 260 08:47 23.06.2020
1038 Mist 27 1006 94 2000 2.1 250 08:26 23.06.2020
1039 Mist 26 1006 94 2000 2.6 230 07:51 23.06.2020
1040 Rain 26 1006 94 2000 2.6 230 07:25 23.06.2020
1041 Rain 25 1006 100 1500 2.6 210 06:57 23.06.2020
1042 Rain 25 1006 100 1500 2.6 210 06:38 23.06.2020
1043 Rain 25 1005 100 2500 1 180 06:19 23.06.2020
1044 Rain 25 1005 100 2500 1 180 05:28 23.06.2020
1045 Mist 25 1003 100 2000 2.6 230 03:23 23.06.2020
1046 Mist 24 1003 100 2000 2.6 230 02:52 23.06.2020
1047 Mist 24 1003 100 2000 2.6 230 02:33 23.06.2020
1048 Rain 24 1003 100 1500 1.5 220 01:46 23.06.2020
1049 Rain 24 1003 100 1500 1.5 220 01:24 23.06.2020
1050 Rain 24 1003 100 1500 1 210 00:46 23.06.2020
1051 Rain 24 1003 100 1500 3.91 268 00:21 23.06.2020
1052 Rain 24 1003 100 1500 3.91 268 23:55 22.06.2020
1053 Rain 24 1003 100 1500 3.91 268 23:55 22.06.2020
1054 Rain 24 1003 100 1500 3.91 268 23:36 22.06.2020
1055 Rain 24 1003 100 1500 4.82 273 23:18 22.06.2020
1056 Rain 25 1003 94 1500 4.82 273 22:54 22.06.2020
1057 Rain 25 1003 94 1500 4.82 273 22:36 22.06.2020
1058 Rain 25 1003 94 1500 4.01 260 22:18 22.06.2020
1059 Rain 25 1003 94 2500 4.01 260 21:41 22.06.2020
1060 Rain 25 1003 94 2500 6.07 236 21:22 22.06.2020
1061 Rain 25 1004 94 2500 6.07 236 20:59 22.06.2020
1062 Rain 25 1004 94 2500 6.07 236 20:59 22.06.2020
1063 Rain 25 1004 94 2500 6.07 236 20:40 22.06.2020
1064 Rain 25 1004 94 2500 5.02 231 20:20 22.06.2020
1065 Rain 24 1004 94 2500 5.02 231 19:44 22.06.2020
1066 Rain 24 1004 94 2500 4.46 197 19:19 22.06.2020
1067 Thunderstorm 24 1004 94 2500 4.46 197 18:57 22.06.2020
1068 Thunderstorm 24 1004 94 2500 4.46 197 18:37 22.06.2020
1069 Thunderstorm 24 1003 94 2500 1 180 18:19 22.06.2020
1070 Thunderstorm 24 1003 94 2500 1 180 17:55 22.06.2020
1071 Thunderstorm 25 1003 100 1500 1 80 17:37 22.06.2020
1072 Drizzle 27 1002 83 2500 2.1 60 17:18 22.06.2020
1073 Haze 29 1001 70 3000 3.1 40 16:43 22.06.2020
1074 Haze 29 1001 70 3000 3.1 40 16:19 22.06.2020
1075 Haze 30 1000 66 3000 3.6 230 15:57 22.06.2020
1076 Haze 31 1000 66 4000 2.6 230 15:39 22.06.2020
1077 Haze 31 1000 66 4000 2.6 230 15:21 22.06.2020
1078 Haze 31 1000 66 5000 2.1 230 14:39 22.06.2020
1079 Haze 31 1000 66 5000 2.1 230 14:20 22.06.2020
1080 Haze 31 1000 66 5000 2.6 250 13:57 22.06.2020
1081 Haze 31 999 62 5000 3.1 280 13:38 22.06.2020
1082 Haze 31 999 62 5000 3.1 280 13:20 22.06.2020
1083 Haze 32 1000 62 5000 3.6 260 12:42 22.06.2020
1084 Haze 32 1000 62 5000 3.6 260 12:42 22.06.2020
1085 Haze 32 1000 62 5000 3.6 260 12:23 22.06.2020
1086 Haze 32 1000 62 5000 2.1 270 11:58 22.06.2020
1087 Haze 32 1001 59 5000 2.1 310 11:37 22.06.2020
1088 Haze 32 1001 55 5000 2.6 310 11:18 22.06.2020
1089 Haze 32 1001 55 5000 2.6 310 10:54 22.06.2020
1090 Haze 32 1001 55 5000 2.6 310 10:54 22.06.2020
1091 Haze 32 1002 62 5000 2.1 350 10:36 22.06.2020
1092 Haze 32 1002 62 5000 2.1 350 10:36 22.06.2020
1093 Haze 32 1002 62 5000 2.1 350 10:18 22.06.2020
1094 Haze 31 1002 62 5000 3.1 330 09:41 22.06.2020
1095 Haze 31 1002 62 5000 3.1 330 09:20 22.06.2020
1096 Haze 31 1002 62 5000 3.6 320 08:59 22.06.2020
1097 Haze 31 1003 58 5000 2.6 350 08:39 22.06.2020
1098 Haze 31 1003 58 5000 2.6 350 08:39 22.06.2020
1099 Haze 31 1003 58 5000 2.6 350 08:39 22.06.2020
1100 Haze 31 1003 58 5000 2.6 350 08:20 22.06.2020
1101 Haze 31 1003 62 5000 3.1 310 07:52 22.06.2020
1102 Haze 31 1003 62 5000 3.1 320 07:33 22.06.2020
1103 Haze 30 1003 66 5000 1.5 310 06:45 22.06.2020
1104 Haze 30 1003 66 5000 1.5 310 06:26 22.06.2020
1105 Haze 29 1002 70 5000 3.1 310 05:58 22.06.2020
1106 Haze 28 1002 74 4000 3.6 320 04:59 22.06.2020
1107 Haze 26 1001 74 4000 2.1 300 02:54 22.06.2020
1108 Haze 27 1001 65 3000 3.1 330 01:25 22.06.2020
1109 Haze 26 1001 74 3000 1.5 310 00:41 22.06.2020
1110 Haze 26 1003 78 3000 2.6 290 23:59 21.06.2020
1111 Haze 26 1003 78 3000 2.6 290 23:39 21.06.2020
1112 Haze 26 1003 78 3000 1.5 290 23:21 21.06.2020
1113 Haze 26 1003 78 3000 1.5 290 22:57 21.06.2020
1114 Haze 26 1003 78 3000 1.5 290 22:37 21.06.2020
1115 Haze 26 1003 83 3000 2.1 290 22:19 21.06.2020
1116 Haze 26 1003 83 3000 2.1 290 21:57 21.06.2020
1117 Haze 26 1003 83 3000 2.1 290 21:39 21.06.2020
1118 Haze 26 1003 83 3000 2.1 290 21:39 21.06.2020
1119 Haze 26 1003 83 3000 2.1 290 21:21 21.06.2020
1120 Rain 26 1003 83 3000 2.1 290 20:58 21.06.2020
1121 Rain 26 1003 83 3000 2.1 290 20:38 21.06.2020
1122 Rain 28 1003 65 3000 2.1 310 20:18 21.06.2020
1123 Rain 28 1003 65 3000 2.1 310 20:18 21.06.2020
1124 Rain 28 1003 65 3000 2.1 310 19:56 21.06.2020
1125 Rain 28 1003 65 3000 2.1 310 19:38 21.06.2020
1126 Rain 28 1003 65 3000 1.5 310 19:19 21.06.2020
1127 Haze 29 1003 62 3000 2.6 330 18:40 21.06.2020
1128 Haze 29 1003 62 3000 2.6 330 18:22 21.06.2020
1129 Haze 29 1002 58 4000 3.1 320 17:59 21.06.2020
1130 Haze 30 1002 58 4000 4.1 310 17:39 21.06.2020
1131 Haze 30 1002 58 4000 4.1 310 17:20 21.06.2020
1132 Haze 31 1001 62 4000 2.6 300 16:43 21.06.2020
1133 Haze 31 1001 62 4000 2.6 300 16:23 21.06.2020
1134 Haze 31 1001 62 4000 3.1 310 15:57 21.06.2020
1135 Haze 31 1001 62 4000 4.1 300 15:37 21.06.2020
1136 Haze 32 1000 59 4000 3.6 290 15:19 21.06.2020
1137 Haze 32 1000 59 4000 3.1 320 14:39 21.06.2020
1138 Haze 32 1000 59 4000 3.1 320 14:20 21.06.2020
1139 Haze 32 1000 59 5000 5.1 300 13:58 21.06.2020
1140 Haze 32 1001 59 5000 3.6 280 13:40 21.06.2020
1141 Haze 32 1001 59 5000 3.6 280 13:19 21.06.2020
1142 Haze 32 1002 59 5000 5.1 320 12:45 21.06.2020
1143 Haze 32 1002 59 5000 5.1 320 12:26 21.06.2020
1144 Haze 33 1002 59 5000 5.1 300 11:59 21.06.2020
1145 Haze 32 1002 62 5000 5.1 320 11:41 21.06.2020
1146 Haze 32 1002 62 5000 5.1 320 11:23 21.06.2020
1147 Haze 32 1003 59 5000 4.6 310 10:57 21.06.2020
1148 Haze 31 1003 66 5000 4.6 300 10:38 21.06.2020
1149 Haze 31 1003 66 5000 4.6 300 10:20 21.06.2020
1150 Haze 31 1003 62 5000 3.1 320 09:42 21.06.2020
1151 Haze 31 1003 62 5000 3.1 320 09:22 21.06.2020
1152 Haze 31 1003 62 5000 3.1 330 08:57 21.06.2020
1153 Haze 31 1003 62 5000 3.1 330 08:57 21.06.2020
1154 Haze 31 1003 62 5000 3.1 330 08:57 21.06.2020
1155 Haze 32 1004 59 5000 4.6 310 08:39 21.06.2020
1156 Haze 32 1004 59 5000 4.6 310 08:19 21.06.2020
1157 Haze 31 1004 62 5000 5.1 310 07:41 21.06.2020
1158 Haze 31 1004 62 5000 5.1 310 07:41 21.06.2020
1159 Haze 31 1004 62 5000 5.1 310 07:23 21.06.2020
1160 Haze 30 1004 70 5000 3.6 350 06:50 21.06.2020
1161 Haze 30 1004 66 4000 4.6 310 06:18 21.06.2020
1162 Haze 30 1004 66 4000 4.6 310 05:56 21.06.2020
1163 Haze 28 1003 74 3000 2.6 310 03:53 21.06.2020
1164 Haze 28 1002 74 3000 2.1 300 03:18 21.06.2020
1165 Haze 28 1002 74 3000 2.1 300 02:20 21.06.2020
1166 Haze 28 1002 74 3000 3.6 290 01:34 21.06.2020
1167 Rain 28 1001 58 0 1.01 222 00:57 21.06.2020
1168 Haze 29 1003 70 3000 3.6 280 00:38 21.06.2020
1169 Haze 29 1003 70 3000 3.6 280 00:20 21.06.2020
1170 Haze 29 1003 70 3000 3.6 280 23:45 20.06.2020
1171 Haze 29 1003 70 3000 3.6 280 23:22 20.06.2020
1172 Haze 28 1003 74 3000 2.6 290 22:56 20.06.2020
1173 Haze 28 1003 74 3000 2.6 290 22:38 20.06.2020
1174 Haze 28 1003 74 3000 2.6 290 22:19 20.06.2020
1175 Haze 28 1003 74 3000 2.6 290 21:56 20.06.2020
1176 Haze 28 1004 74 3000 2.1 290 21:38 20.06.2020
1177 Haze 28 1004 74 3000 2.1 290 21:20 20.06.2020
1178 Haze 28 1005 78 3000 7.69 299 20:57 20.06.2020
1179 Haze 28 1005 78 3000 7.69 299 20:38 20.06.2020
1180 Haze 28 1005 78 3000 9.16 314 20:19 20.06.2020
1181 Haze 28 1005 74 3000 2.1 260 19:44 20.06.2020
1182 Haze 28 1005 74 3000 2.1 260 19:25 20.06.2020
1183 Haze 29 1005 70 3000 2.1 310 18:55 20.06.2020
1184 Haze 29 1005 70 3000 2.1 310 18:37 20.06.2020
1185 Haze 29 1005 70 3000 2.6 310 18:19 20.06.2020
1186 Haze 29 1005 70 3000 2.6 310 17:56 20.06.2020
1187 Haze 29 1005 70 3000 2.6 310 17:37 20.06.2020
1188 Haze 29 1004 70 4000 3.6 310 17:18 20.06.2020
1189 Haze 29 1004 70 4000 3.6 310 16:40 20.06.2020
1190 Haze 29 1003 66 4000 3.6 300 16:19 20.06.2020
1191 Haze 29 1003 66 4000 3.6 300 15:57 20.06.2020
1192 Haze 29 1003 70 4000 3.6 250 15:38 20.06.2020
1193 Haze 30 1003 66 4000 4.1 310 15:18 20.06.2020
1194 Haze 30 1003 66 4000 4.6 290 14:42 20.06.2020
1195 Haze 30 1003 66 4000 4.6 290 14:20 20.06.2020
1196 Haze 31 1003 62 4000 3.6 300 13:42 20.06.2020
1197 Haze 31 1003 62 4000 4.6 300 13:20 20.06.2020
1198 Haze 31 1003 62 4000 4.6 300 12:56 20.06.2020
1199 Haze 31 1003 62 4000 6.2 270 12:38 20.06.2020
1200 Haze 31 1003 62 4000 5.1 280 12:18 20.06.2020
1201 Haze 31 1003 66 4000 5.1 250 11:39 20.06.2020
1202 Haze 31 1003 66 4000 5.1 250 11:20 20.06.2020
1203 Haze 31 1003 66 4000 5.1 270 10:57 20.06.2020
1204 Haze 31 1004 66 4000 4.6 270 10:39 20.06.2020
1205 Haze 31 1004 66 4000 5.1 260 10:18 20.06.2020
1206 Haze 31 1004 66 4000 5.1 280 09:42 20.06.2020
1207 Haze 31 1004 66 4000 5.1 280 09:24 20.06.2020
1208 Haze 30 1005 70 4000 4.6 270 08:58 20.06.2020
1209 Haze 30 1005 66 4000 2.6 300 08:39 20.06.2020
1210 Haze 30 1005 66 4000 2.6 300 08:21 20.06.2020
1211 Haze 30 1005 66 4000 1.5 280 07:50 20.06.2020
1212 Haze 29 1005 66 4000 2.1 260 07:25 20.06.2020
1213 Haze 27 1005 74 4000 3.6 330 06:43 20.06.2020
1214 Haze 27 1005 74 4000 3.6 330 06:20 20.06.2020
1215 Haze 27 1004 69 4000 4.6 330 05:47 20.06.2020
1216 Haze 27 1004 65 4000 5.1 310 03:25 20.06.2020
1217 Haze 26 1003 78 3000 2.6 300 01:53 20.06.2020
1218 Haze 26 1003 78 3000 2.6 300 01:35 20.06.2020
1219 Haze 27 1003 78 3000 4.1 300 00:42 20.06.2020
1220 Haze 27 1003 83 3000 2.6 270 00:19 20.06.2020
1221 Haze 27 1003 83 3000 2.6 270 23:40 19.06.2020
1222 Haze 27 1003 83 3000 2.6 270 23:19 19.06.2020
1223 Haze 27 1004 83 3000 4.1 230 22:55 19.06.2020
1224 Haze 27 1004 83 3000 4.1 230 22:37 19.06.2020
1225 Haze 27 1004 83 3000 2.6 220 22:18 19.06.2020
1226 Haze 27 1004 83 3000 2.6 220 21:54 19.06.2020
1227 Haze 28 1005 78 3000 4.1 240 21:36 19.06.2020
1228 Haze 28 1005 78 3000 1.17 234 21:18 19.06.2020
1229 Haze 28 1005 78 3000 1.17 234 20:55 19.06.2020
1230 Haze 28 1005 78 3000 1.17 234 20:37 19.06.2020
1231 Haze 28 1005 83 3000 1 40 20:18 19.06.2020
1232 Haze 29 1005 79 3000 0.84 312 19:41 19.06.2020
1233 Haze 29 1005 79 3000 0.84 312 19:41 19.06.2020
1234 Haze 29 1005 79 3000 2.27 270 19:23 19.06.2020
1235 Haze 29 1005 79 3000 2.27 270 18:59 19.06.2020
1236 Haze 30 1005 70 3000 2.27 270 18:39 19.06.2020
1237 Haze 30 1005 70 3000 1.74 297 18:20 19.06.2020
1238 Haze 29 1004 74 3000 1.5 20 17:42 19.06.2020
1239 Haze 29 1004 74 3000 1.5 20 17:23 19.06.2020
1240 Haze 30 1003 70 4000 1.98 271 16:57 19.06.2020
1241 Haze 31 1003 66 4000 1.98 271 16:39 19.06.2020
1242 Haze 31 1003 66 4000 1.5 310 16:20 19.06.2020
1243 Haze 31 1002 66 4000 2.1 280 15:45 19.06.2020
1244 Haze 31 1002 66 4000 2.1 280 15:25 19.06.2020
1245 Haze 31 1002 62 5000 2.1 280 14:57 19.06.2020
1246 Haze 32 1002 55 5000 2.1 300 14:39 19.06.2020
1247 Haze 32 1002 59 5000 2.1 310 14:21 19.06.2020
1248 Haze 32 1002 59 5000 2.1 310 13:57 19.06.2020
1249 Haze 32 1002 59 5000 2.1 310 13:57 19.06.2020
1250 Haze 33 1002 55 5000 3.1 290 13:39 19.06.2020
1251 Haze 33 1002 52 5000 2.1 310 13:19 19.06.2020
1252 Haze 33 1003 55 5000 1.5 310 12:43 19.06.2020
1253 Haze 32 1003 52 5000 3.1 250 12:20 19.06.2020
1254 Haze 32 1004 52 5000 4.6 280 11:41 19.06.2020
1255 Haze 31 1004 55 5000 3.6 280 11:19 19.06.2020
1256 Haze 31 1004 55 5000 3.6 280 10:59 19.06.2020
1257 Haze 31 1004 52 5000 2.6 310 10:41 19.06.2020
1258 Haze 31 1004 52 5000 2.6 310 10:41 19.06.2020
1259 Haze 31 1004 52 5000 2.6 310 10:20 19.06.2020
1260 Haze 31 1004 66 5000 1 260 09:45 19.06.2020
1261 Haze 31 1004 66 5000 1 260 09:25 19.06.2020
1262 Haze 31 1004 62 5000 3.1 240 08:59 19.06.2020
1263 Haze 30 1005 58 5000 2.1 240 08:39 19.06.2020
1264 Haze 30 1005 58 5000 2.1 240 08:20 19.06.2020
1265 Haze 29 1005 62 4000 3.1 270 07:41 19.06.2020
1266 Haze 29 1005 62 4000 3.1 270 07:21 19.06.2020
1267 Haze 28 1005 65 4000 1.5 300 06:47 19.06.2020
1268 Haze 28 1005 65 4000 1.5 300 06:21 19.06.2020
1269 Haze 27 1004 78 4000 1 330 05:28 19.06.2020
1270 Rain 26 1004 94 2000 2.74 262 03:37 19.06.2020
1271 Haze 25 1003 94 2000 1 220 02:19 19.06.2020
1272 Haze 25 1003 94 2000 3.1 220 00:44 19.06.2020
1273 Haze 25 1003 94 2000 3.1 220 00:44 19.06.2020
1274 Haze 25 1003 94 2000 3.1 220 00:22 19.06.2020
1275 Haze 26 1004 88 2000 3.46 265 23:57 18.06.2020
1276 Haze 26 1004 88 2000 3.46 265 23:38 18.06.2020
1277 Haze 26 1004 88 2000 3.46 303 23:20 18.06.2020
1278 Rain 26 1002 79 0 3.46 303 22:40 18.06.2020
1279 Haze 25 1004 88 3000 1 100 22:20 18.06.2020
1280 Haze 25 1004 88 3000 1 100 22:20 18.06.2020
1281 Haze 25 1004 88 3000 1 100 21:56 18.06.2020
1282 Haze 25 1004 88 3000 1 100 21:37 18.06.2020
1283 Thunderstorm 26 1005 83 3000 1 100 21:18 18.06.2020
1284 Thunderstorm 26 1005 83 3000 1 100 20:40 18.06.2020
1285 Thunderstorm 26 1005 83 3000 1 100 20:20 18.06.2020
1286 Haze 29 1004 70 3000 4.6 220 19:57 18.06.2020
1287 Haze 29 1004 70 3000 4.6 220 19:38 18.06.2020
1288 Haze 30 1003 70 4000 2.1 180 19:19 18.06.2020
1289 Haze 30 1003 70 4000 2.1 180 18:39 18.06.2020
1290 Haze 30 1003 70 4000 1.5 220 18:21 18.06.2020
1291 Haze 30 1003 70 4000 1.5 220 17:54 18.06.2020
1292 Haze 30 1003 70 4000 1.5 220 17:36 18.06.2020
1293 Haze 30 1002 70 4000 2.6 210 17:18 18.06.2020
1294 Haze 30 1002 70 4000 2.1 200 16:41 18.06.2020
1295 Haze 30 1002 70 4000 2.1 200 16:23 18.06.2020
1296 Haze 31 1001 66 4000 3.1 220 15:57 18.06.2020
1297 Haze 32 1001 62 5000 4.1 210 15:39 18.06.2020
1298 Haze 32 1001 62 5000 4.1 210 15:20 18.06.2020
1299 Haze 33 1001 59 5000 3.6 210 14:56 18.06.2020
1300 Haze 33 1001 59 5000 3.6 210 14:37 18.06.2020
1301 Haze 33 1000 59 5000 5.1 210 14:19 18.06.2020
1302 Haze 33 1000 59 5000 2.1 210 13:47 18.06.2020
1303 Haze 33 1000 59 5000 2.1 210 13:28 18.06.2020
1304 Haze 32 1001 66 5000 3.6 250 12:57 18.06.2020
1305 Haze 32 1001 66 5000 3.6 250 12:39 18.06.2020
1306 Haze 32 1001 66 5000 3.6 250 12:19 18.06.2020
1307 Haze 32 1002 62 5000 4.1 240 11:48 18.06.2020
1308 Haze 32 1002 62 5000 4.1 240 11:21 18.06.2020
1309 Haze 31 1003 66 5000 4.1 240 10:59 18.06.2020
1310 Haze 31 1003 66 5000 6.2 240 10:39 18.06.2020
1311 Haze 31 1003 66 5000 5.1 230 10:18 18.06.2020
1312 Haze 31 1004 70 5000 4.1 210 09:44 18.06.2020
1313 Haze 31 1004 70 5000 4.1 210 09:26 18.06.2020
1314 Haze 31 1004 70 5000 5.7 250 08:54 18.06.2020
1315 Haze 31 1004 66 5000 5.1 250 08:36 18.06.2020
1316 Haze 30 1004 70 5000 5.1 220 08:18 18.06.2020
1317 Haze 29 1004 74 5000 5.7 220 07:43 18.06.2020
1318 Haze 29 1004 74 5000 5.7 220 07:23 18.06.2020
1319 Haze 28 1004 74 4000 5.1 220 06:34 18.06.2020
1320 Haze 27 1004 78 3000 2.1 230 04:27 18.06.2020
1321 Mist 26 1003 94 3000 3.73 226 03:30 18.06.2020
1322 Haze 26 1002 88 3000 2.6 260 01:42 18.06.2020
1323 Haze 26 1001 88 3000 2.1 240 01:18 18.06.2020
1324 Haze 26 1001 88 3000 2.1 240 00:49 18.06.2020
1325 Haze 26 1001 88 3000 2.1 240 00:25 18.06.2020
1326 Haze 26 1002 88 3000 1 310 23:49 17.06.2020
1327 Haze 26 1002 88 3000 1 310 23:23 17.06.2020
1328 Haze 26 1002 88 3000 2.1 310 22:59 17.06.2020
1329 Haze 26 1002 88 3000 2.1 310 22:40 17.06.2020
1330 Haze 26 1002 88 3000 2.1 310 22:21 17.06.2020
1331 Haze 27 1002 88 3000 2.1 310 21:59 17.06.2020
1332 Haze 27 1002 88 3000 2.1 310 21:39 17.06.2020
1333 Haze 27 1002 88 3000 2.1 310 21:20 17.06.2020
1334 Haze 28 1003 78 3000 2.1 270 20:55 17.06.2020
1335 Haze 28 1003 78 3000 2.1 270 20:37 17.06.2020
1336 Haze 28 1003 78 3000 2.1 250 20:18 17.06.2020
1337 Haze 28 1003 78 3000 2.1 250 19:42 17.06.2020
1338 Haze 28 1003 78 3000 2.1 250 19:19 17.06.2020
1339 Haze 29 1002 74 3000 2.1 240 18:48 17.06.2020
1340 Haze 29 1002 74 3000 2.1 240 18:28 17.06.2020
1341 Haze 29 1002 74 3000 2.6 220 17:47 17.06.2020
1342 Haze 29 1002 74 3000 2.6 220 17:23 17.06.2020
1343 Haze 29 1002 79 3000 2.6 210 16:59 17.06.2020
1344 Haze 29 1001 79 3000 3.1 200 16:41 17.06.2020
1345 Haze 29 1001 79 3000 3.1 200 16:21 17.06.2020
1346 Haze 29 1001 79 3000 2.6 210 15:59 17.06.2020
1347 Haze 30 1000 74 3000 4.1 240 15:39 17.06.2020
1348 Haze 30 1000 74 3000 4.1 240 15:21 17.06.2020
1349 Haze 30 1000 74 3000 4.1 240 15:21 17.06.2020
1350 Haze 31 1000 70 3000 4.1 230 14:58 17.06.2020
1351 Haze 31 999 74 3000 6.2 220 14:39 17.06.2020
1352 Haze 31 999 74 3000 6.2 220 14:19 17.06.2020
1353 Haze 32 1000 70 3000 4.1 240 13:57 17.06.2020
1354 Haze 32 1000 70 3000 4.1 220 13:38 17.06.2020
1355 Haze 32 1000 70 3000 4.1 220 13:20 17.06.2020
1356 Haze 30 1000 74 3000 6.2 200 12:43 17.06.2020
1357 Haze 30 1000 74 3000 6.2 200 12:23 17.06.2020
1358 Haze 30 1000 74 3000 5.1 220 11:58 17.06.2020
1359 Haze 30 1001 74 3000 4.1 200 11:40 17.06.2020
1360 Haze 30 1001 74 3000 4.1 200 11:21 17.06.2020
1361 Haze 29 1001 79 2500 5.1 200 10:39 17.06.2020
1362 Haze 29 1001 83 2500 4.6 200 10:19 17.06.2020
1363 Haze 29 1001 83 2500 4.6 200 10:19 17.06.2020
1364 Haze 29 1001 83 2500 4.6 200 10:19 17.06.2020
1365 Haze 29 1001 83 2500 4.6 200 09:58 17.06.2020
1366 Haze 28 1002 83 2500 3.1 200 09:40 17.06.2020
1367 Haze 28 1002 83 2500 3.1 200 09:21 17.06.2020
1368 Haze 28 1002 83 2000 4.1 180 08:46 17.06.2020
1369 Haze 28 1002 83 2000 4.1 180 08:21 17.06.2020
1370 Haze 28 1002 88 2000 3.1 180 07:57 17.06.2020
1371 Haze 28 1002 88 2000 1.5 190 07:39 17.06.2020
1372 Haze 28 1002 88 2000 1.5 190 07:20 17.06.2020
1373 Rain 26 1001 94 1500 1 190 06:55 17.06.2020
1374 Rain 26 1001 94 1500 1 190 06:37 17.06.2020
1375 Rain 25 1001 100 1500 1.5 270 06:19 17.06.2020
1376 Rain 24 1002 94 1500 1 240 04:56 17.06.2020
1377 Mist 24 1000 100 2500 2.24 215 02:55 17.06.2020
1378 Mist 24 1000 100 2500 4.18 225 01:29 17.06.2020
1379 Mist 24 1000 94 2500 4.18 225 00:38 17.06.2020
1380 Mist 24 1000 94 2500 4.94 217 00:20 17.06.2020
1381 Mist 24 1000 94 2500 4.94 217 23:56 16.06.2020
1382 Mist 24 1000 94 2500 4.94 217 23:37 16.06.2020
1383 Rain 24 1000 94 1500 1 210 23:19 16.06.2020
1384 Rain 24 1000 94 1500 1 210 22:54 16.06.2020
1385 Rain 24 1000 94 1500 1 210 22:36 16.06.2020
1386 Thunderstorm 24 1000 94 1500 2.1 20 22:18 16.06.2020
1387 Thunderstorm 24 1000 94 1500 2.1 20 21:44 16.06.2020
1388 Thunderstorm 24 1000 94 1500 2.1 20 21:23 16.06.2020
1389 Thunderstorm 24 1001 94 1500 2.1 220 20:57 16.06.2020
1390 Thunderstorm 24 1001 94 1500 3.1 260 20:39 16.06.2020
1391 Rain 26 1002 83 2000 3.6 20 20:18 16.06.2020
1392 Rain 26 1002 83 2000 3.6 20 19:56 16.06.2020
1393 Rain 26 1002 83 2000 3.6 20 19:38 16.06.2020
1394 Rain 26 1001 78 2000 4.3 187 19:18 16.06.2020
1395 Rain 26 1001 78 2000 4.3 187 18:44 16.06.2020
1396 Rain 26 1001 78 2000 4.51 184 18:21 16.06.2020
1397 Rain 26 1001 83 2000 1 320 17:58 16.06.2020
1398 Rain 26 1001 83 2000 1 320 17:39 16.06.2020
1399 Thunderstorm 25 999 83 2000 5.1 210 17:21 16.06.2020
1400 Thunderstorm 25 999 83 2000 5.1 210 16:58 16.06.2020
1401 Thunderstorm 25 999 83 2000 5.1 210 16:39 16.06.2020
1402 Thunderstorm 25 999 78 2000 2.1 140 16:19 16.06.2020
1403 Thunderstorm 25 999 83 2000 5.1 210 16:19 16.06.2020
1404 Thunderstorm 25 999 78 2000 2.1 140 15:57 16.06.2020
1405 Thunderstorm 25 999 78 2000 2.1 140 15:57 16.06.2020
1406 Thunderstorm 25 999 78 2000 2.1 140 15:57 16.06.2020
1407 Thunderstorm 26 1000 74 2000 2.1 320 15:38 16.06.2020
1408 Thunderstorm 26 1000 74 2000 2.1 320 15:20 16.06.2020
1409 Thunderstorm 27 1000 61 2000 3.6 360 14:55 16.06.2020
1410 Haze 32 998 66 2500 1.5 280 14:36 16.06.2020
1411 Haze 31 998 70 4000 4.1 260 14:18 16.06.2020
1412 Haze 31 998 70 4000 4.1 260 13:44 16.06.2020
1413 Haze 31 998 70 4000 4.1 260 13:24 16.06.2020
1414 Haze 31 998 70 4000 4.1 260 13:24 16.06.2020
1415 Haze 31 998 70 4000 5.1 260 12:42 16.06.2020
1416 Haze 31 998 70 4000 5.1 260 12:22 16.06.2020
1417 Haze 30 999 74 4000 3.1 240 11:57 16.06.2020
1418 Haze 30 1000 74 4000 3.1 230 11:39 16.06.2020
1419 Haze 30 1000 74 4000 3.6 250 11:21 16.06.2020
1420 Haze 30 1000 74 4000 3.6 250 10:57 16.06.2020
1421 Haze 30 1000 70 4000 4.1 260 10:38 16.06.2020
1422 Haze 30 1001 74 4000 4.6 250 10:18 16.06.2020
1423 Haze 29 1001 79 4000 4.1 270 09:43 16.06.2020
1424 Haze 29 1001 79 4000 4.1 270 09:22 16.06.2020
1425 Haze 29 1002 79 4000 3.6 220 08:51 16.06.2020
1426 Haze 29 1002 79 4000 5.1 260 08:32 16.06.2020
1427 Haze 29 1002 79 4000 4.1 220 07:51 16.06.2020
1428 Haze 28 1002 83 4000 4.6 220 07:29 16.06.2020
1429 Haze 28 1002 83 4000 2.6 220 06:56 16.06.2020
1430 Haze 27 1002 94 4000 3.6 210 06:33 16.06.2020
1431 Haze 26 1002 94 4000 1 220 05:50 16.06.2020
1432 Haze 26 1001 94 4000 1 220 04:54 16.06.2020
1433 Haze 25 1001 100 3000 4.5 273 03:53 16.06.2020
1434 Haze 25 1000 100 3000 4.69 256 02:28 16.06.2020
1435 Haze 25 1000 100 3000 3.6 200 01:32 16.06.2020
1436 Haze 25 1000 100 3000 3.6 200 00:52 16.06.2020
1437 Haze 25 1000 100 3000 3.6 200 00:22 16.06.2020
1438 Clouds 27 999 80 0 4.42 240 23:43 15.06.2020
1439 Rain 25 1000 100 2500 1.5 200 23:24 15.06.2020
1440 Rain 25 1000 100 2500 1.5 200 22:59 15.06.2020
1441 Rain 27 999 80 0 3.74 226 22:41 15.06.2020
1442 Rain 25 1002 100 2500 2.56 203 22:21 15.06.2020
1443 Rain 25 1002 100 2500 2.56 203 21:56 15.06.2020
1444 Rain 25 1002 100 2500 2.56 203 21:38 15.06.2020
1445 Rain 25 1002 100 2500 2.51 240 21:19 15.06.2020
1446 Rain 25 1002 100 2500 2.51 240 20:57 15.06.2020
1447 Rain 25 1002 100 2500 2.51 240 20:38 15.06.2020
1448 Haze 25 1003 100 2500 2.79 216 20:19 15.06.2020
1449 Haze 25 1003 100 2500 2.79 216 19:56 15.06.2020
1450 Haze 25 1003 100 2500 2.79 216 19:38 15.06.2020
1451 Mist 25 1002 100 2500 2.6 210 19:19 15.06.2020
1452 Mist 25 1002 100 2500 2.6 210 18:55 15.06.2020
1453 Mist 25 1002 100 2500 2.6 210 18:55 15.06.2020
1454 Mist 25 1002 100 2500 2.6 210 18:37 15.06.2020
1455 Rain 26 1002 100 2500 1.48 205 18:18 15.06.2020
1456 Clouds 30 1000 65 0 1.48 205 17:42 15.06.2020
1457 Clouds 30 1000 64 0 1.7 195 17:21 15.06.2020
1458 Clouds 30 1000 64 0 1.7 195 17:21 15.06.2020
1459 Clouds 30 1000 64 0 1.7 195 16:58 15.06.2020
1460 Clouds 30 1000 64 0 1.7 195 16:40 15.06.2020
1461 Clouds 30 999 63 0 1.23 207 16:18 15.06.2020
1462 Rain 25 1000 100 2500 1 150 15:56 15.06.2020
1463 Rain 25 1000 100 2500 1 150 15:36 15.06.2020
1464 Rain 25 1000 100 2500 1 150 15:18 15.06.2020
1465 Rain 25 1001 100 2500 1 150 14:41 15.06.2020
1466 Rain 25 1000 100 2500 1 180 14:20 15.06.2020
1467 Rain 25 1000 100 2500 1 180 13:58 15.06.2020
1468 Rain 26 1000 94 2500 1 210 13:39 15.06.2020
1469 Thunderstorm 25 1000 100 2500 1 250 13:20 15.06.2020
1470 Thunderstorm 25 1000 100 2500 1 250 12:55 15.06.2020
1471 Thunderstorm 25 1000 100 1500 1 250 12:36 15.06.2020
1472 Thunderstorm 25 1000 100 1200 4.1 50 12:18 15.06.2020
1473 Thunderstorm 26 1001 94 0 5.1 300 11:42 15.06.2020
1474 Thunderstorm 26 1001 94 0 5.1 300 11:23 15.06.2020
1475 Haze 30 1001 74 2000 5.1 210 10:44 15.06.2020
1476 Rain 29 1002 89 1500 2.1 340 10:22 15.06.2020
1477 Haze 31 1002 66 4000 1.5 260 09:45 15.06.2020
1478 Haze 31 1002 66 4000 1.5 260 09:25 15.06.2020
1479 Haze 31 1002 66 4000 1.5 260 08:56 15.06.2020
1480 Haze 30 1003 74 4000 2.6 300 08:37 15.06.2020
1481 Haze 30 1003 74 4000 2.6 300 08:18 15.06.2020
1482 Haze 30 1004 74 4000 2.1 270 07:42 15.06.2020
1483 Haze 29 1004 79 4000 1.5 250 07:20 15.06.2020
1484 Haze 28 1004 83 4000 1.5 240 06:38 15.06.2020
1485 Mist 27 1003 94 3000 2.1 260 06:19 15.06.2020
1486 Mist 27 1003 94 3000 0.85 308 05:39 15.06.2020
1487 Mist 27 1003 94 2500 0.31 10 05:20 15.06.2020
1488 Mist 26 1003 100 2500 0.71 351 04:18 15.06.2020
1489 Mist 26 1002 100 2500 0.71 351 03:37 15.06.2020
1490 Mist 26 1002 94 2000 2.1 281 02:34 15.06.2020
1491 Mist 26 1002 94 2000 1.89 281 01:51 15.06.2020
1492 Mist 26 1002 94 2000 1.85 298 01:30 15.06.2020
1493 Mist 26 1002 100 2000 1.85 298 00:56 15.06.2020
1494 Mist 26 1002 100 2000 1.85 298 00:38 15.06.2020
1495 Rain 26 1002 100 2500 2.02 296 00:18 15.06.2020
1496 Rain 26 1002 100 2500 2.02 296 23:42 14.06.2020
1497 Rain 26 1002 100 2500 1.69 265 23:24 14.06.2020
1498 Rain 26 1002 100 2500 1.69 265 23:24 14.06.2020
1499 Mist 26 1002 94 2500 1.69 265 22:58 14.06.2020
1500 Mist 26 1002 94 2500 1.69 265 22:38 14.06.2020
1501 Mist 26 1003 94 2500 1.13 219 22:19 14.06.2020
1502 Mist 26 1003 94 2500 1.13 219 21:57 14.06.2020
1503 Mist 26 1003 94 2500 1.13 219 21:38 14.06.2020
1504 Mist 26 1004 94 2500 1.48 7 21:19 14.06.2020
1505 Mist 26 1004 94 2500 1.48 7 20:58 14.06.2020
1506 Mist 26 1003 100 2500 1.48 7 20:38 14.06.2020
1507 Mist 26 1003 100 2500 1.51 353 20:19 14.06.2020
1508 Mist 26 1003 100 2500 1.51 353 19:57 14.06.2020
1509 Mist 26 1003 100 2500 1.51 353 19:37 14.06.2020
1510 Rain 26 1003 100 2000 1.81 27 19:19 14.06.2020
1511 Rain 26 1003 100 2000 1.81 27 18:56 14.06.2020
1512 Rain 26 1003 100 2000 1.81 27 18:37 14.06.2020
1513 Rain 26 1004 94 2000 2.12 23 18:19 14.06.2020
1514 Rain 26 1004 94 2000 2.12 23 17:55 14.06.2020
1515 Rain 26 1003 94 2000 1.5 240 17:37 14.06.2020
1516 Rain 26 1003 94 2000 1.5 240 17:19 14.06.2020
1517 Thunderstorm 25 1003 100 2000 2.6 210 16:40 14.06.2020
1518 Thunderstorm 25 1003 100 2000 2.6 210 16:20 14.06.2020
1519 Thunderstorm 25 1002 100 2000 1.5 270 15:58 14.06.2020
1520 Thunderstorm 25 1002 100 2000 1.5 270 15:58 14.06.2020
1521 Thunderstorm 25 1002 100 2000 2.1 250 15:40 14.06.2020
1522 Thunderstorm 25 1001 100 1500 1.5 250 15:18 14.06.2020
1523 Thunderstorm 25 1001 100 1500 1.5 250 14:57 14.06.2020
1524 Thunderstorm 25 1001 100 1500 1.5 250 14:38 14.06.2020
1525 Thunderstorm 25 1001 100 1500 3.46 272 14:18 14.06.2020
1526 Thunderstorm 24 1001 100 0 6.2 60 13:41 14.06.2020
1527 Thunderstorm 24 1001 100 0 6.2 60 13:22 14.06.2020
1528 Thunderstorm 24 1001 100 0 6.2 60 12:59 14.06.2020
1529 Haze 33 1000 59 3000 2.1 160 12:40 14.06.2020
1530 Haze 33 1000 59 3000 2.1 160 12:22 14.06.2020
1531 Haze 33 1000 59 3000 2.1 160 11:59 14.06.2020
1532 Haze 33 1000 55 4000 2.1 180 11:40 14.06.2020
1533 Haze 33 1000 55 4000 2.1 180 11:21 14.06.2020
1534 Haze 33 1001 63 5000 3.1 130 10:57 14.06.2020
1535 Haze 33 1002 59 5000 2.1 200 10:38 14.06.2020
1536 Haze 33 1002 59 5000 2.1 200 10:18 14.06.2020
1537 Haze 32 1003 62 5000 1.5 200 09:42 14.06.2020
1538 Haze 32 1003 62 5000 1.5 200 09:23 14.06.2020
1539 Haze 32 1003 59 5000 1.36 267 08:42 14.06.2020
1540 Haze 32 1003 59 5000 1.76 258 08:22 14.06.2020
1541 Haze 32 1003 59 5000 1.76 258 07:52 14.06.2020
1542 Haze 31 1004 62 5000 1.76 258 07:34 14.06.2020
1543 Haze 31 1004 66 5000 2.03 248 06:51 14.06.2020
1544 Haze 29 1004 74 5000 2.11 244 05:51 14.06.2020
1545 Haze 28 1003 78 5000 1.84 254 05:22 14.06.2020
1546 Haze 27 1003 78 4000 2.1 350 04:37 14.06.2020
1547 Haze 25 1003 88 3000 1.5 340 03:45 14.06.2020
1548 Haze 25 1002 88 3000 2.1 350 02:35 14.06.2020
1549 Haze 26 1002 83 3000 2.1 350 01:54 14.06.2020
1550 Haze 26 1002 83 3000 2.1 350 01:26 14.06.2020
1551 Clouds 28 1000 72 0 2.29 264 00:47 14.06.2020
1552 Haze 26 1002 83 3000 1.5 310 00:20 14.06.2020
1553 Haze 26 1002 83 3000 1.5 310 23:46 13.06.2020
1554 Haze 26 1002 83 3000 1.5 310 23:26 13.06.2020
1555 Haze 27 1002 78 3000 4.1 330 22:58 13.06.2020
1556 Haze 27 1002 78 3000 4.1 330 22:38 13.06.2020
1557 Haze 27 1003 78 3000 2.75 236 22:18 13.06.2020
1558 Haze 27 1003 78 3000 2.75 236 21:57 13.06.2020
1559 Haze 27 1003 78 3000 2.75 236 21:38 13.06.2020
1560 Haze 27 1003 78 3000 1.71 264 21:20 13.06.2020
1561 Haze 27 1003 88 3000 1.71 264 20:43 13.06.2020
1562 Haze 28 1003 83 3000 1.9 243 20:20 13.06.2020
1563 Haze 28 1003 83 3000 1.9 243 19:58 13.06.2020
1564 Haze 28 1003 83 3000 1.9 243 19:36 13.06.2020
1565 Haze 28 1003 83 3000 1.6 258 19:18 13.06.2020
1566 Haze 28 1003 83 3000 1.6 258 18:55 13.06.2020
1567 Haze 28 1003 83 3000 1.6 258 18:37 13.06.2020
1568 Haze 29 1002 79 3000 1 140 18:18 13.06.2020
1569 Haze 29 1002 79 3000 1 140 17:42 13.06.2020
1570 Haze 29 1002 79 3000 1 140 17:23 13.06.2020
1571 Haze 29 1001 79 3000 1 140 16:58 13.06.2020
1572 Haze 30 1001 70 3000 1 130 16:40 13.06.2020
1573 Haze 30 1000 70 2500 2.39 287 16:19 13.06.2020
1574 Haze 30 1000 70 2500 2.39 287 15:58 13.06.2020
1575 Haze 30 1000 70 2500 2.39 287 15:39 13.06.2020
1576 Haze 31 1000 66 2500 1.5 150 15:20 13.06.2020
1577 Haze 31 999 62 2500 1 140 14:43 13.06.2020
1578 Haze 31 999 62 2500 1 140 14:21 13.06.2020
1579 Haze 31 999 62 2500 1 80 13:45 13.06.2020
1580 Haze 31 999 62 2500 1 80 13:26 13.06.2020
1581 Haze 31 999 62 2500 1 70 12:57 13.06.2020
1582 Haze 30 999 70 2500 2.39 210 12:37 13.06.2020
1583 Haze 30 1000 70 2500 2.35 228 12:19 13.06.2020
1584 Haze 30 1000 70 2500 2.35 228 12:19 13.06.2020
1585 Haze 30 1000 70 2500 1 110 11:40 13.06.2020
1586 Haze 29 1001 74 2500 1 130 11:19 13.06.2020
1587 Haze 29 1001 74 2500 1 130 10:58 13.06.2020
1588 Haze 30 1001 70 2500 1 100 10:40 13.06.2020
1589 Haze 30 1001 70 2500 1 100 10:22 13.06.2020
1590 Haze 29 1002 74 2500 1 60 09:52 13.06.2020
1591 Haze 29 1002 74 2500 1 60 09:32 13.06.2020
1592 Haze 28 1002 78 2500 1 30 08:56 13.06.2020
1593 Haze 27 1003 83 2500 1 20 08:37 13.06.2020
1594 Haze 27 1003 83 2500 1.5 10 08:19 13.06.2020
1595 Haze 27 1003 78 2000 2.6 340 07:42 13.06.2020
1596 Haze 27 1003 78 2000 2.6 340 07:24 13.06.2020
1597 Haze 26 1003 88 2000 2.13 260 06:44 13.06.2020
1598 Haze 26 1003 88 2000 2.43 251 06:25 13.06.2020
1599 Rain 25 1003 94 1500 1 10 05:28 13.06.2020
1600 Rain 25 1002 100 1200 1 310 04:35 13.06.2020
1601 Rain 25 1001 94 2000 1.5 310 03:33 13.06.2020
1602 Clouds 28 1000 74 0 3.18 259 02:38 13.06.2020
1603 Rain 27 999 78 0 2.59 248 01:48 13.06.2020
1604 Rain 25 1001 94 2000 2.6 210 01:22 13.06.2020
1605 Rain 27 998 77 0 2.69 239 00:48 13.06.2020
1606 Rain 25 1001 94 2000 2.6 220 00:27 13.06.2020
1607 Rain 25 1001 94 2000 2.6 220 23:57 12.06.2020
1608 Rain 25 1001 94 2000 2.6 220 23:38 12.06.2020
1609 Mist 25 1000 100 2000 1.5 190 23:18 12.06.2020
1610 Mist 25 1000 100 2000 1.5 190 22:41 12.06.2020
1611 Rain 25 1000 100 2000 1.5 190 22:19 12.06.2020
1612 Rain 25 1000 100 2000 1.5 190 21:54 12.06.2020
1613 Rain 25 1000 100 2000 1.5 190 21:36 12.06.2020
1614 Rain 25 1001 100 2000 2.1 230 21:18 12.06.2020
1615 Rain 25 1001 100 2000 2.1 230 20:41 12.06.2020
1616 Rain 25 1001 100 2000 2.1 230 20:22 12.06.2020
1617 Rain 25 1001 100 2000 2.6 260 19:57 12.06.2020
1618 Rain 25 1001 100 2000 2.6 260 19:57 12.06.2020
1619 Rain 25 1001 100 2000 2.6 260 19:39 12.06.2020
1620 Mist 25 1002 100 2000 2.42 170 19:19 12.06.2020
1621 Mist 25 1002 100 2000 2.42 170 18:39 12.06.2020
1622 Mist 25 1002 94 2000 2.6 360 18:19 12.06.2020
1623 Mist 25 1002 94 2000 2.6 360 17:58 12.06.2020
1624 Mist 25 1002 94 2000 2.6 360 17:39 12.06.2020
1625 Thunderstorm 25 1000 100 2000 2.6 270 17:19 12.06.2020
1626 Thunderstorm 25 1000 100 2000 2.6 270 16:44 12.06.2020
1627 Thunderstorm 25 999 100 2000 3.6 280 16:20 12.06.2020
1628 Rain 24 998 100 1500 2.6 190 15:49 12.06.2020
1629 Rain 24 998 100 1500 2.6 190 15:26 12.06.2020
1630 Thunderstorm 24 999 100 800 2.6 250 14:58 12.06.2020
1631 Thunderstorm 25 999 94 500 3.6 340 14:39 12.06.2020
1632 Thunderstorm 25 999 94 500 3.6 340 14:21 12.06.2020
1633 Thunderstorm 34 997 56 2500 6.2 230 13:42 12.06.2020
1634 Thunderstorm 34 997 56 2500 6.2 230 13:21 12.06.2020
1635 Clouds 36 994 35 0 3.15 62 12:41 12.06.2020
1636 Clouds 36 994 35 0 3.15 62 12:41 12.06.2020
1637 Clouds 37 995 34 0 3.71 81 12:20 12.06.2020
1638 Haze 35 998 47 3000 1.5 50 11:58 12.06.2020
1639 Haze 35 998 47 4000 1 50 11:39 12.06.2020
1640 Haze 35 998 47 4000 1 50 11:21 12.06.2020
1641 Haze 34 999 52 5000 3.1 10 10:46 12.06.2020
1642 Haze 34 999 52 5000 3.1 10 10:24 12.06.2020
1643 Haze 33 1000 55 5000 3.1 10 09:47 12.06.2020
1644 Haze 33 1000 55 5000 3.1 10 09:21 12.06.2020
1645 Haze 32 1001 59 5000 3.1 330 08:45 12.06.2020
1646 Haze 32 1001 59 5000 3.1 330 08:25 12.06.2020
1647 Haze 30 1001 70 4000 1 360 07:44 12.06.2020
1648 Haze 30 1001 70 4000 1 360 07:26 12.06.2020
1649 Haze 29 1002 70 4000 2.39 57 06:55 12.06.2020
1650 Haze 28 1002 78 4000 2.1 290 06:30 12.06.2020
1651 Haze 27 1002 78 4000 2.1 260 05:55 12.06.2020
1652 Haze 27 1002 78 4000 2.1 260 05:31 12.06.2020
1653 Haze 26 1002 83 4000 2.1 260 04:59 12.06.2020
1654 Mist 26 1002 83 3000 3.6 270 03:24 12.06.2020
1655 Rain 26 1000 94 3000 1.5 270 01:55 12.06.2020
1656 Rain 26 1000 94 3000 1.5 270 01:27 12.06.2020
1657 Rain 25 1000 94 3000 2.1 250 00:45 12.06.2020
1658 Rain 25 1000 94 3000 2.1 250 00:25 12.06.2020
1659 Haze 26 1000 88 3000 1.5 180 23:59 11.06.2020
1660 Haze 26 1000 88 3000 1.5 180 23:41 11.06.2020
1661 Haze 26 1000 88 3000 1.5 180 23:21 11.06.2020
1662 Haze 26 1000 88 3000 2.1 240 22:59 11.06.2020
1663 Haze 26 1001 83 3000 2.1 190 22:38 11.06.2020
1664 Haze 26 1001 83 3000 2.1 190 22:20 11.06.2020
1665 Haze 26 1001 83 3000 2.1 190 21:56 11.06.2020
1666 Haze 26 1001 83 3000 2.1 190 21:37 11.06.2020
1667 Rain 27 1002 83 3000 3.59 213 21:19 11.06.2020
1668 Rain 27 1002 83 3000 4.21 159 20:43 11.06.2020
1669 Rain 27 1002 83 3000 3.16 180 20:21 11.06.2020
1670 Rain 29 1002 70 3000 1.5 130 19:55 11.06.2020
1671 Haze 29 1001 66 3000 1.5 180 19:36 11.06.2020
1672 Haze 29 1001 66 3000 1.5 180 19:18 11.06.2020
1673 Haze 29 1001 66 3000 1.5 180 18:41 11.06.2020
1674 Haze 29 1001 58 3000 4.1 90 18:20 11.06.2020
1675 Haze 29 1001 58 3000 4.1 90 18:20 11.06.2020
1676 Haze 29 1001 58 3000 4.1 90 17:56 11.06.2020
1677 Haze 29 1001 58 3000 4.1 90 17:37 11.06.2020
1678 Haze 29 1001 58 3000 4.1 90 17:19 11.06.2020
1679 Haze 31 1000 55 3000 5.1 60 16:55 11.06.2020
1680 Haze 31 999 55 3000 1.9 120 16:37 11.06.2020
1681 Haze 31 999 55 3000 1.54 84 16:18 11.06.2020
1682 Haze 31 997 52 3000 2.6 240 15:42 11.06.2020
1683 Haze 31 997 52 3000 2.6 240 15:23 11.06.2020
1684 Haze 32 998 49 3000 2.1 30 14:55 11.06.2020
1685 Haze 32 998 49 3000 3.6 30 14:37 11.06.2020
1686 Haze 32 998 49 3000 3.6 30 14:19 11.06.2020
1687 Haze 31 998 52 3000 7.7 10 13:54 11.06.2020
1688 Haze 31 998 55 3000 7.7 350 13:36 11.06.2020
1689 Haze 32 998 52 2500 7.7 360 13:18 11.06.2020
1690 Clouds 37 998 39 6000 1.5 180 12:39 11.06.2020
1691 Clouds 37 998 39 6000 1.5 160 12:20 11.06.2020
1692 Clouds 37 998 39 6000 1.5 160 11:59 11.06.2020
1693 Clouds 36 999 41 6000 3.41 351 11:40 11.06.2020
1694 Clouds 36 999 41 6000 3.73 355 11:22 11.06.2020
1695 Clouds 35 1000 44 6000 1.5 360 10:57 11.06.2020
1696 Clouds 36 1000 41 6000 2.1 10 10:39 11.06.2020
1697 Clouds 36 1000 41 6000 2.1 10 10:39 11.06.2020
1698 Clouds 36 1000 41 6000 2.1 10 10:18 11.06.2020
1699 Clouds 35 1001 44 6000 1.5 50 09:42 11.06.2020
1700 Clouds 35 1001 44 6000 1.5 50 09:24 11.06.2020
1701 Clouds 34 1002 46 6000 1 300 08:44 11.06.2020
1702 Clouds 34 1002 46 6000 1 300 08:44 11.06.2020
1703 Clouds 34 1002 46 6000 1 300 08:21 11.06.2020
1704 Clouds 33 1002 49 6000 3.1 270 07:59 11.06.2020
1705 Clouds 33 1002 49 6000 2.1 300 07:41 11.06.2020
1706 Clouds 32 1002 55 6000 2.6 350 07:20 11.06.2020
1707 Clouds 30 1003 62 6000 1 300 06:29 11.06.2020
1708 Clouds 29 1003 66 6000 2.6 250 05:46 11.06.2020
1709 Haze 26 1003 83 4000 3.6 230 03:56 11.06.2020
1710 Haze 26 1003 83 4000 3.6 220 03:24 11.06.2020
1711 Haze 26 1002 83 3000 4.1 200 02:32 11.06.2020
1712 Haze 27 1001 78 3000 4.6 220 01:53 11.06.2020
1713 Haze 27 1001 78 3000 4.6 220 01:31 11.06.2020
1714 Haze 27 1002 78 3000 4.6 190 00:51 11.06.2020
1715 Haze 27 1002 78 3000 4.6 190 00:30 11.06.2020
1716 Haze 27 1002 69 3000 3.1 160 23:49 10.06.2020
1717 Haze 27 1002 69 3000 3.1 160 23:27 10.06.2020
1718 Haze 27 1001 69 3000 3.55 284 22:59 10.06.2020
1719 Haze 27 1001 69 3000 3.55 284 22:38 10.06.2020
1720 Haze 27 1001 69 3000 3.93 287 22:20 10.06.2020
1721 Haze 27 1002 69 3000 3.93 287 21:58 10.06.2020
1722 Haze 27 1002 69 3000 3.93 287 21:40 10.06.2020
1723 Haze 28 1002 61 3000 4.84 293 21:18 10.06.2020
1724 Haze 28 1002 61 3000 4.84 293 20:57 10.06.2020
1725 Haze 28 1002 61 3000 4.84 293 20:39 10.06.2020
1726 Thunderstorm 29 1002 62 4000 4.1 260 20:21 10.06.2020
1727 Thunderstorm 29 1002 62 4000 4.1 260 19:42 10.06.2020
1728 Thunderstorm 29 1003 66 4000 4.1 270 19:20 10.06.2020
1729 Thunderstorm 29 1002 66 4000 2.6 270 19:00 10.06.2020
1730 Thunderstorm 29 1002 66 4000 2.6 270 18:41 10.06.2020
1731 Haze 29 1002 70 4000 4.1 270 18:20 10.06.2020
1732 Haze 29 1002 70 4000 4.1 270 17:58 10.06.2020
1733 Haze 29 1002 70 4000 5.1 220 17:40 10.06.2020
1734 Haze 29 1002 70 4000 5.1 220 17:19 10.06.2020
1735 Haze 29 1002 66 4000 5.7 220 16:57 10.06.2020
1736 Haze 29 1002 66 4000 4.6 230 16:39 10.06.2020
1737 Haze 29 1002 66 4000 4.6 230 16:20 10.06.2020
1738 Haze 34 1000 38 5000 2.1 320 15:41 10.06.2020
1739 Haze 34 1000 38 5000 2.1 320 15:22 10.06.2020
1740 Clouds 36 999 37 6000 2.1 320 14:59 10.06.2020
1741 Clouds 37 999 30 6000 1.5 360 14:40 10.06.2020
1742 Clouds 37 999 30 6000 1.5 360 14:20 10.06.2020
1743 Clouds 37 999 35 6000 4.1 20 13:41 10.06.2020
1744 Clouds 38 999 33 6000 2.6 40 13:21 10.06.2020
1745 Clouds 38 1000 37 6000 2.1 40 12:45 10.06.2020
1746 Clouds 37 1000 37 6000 2.6 350 12:23 10.06.2020
1747 Clouds 37 1000 37 6000 2.6 350 11:59 10.06.2020
1748 Clouds 37 1001 39 6000 2.6 30 11:40 10.06.2020
1749 Clouds 37 1002 42 6000 3.1 360 11:19 10.06.2020
1750 Clouds 36 1003 44 6000 1 320 10:57 10.06.2020
1751 Clouds 36 1003 44 6000 1 320 10:39 10.06.2020
1752 Clouds 36 1003 47 6000 1.5 320 10:20 10.06.2020
1753 Clouds 35 1004 47 6000 2.1 320 09:42 10.06.2020
1754 Clouds 35 1004 47 6000 2.1 320 09:23 10.06.2020
1755 Clouds 35 1004 47 6000 2.1 330 08:57 10.06.2020
1756 Clouds 34 1005 46 6000 3.1 350 08:38 10.06.2020
1757 Clouds 34 1005 49 6000 2.6 300 08:20 10.06.2020
1758 Clouds 34 1005 52 6000 2.6 340 07:39 10.06.2020
1759 Clouds 33 1005 52 6000 1.5 350 07:20 10.06.2020
1760 Clouds 32 1005 55 6000 1.5 350 06:44 10.06.2020
1761 Haze 31 1005 62 5000 2.1 330 06:23 10.06.2020
1762 Haze 31 1005 62 5000 2.1 330 05:58 10.06.2020
1763 Haze 31 1005 62 5000 2.1 300 05:26 10.06.2020
1764 Haze 28 1005 74 4000 1.5 240 04:35 10.06.2020
1765 Haze 27 1004 78 3000 2.6 260 02:57 10.06.2020
1766 Haze 27 1004 78 3000 2.6 260 02:21 10.06.2020
1767 Haze 27 1004 78 3000 2.6 260 01:36 10.06.2020
1768 Haze 26 1004 88 3000 2.1 250 00:40 10.06.2020
1769 Haze 26 1004 88 3000 2.1 260 00:21 10.06.2020
1770 Haze 26 1004 88 3000 2.1 260 00:21 10.06.2020
1771 Haze 26 1004 88 3000 2.1 260 23:56 09.06.2020
1772 Haze 26 1004 88 3000 1.5 210 23:38 09.06.2020
1773 Haze 26 1004 88 3000 1.5 210 23:19 09.06.2020
1774 Haze 27 1003 78 3000 1.5 210 22:55 09.06.2020
1775 Haze 27 1003 78 3000 1.5 210 22:37 09.06.2020
1776 Haze 27 1003 78 3000 1.5 210 22:19 09.06.2020
1777 Haze 27 1004 78 3000 1.5 320 21:56 09.06.2020
1778 Haze 27 1004 78 3000 1.5 320 21:56 09.06.2020
1779 Haze 27 1004 78 3000 1.5 320 21:37 09.06.2020
1780 Haze 27 1004 78 3000 1.5 320 21:19 09.06.2020
1781 Haze 27 1004 78 3000 2.6 270 20:56 09.06.2020
1782 Haze 27 1004 78 3000 2.6 270 20:38 09.06.2020
1783 Rain 26 1005 88 3000 2.84 316 20:18 09.06.2020
1784 Rain 26 1005 88 3000 2.84 316 19:55 09.06.2020
1785 Rain 26 1005 88 3000 2.84 316 19:37 09.06.2020
1786 Rain 27 1005 78 3000 3.6 320 19:18 09.06.2020
1787 Rain 28 1005 74 3000 3.6 350 18:45 09.06.2020
1788 Rain 28 1005 74 3000 3.6 350 18:26 09.06.2020
1789 Rain 30 1005 58 3000 3.1 10 17:57 09.06.2020
1790 Haze 29 1004 66 4000 1 300 17:39 09.06.2020
1791 Haze 29 1004 66 4000 1 300 17:21 09.06.2020
1792 Haze 29 1004 70 4000 2.1 320 16:56 09.06.2020
1793 Haze 29 1004 70 4000 2.1 320 16:56 09.06.2020
1794 Haze 29 1003 70 4000 2.1 300 16:37 09.06.2020
1795 Haze 29 1003 70 4000 2.1 300 16:19 09.06.2020
1796 Haze 29 1003 70 4000 1 300 15:40 09.06.2020
1797 Haze 29 1003 70 4000 1 300 15:21 09.06.2020
1798 Rain 29 1003 70 4000 4.6 270 14:57 09.06.2020
1799 Thunderstorm 30 1003 62 4000 4.1 290 14:38 09.06.2020
1800 Thunderstorm 30 1003 62 4000 4.1 290 14:19 09.06.2020
1801 Thunderstorm 31 1003 55 4000 2.1 330 13:54 09.06.2020
1802 Haze 32 1002 52 4000 1 60 13:36 09.06.2020
1803 Haze 32 1002 52 4000 1 60 13:36 09.06.2020
1804 Haze 31 1003 55 4000 5.1 50 13:18 09.06.2020
1805 Haze 32 1002 55 4000 7.7 60 12:41 09.06.2020
1806 Haze 37 1002 39 5000 3.6 30 12:20 09.06.2020
1807 Haze 37 1002 39 5000 3.6 30 11:56 09.06.2020
1808 Haze 37 1002 35 5000 3.11 316 11:38 09.06.2020
1809 Haze 37 1002 35 5000 3.11 316 11:38 09.06.2020
1810 Haze 37 1003 35 5000 2.1 230 11:19 09.06.2020
1811 Haze 37 1003 35 5000 2.1 230 10:54 09.06.2020
1812 Haze 37 1003 35 5000 3.76 313 10:36 09.06.2020
1813 Haze 37 1003 35 5000 3.74 315 10:18 09.06.2020
1814 Haze 36 1005 37 5000 2.1 350 09:40 09.06.2020
1815 Haze 36 1005 37 5000 2.1 350 09:19 09.06.2020
1816 Clouds 36 1006 39 6000 1 320 08:40 09.06.2020
1817 Clouds 36 1006 39 6000 1 320 08:21 09.06.2020
1818 Clear 34 1006 46 6000 1 100 07:44 09.06.2020
1819 Clear 33 1006 49 6000 2.1 300 07:23 09.06.2020
1820 Clear 33 1006 49 6000 2.1 300 06:56 09.06.2020
1821 Clear 33 1006 49 6000 3.1 330 06:37 09.06.2020
1822 Clear 31 1006 55 6000 3.6 320 05:53 09.06.2020
1823 Clear 30 1006 58 6000 2.6 330 04:22 09.06.2020
1824 Haze 27 1005 74 4000 1.5 320 02:47 09.06.2020
1825 Haze 27 1004 74 4000 4.19 321 01:38 09.06.2020
1826 Clouds 31 1002 47 0 4.07 316 01:19 09.06.2020
1827 Clouds 31 1002 47 0 4.07 316 00:44 09.06.2020
1828 Haze 27 1004 78 4000 3.65 310 00:19 09.06.2020
1829 Haze 27 1004 78 4000 3.65 310 23:42 08.06.2020
1830 Haze 27 1004 78 4000 2.56 317 23:22 08.06.2020
1831 Haze 27 1004 74 4000 2.56 317 22:59 08.06.2020
1832 Haze 27 1004 74 4000 2.56 317 22:39 08.06.2020
1833 Haze 27 1004 74 4000 1.9 338 22:20 08.06.2020
1834 Haze 28 1005 69 4000 1.9 338 21:56 08.06.2020
1835 Haze 28 1005 69 4000 1.9 338 21:38 08.06.2020
1836 Haze 28 1005 69 4000 2.33 319 21:19 08.06.2020
1837 Haze 28 1005 74 4000 2.1 60 20:55 08.06.2020
1838 Haze 28 1005 74 4000 2.1 60 20:37 08.06.2020
1839 Haze 29 1006 70 4000 2.41 298 20:18 08.06.2020
1840 Haze 29 1006 70 4000 2.41 298 19:43 08.06.2020
1841 Haze 29 1006 70 4000 2.41 298 19:43 08.06.2020
1842 Haze 28 1005 69 4000 3.11 276 19:21 08.06.2020
1843 Haze 28 1005 69 4000 3.11 276 18:44 08.06.2020
1844 Haze 30 1004 58 4000 1 20 18:21 08.06.2020
1845 Haze 30 1004 58 4000 1 20 17:58 08.06.2020
1846 Haze 30 1004 58 4000 1 20 17:40 08.06.2020
1847 Haze 30 1004 58 4000 1 20 17:40 08.06.2020
1848 Haze 30 1004 58 4000 1 20 17:22 08.06.2020
1849 Haze 30 1004 58 4000 2.6 20 16:58 08.06.2020
1850 Haze 30 1004 58 4000 2.6 20 16:39 08.06.2020
1851 Haze 30 1004 58 4000 2.6 20 16:21 08.06.2020
1852 Haze 31 1003 55 4000 4.6 50 15:43 08.06.2020
1853 Haze 31 1003 55 4000 4.6 50 15:22 08.06.2020
1854 Haze 33 1002 49 4000 2.6 70 14:58 08.06.2020
1855 Haze 33 1002 46 4000 4.1 220 14:39 08.06.2020
1856 Haze 33 1002 46 4000 4.1 220 14:19 08.06.2020
1857 Haze 34 1002 46 4000 2.1 220 13:43 08.06.2020
1858 Haze 34 1002 46 4000 2.1 220 13:23 08.06.2020
1859 Haze 35 1002 41 5000 3.6 200 12:43 08.06.2020
1860 Haze 34 1003 46 4000 3.6 200 12:20 08.06.2020
1861 Haze 34 1003 46 4000 3.6 200 11:59 08.06.2020
1862 Haze 34 1003 46 4000 6.7 210 11:40 08.06.2020
1863 Haze 34 1003 46 4000 6.7 210 11:21 08.06.2020
1864 Haze 36 1003 37 5000 3.1 270 10:58 08.06.2020
1865 Haze 36 1004 39 5000 1 300 10:38 08.06.2020
1866 Haze 36 1004 39 5000 1 300 10:20 08.06.2020
1867 Haze 35 1004 39 5000 2.6 280 09:57 08.06.2020
1868 Haze 35 1005 44 5000 2.1 320 09:39 08.06.2020
1869 Haze 35 1005 44 5000 2.1 320 09:20 08.06.2020
1870 Clouds 34 1006 46 6000 3.1 320 08:41 08.06.2020
1871 Clouds 34 1006 46 6000 3.1 320 08:20 08.06.2020
1872 Clouds 33 1006 49 6000 4.6 270 07:42 08.06.2020
1873 Clouds 33 1006 52 6000 3.1 340 07:21 08.06.2020
1874 Clouds 32 1006 52 6000 2.6 340 06:43 08.06.2020
1875 Clouds 31 1006 55 6000 4.6 320 06:25 08.06.2020
1876 Clouds 31 1006 55 6000 4.6 300 05:42 08.06.2020
1877 Haze 26 1005 83 5000 1 220 03:43 08.06.2020
1878 Haze 25 1004 88 4000 2.48 310 02:27 08.06.2020
1879 Haze 26 1004 78 3000 2.48 310 01:45 08.06.2020
1880 Haze 27 1004 74 3000 3.32 303 01:20 08.06.2020
1881 Haze 27 1004 74 3000 3.2 305 00:28 08.06.2020
1882 Haze 27 1004 74 3000 1 270 23:40 07.06.2020
1883 Haze 27 1004 74 3000 1 270 23:19 07.06.2020
1884 Haze 27 1004 74 3000 1 270 23:19 07.06.2020
1885 Haze 27 1005 74 3000 2.1 250 22:58 07.06.2020
1886 Haze 27 1005 74 3000 2.1 250 22:38 07.06.2020
1887 Haze 27 1005 74 3000 2.1 250 22:19 07.06.2020
1888 Haze 27 1005 74 3000 1 310 21:58 07.06.2020
1889 Haze 27 1005 74 3000 1 310 21:37 07.06.2020
1890 Haze 27 1005 74 3000 1 310 21:19 07.06.2020
1891 Haze 27 1005 74 3000 1.5 310 20:40 07.06.2020
1892 Haze 27 1005 74 3000 1.5 310 20:21 07.06.2020
1893 Haze 27 1005 69 3000 3.19 292 19:59 07.06.2020
1894 Haze 27 1005 69 3000 3.19 292 19:41 07.06.2020
1895 Haze 27 1005 65 3000 2.72 293 19:21 07.06.2020
1896 -273 0 0 0 0 0 19:00 07.06.2020
1897 Haze 27 1005 65 3000 2.72 293 18:39 07.06.2020
1898 Thunderstorm 27 1005 65 3000 1.89 325 18:21 07.06.2020
1899 Thunderstorm 27 1005 65 3000 1.89 325 18:21 07.06.2020
1900 Thunderstorm 27 1005 65 3000 1.89 325 17:58 07.06.2020
1901 Thunderstorm 27 1005 65 3000 1.89 325 17:39 07.06.2020
1902 Thunderstorm 27 1005 65 3000 4.22 9 17:21 07.06.2020
1903 Haze 29 1004 62 4000 3.6 330 16:43 07.06.2020
1904 Haze 29 1004 62 4000 3.6 330 16:22 07.06.2020
1905 Haze 32 1003 52 4000 5.1 320 15:44 07.06.2020
1906 Haze 32 1003 52 4000 5.1 320 15:44 07.06.2020
1907 Haze 32 1003 52 4000 5.1 320 15:22 07.06.2020
1908 Haze 33 1002 46 5000 1 250 14:55 07.06.2020
1909 Haze 34 1002 46 5000 3.6 230 14:36 07.06.2020
1910 Haze 34 1002 46 5000 3.6 230 14:18 07.06.2020
1911 Haze 34 1002 67 5000 3.1 250 13:41 07.06.2020
1912 Haze 34 1002 67 5000 3.1 250 13:41 07.06.2020
1913 Haze 34 1002 67 5000 3.1 250 13:41 07.06.2020
1914 Haze 34 1002 67 5000 3.1 250 13:41 07.06.2020
1915 Haze 34 1002 67 5000 3.1 250 13:41 07.06.2020
1916 Haze 35 1002 39 5000 2.1 290 13:19 07.06.2020
1917 Haze 35 1002 39 5000 2.1 290 12:43 07.06.2020
1918 Haze 35 1002 39 5000 2.1 290 12:43 07.06.2020
1919 Haze 34 1003 46 5000 3.1 200 12:24 07.06.2020
1920 Haze 34 1003 46 5000 3.1 200 11:55 07.06.2020
1921 Haze 34 1003 46 5000 3.6 200 11:37 07.06.2020
1922 Haze 34 1003 46 5000 3.6 200 11:19 07.06.2020
1923 Haze 34 1004 46 5000 3.6 200 10:54 07.06.2020
1924 Haze 34 1004 46 5000 2.6 260 10:36 07.06.2020
1925 Haze 34 1004 46 5000 2.6 260 10:18 07.06.2020
1926 Haze 34 1005 44 5000 2.1 310 09:41 07.06.2020
1927 Haze 34 1005 44 5000 2.1 310 09:22 07.06.2020
1928 Haze 34 1005 46 5000 3.6 310 08:59 07.06.2020
1929 Haze 34 1005 46 5000 3.6 310 08:41 07.06.2020
1930 Haze 34 1005 46 5000 3.6 310 08:22 07.06.2020
1931 Haze 33 1006 49 5000 1.5 320 07:43 07.06.2020
1932 Haze 33 1006 49 5000 1.5 320 07:24 07.06.2020
1933 Haze 31 1006 58 5000 2.1 300 06:22 07.06.2020
1934 Haze 28 1006 65 4000 1 310 04:49 07.06.2020
1935 Haze 28 1006 65 4000 1 310 04:18 07.06.2020
1936 Haze 26 1005 78 2500 1.5 290 02:26 07.06.2020
1937 Haze 27 1005 74 2500 3.6 260 01:39 07.06.2020
1938 Haze 27 1005 74 2500 3.6 260 01:21 07.06.2020
1939 Haze 26 1005 88 2500 1 300 00:39 07.06.2020
1940 Haze 26 1005 88 2500 0.5 300 00:18 07.06.2020
1941 Haze 26 1005 83 2500 1 310 23:38 06.06.2020
1942 Haze 26 1005 83 2500 1 310 23:20 06.06.2020
1943 Rain 31 1003 47 0 1.47 332 22:58 06.06.2020
1944 Rain 31 1003 47 0 1.47 332 22:40 06.06.2020
1945 Haze 26 1006 88 2500 1.5 290 22:20 06.06.2020
1946 Haze 26 1006 88 2500 1.5 290 21:58 06.06.2020
1947 Haze 26 1006 88 2500 1.5 290 21:39 06.06.2020
1948 Haze 25 1006 94 3000 1 330 21:20 06.06.2020
1949 Haze 25 1006 94 3000 1 330 20:41 06.06.2020
1950 Haze 25 1006 94 3000 1 330 20:21 06.06.2020
1951 Haze 25 1006 94 3000 1.83 304 19:58 06.06.2020
1952 Haze 25 1006 94 3000 1.83 304 19:40 06.06.2020
1953 Mist 26 1006 83 3000 0.5 350 19:22 06.06.2020
1954 Mist 26 1006 83 3000 0.5 350 18:56 06.06.2020
1955 Mist 26 1006 83 3000 0.5 350 18:38 06.06.2020
1956 Mist 26 1004 83 3000 1 120 18:20 06.06.2020
1957 Mist 26 1004 83 3000 1 120 17:43 06.06.2020
1958 Mist 26 1004 83 3000 1 120 17:21 06.06.2020
1959 Mist 26 1004 83 3000 2.9 291 17:21 06.06.2020
1960 Mist 26 1004 83 3000 2.9 291 16:57 06.06.2020
1961 Mist 26 1004 83 3000 1.5 40 16:38 06.06.2020
1962 Mist 26 1004 83 3000 1.5 40 16:20 06.06.2020
1963 Mist 26 1004 78 1500 2.1 20 15:45 06.06.2020
1964 Mist 26 1004 78 1500 2.1 20 15:21 06.06.2020
1965 Rain 26 1004 78 1200 5.1 360 14:59 06.06.2020
1966 Rain 25 1003 88 1200 6.2 330 14:38 06.06.2020
1967 Rain 25 1003 88 1200 6.2 330 14:19 06.06.2020
1968 Rain 27 1003 83 1200 3.1 300 13:47 06.06.2020
1969 Rain 26 1003 83 1200 3.6 360 13:19 06.06.2020
1970 Rain 26 1003 83 1200 3.6 360 12:57 06.06.2020
1971 Rain 26 1003 83 1200 3.6 360 12:57 06.06.2020
1972 Rain 26 1004 88 1500 8.7 360 12:39 06.06.2020
1973 Rain 34 1004 49 3000 1 90 12:19 06.06.2020
1974 Rain 34 1004 49 3000 1 90 11:55 06.06.2020
1975 Rain 31 1004 52 3000 2.6 150 11:36 06.06.2020
1976 Rain 31 1004 52 3000 2.6 150 11:18 06.06.2020
1977 Rain 32 1004 55 3000 3.6 250 10:55 06.06.2020
1978 Haze 33 1005 52 5000 1 170 10:36 06.06.2020
1979 Haze 33 1005 52 5000 1 170 10:18 06.06.2020
1980 Haze 32 1006 59 5000 1.5 280 09:41 06.06.2020
1981 Haze 32 1006 59 5000 1.5 280 09:23 06.06.2020
1982 Haze 32 1006 59 5000 3.1 200 08:48 06.06.2020
1983 Haze 31 1007 62 5000 2.6 230 08:24 06.06.2020
1984 Haze 31 1007 62 5000 2.6 230 07:56 06.06.2020
1985 Haze 30 1007 66 5000 2.1 200 07:38 06.06.2020
1986 Haze 30 1007 66 5000 2.1 200 07:19 06.06.2020
1987 Haze 29 1007 66 5000 2.6 220 06:43 06.06.2020
1988 Haze 29 1007 66 5000 2.6 220 06:43 06.06.2020
1989 Haze 29 1007 66 5000 2.6 220 06:43 06.06.2020
1990 Haze 29 1007 66 5000 2.6 220 06:25 06.06.2020
1991 Haze 27 1006 78 5000 1.5 210 05:33 06.06.2020
1992 Haze 26 1006 83 4000 4.42 291 04:50 06.06.2020
1993 Mist 24 1006 100 3000 1 210 03:29 06.06.2020
1994 Haze 25 1005 94 3000 1 120 02:26 06.06.2020
1995 Haze 25 1005 94 3000 1 120 01:23 06.06.2020
1996 Rain 24 1005 100 3000 1 50 00:57 06.06.2020
1997 Rain 24 1005 100 3000 1 50 00:39 06.06.2020
1998 Rain 24 1006 88 3000 2.1 90 00:20 06.06.2020
1999 Rain 24 1006 88 3000 2.1 90 23:40 05.06.2020
2000 Rain 24 1006 88 3000 2.1 90 23:20 05.06.2020
2001 Rain 24 1006 88 3000 2.1 90 23:20 05.06.2020
2002 Clouds 30 1003 50 0 2.04 329 22:56 05.06.2020
2003 Rain 25 1007 83 3000 2.6 340 22:38 05.06.2020
2004 Rain 25 1007 83 3000 2.6 340 22:19 05.06.2020
2005 Rain 25 1007 83 3000 2.6 340 21:43 05.06.2020
2006 Rain 25 1007 83 3000 2.6 340 21:23 05.06.2020
2007 Rain 25 1007 83 3000 2.6 340 21:23 05.06.2020
2008 Clouds 32 1004 43 0 4 287 20:58 05.06.2020
2009 Haze 28 1005 69 4000 4 287 20:40 05.06.2020
2010 Haze 28 1005 69 4000 4.07 272 20:21 05.06.2020
2011 Haze 28 1005 69 4000 4.07 272 19:44 05.06.2020
2012 Haze 28 1005 69 4000 3.65 267 19:24 05.06.2020
2013 Haze 28 1005 74 4000 3.65 267 18:58 05.06.2020
2014 Haze 28 1005 74 4000 3.65 267 18:58 05.06.2020
2015 Haze 29 1005 74 4000 3.65 267 18:39 05.06.2020
2016 Haze 29 1005 74 4000 2.91 264 18:20 05.06.2020
2017 Haze 29 1005 74 4000 2.91 264 17:58 05.06.2020
2018 -273 0 0 0 0 0 17:58 05.06.2020
2019 Haze 29 1005 74 4000 2.91 264 17:40 05.06.2020
2020 Haze 29 1005 74 4000 2.22 265 17:19 05.06.2020
2021 Haze 31 1004 55 4000 2.22 265 16:40 05.06.2020
2022 Haze 31 1004 55 4000 2.22 267 16:22 05.06.2020
2023 Haze 31 1003 55 4000 2.22 267 15:57 05.06.2020
2024 Haze 31 1003 55 4000 2.22 267 15:37 05.06.2020
2025 Haze 31 1003 55 4000 3.77 273 15:19 05.06.2020
2026 Haze 30 1003 70 4000 1 80 14:56 05.06.2020
2027 Haze 30 1003 74 4000 1.5 120 14:37 05.06.2020
2028 Haze 30 1003 74 4000 1.5 120 14:19 05.06.2020
2029 Haze 29 1003 66 4000 2.6 120 13:42 05.06.2020
2030 Haze 29 1003 66 4000 2.6 120 13:23 05.06.2020
2031 Drizzle 33 1004 41 4000 2.1 160 12:43 05.06.2020
2032 Drizzle 33 1004 41 4000 2.1 160 12:20 05.06.2020
2033 Haze 34 1004 41 5000 1 150 11:57 05.06.2020
2034 Clouds 34 1005 41 6000 1.5 170 11:39 05.06.2020
2035 Clouds 34 1005 41 6000 1.5 170 11:20 05.06.2020
2036 Clouds 35 1005 39 6000 2.1 330 10:54 05.06.2020
2037 Clouds 34 1005 44 6000 3.6 270 10:36 05.06.2020
2038 Clouds 34 1005 44 6000 3.6 270 10:18 05.06.2020
2039 Clouds 34 1006 41 6000 4.1 230 09:55 05.06.2020
2040 Clouds 33 1006 43 6000 3.6 270 09:36 05.06.2020
2041 Clouds 33 1006 43 6000 3.6 270 09:18 05.06.2020
2042 Clouds 33 1007 46 6000 2.6 310 08:41 05.06.2020
2043 Clouds 33 1007 46 6000 2.6 310 08:20 05.06.2020
2044 Clouds 31 1007 52 6000 4.1 280 07:56 05.06.2020
2045 Clouds 31 1007 52 6000 4.1 260 07:38 05.06.2020
2046 Clouds 29 1008 62 6000 2.6 270 06:56 05.06.2020
2047 Haze 26 1008 74 5000 2.6 290 05:41 05.06.2020
2048 Haze 26 1008 69 5000 2.6 260 05:18 05.06.2020
2049 Haze 24 1007 78 5000 1 270 03:53 05.06.2020
2050 Haze 23 1006 83 4000 1 270 02:44 05.06.2020
2051 Haze 23 1006 83 4000 1 270 02:18 05.06.2020
2052 Haze 24 1005 78 4000 2.1 270 01:52 05.06.2020
2053 Haze 23 1005 83 4000 1 270 00:59 05.06.2020
2054 Haze 23 1005 83 4000 1 270 00:39 05.06.2020
2055 Haze 23 1005 88 4000 5.29 279 00:19 05.06.2020
2056 Haze 23 1005 88 4000 5.29 279 23:46 04.06.2020
2057 Haze 23 1005 88 4000 5.29 279 23:46 04.06.2020
2058 Haze 23 1005 88 4000 5.77 279 23:24 04.06.2020
2059 Haze 23 1005 83 4000 2.6 270 22:44 04.06.2020
2060 Haze 23 1005 83 4000 2.6 270 22:22 04.06.2020
2061 Haze 24 1005 78 4000 3.6 280 21:59 04.06.2020
2062 Haze 24 1005 78 4000 3.6 280 21:40 04.06.2020
2063 Haze 24 1005 78 4000 3.6 280 21:21 04.06.2020
2064 Haze 25 1006 73 4000 4.1 280 20:57 04.06.2020
2065 Haze 25 1006 73 4000 4.1 280 20:39 04.06.2020
2066 Haze 25 1006 73 4000 4.1 280 20:20 04.06.2020
2067 Haze 25 1006 73 4000 4.6 260 19:55 04.06.2020
2068 Haze 25 1006 73 4000 4.6 260 19:37 04.06.2020
2069 Haze 25 1005 78 4000 4.6 250 19:19 04.06.2020
2070 Haze 25 1005 78 4000 4.6 250 18:40 04.06.2020
2071 Haze 26 1004 74 4000 5.7 250 18:21 04.06.2020
2072 Haze 26 1004 74 4000 5.7 250 17:59 04.06.2020
2073 Haze 26 1004 74 4000 5.7 250 17:41 04.06.2020
2074 Haze 26 1004 74 4000 5.7 250 17:20 04.06.2020
2075 Haze 26 1003 69 4000 7.2 240 16:41 04.06.2020
2076 Haze 26 1003 69 4000 7.2 240 16:21 04.06.2020
2077 Haze 27 1003 69 4000 5.1 240 15:47 04.06.2020
2078 Haze 27 1003 69 4000 5.1 240 15:27 04.06.2020
2079 Haze 26 1002 69 5000 6.7 240 14:58 04.06.2020
2080 Haze 26 1002 74 5000 7.7 230 14:38 04.06.2020
2081 Haze 27 1002 65 5000 8.7 230 14:19 04.06.2020
2082 Haze 28 1002 65 5000 7.7 230 13:43 04.06.2020
2083 Haze 28 1001 61 5000 7.2 220 13:21 04.06.2020
2084 Haze 28 1001 61 5000 7.2 220 12:59 04.06.2020
2085 Haze 28 1002 61 5000 7.7 220 12:41 04.06.2020
2086 Haze 27 1002 65 5000 7.2 230 12:23 04.06.2020
2087 Haze 27 1002 65 5000 7.2 230 11:58 04.06.2020
2088 Haze 27 1003 69 4000 5.1 230 11:38 04.06.2020
2089 Haze 27 1003 69 4000 5.1 230 11:20 04.06.2020
2090 Haze 27 1003 74 4000 4.1 200 10:56 04.06.2020
2091 Haze 27 1003 69 5000 6.2 180 10:37 04.06.2020
2092 Haze 27 1003 69 5000 6.2 180 10:18 04.06.2020
2093 Haze 28 1003 65 5000 7.2 210 09:42 04.06.2020
2094 Haze 28 1003 65 5000 7.2 210 09:23 04.06.2020
2095 Clouds 28 1003 65 6000 7.7 180 08:44 04.06.2020
2096 Clouds 28 1003 65 6000 7.7 180 08:26 04.06.2020
2097 Clouds 28 1004 69 6000 7.7 180 07:47 04.06.2020
2098 Clouds 28 1004 69 6000 6.2 180 07:27 04.06.2020
2099 Clouds 28 1004 65 6000 7.7 190 06:44 04.06.2020
2100 Clouds 27 1004 69 6000 6.7 180 06:25 04.06.2020
2101 Clouds 27 1004 69 6000 9.3 190 05:35 04.06.2020
2102 Haze 26 1004 83 5000 5.1 180 04:33 04.06.2020
2103 Haze 25 1004 94 4000 2.1 130 03:25 04.06.2020
2104 Haze 25 1003 100 3000 1.5 130 01:56 04.06.2020
2105 Haze 25 1004 100 3000 1.5 110 01:19 04.06.2020
2106 Haze 25 1004 100 3000 1.5 110 00:48 04.06.2020
2107 Haze 25 1004 100 3000 1.5 120 23:44 03.06.2020
2108 Haze 25 1004 100 3000 1.5 120 23:21 03.06.2020
2109 Haze 25 1005 94 3000 1.5 120 22:59 03.06.2020
2110 Haze 25 1005 94 3000 1.5 120 22:39 03.06.2020
2111 Haze 25 1006 94 3000 2.1 70 22:19 03.06.2020
2112 Haze 25 1006 94 3000 2.1 70 22:19 03.06.2020
2113 Haze 25 1006 94 3000 2.1 70 21:57 03.06.2020
2114 Haze 25 1006 94 3000 2.1 70 21:39 03.06.2020
2115 Haze 25 1006 94 3000 2.1 70 21:20 03.06.2020
2116 Rain 25 1006 94 3000 1 160 20:55 03.06.2020
2117 Rain 25 1006 94 3000 1 160 20:37 03.06.2020
2118 Rain 25 1007 94 3000 1 160 20:19 03.06.2020
2119 Rain 25 1007 94 3000 1 160 19:55 03.06.2020
2120 Rain 25 1007 94 3000 1 160 19:36 03.06.2020
2121 Rain 27 1006 66 0 3.93 85 19:18 03.06.2020
2122 Rain 27 1006 66 0 3.93 85 18:41 03.06.2020
2123 Rain 25 1007 94 3000 2.6 90 18:22 03.06.2020
2124 Rain 25 1007 94 3000 2.6 90 17:57 03.06.2020
2125 Rain 25 1007 94 3000 2.6 90 17:37 03.06.2020
2126 Rain 25 1007 94 3000 2.6 90 17:18 03.06.2020
2127 Rain 25 1006 94 3000 1.5 100 16:42 03.06.2020
2128 Rain 25 1006 94 3000 1.5 100 16:21 03.06.2020
2129 Rain 24 1006 94 3000 1 90 15:58 03.06.2020
2130 Rain 24 1005 94 3000 3.79 66 15:40 03.06.2020
2131 Rain 24 1005 94 3000 4.13 61 15:20 03.06.2020
2132 Rain 24 1005 94 3000 4.13 61 15:20 03.06.2020
2133 Thunderstorm 23 1005 100 2000 2.1 110 14:46 03.06.2020
2134 Thunderstorm 28 1005 83 2000 4.1 150 14:24 03.06.2020
2135 Rain 29 1004 70 3000 2.1 120 13:56 03.06.2020
2136 Haze 29 1004 70 3000 2.1 120 13:38 03.06.2020
2137 Haze 30 1004 66 4000 2.6 110 13:18 03.06.2020
2138 Haze 31 1005 58 4000 2.1 100 12:42 03.06.2020
2139 Haze 31 1005 58 4000 3.6 60 12:21 03.06.2020
2140 Haze 31 1006 58 4000 1.5 70 11:45 03.06.2020
2141 Haze 31 1006 58 4000 1.5 70 11:26 03.06.2020
2142 Haze 31 1006 58 4000 2.1 90 10:55 03.06.2020
2143 Haze 30 1007 62 4000 1 60 10:37 03.06.2020
2144 Haze 30 1007 62 4000 1 60 10:19 03.06.2020
2145 Haze 29 1009 66 3000 1.5 60 09:41 03.06.2020
2146 Haze 29 1009 66 3000 1.5 60 09:19 03.06.2020
2147 Haze 29 1009 74 3000 1.5 60 08:47 03.06.2020
2148 Rain 26 1009 94 2000 1 20 08:22 03.06.2020
2149 Rain 26 1009 94 2000 1 20 07:58 03.06.2020
2150 Haze 26 1010 83 4000 3.1 20 07:37 03.06.2020
2151 Haze 26 1010 83 4000 3.1 20 07:18 03.06.2020
2152 Haze 25 1010 88 3000 3.1 20 06:45 03.06.2020
2153 Haze 25 1010 88 2000 2.1 360 06:22 03.06.2020
2154 Haze 24 1009 94 2000 2.1 360 05:45 03.06.2020
2155 Thunderstorm 23 1009 100 2000 1 330 04:26 03.06.2020
2156 Thunderstorm 23 1009 94 1500 1 310 03:42 03.06.2020
2157 Thunderstorm 22 1009 94 2000 5.1 220 02:39 03.06.2020
2158 Haze 26 1007 83 4000 2.17 99 01:44 03.06.2020
2159 Haze 26 1007 78 4000 1.72 66 00:39 03.06.2020
2160 Haze 26 1007 88 4000 0.86 15 00:20 03.06.2020
2161 Haze 27 1007 78 4000 1 310 23:45 02.06.2020
2162 Haze 27 1007 78 4000 1 310 23:27 02.06.2020
2163 Haze 27 1007 78 4000 2.1 310 22:55 02.06.2020
2164 Haze 27 1007 83 4000 2.1 310 22:36 02.06.2020
2165 Haze 27 1007 83 4000 2.1 310 22:18 02.06.2020
2166 Haze 28 1008 74 4000 1 290 21:54 02.06.2020
2167 Haze 27 1008 83 4000 1.5 300 21:36 02.06.2020
2168 Haze 27 1008 83 4000 1.5 300 21:36 02.06.2020
2169 Haze 27 1008 83 4000 1.5 300 21:36 02.06.2020
2170 Haze 27 1008 83 4000 1.5 300 21:18 02.06.2020
2171 Haze 27 1008 83 4000 0.39 303 20:42 02.06.2020
2172 Haze 27 1008 83 4000 1.48 84 20:23 02.06.2020
2173 Haze 27 1009 78 4000 1.48 84 19:46 02.06.2020
2174 Haze 27 1009 78 4000 1.91 43 19:27 02.06.2020
2175 Haze 27 1009 78 4000 1.91 43 18:59 02.06.2020
2176 Haze 28 1008 78 4000 1.91 43 18:41 02.06.2020
2177 Haze 28 1008 78 4000 2 37 18:21 02.06.2020
2178 Haze 28 1008 74 4000 2 37 17:59 02.06.2020
2179 Haze 28 1008 74 4000 1 100 17:41 02.06.2020
2180 Haze 28 1008 74 4000 1 100 17:21 02.06.2020
2181 Haze 28 1007 74 4000 1 100 16:56 02.06.2020
2182 Haze 29 1007 70 4000 1 120 16:38 02.06.2020
2183 Haze 29 1007 70 4000 1 120 16:19 02.06.2020
2184 Haze 29 1006 70 4000 1 90 15:42 02.06.2020
2185 Haze 29 1006 70 4000 1 90 15:23 02.06.2020
2186 Haze 30 1006 66 4000 1 120 14:49 02.06.2020
2187 Haze 31 1006 58 4000 1 120 14:30 02.06.2020
2188 Haze 31 1006 62 4000 1.5 110 13:57 02.06.2020
2189 Haze 31 1006 58 4000 1.5 110 13:38 02.06.2020
2190 Haze 31 1006 58 4000 1.5 100 13:19 02.06.2020
2191 Haze 31 1006 58 4000 1.5 100 12:57 02.06.2020
2192 Clouds 35 1004 31 0 3.23 332 12:39 02.06.2020
2193 Clouds 36 1005 31 0 2.85 340 12:20 02.06.2020
2194 Haze 29 1008 70 4000 1 100 11:54 02.06.2020
2195 Haze 29 1008 70 4000 1 100 11:36 02.06.2020
2196 Haze 29 1008 70 4000 1 100 11:18 02.06.2020
2197 Haze 30 1009 66 4000 2.6 100 10:44 02.06.2020
2198 Haze 30 1009 66 4000 2.6 100 10:25 02.06.2020
2199 Haze 28 1010 74 4000 2.1 60 09:44 02.06.2020
2200 Haze 28 1010 74 4000 2.1 60 09:22 02.06.2020
2201 Haze 27 1010 83 4000 1.5 60 08:57 02.06.2020
2202 Rain 26 1011 88 4000 1.5 100 08:36 02.06.2020
2203 Haze 25 1011 88 5000 4.62 308 08:18 02.06.2020
2204 Haze 25 1011 88 5000 4.62 308 07:39 02.06.2020
2205 Haze 24 1011 94 5000 4.7 300 07:19 02.06.2020
2206 Haze 23 1012 100 4000 4.7 300 06:43 02.06.2020
2207 Thunderstorm 23 1012 94 2000 3.6 170 05:45 02.06.2020
2208 Rain 25 1011 83 4000 5.1 180 04:54 02.06.2020
2209 Haze 27 1008 61 4000 4.1 340 03:19 02.06.2020
2210 Haze 27 1008 61 4000 4.1 340 02:18 02.06.2020
2211 Haze 27 1007 69 4000 1.11 309 00:53 02.06.2020
2212 Haze 27 1007 69 4000 2.15 307 00:22 02.06.2020
2213 Haze 28 1008 58 4000 2.6 290 23:39 01.06.2020
2214 Haze 28 1008 58 4000 2.6 290 23:21 01.06.2020
2215 Haze 28 1008 65 5000 2.6 210 22:59 01.06.2020
2216 Haze 28 1008 65 5000 2.6 210 22:39 01.06.2020
2217 Haze 28 1008 65 5000 2.6 210 22:39 01.06.2020
2218 Haze 28 1008 65 5000 2.6 210 22:19 01.06.2020
2219 Haze 28 1008 65 5000 2.6 210 22:19 01.06.2020
2220 Haze 28 1009 74 5000 2.6 210 21:55 01.06.2020
2221 Haze 28 1009 74 5000 2.6 210 21:36 01.06.2020
2222 Haze 28 1009 74 5000 2.6 210 21:18 01.06.2020
2223 Rain 32 1007 38 0 0.73 238 20:43 01.06.2020
2224 Haze 28 1010 74 5000 2.6 220 20:21 01.06.2020
2225 Haze 28 1010 74 5000 2.6 220 20:21 01.06.2020
2226 Haze 28 1010 74 5000 2.6 220 19:59 01.06.2020
2227 Haze 28 1010 74 5000 2.6 220 19:41 01.06.2020
2228 Haze 28 1009 74 5000 2.6 220 19:20 01.06.2020
2229 Haze 28 1009 74 5000 2.6 220 18:58 01.06.2020
2230 Haze 28 1009 74 5000 3.1 190 18:39 01.06.2020
2231 Haze 28 1008 74 5000 3.6 190 18:19 01.06.2020
2232 Haze 28 1008 74 5000 3.6 190 17:54 01.06.2020
2233 Haze 29 1008 70 5000 3.6 190 17:36 01.06.2020
2234 Haze 29 1008 70 5000 3.6 190 17:18 01.06.2020
2235 Haze 29 1007 62 5000 1.5 170 16:39 01.06.2020
2236 Haze 30 1007 58 5000 1.5 200 16:20 01.06.2020
2237 Haze 30 1007 58 5000 1.5 200 15:55 01.06.2020
2238 Haze 30 1007 58 5000 4.1 200 15:36 01.06.2020
2239 Haze 30 1007 58 5000 4.1 200 15:18 01.06.2020
2240 Haze 30 1007 58 5000 3.6 190 14:54 01.06.2020
2241 Haze 30 1007 58 5000 4.6 200 14:36 01.06.2020
2242 Haze 30 1007 58 5000 4.6 200 14:18 01.06.2020
2243 Haze 30 1007 58 5000 4.6 200 13:41 01.06.2020
2244 Haze 30 1007 58 5000 4.6 200 13:21 01.06.2020
2245 Haze 29 1007 62 5000 2.6 200 12:58 01.06.2020
2246 Haze 29 1008 62 5000 3.6 190 12:39 01.06.2020
2247 Haze 29 1008 62 5000 3.6 190 12:39 01.06.2020
2248 Haze 29 1008 62 5000 3.6 190 12:20 01.06.2020
2249 Haze 30 1008 58 5000 3.1 180 11:42 01.06.2020
2250 Haze 30 1008 58 5000 3.1 180 11:23 01.06.2020
2251 Haze 30 1009 58 5000 2.1 200 10:59 01.06.2020
2252 Haze 30 1010 58 5000 2.1 220 10:39 01.06.2020
2253 Haze 30 1010 58 5000 2.1 220 10:20 01.06.2020
2254 Haze 29 1010 58 4000 2.6 220 09:57 01.06.2020
2255 Haze 29 1011 58 4000 4.1 210 09:39 01.06.2020
2256 Haze 29 1011 58 4000 4.1 210 09:20 01.06.2020
2257 Haze 29 1011 62 4000 4.6 220 08:50 01.06.2020
2258 Haze 28 1012 65 4000 4.6 200 08:25 01.06.2020
2259 Haze 28 1012 65 4000 4.1 200 07:45 01.06.2020
2260 Haze 28 1012 65 4000 4.1 200 07:27 01.06.2020
2261 Haze 28 1012 69 4000 3.1 190 06:58 01.06.2020
2262 Haze 28 1012 65 4000 1.5 170 06:24 01.06.2020
2263 Haze 28 1012 65 4000 1.5 180 05:53 01.06.2020
2264 Rain 27 1011 74 4000 3.6 270 04:25 01.06.2020
2265 Haze 27 1010 69 4000 6.7 270 03:47 01.06.2020
2266 Haze 27 1010 69 4000 6.7 270 03:24 01.06.2020
2267 Clouds 30 1007 52 0 2.45 226 01:50 01.06.2020
2268 Haze 25 1009 69 3000 7.2 260 01:30 01.06.2020
2269 Haze 25 1009 69 3000 7.2 260 00:57 01.06.2020
2270 Haze 25 1009 69 3000 7.2 260 00:39 01.06.2020
2271 Haze 25 1009 69 3000 7.2 260 00:21 01.06.2020
2272 Haze 25 1009 78 3000 3.6 210 23:56 31.05.2020
2273 Haze 25 1009 78 3000 3.6 210 23:37 31.05.2020
2274 Haze 25 1009 78 3000 3.6 210 23:19 31.05.2020
2275 Haze 25 1010 83 3000 5.1 200 22:43 31.05.2020
2276 Haze 25 1010 83 3000 5.1 200 22:25 31.05.2020
2277 Haze 24 1011 88 3000 6.7 190 21:58 31.05.2020
2278 Haze 24 1011 88 3000 6.7 190 21:39 31.05.2020
2279 Haze 24 1011 88 3000 6.7 190 21:39 31.05.2020
2280 Haze 24 1011 88 3000 6.7 190 21:21 31.05.2020
2281 Haze 24 1011 88 3000 6.7 190 21:21 31.05.2020
2282 Thunderstorm 25 1011 83 2500 6.2 190 20:57 31.05.2020
2283 Thunderstorm 25 1011 83 2500 6.2 190 20:38 31.05.2020
2284 Thunderstorm 25 1011 83 2500 6.2 190 20:19 31.05.2020
2285 Thunderstorm 26 1012 74 2500 8.7 190 19:54 31.05.2020
2286 Thunderstorm 26 1011 78 2500 4.6 180 19:36 31.05.2020
2287 Thunderstorm 27 1010 69 2500 6.2 170 19:18 31.05.2020
2288 Thunderstorm 26 1009 74 2500 8.7 180 18:43 31.05.2020
2289 Thunderstorm 26 1009 74 2500 8.7 180 18:22 31.05.2020
2290 Thunderstorm 25 1010 78 1500 7.7 150 17:44 31.05.2020
2291 Thunderstorm 25 1010 78 1500 7.7 150 17:24 31.05.2020
2292 Thunderstorm 25 1010 78 1500 7.7 150 17:24 31.05.2020
2293 Thunderstorm 28 1007 65 4000 1.5 110 16:55 31.05.2020
2294 Thunderstorm 27 1006 65 4000 5.7 150 16:37 31.05.2020
2295 Thunderstorm 27 1006 65 4000 5.7 150 16:18 31.05.2020
2296 Thunderstorm 31 1004 52 4000 5.1 160 15:39 31.05.2020
2297 Thunderstorm 31 1004 52 4000 5.1 160 15:21 31.05.2020
2298 Clouds 40 1003 21 6000 5.1 360 14:47 31.05.2020
2299 Clouds 40 1003 21 6000 5.1 360 14:20 31.05.2020
2300 Clouds 41 1003 20 6000 1 320 13:56 31.05.2020
2301 Clouds 41 1003 19 6000 1.5 180 13:37 31.05.2020
2302 Clouds 41 1003 19 6000 1.5 180 13:19 31.05.2020
2303 Clouds 41 1003 20 6000 1.5 80 12:55 31.05.2020
2304 Clouds 41 1004 20 6000 2.1 320 12:37 31.05.2020
2305 Clouds 41 1004 20 6000 2.1 320 12:18 31.05.2020
2306 Clouds 40 1005 23 6000 2.1 300 11:44 31.05.2020
2307 Clouds 40 1005 23 6000 2.1 300 11:21 31.05.2020
2308 Clouds 40 1006 24 6000 3.1 150 10:55 31.05.2020
2309 Clouds 40 1006 23 6000 1.5 230 10:37 31.05.2020
2310 Clouds 39 1007 26 6000 1 350 10:18 31.05.2020
2311 Clouds 39 1008 26 6000 1 110 09:42 31.05.2020
2312 Clouds 39 1008 26 6000 1 110 09:22 31.05.2020
2313 Clouds 38 1008 27 6000 1 50 08:56 31.05.2020
2314 Clouds 38 1009 27 6000 2.6 120 08:36 31.05.2020
2315 Clouds 37 1010 29 6000 1.5 60 08:18 31.05.2020
2316 Clouds 37 1010 29 6000 1.5 60 07:39 31.05.2020
2317 Clouds 35 1010 34 6000 1.5 290 07:18 31.05.2020
2318 Clouds 35 1010 34 6000 1.5 290 06:49 31.05.2020
2319 Clouds 35 1010 34 6000 1.5 290 06:31 31.05.2020
2320 Clouds 33 1010 46 6000 3.1 200 05:40 31.05.2020
2321 Haze 30 1009 58 5000 2.1 200 04:22 31.05.2020
2322 Haze 29 1009 66 5000 1 270 03:47 31.05.2020
2323 Haze 29 1007 62 5000 3.09 173 02:58 31.05.2020
2324 Haze 29 1007 62 5000 4.78 214 01:48 31.05.2020
2325 Haze 29 1006 62 5000 1 180 00:59 31.05.2020
2326 Haze 29 1006 62 5000 1 180 00:29 31.05.2020
2327 Haze 30 1006 58 5000 2.6 190 23:45 30.05.2020
2328 Haze 30 1006 58 5000 2.6 190 23:27 30.05.2020
2329 Haze 31 1006 52 5000 3.6 180 22:59 30.05.2020
2330 Haze 31 1006 52 5000 3.6 180 22:40 30.05.2020
2331 Haze 31 1006 52 5000 3.6 180 22:40 30.05.2020
2332 Haze 31 1006 52 5000 3.6 180 22:21 30.05.2020
2333 Haze 31 1006 48 5000 2.1 180 21:55 30.05.2020
2334 Haze 31 1006 48 5000 2.1 180 21:37 30.05.2020
2335 Haze 31 1006 48 5000 2.1 180 21:18 30.05.2020
2336 Haze 33 1006 46 5000 2.1 160 20:56 30.05.2020
2337 Haze 33 1006 46 5000 2.1 160 20:37 30.05.2020
2338 Haze 33 1006 46 5000 2.1 160 20:19 30.05.2020
2339 Haze 33 1006 46 5000 1.5 200 19:41 30.05.2020
2340 Haze 33 1006 46 5000 1.5 200 19:21 30.05.2020
2341 Haze 34 1005 41 5000 1 120 18:45 30.05.2020
2342 Haze 34 1005 41 5000 1 120 18:22 30.05.2020
2343 Haze 34 1005 44 5000 1 140 17:46 30.05.2020
2344 Haze 34 1005 44 5000 1 140 17:26 30.05.2020
2345 Haze 34 1005 41 5000 1.5 120 16:59 30.05.2020
2346 Haze 34 1005 41 5000 1.5 120 16:59 30.05.2020
2347 Haze 34 1005 41 5000 1.5 120 16:59 30.05.2020
2348 Haze 34 1005 41 5000 1.5 120 16:41 30.05.2020
2349 Haze 34 1005 41 5000 1.5 120 16:21 30.05.2020
2350 Haze 36 1004 37 5000 1.5 80 15:45 30.05.2020
2351 Haze 36 1004 37 5000 1.5 80 15:26 30.05.2020
2352 Haze 38 1004 29 5000 1.5 30 14:46 30.05.2020
2353 Haze 38 1004 29 5000 1.5 30 14:27 30.05.2020
2354 Haze 38 1004 27 5000 1 60 13:44 30.05.2020
2355 Haze 38 1004 27 5000 1 60 13:26 30.05.2020
2356 Haze 34 1005 52 3000 2.1 120 12:43 30.05.2020
2357 Haze 34 1005 52 3000 2.1 120 12:23 30.05.2020
2358 Haze 26 1006 83 3000 2.1 180 11:59 30.05.2020
2359 Thunderstorm 26 1006 83 3000 5.1 180 11:41 30.05.2020
2360 Thunderstorm 26 1006 83 3000 5.1 180 11:22 30.05.2020
2361 Thunderstorm 37 1006 25 4000 1 60 10:55 30.05.2020
2362 Haze 39 1006 24 5000 1 60 10:37 30.05.2020
2363 Haze 39 1006 24 5000 1 60 10:19 30.05.2020
2364 Haze 39 1007 24 5000 1.5 40 09:42 30.05.2020
2365 Haze 39 1007 24 5000 1.5 40 09:24 30.05.2020
2366 Haze 37 1008 29 5000 2.1 30 08:41 30.05.2020
2367 Haze 37 1008 29 5000 2.1 30 08:21 30.05.2020
2368 Haze 37 1008 30 5000 1.5 10 07:39 30.05.2020
2369 Haze 36 1008 32 5000 2.6 10 07:18 30.05.2020
2370 Haze 36 1009 32 5000 1 30 06:28 30.05.2020
2371 Haze 35 1008 36 5000 2.1 40 05:49 30.05.2020
2372 Haze 35 1007 28 5000 2.1 10 04:37 30.05.2020
2373 Haze 33 1005 29 4000 1.5 30 02:34 30.05.2020
2374 Haze 34 1004 28 4000 1.5 20 01:57 30.05.2020
2375 Haze 34 1004 28 4000 2.1 310 00:44 30.05.2020
2376 Haze 34 1004 28 4000 2.1 310 00:24 30.05.2020
2377 Haze 34 1004 30 4000 2.1 350 23:59 29.05.2020
2378 Haze 34 1004 30 4000 2.1 350 23:38 29.05.2020
2379 Haze 34 1004 30 4000 2.1 350 23:19 29.05.2020
2380 Haze 34 1003 30 4000 1 30 22:42 29.05.2020
2381 Haze 34 1003 30 4000 1 30 22:21 29.05.2020
2382 Haze 35 1003 28 4000 1.5 20 22:00 29.05.2020
2383 Haze 35 1003 28 4000 1.5 20 21:39 29.05.2020
2384 Haze 35 1003 28 4000 1.5 20 21:21 29.05.2020
2385 Haze 35 1003 28 4000 2.6 40 20:56 29.05.2020
2386 Haze 35 1004 28 4000 1.5 30 20:37 29.05.2020
2387 Haze 35 1004 28 4000 1.5 30 20:37 29.05.2020
2388 Haze 35 1004 28 4000 1.5 30 20:18 29.05.2020
2389 Haze 36 1004 22 4000 1.5 30 19:42 29.05.2020
2390 Haze 36 1004 22 4000 1.5 30 19:24 29.05.2020
2391 Haze 37 1003 20 4000 2.1 350 18:48 29.05.2020
2392 Haze 37 1003 20 4000 2.1 350 18:23 29.05.2020
2393 Haze 38 1003 18 4000 1 310 17:58 29.05.2020
2394 Haze 37 1003 19 5000 1.5 320 17:39 29.05.2020
2395 Haze 37 1003 19 5000 1.5 320 17:20 29.05.2020
2396 Clouds 39 1002 18 6000 1 330 16:46 29.05.2020
2397 Clouds 39 1002 18 6000 1 330 16:28 29.05.2020
2398 Clouds 40 1002 15 6000 1 310 15:59 29.05.2020
2399 Clouds 41 1001 14 6000 1 320 15:40 29.05.2020
2400 Clouds 41 1001 14 6000 1 320 15:21 29.05.2020
2401 Clouds 42 1001 13 6000 2.1 330 14:54 29.05.2020
2402 Clouds 43 1001 11 6000 1 330 14:36 29.05.2020
2403 Clouds 42 1001 13 6000 3.6 280 14:18 29.05.2020
2404 Clouds 43 1001 11 6000 2.1 330 13:41 29.05.2020
2405 Clouds 43 1001 11 6000 1 330 13:21 29.05.2020
2406 Clouds 43 1001 10 6000 2.6 320 12:46 29.05.2020
2407 Clouds 43 1001 10 6000 2.6 320 12:26 29.05.2020
2408 Clouds 43 1001 10 6000 2.6 320 12:26 29.05.2020
2409 Clouds 43 1002 11 6000 1.5 320 11:59 29.05.2020
2410 Clouds 43 1002 12 6000 1 240 11:41 29.05.2020
2411 Clouds 43 1002 12 6000 1 240 11:22 29.05.2020
2412 Clouds 41 1003 19 6000 3.1 250 10:43 29.05.2020
2413 Clouds 41 1003 19 6000 3.1 250 10:23 29.05.2020
2414 Clouds 41 1004 19 6000 1.5 80 09:56 29.05.2020
2415 Clouds 40 1004 23 6000 1.5 110 09:38 29.05.2020
2416 Clouds 40 1004 23 6000 1.5 110 09:19 29.05.2020
2417 Clear 39 1005 24 6000 1.5 50 08:46 29.05.2020
2418 Clouds 39 1005 24 6000 1.5 50 08:23 29.05.2020
2419 Clouds 38 1006 27 6000 2.1 70 07:47 29.05.2020
2420 Clouds 38 1006 27 6000 2.1 70 07:29 29.05.2020
2421 Clouds 37 1007 29 6000 2.1 40 06:55 29.05.2020
2422 Clouds 37 1007 29 6000 3.1 30 06:37 29.05.2020
2423 Clouds 37 1007 29 6000 3.1 30 06:18 29.05.2020
2424 Clouds 35 1007 30 6000 2.63 252 05:24 29.05.2020
2425 Haze 33 1003 22 4000 2.6 300 01:48 29.05.2020
2426 Haze 32 1003 24 5000 2.1 340 01:26 29.05.2020
2427 Haze 32 1003 24 5000 2.1 340 00:50 29.05.2020
2428 Haze 32 1003 24 5000 2.1 340 00:23 29.05.2020
2429 Haze 31 1003 23 5000 1 340 23:41 28.05.2020
2430 Haze 31 1003 23 5000 1 340 23:20 28.05.2020
2431 Haze 33 1003 22 5000 1 320 22:59 28.05.2020
2432 Haze 33 1003 22 5000 1 320 22:40 28.05.2020
2433 Haze 33 1003 22 5000 1 320 22:20 28.05.2020
2434 Haze 33 1003 22 5000 1 320 21:55 28.05.2020
2435 Haze 35 1003 16 5000 1 320 21:36 28.05.2020
2436 Haze 35 1003 16 5000 1 320 21:18 28.05.2020
2437 Haze 35 1003 16 5000 1 320 20:41 28.05.2020
2438 Haze 35 1003 16 5000 1 320 20:20 28.05.2020
2439 Haze 35 1003 16 5000 1 320 19:58 28.05.2020
2440 Haze 35 1003 16 5000 1 320 19:40 28.05.2020
2441 Haze 35 1003 16 5000 1 320 19:20 28.05.2020
2442 Haze 37 1002 13 5000 1 320 18:57 28.05.2020
2443 Haze 37 1002 13 5000 1 320 18:38 28.05.2020
2444 Haze 37 1002 13 5000 1 320 18:20 28.05.2020
2445 Haze 37 1001 13 5000 2.1 320 17:40 28.05.2020
2446 Haze 37 1001 13 5000 2.1 320 17:21 28.05.2020
2447 Haze 39 1000 12 5000 2.1 320 16:47 28.05.2020
2448 Haze 39 1000 12 5000 2.1 320 16:21 28.05.2020
2449 Clouds 40 1000 11 6000 1.5 320 15:56 28.05.2020
2450 Clouds 42 1000 10 6000 2.1 300 15:38 28.05.2020
2451 Clouds 42 1000 10 6000 2.1 300 15:19 28.05.2020
2452 Clouds 43 1000 9 6000 5.7 270 14:42 28.05.2020
2453 Clouds 43 1000 9 6000 5.7 270 14:22 28.05.2020
2454 Clouds 44 1000 8 6000 3.1 280 14:22 28.05.2020
2455 Clouds 44 1000 10 6000 5.1 270 13:46 28.05.2020
2456 Clouds 44 1000 10 6000 5.1 270 13:27 28.05.2020
2457 Clouds 44 1000 10 6000 5.1 280 12:44 28.05.2020
2458 Clouds 44 1000 10 6000 5.1 280 12:20 28.05.2020
2459 Clouds 44 1001 11 6000 3.6 290 11:57 28.05.2020
2460 Clouds 43 1001 10 6000 5.1 280 11:39 28.05.2020
2461 Clouds 43 1001 10 6000 5.1 280 11:20 28.05.2020
2462 Clouds 43 1002 10 0 2.6 310 10:46 28.05.2020
2463 Clouds 43 1002 10 0 2.6 310 10:28 28.05.2020
2464 Clouds 43 1002 10 0 5.1 340 09:57 28.05.2020
2465 Clouds 42 1003 14 0 3.1 320 09:38 28.05.2020
2466 Clouds 42 1003 14 0 3.1 320 09:18 28.05.2020
2467 Clear 42 1004 17 0 5.7 240 08:44 28.05.2020
2468 Clear 42 1004 17 0 5.7 240 08:24 28.05.2020
2469 Clear 40 1005 19 0 4.6 280 07:43 28.05.2020
2470 Clear 40 1005 19 0 4.6 280 07:23 28.05.2020
2471 Haze 38 1005 24 5000 3.1 300 06:45 28.05.2020
2472 Haze 38 1005 24 5000 3.1 300 06:27 28.05.2020
2473 Haze 35 1005 26 5000 1.5 260 05:39 28.05.2020
2474 Haze 34 1005 28 5000 1.5 250 04:38 28.05.2020
2475 Haze 34 1005 28 5000 1.5 250 04:18 28.05.2020
2476 Haze 33 1003 26 4000 3.1 310 02:59 28.05.2020
2477 Haze 33 1003 26 4000 3.1 310 02:38 28.05.2020
2478 Haze 33 1003 24 4000 3.1 330 01:45 28.05.2020
2479 Haze 33 1002 21 4000 2.6 300 00:49 28.05.2020
2480 Haze 33 1002 21 4000 2.6 300 00:20 28.05.2020
2481 Haze 34 1002 20 4000 3.6 300 23:56 27.05.2020
2482 Haze 34 1002 20 4000 3.6 300 23:37 27.05.2020
2483 Haze 34 1002 20 4000 3.6 300 23:19 27.05.2020
2484 Haze 35 1002 17 5000 3.6 300 22:41 27.05.2020
2485 Haze 35 1002 17 5000 3.6 300 22:23 27.05.2020
2486 Clouds 33 1002 16 0 2.9 275 21:56 27.05.2020
2487 Haze 36 1003 13 5000 3.1 280 21:38 27.05.2020
2488 Haze 36 1003 13 5000 3.1 280 21:20 27.05.2020
2489 Haze 36 1003 13 5000 3.1 280 20:58 27.05.2020
2490 Haze 36 1003 13 5000 3.1 280 20:58 27.05.2020
2491 Haze 36 1003 13 5000 3.1 280 20:39 27.05.2020
2492 Haze 36 1003 12 5000 3.1 280 20:19 27.05.2020
2493 Haze 36 1003 12 5000 3.1 280 19:45 27.05.2020
2494 Haze 36 1003 12 5000 3.1 280 19:21 27.05.2020
2495 Haze 37 1003 10 5000 2.6 250 18:45 27.05.2020
2496 Haze 37 1003 10 5000 2.6 250 18:21 27.05.2020
2497 Haze 37 1003 12 5000 3.1 250 17:59 27.05.2020
2498 Haze 38 1002 11 5000 3.1 240 17:40 27.05.2020
2499 Haze 38 1002 11 5000 3.1 240 17:22 27.05.2020
2500 Haze 39 1002 10 5000 4.1 250 16:56 27.05.2020
2501 Haze 40 1002 11 5000 4.6 240 16:38 27.05.2020
2502 Haze 40 1002 11 5000 4.6 240 16:19 27.05.2020
2503 Haze 41 1001 9 5000 4.1 250 15:48 27.05.2020
2504 Clouds 42 1001 9 6000 6.7 250 15:22 27.05.2020
2505 Clouds 43 1001 10 6000 5.1 260 14:47 27.05.2020
2506 Clouds 43 1001 10 6000 5.1 260 14:23 27.05.2020
2507 Clouds 44 1001 8 6000 5.1 250 13:59 27.05.2020
2508 Clouds 44 1001 9 6000 5.1 230 13:41 27.05.2020
2509 Clouds 44 1001 9 6000 5.1 230 13:22 27.05.2020
2510 Clouds 44 1002 10 6000 6.2 250 12:42 27.05.2020
2511 Clouds 44 1002 10 6000 6.2 250 12:23 27.05.2020
2512 Clouds 43 1002 10 6000 5.1 240 11:56 27.05.2020
2513 Clouds 44 1003 10 6000 4.1 260 11:37 27.05.2020
2514 Clouds 44 1003 10 6000 4.1 260 11:18 27.05.2020
2515 Clouds 42 1003 11 6000 4.1 280 10:43 27.05.2020
2516 Clouds 42 1003 11 6000 4.1 280 10:24 27.05.2020
2517 Clouds 42 1004 12 6000 3.6 250 09:57 27.05.2020
2518 Clouds 42 1004 12 6000 3.6 250 09:57 27.05.2020
2519 Clouds 42 1005 12 6000 4.1 280 09:39 27.05.2020
2520 Clouds 42 1005 12 6000 4.1 280 09:20 27.05.2020
2521 Clouds 40 1006 14 6000 2.1 300 08:42 27.05.2020
2522 Clouds 40 1006 14 6000 2.1 300 08:24 27.05.2020
2523 Clouds 40 1006 13 6000 2.1 340 07:53 27.05.2020
2524 Clouds 39 1007 14 6000 2.1 240 07:34 27.05.2020
2525 Clouds 39 1007 14 6000 2.1 270 06:56 27.05.2020
2526 Clouds 38 1007 15 6000 1.5 330 06:30 27.05.2020
2527 Clouds 38 1007 15 6000 1.5 270 05:50 27.05.2020
2528 Clouds 38 1007 15 6000 1.5 270 05:28 27.05.2020
2529 Haze 31 1006 22 5000 1.5 280 03:39 27.05.2020
2530 Haze 30 1006 25 5000 3.54 258 02:30 27.05.2020
2531 Haze 32 1005 19 4000 2.6 170 01:34 27.05.2020
2532 Haze 32 1005 19 4000 1.5 170 00:58 27.05.2020
2533 Haze 32 1005 19 4000 1.5 170 00:40 27.05.2020
2534 Haze 32 1005 19 4000 1.5 170 00:18 27.05.2020
2535 Haze 33 1004 19 4000 2.1 160 23:41 26.05.2020
2536 Haze 33 1004 19 4000 2.1 160 23:23 26.05.2020
2537 Haze 33 1004 22 4000 2.02 289 22:58 26.05.2020
2538 Haze 33 1004 22 4000 2.02 289 22:38 26.05.2020
2539 Haze 33 1004 22 4000 4.91 322 22:19 26.05.2020
2540 Haze 35 1005 19 4000 1 320 21:56 26.05.2020
2541 Haze 35 1005 19 4000 1 320 21:38 26.05.2020
2542 Haze 35 1005 19 4000 1 320 21:19 26.05.2020
2543 Haze 35 1005 19 4000 1.5 240 20:42 26.05.2020
2544 Haze 35 1005 19 4000 1.5 240 20:20 26.05.2020
2545 Haze 35 1005 20 5000 1.5 190 19:55 26.05.2020
2546 Haze 35 1005 20 5000 1.5 190 19:55 26.05.2020
2547 Haze 35 1005 20 5000 1.5 190 19:36 26.05.2020
2548 Haze 38 1005 15 5000 2.1 220 19:18 26.05.2020
2549 Haze 38 1005 15 5000 2.1 220 19:18 26.05.2020
2550 Haze 38 1005 15 5000 2.1 220 18:40 26.05.2020
2551 Haze 38 1005 15 5000 2.1 220 18:21 26.05.2020
2552 Haze 37 1004 16 5000 2.1 210 17:42 26.05.2020
2553 Haze 37 1004 16 5000 2.1 210 17:24 26.05.2020
2554 Haze 39 1004 13 5000 2.1 220 16:57 26.05.2020
2555 Haze 39 1004 13 5000 2.1 220 16:39 26.05.2020
2556 Haze 40 1003 11 5000 2.6 230 16:19 26.05.2020
2557 Haze 42 1003 10 5000 2.6 230 15:42 26.05.2020
2558 Haze 42 1003 10 5000 2.6 230 15:20 26.05.2020
2559 Clouds 43 1003 9 6000 2.6 230 14:56 26.05.2020
2560 Clouds 43 1003 9 6000 2.6 230 14:37 26.05.2020
2561 Clouds 43 1003 9 6000 2.6 230 14:19 26.05.2020
2562 Clouds 44 1003 8 6000 2.6 270 13:41 26.05.2020
2563 Clouds 44 1003 8 6000 2.6 270 13:23 26.05.2020
2564 Clouds 44 1003 8 6000 1.5 270 12:56 26.05.2020
2565 Clouds 44 1003 8 6000 1 210 12:37 26.05.2020
2566 Clouds 44 1003 8 6000 1 210 12:19 26.05.2020
2567 Clouds 44 1004 8 6000 2.6 320 11:41 26.05.2020
2568 Clouds 44 1004 8 6000 2.6 320 11:21 26.05.2020
2569 Clouds 44 1005 9 6000 2.6 320 10:57 26.05.2020
2570 Clouds 43 1005 9 6000 2.6 310 10:37 26.05.2020
2571 Clouds 43 1006 10 6000 2.6 320 10:18 26.05.2020
2572 Clouds 43 1006 10 6000 3.1 310 09:38 26.05.2020
2573 Clouds 43 1006 10 6000 3.1 310 09:19 26.05.2020
2574 Clouds 41 1007 11 6000 2.6 330 08:41 26.05.2020
2575 Clear 41 1007 11 6000 2.6 330 08:22 26.05.2020
2576 Clouds 40 1008 11 6000 3.6 300 07:44 26.05.2020
2577 Clouds 40 1008 11 6000 3.6 300 07:44 26.05.2020
2578 Clouds 40 1008 11 6000 3.6 300 07:23 26.05.2020
2579 Clouds 40 1008 11 6000 2.6 340 06:54 26.05.2020
2580 Clouds 39 1008 12 6000 3.6 290 06:31 26.05.2020
2581 Clouds 38 1008 13 6000 2.6 320 05:44 26.05.2020
2582 Clouds 38 1008 13 6000 2.6 320 05:25 26.05.2020
2583 Haze 37 1008 14 5000 4.1 290 04:49 26.05.2020
2584 Haze 35 1008 34 5000 2.1 300 04:30 26.05.2020
2585 Haze 32 1007 29 4000 1.5 300 03:50 26.05.2020
2586 Haze 31 1006 31 4000 3.1 220 02:40 26.05.2020
2587 Haze 30 1006 37 4000 2.1 220 01:47 26.05.2020
2588 Haze 31 1005 38 4000 1.5 220 00:56 26.05.2020
2589 Haze 31 1005 38 4000 1.5 220 00:36 26.05.2020
2590 Haze 31 1005 38 4000 1.5 220 00:36 26.05.2020
2591 Haze 33 1005 33 4000 2.6 210 00:18 26.05.2020
2592 Haze 33 1005 33 4000 2.6 210 23:39 25.05.2020
2593 Haze 33 1005 33 4000 2.6 210 23:20 25.05.2020
2594 Haze 34 1005 36 4000 2.01 247 22:56 25.05.2020
2595 Haze 34 1005 36 4000 2.01 247 22:56 25.05.2020
2596 Haze 34 1005 36 4000 2.01 247 22:38 25.05.2020
2597 Haze 34 1005 36 4000 2.19 228 22:20 25.05.2020
2598 Haze 35 1005 32 4000 3.1 170 21:59 25.05.2020
2599 Haze 35 1005 32 4000 3.1 170 21:39 25.05.2020
2600 Haze 32 1006 24 4000 3.1 160 21:20 25.05.2020
2601 Haze 32 1006 24 4000 3.1 160 20:59 25.05.2020
2602 Haze 32 1006 24 4000 3.1 160 20:41 25.05.2020
2603 Haze 32 1006 24 4000 3.1 160 20:20 25.05.2020
2604 Haze 35 1006 20 4000 2.15 305 19:57 25.05.2020
2605 Haze 35 1006 20 4000 2.15 305 19:38 25.05.2020
2606 Haze 37 1006 17 4000 3.05 305 19:18 25.05.2020
2607 Haze 37 1006 17 4000 3.05 305 19:18 25.05.2020
2608 Haze 37 1006 17 4000 3.05 305 18:43 25.05.2020
2609 Clear 38 1003 12 0 3.29 287 18:22 25.05.2020
2610 Clear 38 1003 12 0 3.29 287 17:57 25.05.2020
2611 Clear 38 1003 12 0 3.29 287 17:38 25.05.2020
2612 Clear 39 1003 12 0 3.21 282 17:20 25.05.2020
2613 Clear 39 1003 12 0 3.21 282 16:55 25.05.2020
2614 Clear 39 1003 12 0 3.21 282 16:36 25.05.2020
2615 Clear 40 1002 11 0 2.16 284 16:18 25.05.2020
2616 Clear 40 1002 11 0 2.16 284 15:42 25.05.2020
2617 Clear 43 1002 9 0 2.06 279 15:18 25.05.2020
2618 Clouds 44 1003 8 6000 2.6 270 14:43 25.05.2020
2619 Clouds 44 1003 8 6000 2.6 270 14:25 25.05.2020
2620 Clouds 44 1003 8 6000 2.6 270 13:57 25.05.2020
2621 Clouds 44 1003 8 6000 1.5 340 13:38 25.05.2020
2622 Clouds 44 1003 8 6000 1.5 340 13:20 25.05.2020
2623 Clouds 45 1003 7 6000 3.1 300 12:55 25.05.2020
2624 Clouds 45 1003 7 6000 3.1 300 12:54 25.05.2020
2625 Clouds 45 1004 7 6000 2.1 310 12:36 25.05.2020
2626 Clouds 44 1004 8 6000 2.1 360 12:18 25.05.2020
2627 Clouds 44 1005 8 6000 1 270 11:38 25.05.2020
2628 Clouds 44 1005 8 6000 1 270 11:38 25.05.2020
2629 Clouds 44 1005 8 6000 1 270 11:19 25.05.2020
2630 Clouds 44 1006 8 6000 5.1 340 10:44 25.05.2020
2631 Clouds 44 1006 8 6000 5.1 340 10:21 25.05.2020
2632 Clouds 44 1006 8 6000 2.1 330 09:59 25.05.2020
2633 Clear 44 1006 8 6000 2.6 330 09:40 25.05.2020
2634 Clear 44 1006 8 6000 2.6 330 09:19 25.05.2020
2635 Clear 43 1007 9 6000 5.1 350 08:58 25.05.2020
2636 Clear 42 1007 12 6000 1 30 08:36 25.05.2020
2637 Clear 41 1007 12 6000 1.5 30 08:18 25.05.2020
2638 Clear 41 1008 12 6000 2.1 320 07:43 25.05.2020
2639 Clear 41 1008 12 6000 2.1 320 07:21 25.05.2020
2640 Clouds 39 1008 14 6000 3.1 350 06:52 25.05.2020
2641 Clouds 38 1008 15 6000 1 320 06:31 25.05.2020
2642 Clouds 35 1008 15 6000 3.1 270 04:18 25.05.2020
2643 Clouds 32 1007 21 6000 1.5 280 03:23 25.05.2020
2644 Haze 30 1007 25 5000 1.99 235 02:45 25.05.2020
2645 Haze 31 1005 25 5000 2.1 270 01:54 25.05.2020
2646 Haze 31 1005 25 5000 2.1 270 01:28 25.05.2020
2647 Haze 31 1005 25 5000 2.1 270 01:28 25.05.2020
2648 Haze 30 1005 30 5000 2.1 300 00:38 25.05.2020
2649 Haze 30 1005 30 5000 2.1 300 00:19 25.05.2020
2650 Haze 34 1005 20 5000 2.1 230 23:55 24.05.2020
2651 Haze 34 1005 20 5000 2.1 230 23:36 24.05.2020
2652 Haze 34 1005 20 5000 2.1 230 23:18 24.05.2020
2653 Haze 34 1005 20 5000 2.1 230 22:41 24.05.2020
2654 Haze 34 1005 20 5000 2.1 230 22:19 24.05.2020
2655 Haze 34 1005 20 5000 1 230 21:56 24.05.2020
2656 Haze 34 1005 20 5000 1 230 21:38 24.05.2020
2657 Haze 34 1005 20 5000 1 230 21:19 24.05.2020
2658 Haze 34 1006 18 5000 1 180 20:44 24.05.2020
2659 Haze 34 1006 18 5000 1 180 20:23 24.05.2020
2660 Haze 36 1005 18 5000 1 60 19:59 24.05.2020
2661 Haze 36 1005 18 5000 1 60 19:41 24.05.2020
2662 Haze 36 1005 18 5000 1 60 19:19 24.05.2020
2663 Haze 36 1005 18 5000 1 60 19:19 24.05.2020
2664 Haze 38 1005 13 5000 1 30 18:57 24.05.2020
2665 Haze 38 1005 13 5000 1 30 18:38 24.05.2020
2666 Haze 38 1005 13 5000 1 30 18:20 24.05.2020
2667 Haze 36 1005 19 5000 3.28 305 17:41 24.05.2020
2668 Haze 36 1005 19 5000 3.77 305 17:22 24.05.2020
2669 Haze 40 1004 12 5000 3.77 305 16:58 24.05.2020
2670 Haze 40 1004 12 5000 3.77 305 16:38 24.05.2020
2671 Haze 40 1004 12 5000 3.13 310 16:20 24.05.2020
2672 Haze 40 1004 12 5000 3.13 310 16:20 24.05.2020
2673 Clouds 41 1003 11 6000 2.1 320 15:57 24.05.2020
2674 Clouds 43 1003 10 6000 1.5 330 15:38 24.05.2020
2675 Clouds 43 1003 10 6000 1.5 330 15:38 24.05.2020
2676 Clouds 43 1003 10 6000 1.5 330 15:19 24.05.2020
2677 Clouds 43 1003 10 6000 1.5 330 15:19 24.05.2020
2678 Clouds 44 1003 8 6000 2.1 320 14:46 24.05.2020
2679 Clouds 44 1003 8 6000 2.1 320 14:25 24.05.2020
2680 Clouds 44 1003 8 6000 1.5 360 13:59 24.05.2020
2681 Clouds 45 1003 7 6000 3.1 300 13:41 24.05.2020
2682 Clouds 45 1003 7 6000 3.1 300 13:22 24.05.2020
2683 Clouds 44 1003 8 6000 2.1 340 12:59 24.05.2020
2684 Clouds 44 1003 8 6000 2.1 90 12:40 24.05.2020
2685 Clouds 44 1003 8 6000 2.1 90 12:22 24.05.2020
2686 Clouds 45 1003 8 6000 1 120 11:59 24.05.2020
2687 Clouds 44 1004 8 6000 1 340 11:41 24.05.2020
2688 Clouds 44 1004 8 6000 1 340 11:41 24.05.2020
2689 Clouds 44 1004 8 6000 1 340 11:22 24.05.2020
2690 Clear 44 1004 8 6000 1 300 10:58 24.05.2020
2691 Clear 44 1005 8 6000 1 90 10:39 24.05.2020
2692 Clear 44 1005 8 6000 1 90 10:21 24.05.2020
2693 Clear 44 1005 8 6000 1 90 10:21 24.05.2020
2694 Clear 43 1006 8 0 2.1 340 09:41 24.05.2020
2695 Clear 43 1006 8 0 2.1 340 09:19 24.05.2020
2696 Clear 44 1006 7 0 1.5 20 08:57 24.05.2020
2697 Clear 43 1007 7 0 1 10 08:39 24.05.2020
2698 Clouds 43 1007 7 0 1 10 08:20 24.05.2020
2699 Haze 42 1007 8 5000 1.5 290 07:49 24.05.2020
2700 Haze 40 1007 10 5000 1.5 250 07:25 24.05.2020
2701 Clouds 44 1006 9 0 4.65 341 06:57 24.05.2020
2702 Haze 37 1008 13 5000 4.65 341 06:36 24.05.2020
2703 Haze 34 1007 18 5000 5.54 347 04:54 24.05.2020
2704 Haze 29 1006 28 4000 5.7 343 03:42 24.05.2020
2705 Haze 30 1006 22 4000 3.73 328 02:46 24.05.2020
2706 Haze 31 1005 20 4000 1 240 01:47 24.05.2020
2707 Haze 31 1005 22 4000 1.5 230 00:41 24.05.2020
2708 Haze 31 1005 22 4000 1.5 230 00:22 24.05.2020
2709 Haze 31 1005 25 4000 1 320 23:44 23.05.2020
2710 Haze 31 1005 25 4000 1 320 23:25 23.05.2020
2711 Haze 31 1005 22 5000 2.6 260 22:59 23.05.2020
2712 Haze 31 1005 22 5000 2.6 260 22:39 23.05.2020
2713 Haze 31 1005 22 5000 2.6 260 22:20 23.05.2020
2714 Haze 33 1005 18 5000 1 290 21:58 23.05.2020
2715 Haze 33 1005 18 5000 1 290 21:40 23.05.2020
2716 Haze 34 1006 17 5000 1 310 21:20 23.05.2020
2717 Haze 33 1005 18 5000 1 290 21:20 23.05.2020
2718 Haze 34 1006 17 5000 1 310 20:58 23.05.2020
2719 Haze 34 1006 17 5000 1 310 20:38 23.05.2020
2720 Haze 34 1006 17 5000 1 310 20:38 23.05.2020
2721 Haze 34 1006 17 5000 1 310 20:19 23.05.2020
2722 Haze 37 1006 14 5000 1.92 297 19:42 23.05.2020
2723 Haze 37 1006 14 5000 1.76 304 19:20 23.05.2020
2724 Haze 35 1005 17 5000 1.5 320 18:59 23.05.2020
2725 Haze 35 1005 17 5000 1.5 320 18:40 23.05.2020
2726 Haze 35 1005 17 5000 1.5 320 18:40 23.05.2020
2727 Haze 35 1005 17 5000 1.5 320 18:22 23.05.2020
2728 Haze 37 1005 18 5000 1.56 322 17:56 23.05.2020
2729 Haze 37 1005 18 5000 1.56 322 17:37 23.05.2020
2730 Haze 37 1005 18 5000 2.19 327 17:19 23.05.2020
2731 Clouds 39 1004 13 6000 2.19 327 16:56 23.05.2020
2732 Clouds 39 1004 13 6000 2.19 327 16:38 23.05.2020
2733 Clouds 39 1004 13 6000 2.01 309 16:19 23.05.2020
2734 Clouds 42 1003 9 6000 2.01 309 15:42 23.05.2020
2735 Clouds 42 1003 9 6000 1.92 305 15:23 23.05.2020
2736 Clouds 44 1002 7 6000 1 100 14:57 23.05.2020
2737 Clouds 44 1002 7 6000 1 100 14:57 23.05.2020
2738 Clouds 44 1002 7 6000 1 100 14:38 23.05.2020
2739 Clouds 44 1002 7 6000 1 100 14:20 23.05.2020
2740 Clouds 44 1002 8 6000 1.5 250 13:40 23.05.2020
2741 Clear 44 1002 8 6000 3.1 260 13:19 23.05.2020
2742 Clear 44 1002 8 6000 3.1 260 12:56 23.05.2020
2743 Clear 44 1002 8 6000 3.1 260 12:36 23.05.2020
2744 Clear 44 1003 7 6000 2.1 320 12:18 23.05.2020
2745 Clear 44 1003 7 6000 2.1 320 11:42 23.05.2020
2746 Clear 44 1003 7 6000 2.1 320 11:21 23.05.2020
2747 Clear 44 1004 7 6000 1.5 220 10:56 23.05.2020
2748 Clear 44 1004 7 6000 1.5 350 10:38 23.05.2020
2749 Clear 44 1004 7 6000 1.5 350 10:19 23.05.2020
2750 Clear 43 1005 8 6000 1.5 50 09:55 23.05.2020
2751 Clear 43 1005 8 6000 1.5 50 09:55 23.05.2020
2752 Clear 43 1005 8 6000 2.6 360 09:37 23.05.2020
2753 Clear 43 1005 8 6000 2.6 360 09:19 23.05.2020
2754 Clear 42 1006 9 6000 6.2 360 08:41 23.05.2020
2755 Clear 42 1006 9 6000 6.2 360 08:19 23.05.2020
2756 Clear 41 1006 11 6000 6.2 320 07:46 23.05.2020
2757 Clear 41 1006 11 6000 6.2 320 07:27 23.05.2020
2758 Clear 40 1006 12 6000 4.6 320 06:44 23.05.2020
2759 Clear 38 1006 14 6000 4.1 310 05:59 23.05.2020
2760 Clear 35 1006 19 6000 1.5 300 04:27 23.05.2020
2761 Haze 33 1005 19 5000 3.1 300 03:26 23.05.2020
2762 Haze 33 1004 18 4000 3.1 300 02:42 23.05.2020
2763 Haze 33 1003 18 4000 4.6 320 01:50 23.05.2020
2764 Haze 33 1003 18 4000 4.6 320 01:19 23.05.2020
2765 Haze 34 1003 17 4000 4.6 320 00:43 23.05.2020
2766 Haze 34 1003 17 4000 4.6 320 00:21 23.05.2020
2767 Haze 34 1003 16 4000 4.1 300 23:45 22.05.2020
2768 Haze 34 1003 16 4000 4.1 300 23:22 22.05.2020
2769 Haze 32 1004 18 4000 2.6 300 22:59 22.05.2020
2770 Haze 32 1004 18 4000 2.6 300 22:40 22.05.2020
2771 Haze 32 1004 18 4000 2.6 300 22:21 22.05.2020
2772 Haze 33 1005 18 5000 1.5 310 21:48 22.05.2020
2773 Haze 33 1005 18 5000 1.5 310 21:24 22.05.2020
2774 Haze 33 1005 19 5000 2.1 310 20:59 22.05.2020
2775 Haze 33 1005 19 5000 2.1 310 20:41 22.05.2020
2776 Haze 33 1005 19 5000 2.1 310 20:41 22.05.2020
2777 Haze 33 1005 19 5000 2.1 310 20:20 22.05.2020
2778 Haze 32 1005 19 5000 2.1 270 19:45 22.05.2020
2779 Haze 32 1005 19 5000 2.1 270 19:26 22.05.2020
2780 Haze 33 1005 16 5000 1 260 18:55 22.05.2020
2781 Haze 33 1005 16 5000 1 260 18:37 22.05.2020
2782 Haze 33 1005 16 5000 1 260 18:37 22.05.2020
2783 Haze 33 1005 16 5000 1 260 18:19 22.05.2020
2784 Haze 35 1004 14 5000 1.93 270 17:40 22.05.2020
2785 Haze 35 1004 14 5000 1.33 286 17:20 22.05.2020
2786 Haze 37 1004 13 5000 1.33 286 16:57 22.05.2020
2787 Haze 37 1004 13 5000 1.33 286 16:39 22.05.2020
2788 Haze 37 1004 13 5000 1.65 292 16:19 22.05.2020
2789 Clear 40 1003 10 6000 2.6 320 15:42 22.05.2020
2790 Clear 40 1003 10 6000 2.6 320 15:22 22.05.2020
2791 Clear 42 1003 8 6000 2.6 320 14:56 22.05.2020
2792 Clear 42 1003 8 6000 2.6 320 14:38 22.05.2020
2793 Clear 42 1003 8 6000 2.6 320 14:20 22.05.2020
2794 Clear 43 1002 8 6000 3.1 320 13:41 22.05.2020
2795 Clear 43 1002 7 6000 3.1 320 13:19 22.05.2020
2796 Clear 43 1002 7 6000 4.1 320 12:43 22.05.2020
2797 Clear 43 1002 7 6000 4.1 320 12:43 22.05.2020
2798 Clear 43 1002 7 6000 4.1 320 12:24 22.05.2020
2799 Clear 43 1003 7 6000 5.1 350 11:47 22.05.2020
2800 Clear 43 1003 7 6000 5.1 350 11:22 22.05.2020
2801 Clear 43 1004 7 6000 4.1 350 10:59 22.05.2020
2802 Clear 43 1004 7 6000 4.1 350 10:39 22.05.2020
2803 Clear 43 1004 7 6000 4.1 350 10:20 22.05.2020
2804 Clear 43 1004 7 6000 4.1 350 09:55 22.05.2020
2805 Clear 43 1005 7 6000 4.1 350 09:36 22.05.2020
2806 Clear 42 1005 8 6000 4.1 360 09:18 22.05.2020
2807 Clear 42 1005 8 6000 4.1 330 08:41 22.05.2020
2808 Clear 42 1005 8 6000 4.1 330 08:19 22.05.2020
2809 Clear 41 1005 9 6000 5.1 360 07:52 22.05.2020
2810 Clear 40 1006 11 6000 7.7 320 07:23 22.05.2020
2811 Clear 39 1006 12 6000 6.7 340 06:52 22.05.2020
2812 Clear 39 1006 12 6000 7.2 340 06:29 22.05.2020
2813 Clear 36 1005 13 6000 6.2 320 05:37 22.05.2020
2814 Clear 36 1005 13 6000 6.2 320 05:37 22.05.2020
2815 Clouds 35 1005 15 6000 5.1 330 04:49 22.05.2020
2816 Haze 27 1005 28 5000 1.5 330 03:52 22.05.2020
2817 Haze 25 1004 31 4000 1 30 03:33 22.05.2020
2818 Haze 26 1004 27 4000 1.5 20 02:35 22.05.2020
2819 Haze 27 1003 21 4000 1 310 01:43 22.05.2020
2820 Haze 27 1003 21 4000 1 310 01:21 22.05.2020
2821 Haze 28 1003 23 4000 1.5 340 00:34 22.05.2020
2822 Haze 28 1003 23 4000 1.5 340 23:58 21.05.2020
2823 Haze 28 1003 23 4000 1.5 340 23:40 21.05.2020
2824 Haze 28 1003 23 4000 1.5 340 23:22 21.05.2020
2825 Haze 27 1003 22 4000 1.52 282 22:57 21.05.2020
2826 Haze 27 1003 22 4000 1.52 282 22:37 21.05.2020
2827 Haze 27 1003 22 4000 2.24 266 22:19 21.05.2020
2828 Haze 28 1003 20 4000 2.24 266 21:47 21.05.2020
2829 Haze 28 1003 20 4000 1.77 309 21:27 21.05.2020
2830 Haze 30 1004 16 4000 1.77 309 20:57 21.05.2020
2831 Haze 30 1004 16 4000 1.77 309 20:39 21.05.2020
2832 Haze 30 1004 16 4000 1.98 304 20:20 21.05.2020
2833 Haze 30 1004 17 4000 2.1 270 19:40 21.05.2020
2834 Haze 30 1004 17 4000 2.1 270 19:19 21.05.2020
2835 Haze 31 1004 14 4000 1 280 18:56 21.05.2020
2836 Haze 31 1004 14 4000 1 280 18:36 21.05.2020
2837 Haze 33 1003 13 4000 1 290 18:18 21.05.2020
2838 Haze 33 1003 13 4000 1 290 17:43 21.05.2020
2839 Haze 33 1003 13 4000 1 290 17:25 21.05.2020
2840 Haze 36 1003 8 5000 1 320 16:48 21.05.2020
2841 Haze 36 1003 8 5000 1 320 16:27 21.05.2020
2842 Haze 39 1002 8 5000 2.1 340 15:58 21.05.2020
2843 Clouds 40 1002 7 6000 3.1 350 15:39 21.05.2020
2844 Clouds 40 1002 7 6000 3.1 350 15:20 21.05.2020
2845 Clouds 41 1001 6 6000 4.6 360 14:41 21.05.2020
2846 Clouds 41 1001 6 6000 4.6 360 14:22 21.05.2020
2847 Clear 42 1001 6 6000 3.1 360 13:43 21.05.2020
2848 Clear 42 1001 6 6000 3.1 360 13:23 21.05.2020
2849 Clear 42 1001 6 6000 5.1 360 12:59 21.05.2020
2850 Clouds 42 1001 6 6000 4.6 330 12:38 21.05.2020
2851 Clouds 42 1001 6 6000 5.7 340 12:19 21.05.2020
2852 Clouds 42 1001 6 6000 5.7 340 12:19 21.05.2020
2853 Clouds 42 1001 6 6000 5.7 340 11:55 21.05.2020
2854 Clouds 42 1002 6 6000 4.6 350 11:37 21.05.2020
2855 Clouds 42 1002 6 6000 4.6 350 11:19 21.05.2020
2856 Clouds 41 1002 7 6000 4.6 350 10:39 21.05.2020
2857 Clouds 41 1002 7 6000 4.6 350 10:21 21.05.2020
2858 Clouds 41 1003 7 6000 3.1 340 09:56 21.05.2020
2859 Clouds 41 1003 6 6000 2.6 350 09:38 21.05.2020
2860 Clouds 41 1003 6 6000 2.6 350 09:20 21.05.2020
2861 Clouds 40 1004 6 6000 4.6 330 08:48 21.05.2020
2862 Clouds 40 1004 6 6000 4.6 330 08:29 21.05.2020
2863 Clouds 39 1004 8 6000 2.6 50 07:49 21.05.2020
2864 Clouds 38 1005 9 6000 1.5 60 07:27 21.05.2020
2865 Clouds 38 1005 10 6000 1.5 50 06:54 21.05.2020
2866 Clouds 36 1005 11 6000 2.1 30 06:23 21.05.2020
2867 Clouds 31 1004 19 6000 5.14 347 05:37 21.05.2020
2868 Clouds 30 1003 13 0 3.32 343 03:22 21.05.2020
2869 Clouds 30 1003 13 0 3.32 343 03:22 21.05.2020
2870 Clouds 30 1003 13 0 3.32 343 02:49 21.05.2020
2871 Clouds 30 1002 13 0 3.26 0 02:30 21.05.2020
2872 Clouds 29 1001 14 0 3.58 345 01:47 21.05.2020
2873 Clouds 29 1001 13 0 4.07 344 01:21 21.05.2020
2874 Haze 29 1001 17 4000 2.1 320 00:53 21.05.2020
2875 Haze 29 1001 17 4000 2.1 320 00:24 21.05.2020
2876 Haze 29 1001 17 4000 2.1 320 23:46 20.05.2020
2877 Haze 29 1001 17 4000 2.1 320 23:21 20.05.2020
2878 Haze 29 1001 17 4000 2.1 320 22:58 20.05.2020
2879 Haze 29 1001 17 4000 2.1 320 22:39 20.05.2020
2880 Haze 29 1001 17 4000 2.1 320 22:21 20.05.2020
2881 Haze 29 1002 17 4000 2.1 320 21:41 20.05.2020
2882 Haze 29 1002 17 4000 2.1 320 21:23 20.05.2020
2883 Clouds 33 1000 10 0 4.36 328 20:45 20.05.2020
2884 Clouds 33 1000 10 0 4.36 328 20:45 20.05.2020
2885 Clear 33 1000 10 0 4.31 334 20:26 20.05.2020
2886 Clear 33 1000 10 0 4.31 334 19:59 20.05.2020
2887 Haze 34 1001 12 4000 2.1 320 19:38 20.05.2020
2888 Haze 34 1001 12 4000 2.1 320 19:38 20.05.2020
2889 Haze 34 1001 12 4000 2.1 320 19:20 20.05.2020
2890 Haze 34 1001 12 4000 2.1 320 18:50 20.05.2020
2891 Haze 34 1001 12 4000 2.1 320 18:31 20.05.2020
2892 Haze 34 1001 12 5000 2.1 320 17:58 20.05.2020
2893 Haze 34 1001 12 5000 2.1 320 17:37 20.05.2020
2894 Haze 34 1001 12 5000 2.1 320 17:19 20.05.2020
2895 Haze 36 1000 11 5000 1 330 16:41 20.05.2020
2896 Haze 36 1000 11 5000 1 330 16:22 20.05.2020
2897 Haze 38 999 9 5000 1 330 15:56 20.05.2020
2898 Haze 39 999 8 5000 1.5 350 15:36 20.05.2020
2899 Haze 40 999 7 5000 2.6 340 15:18 20.05.2020
2900 Haze 41 998 6 5000 4.6 350 14:41 20.05.2020
2901 Haze 41 998 6 5000 4.6 350 14:20 20.05.2020
2902 Haze 42 998 6 5000 5.7 340 13:40 20.05.2020
2903 Haze 42 998 6 5000 5.7 340 13:19 20.05.2020
2904 Haze 43 998 34 5000 6.2 350 12:43 20.05.2020
2905 Haze 43 998 34 5000 6.2 350 12:21 20.05.2020
2906 Haze 43 998 34 5000 6.2 350 12:21 20.05.2020
2907 Haze 43 998 34 5000 6.7 10 11:57 20.05.2020
2908 Haze 43 998 34 5000 6.2 330 11:36 20.05.2020
2909 Haze 44 999 34 5000 5.1 340 11:18 20.05.2020
2910 Haze 44 999 34 5000 5.1 340 11:18 20.05.2020
2911 Clouds 44 997 6 0 7.37 338 10:42 20.05.2020
2912 Haze 43 1001 32 5000 5.1 320 10:19 20.05.2020
2913 Haze 43 1001 32 5000 5.1 320 09:44 20.05.2020
2914 Haze 43 1001 32 5000 5.1 320 09:21 20.05.2020
2915 Haze 42 1001 32 5000 4.6 10 08:44 20.05.2020
2916 Haze 42 1001 32 5000 4.6 10 08:20 20.05.2020
2917 Haze 41 1001 36 5000 2.6 310 07:55 20.05.2020
2918 Haze 40 1002 35 5000 2.6 340 07:37 20.05.2020
2919 Haze 40 1002 35 5000 2.6 340 07:19 20.05.2020
2920 Haze 38 1002 37 5000 2.1 320 06:28 20.05.2020
2921 Haze 33 1002 43 5000 2.1 330 05:19 20.05.2020
2922 Haze 30 1001 42 4000 1 320 04:25 20.05.2020
2923 Haze 24 1000 64 4000 3.43 321 03:37 20.05.2020
2924 Haze 25 1000 69 4000 1 320 01:58 20.05.2020
2925 Haze 25 1000 69 4000 1 320 01:25 20.05.2020
2926 Haze 26 1000 65 4000 2.1 357 00:42 20.05.2020
2927 Haze 26 1000 65 4000 2.09 16 00:23 20.05.2020
2928 Haze 26 1000 65 4000 2.09 16 23:39 19.05.2020
2929 Haze 26 1000 65 4000 2.62 11 23:19 19.05.2020
2930 Haze 28 1000 61 4000 2.62 11 22:55 19.05.2020
2931 Haze 28 1000 61 4000 2.62 11 22:37 19.05.2020
2932 Haze 28 1000 61 4000 2.68 1 22:18 19.05.2020
2933 Haze 28 1000 58 5000 2.68 1 21:55 19.05.2020
2934 Haze 28 1000 58 5000 3.56 355 21:36 19.05.2020
2935 Haze 28 1001 58 5000 1 290 21:18 19.05.2020
2936 Haze 28 1001 58 5000 1 290 20:56 19.05.2020
2937 Haze 28 1001 58 5000 1 290 20:37 19.05.2020
2938 Haze 28 1001 58 5000 1 290 20:19 19.05.2020
2939 Haze 29 1001 62 5000 3.56 343 19:38 19.05.2020
2940 Haze 29 1001 62 5000 3.72 343 19:20 19.05.2020
2941 Haze 30 1001 51 5000 3.72 343 18:45 19.05.2020
2942 Haze 30 1001 51 5000 3.14 360 18:23 19.05.2020
2943 Haze 32 1001 46 5000 1 360 17:58 19.05.2020
2944 Haze 32 1001 46 5000 1 360 17:39 19.05.2020
2945 Haze 32 1001 46 5000 1 360 17:20 19.05.2020
2946 Haze 33 995 49 5000 1.5 20 16:55 19.05.2020
2947 Haze 33 995 49 5000 1.5 20 16:37 19.05.2020
2948 Haze 37 1000 39 5000 1 360 16:18 19.05.2020
2949 Haze 38 999 45 5000 1 340 15:41 19.05.2020
2950 Haze 38 999 45 5000 1 340 15:20 19.05.2020
2951 Clouds 39 999 42 6000 1 20 14:55 19.05.2020
2952 Clouds 40 999 40 6000 1.5 20 14:36 19.05.2020
2953 Clouds 40 999 40 6000 1.5 20 14:18 19.05.2020
2954 Clouds 40 999 35 6000 2.1 30 13:55 19.05.2020
2955 Clouds 41 999 34 6000 2.6 40 13:37 19.05.2020
2956 Clouds 40 999 35 6000 1.5 10 13:18 19.05.2020
2957 Clouds 41 999 34 6000 1 10 12:41 19.05.2020
2958 Clouds 41 999 34 6000 1 10 12:22 19.05.2020
2959 Clouds 41 999 34 6000 4.1 50 11:59 19.05.2020
2960 Clouds 41 1000 34 6000 10.3 40 11:40 19.05.2020
2961 Clouds 41 1000 34 6000 10.3 40 11:21 19.05.2020
2962 Clouds 42 1000 30 6000 2.6 70 10:49 19.05.2020
2963 Clouds 42 1001 30 6000 2.1 30 10:30 19.05.2020
2964 Clouds 42 1002 30 6000 3.1 340 09:59 19.05.2020
2965 Clouds 42 1003 15 6000 5.7 360 09:41 19.05.2020
2966 Clouds 42 1003 15 6000 5.7 360 09:23 19.05.2020
2967 Clouds 40 1004 16 6000 3.1 20 08:44 19.05.2020
2968 Clouds 40 1004 16 6000 3.1 20 08:24 19.05.2020
2969 Clouds 38 1004 18 6000 3.6 340 07:45 19.05.2020
2970 Clouds 38 1004 18 6000 3.6 340 07:27 19.05.2020
2971 Clouds 37 1004 22 6000 2.6 340 06:54 19.05.2020
2972 Clouds 37 1004 22 6000 3.6 340 06:25 19.05.2020
2973 Clouds 34 1003 38 6000 1.5 360 05:42 19.05.2020
2974 Clouds 31 1003 48 6000 3.74 13 04:57 19.05.2020
2975 Haze 30 1003 55 5000 3.74 13 04:34 19.05.2020
2976 Haze 27 1002 83 4000 1.5 30 01:51 19.05.2020
2977 Haze 28 1001 69 4000 1 10 00:47 19.05.2020
2978 Haze 28 1001 69 4000 1 10 00:25 19.05.2020
2979 Haze 28 1001 74 4000 2.57 23 23:58 18.05.2020
2980 Haze 28 1001 74 4000 2.57 23 23:40 18.05.2020
2981 Haze 28 1001 74 4000 1.24 66 23:20 18.05.2020
2982 Haze 29 1001 70 4000 1 30 22:41 18.05.2020
2983 Haze 29 1001 70 4000 1 30 22:22 18.05.2020
2984 Haze 31 1002 66 4000 1 90 21:58 18.05.2020
2985 Haze 31 1002 66 4000 1 90 21:39 18.05.2020
2986 Haze 31 1002 66 4000 1 90 21:19 18.05.2020
2987 Haze 32 1002 62 4000 2.6 100 20:43 18.05.2020
2988 Haze 33 1002 63 5000 2.6 100 20:22 18.05.2020
2989 Haze 33 1002 63 5000 2.6 100 19:59 18.05.2020
2990 Haze 33 1002 63 5000 2.6 100 19:40 18.05.2020
2991 Haze 31 1002 58 5000 4.1 70 19:19 18.05.2020
2992 Haze 31 1002 58 5000 4.1 70 18:46 18.05.2020
2993 Haze 31 1002 58 5000 4.1 70 18:25 18.05.2020
2994 Haze 33 1001 52 5000 1 20 17:55 18.05.2020
2995 Haze 33 1001 52 5000 1 20 17:36 18.05.2020
2996 Haze 36 1001 41 5000 1.75 358 17:18 18.05.2020
2997 Haze 36 1001 41 5000 1.75 358 17:18 18.05.2020
2998 Haze 36 1001 41 5000 1.75 358 17:18 18.05.2020
2999 Haze 36 1001 41 5000 1.75 358 16:43 18.05.2020
3000 Haze 36 1001 41 5000 4.03 18 16:21 18.05.2020
3001 Haze 38 999 42 5000 4.1 30 15:57 18.05.2020
3002 Haze 39 999 42 5000 4.1 330 15:39 18.05.2020
3003 Haze 39 999 42 5000 4.1 330 15:20 18.05.2020
3004 Haze 39 999 42 5000 4.1 330 14:56 18.05.2020
3005 Haze 39 999 42 5000 4.1 330 14:38 18.05.2020
3006 Haze 39 999 42 5000 4.1 330 14:19 18.05.2020
3007 Clouds 41 999 40 6000 1 60 13:41 18.05.2020
3008 Clouds 41 999 40 6000 1 60 13:20 18.05.2020
3009 Clouds 42 999 38 6000 1.5 60 12:58 18.05.2020
3010 Clouds 42 999 38 6000 1.5 60 12:39 18.05.2020
3011 Clouds 42 999 38 6000 1.5 60 12:19 18.05.2020
3012 Clouds 42 1000 38 6000 2.1 290 11:47 18.05.2020
3013 Clouds 42 1000 38 6000 2.1 290 11:27 18.05.2020
3014 Clouds 41 1002 40 6000 2.67 2 10:59 18.05.2020
3015 Clouds 41 1002 40 6000 2.67 2 10:40 18.05.2020
3016 Clouds 41 1002 40 6000 2.94 32 10:22 18.05.2020
3017 Clouds 41 1002 40 6000 2.94 32 09:44 18.05.2020
3018 Clouds 41 1002 40 6000 3.08 25 09:25 18.05.2020
3019 Clouds 40 1003 20 6000 1 350 08:46 18.05.2020
3020 Clouds 40 1003 20 6000 1 350 08:27 18.05.2020
3021 Clouds 37 1004 23 6000 1.5 360 07:58 18.05.2020
3022 Clouds 37 1005 25 6000 1.5 350 07:38 18.05.2020
3023 Clouds 35 1005 30 6000 1 120 07:18 18.05.2020
3024 Clouds 35 1005 32 6000 1 350 06:43 18.05.2020
3025 Clouds 33 1005 36 6000 1.5 360 05:49 18.05.2020
3026 Clouds 33 1005 36 6000 2.1 360 05:25 18.05.2020
3027 Haze 28 1004 51 4000 2.97 296 03:34 18.05.2020
3028 Haze 27 1004 54 4000 1.44 311 02:30 18.05.2020
3029 Haze 28 1004 51 4000 2.35 290 01:22 18.05.2020
3030 Haze 29 1003 45 4000 1 70 00:25 18.05.2020
3031 Haze 29 1003 45 4000 3.04 291 23:57 17.05.2020
3032 Haze 29 1003 45 4000 3.04 291 23:39 17.05.2020
3033 Haze 29 1003 45 4000 3.07 300 23:20 17.05.2020
3034 Haze 29 1003 42 4000 3.07 300 22:56 17.05.2020
3035 Haze 29 1003 42 4000 3.07 300 22:37 17.05.2020
3036 Haze 29 1003 42 4000 2.17 299 22:19 17.05.2020
3037 Haze 30 1004 42 4000 1.5 100 21:55 17.05.2020
3038 Haze 30 1004 42 4000 1.5 100 21:36 17.05.2020
3039 Haze 31 1005 38 4000 1.5 100 21:18 17.05.2020
3040 Haze 31 1005 38 4000 1.5 100 20:41 17.05.2020
3041 Haze 31 1005 38 4000 1.5 100 20:20 17.05.2020
3042 Haze 32 1005 40 4000 2.6 70 19:56 17.05.2020
3043 Haze 32 1005 40 4000 2.6 70 19:37 17.05.2020
3044 Haze 32 1005 40 4000 2.6 70 19:19 17.05.2020
3045 Haze 33 1005 36 4000 4.6 50 18:41 17.05.2020
3046 Haze 33 1005 36 4000 4.6 50 18:23 17.05.2020
3047 Haze 35 1004 32 4000 1 100 17:58 17.05.2020
3048 Haze 35 1004 32 4000 1 100 17:39 17.05.2020
3049 Haze 35 1004 32 4000 1 100 17:18 17.05.2020
3050 Haze 35 1003 30 4000 3.1 190 16:40 17.05.2020
3051 Haze 35 1003 30 4000 3.1 190 16:20 17.05.2020
3052 Haze 35 1003 30 4000 3.1 190 16:20 17.05.2020
3053 Haze 36 1002 30 4000 0.22 171 15:56 17.05.2020
3054 Haze 37 1002 25 4000 0.22 171 15:37 17.05.2020
3055 Haze 37 1002 25 4000 0.39 6 15:19 17.05.2020
3056 Haze 39 1002 21 5000 1.5 150 14:43 17.05.2020
3057 Haze 39 1002 21 5000 1.5 150 14:24 17.05.2020
3058 Clouds 39 1002 20 5000 1 90 13:58 17.05.2020
3059 Clouds 40 1002 20 6000 1.5 130 13:39 17.05.2020
3060 Clouds 40 1002 20 6000 2.1 80 13:18 17.05.2020
3061 Clouds 29 1007 51 6000 1 250 04:26 17.05.2020
3062 Haze 25 1007 69 4000 1.21 70 02:29 17.05.2020
3063 Clouds 33 1003 29 0 0.97 13 01:58 17.05.2020
3064 Haze 27 1005 54 3000 0.97 13 01:38 17.05.2020
3065 Haze 27 1005 54 3000 0.77 329 00:40 17.05.2020
3066 Rain 27 1005 57 3000 2.6 180 23:57 16.05.2020
3067 Rain 27 1005 57 3000 2.6 180 23:39 16.05.2020
3068 Rain 27 1005 57 3000 2.6 180 23:20 16.05.2020
3069 Haze 26 1006 61 3000 5.1 210 22:58 16.05.2020
3070 Haze 26 1006 61 3000 5.1 210 22:40 16.05.2020
3071 Haze 26 1006 61 3000 5.1 210 22:20 16.05.2020
3072 Thunderstorm 26 1007 69 3000 5.1 250 21:45 16.05.2020
3073 Thunderstorm 26 1007 69 3000 5.1 250 21:27 16.05.2020
3074 Thunderstorm 27 1007 65 2500 6.2 290 20:58 16.05.2020
3075 Thunderstorm 27 1007 65 2500 6.2 290 20:39 16.05.2020
3076 Thunderstorm 27 1007 65 2500 6.2 290 20:21 16.05.2020
3077 Thunderstorm 28 1007 61 2500 6.2 290 19:57 16.05.2020
3078 Haze 31 1008 40 4000 4.1 300 19:39 16.05.2020
3079 Haze 31 1008 40 4000 4.1 300 19:21 16.05.2020
3080 Haze 31 1008 40 4000 4.1 300 19:21 16.05.2020
3081 Haze 34 1007 34 4000 4.1 300 18:42 16.05.2020
3082 Haze 34 1007 34 4000 4.1 300 18:22 16.05.2020
3083 Clouds 35 1005 30 0 2.6 50 17:56 16.05.2020
3084 Clouds 35 1005 30 0 2.6 50 17:38 16.05.2020
3085 Clouds 35 1005 30 0 2.6 50 17:18 16.05.2020
3086 Clouds 35 1005 30 0 2.6 50 17:18 16.05.2020
3087 Clouds 36 1004 37 0 1.5 60 16:39 16.05.2020
3088 Clouds 36 1004 37 0 1.5 60 16:20 16.05.2020
3089 Clouds 37 1003 32 0 1.5 100 15:56 16.05.2020
3090 Clouds 38 1003 29 6000 1.38 93 15:38 16.05.2020
3091 Clouds 38 1003 29 6000 1.38 93 15:38 16.05.2020
3092 Clouds 38 1003 29 6000 1.99 119 15:19 16.05.2020
3093 Clouds 40 1002 20 6000 1 50 14:43 16.05.2020
3094 Clouds 40 1002 20 6000 1 50 14:20 16.05.2020
3095 Clouds 41 1002 18 6000 1 20 13:57 16.05.2020
3096 Clouds 41 1002 19 6000 1.5 60 13:38 16.05.2020
3097 Clouds 41 1002 19 6000 1.5 60 13:19 16.05.2020
3098 Clouds 41 1003 19 6000 1 40 12:44 16.05.2020
3099 Clouds 41 1003 19 6000 1 40 12:20 16.05.2020
3100 Clouds 41 1003 20 6000 2.1 20 11:56 16.05.2020
3101 Clouds 40 1004 21 6000 1.5 60 11:37 16.05.2020
3102 Clouds 40 1004 21 6000 2.1 230 11:18 16.05.2020
3103 Clouds 40 1004 21 6000 2.1 230 10:54 16.05.2020
3104 Clear 39 1005 22 6000 2.6 220 10:36 16.05.2020
3105 Clear 39 1005 22 6000 2.6 220 10:36 16.05.2020
3106 Clear 39 1006 27 6000 1.79 32 10:18 16.05.2020
3107 Clear 39 1006 27 6000 1.79 32 09:40 16.05.2020
3108 Clouds 36 1007 37 6000 2.6 270 09:18 16.05.2020
3109 Clouds 36 1007 37 6000 2.6 270 08:42 16.05.2020
3110 Clouds 36 1007 37 6000 2.6 270 08:21 16.05.2020
3111 Clouds 35 1008 39 6000 2.6 170 07:45 16.05.2020
3112 Clouds 35 1008 39 6000 2.6 170 07:26 16.05.2020
3113 Haze 32 1008 46 5000 1 170 06:57 16.05.2020
3114 Haze 32 1008 46 5000 1 170 06:37 16.05.2020
3115 Haze 31 1008 48 5000 2.6 200 06:18 16.05.2020
3116 Haze 31 1008 48 5000 2.6 200 05:32 16.05.2020
3117 Haze 28 1007 54 4000 4.1 190 03:36 16.05.2020
3118 Haze 26 1007 74 4000 2.6 210 02:59 16.05.2020
3119 Haze 26 1007 74 4000 2.6 210 02:20 16.05.2020
3120 Rain 29 1006 51 4000 2.14 192 01:45 16.05.2020
3121 Rain 29 1006 51 4000 2.57 180 01:22 16.05.2020
3122 Haze 28 1005 58 4000 1 110 00:44 16.05.2020
3123 Haze 28 1005 58 4000 1 110 00:21 16.05.2020
3124 Haze 28 1005 58 4000 1 110 00:21 16.05.2020
3125 Thunderstorm 29 1006 58 4000 1.5 120 23:41 15.05.2020
3126 Thunderstorm 29 1006 58 4000 1.5 120 23:20 15.05.2020
3127 Thunderstorm 29 1006 58 4000 2.1 130 22:57 15.05.2020
3128 Thunderstorm 29 1006 58 4000 2.1 130 22:38 15.05.2020
3129 Clouds 34 1003 29 0 1.77 354 22:18 15.05.2020
3130 Clouds 34 1003 29 0 1.77 354 21:40 15.05.2020
3131 Clouds 35 1003 25 0 1.51 18 21:21 15.05.2020
3132 Clouds 35 1003 25 0 1.51 18 20:58 15.05.2020
3133 Clouds 35 1003 25 0 1.51 18 20:40 15.05.2020
3134 Thunderstorm 33 1006 38 4000 1.5 120 20:22 15.05.2020
3135 Thunderstorm 33 1006 38 4000 1.5 120 19:56 15.05.2020
3136 Thunderstorm 33 1006 38 4000 1.5 120 19:37 15.05.2020
3137 Thunderstorm 33 1006 38 4000 1.5 120 19:37 15.05.2020
3138 -273 0 0 0 0 0 19:19 15.05.2020
3139 Thunderstorm 34 1005 36 4000 1 60 18:43 15.05.2020
3140 Thunderstorm 34 1005 36 4000 1 60 18:24 15.05.2020
3141 Thunderstorm 34 1005 36 4000 2.6 40 17:40 15.05.2020
3142 Thunderstorm 34 1005 36 4000 2.6 40 17:19 15.05.2020
3143 Thunderstorm 35 1005 32 4000 6.2 10 16:57 15.05.2020
3144 Haze 36 1004 28 4000 1 250 16:38 15.05.2020
3145 Haze 36 1004 28 4000 1 250 16:19 15.05.2020
3146 Haze 37 1004 27 5000 2.52 232 15:54 15.05.2020
3147 Haze 36 1003 32 5000 2.52 232 15:36 15.05.2020
3148 Haze 37 1003 29 5000 2.1 240 15:18 15.05.2020
3149 Haze 37 1003 29 5000 2.1 240 15:18 15.05.2020
3150 Clouds 40 1001 16 0 1.57 190 14:41 15.05.2020
3151 Clouds 41 1001 15 0 1.21 200 14:23 15.05.2020
3152 Clouds 41 1001 15 0 1.21 200 13:58 15.05.2020
3153 Clouds 41 1001 15 0 1.21 200 13:39 15.05.2020
3154 Clouds 42 1000 15 0 0.98 199 13:19 15.05.2020
3155 Clouds 40 1003 21 6000 2.1 220 12:39 15.05.2020
3156 Clouds 40 1003 21 6000 2.1 220 12:18 15.05.2020
3157 Clouds 40 1003 21 6000 2.1 220 11:57 15.05.2020
3158 Clouds 41 1004 20 6000 1 240 11:38 15.05.2020
3159 Clouds 41 1004 20 6000 1 240 11:19 15.05.2020
3160 Clouds 40 1005 23 6000 2.1 250 10:57 15.05.2020
3161 Clouds 40 1006 23 6000 1.5 145 10:38 15.05.2020
3162 Clouds 40 1006 23 6000 1.5 145 10:38 15.05.2020
3163 Clouds 40 1006 23 6000 1.62 150 10:20 15.05.2020
3164 Clouds 39 1006 24 6000 1 320 09:57 15.05.2020
3165 Clouds 39 1006 24 6000 2.6 300 09:36 15.05.2020
3166 Clouds 39 1007 24 6000 4.1 270 09:18 15.05.2020
3167 Clouds 38 1007 27 6000 2.1 260 08:38 15.05.2020
3168 Clouds 38 1007 27 6000 2.1 260 08:20 15.05.2020
3169 Clouds 37 1008 29 6000 1.5 270 07:47 15.05.2020
3170 Clouds 37 1008 29 6000 1.5 270 07:28 15.05.2020
3171 Clouds 35 1008 34 6000 1.5 230 06:59 15.05.2020
3172 Clouds 34 1008 38 6000 1.5 230 06:28 15.05.2020
3173 Haze 31 1009 48 5000 1.5 180 04:39 15.05.2020
3174 Haze 29 1008 54 5000 1 250 03:51 15.05.2020
3175 Haze 27 1008 61 4000 0.43 141 02:55 15.05.2020
3176 Haze 27 1006 69 4000 0.81 56 01:37 15.05.2020
3177 Haze 29 1006 51 4000 1.04 5 01:18 15.05.2020
3178 Haze 29 1006 51 4000 1.04 5 00:40 15.05.2020
3179 Haze 29 1006 51 4000 0.64 43 00:21 15.05.2020
3180 Haze 30 1006 48 4000 0.64 43 23:41 14.05.2020
3181 Haze 30 1006 48 4000 0.64 43 23:41 14.05.2020
3182 Haze 30 1007 48 4000 1 300 23:18 14.05.2020
3183 Haze 30 1007 48 4000 1 300 22:42 14.05.2020
3184 Haze 30 1007 48 4000 1 300 22:23 14.05.2020
3185 Haze 31 1007 45 4000 1.67 291 21:58 14.05.2020
3186 Haze 31 1007 45 4000 1.67 291 21:40 14.05.2020
3187 Haze 31 1007 45 4000 1.93 286 21:20 14.05.2020
3188 Haze 31 1007 45 4000 1.93 286 21:20 14.05.2020
3189 Haze 31 1007 45 4000 1 270 20:57 14.05.2020
3190 Haze 31 1007 45 4000 1 270 20:38 14.05.2020
3191 Haze 31 1007 45 4000 1 270 20:19 14.05.2020
3192 Haze 32 1008 43 4000 1.5 260 19:56 14.05.2020
3193 Haze 32 1008 43 4000 1.5 260 19:37 14.05.2020
3194 Haze 32 1008 43 4000 1.5 260 19:19 14.05.2020
3195 Haze 32 1008 43 4000 2.6 210 18:56 14.05.2020
3196 Haze 32 1008 43 4000 2.6 210 18:37 14.05.2020
3197 Haze 33 1008 41 4000 1 200 18:18 14.05.2020
3198 Haze 33 1008 41 4000 1 200 17:55 14.05.2020
3199 Haze 33 1008 36 4000 2.6 270 17:36 14.05.2020
3200 Haze 33 1007 36 4000 3.1 220 17:18 14.05.2020
3201 Haze 34 1006 32 4000 1 340 16:39 14.05.2020
3202 Haze 34 1006 32 4000 1 340 16:20 14.05.2020
3203 Haze 34 1006 34 4000 5.1 320 15:57 14.05.2020
3204 Haze 37 1005 30 4000 1.5 330 15:39 14.05.2020
3205 Haze 37 1005 30 4000 1.5 330 15:19 14.05.2020
3206 Haze 38 1005 25 3000 1 90 14:56 14.05.2020
3207 Haze 38 1005 25 3000 1 90 14:38 14.05.2020
3208 Haze 38 1005 25 3000 1 90 14:19 14.05.2020
3209 Haze 38 1005 25 3000 1 90 13:55 14.05.2020
3210 Haze 39 1005 24 4000 1 90 13:37 14.05.2020
3211 Clouds 39 1005 24 6000 1 90 13:18 14.05.2020
3212 Clouds 39 1005 24 6000 1 90 12:56 14.05.2020
3213 Clouds 39 1005 27 6000 2.1 110 12:37 14.05.2020
3214 Clouds 38 1006 29 6000 2.1 110 12:18 14.05.2020
3215 Clouds 39 1007 27 6000 2.1 50 11:42 14.05.2020
3216 Clouds 39 1007 27 6000 2.1 50 11:24 14.05.2020
3217 Clouds 39 1007 27 6000 1.5 70 10:58 14.05.2020
3218 Clouds 37 1008 29 6000 2.64 308 10:40 14.05.2020
3219 Clouds 37 1008 29 6000 1.96 324 10:21 14.05.2020
3220 Clouds 36 1008 37 6000 1 50 09:43 14.05.2020
3221 Clouds 36 1008 37 6000 1 50 09:23 14.05.2020
3222 Clouds 36 1009 37 6000 1 110 08:56 14.05.2020
3223 Haze 35 1009 41 5000 1.5 60 08:36 14.05.2020
3224 Haze 34 1009 44 5000 1.73 268 08:18 14.05.2020
3225 Haze 34 1010 44 5000 1 10 07:43 14.05.2020
3226 Haze 34 1010 44 5000 1 10 07:20 14.05.2020
3227 Haze 32 1010 49 5000 2.34 249 06:43 14.05.2020
3228 Haze 32 1010 49 5000 2.52 228 06:23 14.05.2020
3229 Haze 29 1010 58 5000 1 80 05:37 14.05.2020
3230 Haze 28 1009 61 4000 1.5 90 04:43 14.05.2020
3231 Haze 25 1009 83 3000 1.53 253 03:32 14.05.2020
3232 Haze 24 1008 83 3000 1.85 285 02:43 14.05.2020
3233 Haze 24 1008 83 3000 2.08 264 02:20 14.05.2020
3234 Haze 25 1008 73 3000 2.08 264 01:44 14.05.2020
3235 Haze 26 1007 69 3000 1.94 238 00:51 14.05.2020
3236 Haze 26 1007 69 3000 1.94 238 00:51 14.05.2020
3237 Haze 26 1007 69 3000 2.4 226 00:26 14.05.2020
3238 Haze 27 1007 65 3000 1.5 310 23:45 13.05.2020
3239 Haze 27 1007 65 3000 1.5 310 23:45 13.05.2020
3240 Haze 27 1007 65 3000 1.5 310 23:22 13.05.2020
3241 Haze 26 1007 69 3000 1 310 22:58 13.05.2020
3242 Haze 26 1007 69 3000 1 310 22:39 13.05.2020
3243 Haze 26 1007 69 3000 1 310 22:39 13.05.2020
3244 Haze 26 1007 69 3000 1 310 22:21 13.05.2020
3245 Haze 26 1008 69 3000 1.5 310 21:57 13.05.2020
3246 Haze 26 1008 69 3000 1.5 310 21:38 13.05.2020
3247 Haze 26 1008 69 3000 1.5 310 21:38 13.05.2020
3248 Haze 26 1008 69 3000 1.5 310 21:19 13.05.2020
3249 Haze 26 1008 78 3000 1.5 290 20:41 13.05.2020
3250 Haze 26 1008 78 3000 1.5 290 20:23 13.05.2020
3251 Thunderstorm 25 1008 78 2000 1 300 19:56 13.05.2020
3252 Thunderstorm 25 1008 78 2000 1 300 19:38 13.05.2020
3253 Thunderstorm 24 1009 78 2000 1 80 19:19 13.05.2020
3254 Thunderstorm 24 1009 78 2000 1 80 18:42 13.05.2020
3255 Thunderstorm 24 1009 78 2000 1 80 18:42 13.05.2020
3256 Thunderstorm 24 1009 78 2000 1 80 18:21 13.05.2020
3257 Thunderstorm 27 1010 74 2000 3.6 300 17:40 13.05.2020
3258 Thunderstorm 27 1010 74 2000 3.6 300 17:20 13.05.2020
3259 Thunderstorm 27 1010 74 2000 3.6 300 17:20 13.05.2020
3260 Thunderstorm 25 1008 78 3000 4.1 40 16:59 13.05.2020
3261 Thunderstorm 24 1008 83 3500 6.2 30 16:40 13.05.2020
3262 Thunderstorm 24 1008 83 3500 6.2 30 16:19 13.05.2020
3263 Thunderstorm 31 1006 43 3000 6.7 60 15:43 13.05.2020
3264 Thunderstorm 31 1006 43 3000 6.7 60 15:20 13.05.2020
3265 Thunderstorm 31 1006 43 3000 6.7 60 15:20 13.05.2020
3266 Haze 37 1005 30 5000 2.1 170 14:59 13.05.2020
3267 Haze 37 1005 30 5000 2.1 170 14:59 13.05.2020
3268 Haze 38 1005 29 5000 3.6 160 14:41 13.05.2020
3269 Haze 38 1005 29 5000 3.6 160 14:22 13.05.2020
3270 Haze 39 1005 27 5000 3.6 190 13:58 13.05.2020
3271 Haze 39 1005 26 5000 2.1 170 13:39 13.05.2020
3272 Haze 39 1005 26 5000 2.1 170 13:39 13.05.2020
3273 Haze 39 1005 26 5000 2.1 170 13:21 13.05.2020
3274 Clouds 39 1006 27 6000 3.6 210 12:57 13.05.2020
3275 Clouds 39 1006 27 6000 3.6 210 12:38 13.05.2020
3276 Clouds 39 1006 26 6000 2.6 160 12:18 13.05.2020
3277 Clouds 39 1006 26 6000 2.6 160 11:55 13.05.2020
3278 Clouds 38 1007 27 6000 3.6 220 11:36 13.05.2020
3279 Clouds 38 1007 29 6000 3.6 200 11:18 13.05.2020
3280 Clouds 38 1007 29 6000 3.6 200 10:56 13.05.2020
3281 Clouds 37 1008 30 6000 4.1 220 10:37 13.05.2020
3282 Clouds 37 1008 29 6000 4.6 180 10:18 13.05.2020
3283 Clouds 37 1009 30 6000 5.1 210 09:41 13.05.2020
3284 Clouds 37 1009 30 6000 5.1 210 09:22 13.05.2020
3285 Clouds 36 1010 34 6000 3.6 200 08:43 13.05.2020
3286 Clouds 36 1010 34 6000 3.6 200 08:22 13.05.2020
3287 Clouds 35 1010 36 6000 5.1 220 07:59 13.05.2020
3288 Clouds 34 1010 44 6000 5.1 180 07:39 13.05.2020
3289 Clouds 34 1010 44 6000 5.1 180 07:21 13.05.2020
3290 Clouds 32 1011 52 6000 4.1 190 06:43 13.05.2020
3291 Clouds 31 1011 52 6000 5.1 190 05:59 13.05.2020
3292 Clouds 29 1010 62 6000 1.5 160 04:49 13.05.2020
3293 Haze 27 1010 69 4000 1.5 130 03:26 13.05.2020
3294 Haze 26 1009 74 4000 1.5 90 02:27 13.05.2020
3295 Haze 26 1008 74 4000 2.1 180 01:28 13.05.2020
3296 Clouds 31 1005 28 0 0.94 191 00:45 13.05.2020
3297 Haze 27 1008 65 3000 1.5 120 00:20 13.05.2020
3298 Haze 27 1008 65 3000 1.5 120 23:40 12.05.2020
3299 Haze 27 1008 65 3000 1.5 120 23:21 12.05.2020
3300 Haze 27 1008 65 3000 2.1 140 22:57 12.05.2020
3301 Haze 27 1008 65 3000 2.1 140 22:39 12.05.2020
3302 Haze 27 1008 65 3000 2.1 140 22:20 12.05.2020
3303 Rain 28 1009 51 3000 3.1 180 21:55 12.05.2020
3304 Rain 28 1009 51 3000 3.1 180 21:37 12.05.2020
3305 Haze 31 1009 38 4000 2.1 260 21:18 12.05.2020
3306 Haze 31 1009 38 4000 2.1 260 20:56 12.05.2020
3307 Haze 31 1009 38 4000 2.1 260 20:37 12.05.2020
3308 Haze 31 1009 38 4000 2.1 260 20:19 12.05.2020
3309 Haze 33 1008 31 4000 1 70 19:54 12.05.2020
3310 Haze 33 1008 31 4000 1 70 19:36 12.05.2020
3311 Haze 33 1008 31 4000 1.5 50 19:18 12.05.2020
3312 Haze 33 1008 31 4000 1.5 50 18:41 12.05.2020
3313 Haze 33 1008 31 4000 1.5 50 18:23 12.05.2020
3314 Haze 34 1007 30 4000 1.5 150 17:54 12.05.2020
3315 Haze 34 1007 30 4000 1.5 150 17:36 12.05.2020
3316 Haze 34 1006 30 4000 1.48 111 17:18 12.05.2020
3317 Haze 34 1006 30 4000 1.48 111 16:42 12.05.2020
3318 Haze 34 1006 30 4000 1.22 67 16:20 12.05.2020
3319 Haze 33 1006 41 4000 3.1 160 15:55 12.05.2020
3320 Haze 33 1006 41 4000 3.1 160 15:55 12.05.2020
3321 Haze 33 1006 41 4000 3.1 160 15:36 12.05.2020
3322 Thunderstorm 37 1006 23 4000 5.1 270 15:18 12.05.2020
3323 Thunderstorm 37 1006 23 4000 5.1 270 14:54 12.05.2020
3324 Thunderstorm 38 1005 22 5000 1 20 14:36 12.05.2020
3325 Haze 39 1005 21 5000 1 40 14:18 12.05.2020
3326 Haze 39 1005 21 5000 1 40 13:54 12.05.2020
3327 Clouds 40 1005 20 6000 1.5 70 13:36 12.05.2020
3328 Clouds 41 1005 18 6000 1 10 13:18 12.05.2020
3329 Clouds 41 1005 18 6000 1 10 12:54 12.05.2020
3330 Clouds 40 1006 20 6000 1.5 10 12:36 12.05.2020
3331 Clouds 40 1006 20 6000 1.5 10 12:36 12.05.2020
3332 Clouds 39 1006 21 6000 1 30 12:18 12.05.2020
3333 Clouds 39 1006 21 6000 1 30 11:55 12.05.2020
3334 Clouds 39 1007 21 6000 1.5 330 11:36 12.05.2020
3335 Clouds 39 1007 21 6000 1 350 11:18 12.05.2020
3336 Clouds 39 1007 21 6000 1 350 10:54 12.05.2020
3337 Clouds 39 1008 20 6000 2.1 350 10:36 12.05.2020
3338 Clouds 38 1008 22 6000 2.1 130 10:18 12.05.2020
3339 Clouds 38 1009 22 6000 2.6 100 09:40 12.05.2020
3340 Clouds 38 1009 22 6000 2.6 100 09:21 12.05.2020
3341 Clouds 37 1010 23 6000 3.6 220 08:59 12.05.2020
3342 Clouds 38 1010 22 6000 3.6 210 08:38 12.05.2020
3343 Clouds 38 1010 22 6000 3.6 210 08:19 12.05.2020
3344 Clouds 38 1010 22 6000 3.6 210 08:19 12.05.2020
3345 Clouds 37 1011 25 6000 3.6 220 07:42 12.05.2020
3346 Clouds 37 1011 25 6000 3.6 220 07:24 12.05.2020
3347 Clouds 36 1011 25 6000 3.6 200 06:50 12.05.2020
3348 Clouds 35 1011 28 6000 3.1 180 06:29 12.05.2020
3349 Clouds 34 1011 30 6000 2.6 160 05:54 12.05.2020
3350 Clear 33 1011 33 6000 2.6 150 05:35 12.05.2020
3351 Haze 27 1010 47 4000 1 90 03:27 12.05.2020
3352 Haze 25 1009 53 4000 0.47 169 02:52 12.05.2020
3353 Haze 26 1009 47 4000 0.3 106 02:25 12.05.2020
3354 Haze 26 1008 47 4000 0.58 242 01:27 12.05.2020
3355 Haze 28 1008 42 4000 0.58 242 00:37 12.05.2020
3356 Haze 28 1008 42 4000 0.87 256 00:18 12.05.2020
3357 Haze 28 1008 42 4000 0.87 256 23:42 11.05.2020
3358 Haze 28 1008 42 4000 2.04 287 23:21 11.05.2020
3359 Haze 28 1008 42 4000 2.04 287 23:21 11.05.2020
3360 -273 0 0 0 0 0 22:59 11.05.2020
3361 Haze 30 1009 35 4000 2.04 287 22:59 11.05.2020
3362 Haze 30 1009 35 4000 2.04 287 22:40 11.05.2020
3363 Haze 30 1009 35 4000 1.96 258 22:20 11.05.2020
3364 Haze 30 1009 35 4000 0.5 170 21:58 11.05.2020
3365 Haze 30 1009 35 4000 0.5 170 21:40 11.05.2020
3366 Haze 30 1009 35 4000 0.5 170 21:19 11.05.2020
3367 Haze 30 1009 35 4000 0.5 170 21:19 11.05.2020
3368 Haze 30 1010 37 4000 4.12 245 20:59 11.05.2020
3369 Haze 30 1010 37 4000 4.12 245 20:40 11.05.2020
3370 Haze 30 1010 37 4000 4.26 231 20:21 11.05.2020
3371 Haze 32 1010 33 4000 1 150 19:55 11.05.2020
3372 Haze 32 1010 33 4000 1 150 19:37 11.05.2020
3373 Haze 32 1010 33 4000 1 150 19:19 11.05.2020
3374 Haze 33 1009 29 4000 1.5 130 18:55 11.05.2020
3375 Haze 33 1009 29 4000 1.5 130 18:37 11.05.2020
3376 Haze 34 1009 30 5000 1.5 130 18:18 11.05.2020
3377 Haze 34 1009 30 5000 1.5 130 17:55 11.05.2020
3378 Haze 34 1009 30 5000 1.5 130 17:36 11.05.2020
3379 Haze 34 1009 30 5000 1.5 130 17:36 11.05.2020
3380 Haze 34 1008 30 5000 1 90 17:18 11.05.2020
3381 Haze 34 1008 30 5000 1 90 16:41 11.05.2020
3382 Haze 34 1008 30 5000 1 90 16:22 11.05.2020
3383 Clouds 37 1006 19 0 2.17 98 15:58 11.05.2020
3384 Clouds 37 1006 19 0 2.17 98 15:39 11.05.2020
3385 Clouds 38 1007 17 6000 1.5 300 15:19 11.05.2020
3386 Clouds 38 1007 17 6000 1.5 300 15:19 11.05.2020
3387 Clouds 38 1007 17 6000 1.5 300 14:54 11.05.2020
3388 Clouds 38 1007 17 6000 1.5 300 14:36 11.05.2020
3389 Clouds 38 1007 17 6000 1.5 300 14:36 11.05.2020
3390 Clouds 39 1007 16 6000 1 180 14:18 11.05.2020
3391 Clouds 38 1007 18 6000 2.1 190 13:41 11.05.2020
3392 Clouds 38 1007 17 6000 3.1 130 13:19 11.05.2020
3393 Clouds 38 1007 17 6000 3.1 130 12:58 11.05.2020
3394 Clouds 38 1008 18 6000 3.1 170 12:40 11.05.2020
3395 Clouds 38 1008 18 6000 3.1 170 12:21 11.05.2020
3396 Clouds 38 1008 18 6000 2.6 120 11:56 11.05.2020
3397 Clouds 38 1009 19 6000 1.5 260 11:37 11.05.2020
3398 Clouds 37 1009 20 6000 3.1 150 11:19 11.05.2020
3399 Clouds 37 1009 20 6000 3.1 150 10:55 11.05.2020
3400 Clouds 37 1009 20 6000 3.1 150 10:36 11.05.2020
3401 Clouds 38 1010 19 6000 3.6 210 10:18 11.05.2020
3402 Clouds 36 1010 23 6000 1.5 330 09:42 11.05.2020
3403 Clouds 36 1010 23 6000 1.5 330 09:22 11.05.2020
3404 Clouds 35 1011 24 6000 1 270 08:59 11.05.2020
3405 Clouds 35 1011 24 6000 1 270 08:39 11.05.2020
3406 Clouds 35 1011 24 6000 1 270 08:19 11.05.2020
3407 Clouds 34 1012 24 6000 1 140 07:50 11.05.2020
3408 Clouds 34 1012 24 6000 1 140 07:32 11.05.2020
3409 Clouds 33 1012 26 6000 3.52 284 06:54 11.05.2020
3410 Clouds 33 1012 27 6000 1 60 06:26 11.05.2020
3411 Clouds 32 1012 31 6000 2.1 90 05:30 11.05.2020
3412 Clouds 29 1011 39 6000 2.1 150 04:44 11.05.2020
3413 Haze 25 1011 53 5000 1 150 03:46 11.05.2020
3414 Haze 26 1011 47 4000 1.78 197 02:35 11.05.2020
3415 Haze 27 1011 42 3000 2.6 330 01:46 11.05.2020
3416 Haze 28 1011 39 3000 4.6 300 00:54 11.05.2020
3417 Haze 28 1011 39 3000 4.6 300 00:22 11.05.2020
3418 Haze 27 1011 42 3000 1.5 310 23:45 10.05.2020
3419 Haze 27 1011 42 3000 1.5 310 23:26 10.05.2020
3420 Haze 27 1012 42 3000 1.5 300 22:58 10.05.2020
3421 Haze 27 1012 42 3000 1.5 300 22:40 10.05.2020
3422 Haze 27 1012 42 3000 1.5 300 22:22 10.05.2020
3423 Haze 28 1012 39 3000 3.6 320 21:44 10.05.2020
3424 Haze 28 1012 39 3000 3.6 320 21:44 10.05.2020
3425 Haze 28 1012 39 3000 3.6 320 21:20 10.05.2020
3426 Haze 29 1011 39 3000 7.7 330 20:56 10.05.2020
3427 Haze 29 1011 39 3000 7.7 330 20:38 10.05.2020
3428 Haze 29 1011 39 3000 7.7 330 20:20 10.05.2020
3429 Haze 30 1010 33 3000 7.7 270 19:42 10.05.2020
3430 Haze 30 1010 33 3000 7.7 270 19:24 10.05.2020
3431 Thunderstorm 31 1008 29 3000 5.1 270 18:57 10.05.2020
3432 Thunderstorm 31 1008 29 3000 5.1 270 18:39 10.05.2020
3433 Thunderstorm 31 1008 29 3000 5.1 270 18:20 10.05.2020
3434 Thunderstorm 32 1009 27 3000 7.7 270 17:59 10.05.2020
3435 Thunderstorm 32 1009 25 3000 3.1 320 17:41 10.05.2020
3436 Thunderstorm 32 1009 25 3000 3.1 320 17:22 10.05.2020
3437 Thunderstorm 32 1009 25 3000 3.1 320 16:59 10.05.2020
3438 Thunderstorm 32 1009 25 3000 4.1 330 16:41 10.05.2020
3439 Thunderstorm 32 1009 25 3000 4.1 330 16:19 10.05.2020
3440 Haze 31 1009 31 3000 2.1 10 15:55 10.05.2020
3441 Haze 29 1008 42 3000 5.1 20 15:36 10.05.2020
3442 Haze 29 1008 42 3000 5.1 20 15:36 10.05.2020
3443 Haze 29 1008 42 3000 5.1 20 15:36 10.05.2020
3444 Haze 30 1008 42 3000 5.1 30 15:18 10.05.2020
3445 Haze 29 1008 45 3000 6.2 20 14:39 10.05.2020
3446 Haze 29 1008 45 3000 6.2 20 14:20 10.05.2020
3447 Haze 29 1008 45 3000 6.2 20 14:20 10.05.2020
3448 Haze 31 1008 33 3000 8.2 20 13:59 10.05.2020
3449 Haze 31 1008 33 3000 8.2 20 13:59 10.05.2020
3450 Clouds 38 1007 24 6000 1 260 13:39 10.05.2020
3451 Clouds 38 1007 24 6000 1 260 13:21 10.05.2020
3452 Clouds 38 1008 25 6000 4.1 200 12:58 10.05.2020
3453 Clouds 38 1008 25 6000 4.1 200 12:40 10.05.2020
3454 Clouds 37 1009 27 6000 6.2 200 12:21 10.05.2020
3455 Clouds 37 1009 27 6000 6.2 200 11:58 10.05.2020
3456 Clouds 37 1009 27 6000 6.2 200 11:39 10.05.2020
3457 Clouds 37 1009 27 6000 6.2 200 11:20 10.05.2020
3458 Clouds 37 1009 27 6000 6.2 200 11:20 10.05.2020
3459 Clouds 36 1010 30 6000 5.1 200 10:48 10.05.2020
3460 Clouds 36 1010 30 6000 5.1 200 10:29 10.05.2020
3461 Clouds 35 1011 34 6000 8.2 190 09:59 10.05.2020
3462 Clouds 35 1011 36 6000 6.2 200 09:40 10.05.2020
3463 Clouds 35 1011 36 6000 6.2 200 09:21 10.05.2020
3464 Clouds 34 1012 38 6000 6.2 190 08:52 10.05.2020
3465 Clouds 34 1012 38 6000 7.7 220 08:24 10.05.2020
3466 Clouds 33 1013 38 6000 6.7 190 07:46 10.05.2020
3467 Clouds 33 1013 38 6000 6.7 190 07:21 10.05.2020
3468 Clouds 32 1013 43 6000 7.2 180 06:58 10.05.2020
3469 Clouds 32 1012 40 6000 7.2 190 06:37 10.05.2020
3470 Clouds 32 1012 40 6000 7.2 190 06:18 10.05.2020
3471 Haze 32 1011 38 5000 4.1 200 05:42 10.05.2020
3472 Haze 29 1011 45 5000 4.1 180 04:39 10.05.2020
3473 Haze 29 1011 45 5000 4.1 180 04:20 10.05.2020
3474 Haze 28 1010 51 4000 3.1 100 03:39 10.05.2020
3475 Haze 28 1009 51 4000 2.1 90 02:53 10.05.2020
3476 Haze 28 1009 51 4000 2.1 90 02:24 10.05.2020
3477 Haze 28 1009 51 4000 2.6 60 01:43 10.05.2020
3478 Haze 28 1009 51 4000 2.6 60 01:21 10.05.2020
3479 Haze 28 1008 45 4000 1 300 00:55 10.05.2020
3480 Haze 28 1008 45 4000 1 300 00:36 10.05.2020
3481 Haze 28 1008 45 4000 2.29 239 00:18 10.05.2020
3482 Haze 28 1008 45 4000 2.29 239 23:39 09.05.2020
3483 Haze 28 1008 45 4000 2.84 241 23:20 09.05.2020
3484 Thunderstorm 29 1009 42 4000 2.1 160 22:44 09.05.2020
3485 Thunderstorm 29 1009 42 4000 2.1 160 22:25 09.05.2020
3486 Thunderstorm 29 1009 42 4000 2.1 160 22:25 09.05.2020
3487 Thunderstorm 33 1010 31 4000 3.1 250 21:59 09.05.2020
3488 Thunderstorm 33 1010 31 4000 3.1 250 21:41 09.05.2020
3489 Thunderstorm 33 1010 31 4000 3.1 250 21:22 09.05.2020
3490 Thunderstorm 32 1009 35 4000 1 10 20:58 09.05.2020
3491 Thunderstorm 32 1009 35 4000 1 10 20:39 09.05.2020
3492 Thunderstorm 32 1009 35 4000 1 10 20:20 09.05.2020
3493 Thunderstorm 32 1009 35 4000 1 10 20:20 09.05.2020
3494 Haze 32 1009 38 4000 2.1 360 19:58 09.05.2020
3495 Haze 32 1009 38 4000 2.1 360 19:39 09.05.2020
3496 Haze 32 1009 38 4000 2.1 360 19:19 09.05.2020
3497 Haze 31 1008 38 4000 2.6 200 18:45 09.05.2020
3498 Haze 31 1008 38 4000 2.6 200 18:26 09.05.2020
3499 Haze 33 1007 31 4000 2.1 90 17:58 09.05.2020
3500 Haze 33 1007 31 4000 2.1 90 17:40 09.05.2020
3501 Haze 35 1007 24 4000 2.6 70 17:21 09.05.2020
3502 Haze 35 1007 24 4000 2.6 70 16:41 09.05.2020
3503 Haze 37 1005 19 4000 1.5 60 16:20 09.05.2020
3504 Haze 37 1005 19 4000 1.5 60 15:45 09.05.2020
3505 Haze 37 1005 19 4000 1.5 60 15:27 09.05.2020
3506 Haze 40 1005 16 4000 1 160 14:59 09.05.2020
3507 Haze 40 1005 16 4000 1 160 14:40 09.05.2020
3508 Haze 40 1005 16 4000 1 160 14:19 09.05.2020
3509 Thunderstorm 40 1005 17 4000 2.1 310 13:57 09.05.2020
3510 Thunderstorm 40 1005 17 4000 2.1 310 13:38 09.05.2020
3511 Thunderstorm 40 1005 17 4000 2.1 310 13:19 09.05.2020
3512 Haze 40 1006 19 5000 1 110 12:42 09.05.2020
3513 Haze 40 1006 19 5000 1 110 12:22 09.05.2020
3514 Haze 40 1006 19 5000 1 110 12:22 09.05.2020
3515 Clouds 41 1007 19 6000 1.5 340 11:55 09.05.2020
3516 Clouds 41 1007 19 6000 1.5 340 11:37 09.05.2020
3517 Clouds 41 1007 18 6000 1.5 260 11:18 09.05.2020
3518 Clouds 41 1007 18 6000 1.5 260 11:18 09.05.2020
3519 Clouds 40 1008 19 6000 3.6 200 10:42 09.05.2020
3520 Clouds 40 1008 19 6000 3.6 200 10:23 09.05.2020
3521 Clouds 39 1009 21 6000 1.72 222 09:55 09.05.2020
3522 Clouds 39 1009 24 6000 1.5 200 09:37 09.05.2020
3523 Clear 38 1009 27 6000 2.1 260 09:18 09.05.2020
3524 Clear 37 1010 30 6000 2.6 270 08:48 09.05.2020
3525 Clear 37 1010 30 6000 2.6 270 08:30 09.05.2020
3526 Clear 36 1011 37 6000 3.1 200 07:48 09.05.2020
3527 Clear 36 1011 37 6000 3.1 200 07:30 09.05.2020
3528 Clear 33 1011 43 6000 3.1 170 06:47 09.05.2020
3529 Clear 33 1011 43 6000 3.1 170 06:22 09.05.2020
3530 Clear 31 1011 48 6000 2.6 190 05:45 09.05.2020
3531 Haze 27 1010 61 5000 2.32 233 03:44 09.05.2020
3532 Haze 27 1010 61 5000 1.87 236 03:21 09.05.2020
3533 Haze 26 1009 65 4000 1 110 02:30 09.05.2020
3534 Haze 26 1009 65 4000 2.31 242 01:51 09.05.2020
3535 Haze 26 1009 65 4000 2.45 237 01:23 09.05.2020
3536 Clear 28 1005 25 0 2.45 237 00:46 09.05.2020
3537 Haze 28 1008 54 4000 1.5 130 00:28 09.05.2020
3538 Haze 28 1008 54 4000 1.5 130 23:48 08.05.2020
3539 Haze 28 1008 54 4000 1.5 130 23:28 08.05.2020
3540 Haze 27 1009 57 4000 1.5 140 22:57 08.05.2020
3541 Haze 27 1009 57 4000 1.5 140 22:39 08.05.2020
3542 Haze 27 1009 57 4000 1.5 140 22:19 08.05.2020
3543 Haze 27 1009 54 4000 1 120 21:58 08.05.2020
3544 Haze 27 1009 54 4000 1 120 21:38 08.05.2020
3545 Haze 28 1009 51 4000 2.1 100 21:18 08.05.2020
3546 Haze 28 1009 51 4000 2.1 100 20:56 08.05.2020
3547 Haze 28 1009 51 4000 2.1 100 20:38 08.05.2020
3548 Haze 28 1009 51 4000 2.1 100 20:20 08.05.2020
3549 Haze 29 1010 51 4000 4.1 110 19:42 08.05.2020
3550 Haze 30 1009 51 4000 2.1 90 19:22 08.05.2020
3551 Haze 30 1009 51 4000 2.1 90 18:50 08.05.2020
3552 Haze 30 1009 51 4000 2.1 90 18:31 08.05.2020
3553 Haze 31 1008 43 4000 3.6 90 17:43 08.05.2020
3554 Haze 31 1008 43 4000 3.6 90 17:21 08.05.2020
3555 Haze 32 1007 40 5000 5.1 120 16:58 08.05.2020
3556 Haze 32 1007 40 5000 5.1 120 16:39 08.05.2020
3557 Haze 32 1007 40 5000 5.1 120 16:21 08.05.2020
3558 Haze 34 1006 34 5000 5.1 60 15:54 08.05.2020
3559 Haze 34 1006 34 5000 5.1 60 15:36 08.05.2020
3560 Haze 40 1004 17 5000 2.6 210 15:18 08.05.2020
3561 Haze 40 1004 17 5000 2.6 210 14:40 08.05.2020
3562 Haze 40 1004 17 5000 2.6 210 14:20 08.05.2020
3563 Haze 41 1004 16 5000 3.1 200 13:57 08.05.2020
3564 Haze 41 1004 16 5000 3.1 200 13:39 08.05.2020
3565 Haze 39 1005 21 5000 1.5 80 13:19 08.05.2020
3566 Haze 39 1005 21 5000 1.5 80 12:45 08.05.2020
3567 Clouds 38 1006 25 5000 3.6 230 12:23 08.05.2020
3568 Clouds 38 1006 25 5000 3.6 230 11:55 08.05.2020
3569 Clouds 38 1006 25 5000 3.6 230 11:36 08.05.2020
3570 Clouds 39 1007 26 6000 3.1 200 11:18 08.05.2020
3571 Clouds 39 1007 26 6000 3.1 200 10:43 08.05.2020
3572 Clouds 39 1007 26 6000 3.1 200 10:22 08.05.2020
3573 Clouds 39 1008 27 6000 3.1 170 09:59 08.05.2020
3574 Clouds 39 1008 29 6000 3.6 190 09:40 08.05.2020
3575 Clouds 38 1009 33 6000 3.6 190 09:19 08.05.2020
3576 Clouds 38 1009 33 6000 6.2 230 08:45 08.05.2020
3577 Clear 38 1009 33 6000 6.2 230 08:24 08.05.2020
3578 Clear 36 1010 37 6000 5.7 230 07:45 08.05.2020
3579 Clear 36 1010 37 6000 5.7 230 07:25 08.05.2020
3580 Clear 36 1010 37 6000 4.6 180 06:52 08.05.2020
3581 Clear 35 1010 39 6000 3.6 170 06:25 08.05.2020
3582 Clear 33 1010 43 6000 3.1 170 05:59 08.05.2020
3583 Haze 31 1010 43 5000 1 20 04:50 08.05.2020
3584 Haze 28 1008 48 4000 1.99 272 02:54 08.05.2020
3585 Haze 28 1008 48 4000 2.25 264 02:21 08.05.2020
3586 Haze 26 1007 50 4000 2.25 264 01:31 08.05.2020
3587 Haze 27 1007 47 4000 1 230 00:58 08.05.2020
3588 Haze 27 1007 47 4000 1 230 00:39 08.05.2020
3589 Haze 27 1007 47 4000 1 230 00:21 08.05.2020
3590 Haze 28 1007 48 4000 5.1 250 23:43 07.05.2020
3591 Haze 28 1007 48 4000 5.1 250 23:23 07.05.2020
3592 Haze 28 1007 48 4000 5.1 250 23:23 07.05.2020
3593 Thunderstorm 30 1009 48 4000 5.1 260 22:57 07.05.2020
3594 Thunderstorm 30 1009 48 4000 5.1 260 22:57 07.05.2020
3595 Thunderstorm 30 1009 48 4000 5.1 260 22:39 07.05.2020
3596 Thunderstorm 30 1009 48 4000 5.1 260 22:19 07.05.2020
3597 Thunderstorm 30 1009 51 4000 6.2 250 21:56 07.05.2020
3598 Haze 29 1008 54 4000 2.1 210 21:37 07.05.2020
3599 Haze 29 1008 54 4000 2.1 210 21:19 07.05.2020
3600 Haze 30 1009 55 5000 1 160 20:43 07.05.2020
3601 Haze 30 1009 55 5000 1 160 20:23 07.05.2020
3602 Haze 31 1009 52 5000 1 130 19:58 07.05.2020
3603 Haze 31 1009 52 5000 1 130 19:40 07.05.2020
3604 Haze 31 1009 52 5000 1 130 19:21 07.05.2020
3605 Haze 32 1008 46 5000 1 140 18:45 07.05.2020
3606 Haze 32 1008 46 5000 1 140 18:27 07.05.2020
3607 Haze 32 1008 40 5000 1.5 110 17:57 07.05.2020
3608 Haze 32 1008 40 5000 1.5 110 17:57 07.05.2020
3609 Haze 32 1008 40 5000 1.5 110 17:37 07.05.2020
3610 Haze 32 1007 40 5000 1 220 17:18 07.05.2020
3611 Haze 32 1007 40 5000 1 220 16:40 07.05.2020
3612 Clouds 32 1007 40 6000 3.1 160 16:18 07.05.2020
3613 Clouds 32 1007 40 6000 3.1 160 15:56 07.05.2020
3614 Clouds 32 1007 40 6000 3.1 160 15:37 07.05.2020
3615 Clouds 38 1006 25 6000 1.75 3 15:18 07.05.2020
3616 Clouds 38 1006 25 6000 1.75 3 14:44 07.05.2020
3617 Clouds 38 1006 25 6000 2.44 359 14:22 07.05.2020
3618 Clouds 38 1006 25 6000 2.44 359 14:22 07.05.2020
3619 Clouds 38 1006 25 6000 1.43 354 13:45 07.05.2020
3620 Clouds 38 1006 25 6000 1.63 351 13:26 07.05.2020
3621 Clouds 39 1006 24 6000 1.63 351 12:58 07.05.2020
3622 Clouds 39 1006 24 6000 1.63 351 12:39 07.05.2020
3623 Clouds 39 1006 24 6000 1.37 340 12:19 07.05.2020
3624 Clear 38 1008 31 6000 1.37 340 11:39 07.05.2020
3625 Clear 38 1008 31 6000 1.04 307 11:21 07.05.2020
3626 Clear 37 1009 37 6000 1.04 307 10:44 07.05.2020
3627 Clear 35 1010 41 6000 1.16 269 10:26 07.05.2020
3628 Clear 35 1010 41 6000 1.16 269 09:57 07.05.2020
3629 Clear 35 1010 41 6000 1.16 269 09:38 07.05.2020
3630 Clear 34 1011 44 6000 1.73 238 09:18 07.05.2020
3631 Clouds 34 1011 44 6000 3.18 221 08:43 07.05.2020
3632 Clear 34 1011 44 6000 4.03 211 08:22 07.05.2020
3633 Haze 33 1012 43 5000 4.03 211 07:58 07.05.2020
3634 Haze 33 1012 43 5000 4.03 211 07:39 07.05.2020
3635 Haze 33 1012 43 5000 4.8 203 07:19 07.05.2020
3636 Haze 33 1012 43 5000 4.8 203 07:19 07.05.2020
3637 Haze 31 1012 52 5000 4.8 203 06:37 07.05.2020
3638 Haze 29 1012 54 5000 4.1 100 05:56 07.05.2020
3639 Haze 26 1012 65 5000 2.1 80 04:27 07.05.2020
3640 Haze 25 1011 65 4000 1.5 90 03:29 07.05.2020
3641 Haze 25 1010 65 4000 2.6 90 02:59 07.05.2020
3642 Haze 25 1010 65 4000 2.6 90 02:26 07.05.2020
3643 Haze 27 1010 51 4000 1.5 90 01:27 07.05.2020
3644 Haze 27 1009 51 4000 2.1 70 00:52 07.05.2020
3645 Haze 27 1009 51 4000 2.1 70 00:31 07.05.2020
3646 Thunderstorm 28 1009 45 4000 3.6 20 23:58 06.05.2020
3647 Thunderstorm 28 1009 45 4000 3.6 20 23:39 06.05.2020
3648 Thunderstorm 28 1009 45 4000 3.6 20 23:39 06.05.2020
3649 Thunderstorm 28 1009 45 4000 3.6 20 23:21 06.05.2020
3650 Thunderstorm 31 1010 38 4000 3.6 10 22:55 06.05.2020
3651 Thunderstorm 31 1010 38 4000 3.6 10 22:37 06.05.2020
3652 Haze 29 1010 48 4000 1 110 22:18 06.05.2020
3653 Haze 29 1010 48 4000 1 110 21:42 06.05.2020
3654 Haze 29 1010 48 4000 1 110 21:23 06.05.2020
3655 Haze 31 1009 43 4000 1.19 1 20:57 06.05.2020
3656 Haze 31 1009 43 4000 1.19 1 20:38 06.05.2020
3657 Haze 31 1009 43 4000 1.08 146 20:20 06.05.2020
3658 Haze 31 1009 43 4000 1.5 20 19:56 06.05.2020
3659 Haze 31 1009 43 4000 1.5 20 19:38 06.05.2020
3660 Haze 30 1008 45 4000 3 163 19:18 06.05.2020
3661 Haze 30 1008 45 4000 3 163 18:55 06.05.2020
3662 Haze 30 1008 45 4000 3 163 18:37 06.05.2020
3663 Haze 31 1007 43 4000 1 120 18:18 06.05.2020
3664 Haze 31 1007 43 4000 1 120 17:55 06.05.2020
3665 Haze 31 1007 43 4000 1 120 17:36 06.05.2020
3666 Haze 32 1006 40 4000 2.6 120 17:18 06.05.2020
3667 Haze 32 1006 40 4000 2.6 120 16:57 06.05.2020
3668 Haze 32 1006 40 4000 2.6 120 16:39 06.05.2020
3669 Haze 32 1006 40 4000 2.6 120 16:39 06.05.2020
3670 Haze 32 1006 40 4000 2.6 120 16:19 06.05.2020
3671 Haze 34 1005 34 4000 4.1 110 15:45 06.05.2020
3672 Haze 34 1005 34 4000 4.1 110 15:22 06.05.2020
3673 Haze 35 1005 28 4000 4.1 120 14:58 06.05.2020
3674 Haze 36 1005 25 4000 6.2 150 14:39 06.05.2020
3675 Haze 36 1005 25 4000 6.2 150 14:19 06.05.2020
3676 Haze 38 1005 21 4000 2.6 60 13:58 06.05.2020
3677 Haze 38 1005 19 3000 2.6 60 13:38 06.05.2020
3678 Haze 38 1005 19 3000 1 90 13:19 06.05.2020
3679 Haze 36 1006 25 3000 7.7 180 12:42 06.05.2020
3680 Haze 36 1006 25 3000 7.7 180 12:24 06.05.2020
3681 Haze 39 1006 18 4000 2.6 60 11:42 06.05.2020
3682 Haze 39 1006 18 4000 2.6 60 11:42 06.05.2020
3683 Haze 39 1006 18 4000 2.6 60 11:22 06.05.2020
3684 Haze 39 1006 18 5000 1.5 140 10:58 06.05.2020
3685 Clouds 39 1007 18 6000 2.6 50 10:39 06.05.2020
3686 Clouds 39 1007 18 6000 2.6 50 10:19 06.05.2020
3687 Clouds 39 1008 18 6000 3.1 50 09:57 06.05.2020
3688 Clouds 39 1008 20 6000 1 360 09:37 06.05.2020
3689 Clouds 39 1008 20 6000 1 360 09:19 06.05.2020
3690 Clear 37 1009 30 6000 1 180 08:42 06.05.2020
3691 Clouds 37 1009 30 6000 1 180 08:20 06.05.2020
3692 Clouds 36 1010 34 6000 2.6 180 07:56 06.05.2020
3693 Clouds 36 1010 34 6000 1 160 07:37 06.05.2020
3694 Clouds 35 1010 39 6000 1 140 07:18 06.05.2020
3695 Clouds 38 1008 19 0 4.69 85 06:45 06.05.2020
3696 Haze 32 1010 43 5000 2.1 100 06:20 06.05.2020
3697 Haze 32 1010 43 5000 2.1 100 05:38 06.05.2020
3698 Haze 31 1009 45 4000 1.5 60 04:50 06.05.2020
3699 Haze 31 1009 45 4000 1.5 70 03:50 06.05.2020
3700 Haze 30 1009 45 4000 1.5 50 03:24 06.05.2020
3701 Haze 29 1008 45 4000 1.5 60 02:43 06.05.2020
3702 Haze 29 1008 45 4000 1.5 60 02:20 06.05.2020
3703 Clouds 29 1006 24 0 1.44 14 01:42 06.05.2020
3704 Haze 29 1007 45 5000 1.79 18 00:57 06.05.2020
3705 Haze 29 1007 45 5000 1.79 18 00:37 06.05.2020
3706 Haze 29 1007 45 5000 1.99 10 00:18 06.05.2020
3707 Haze 29 1007 45 5000 1.99 10 23:40 05.05.2020
3708 Haze 29 1007 45 5000 1.02 342 23:19 05.05.2020
3709 Haze 31 1007 43 5000 1.02 342 22:42 05.05.2020
3710 Haze 31 1007 43 5000 1.52 2 22:21 05.05.2020
3711 Clear 30 1005 23 0 1.52 2 21:59 05.05.2020
3712 Clear 30 1005 23 0 1.52 2 21:41 05.05.2020
3713 Haze 33 1008 36 5000 0.5 360 21:21 05.05.2020
3714 Haze 33 1008 36 5000 0.5 360 20:59 05.05.2020
3715 Haze 33 1008 36 5000 0.5 360 20:39 05.05.2020
3716 Haze 33 1008 36 5000 0.5 360 20:19 05.05.2020
3717 Haze 34 1008 34 5000 0.5 360 19:58 05.05.2020
3718 Haze 34 1008 34 5000 0.5 360 19:37 05.05.2020
3719 Haze 34 1008 34 5000 0.5 360 19:37 05.05.2020
3720 Haze 35 1008 30 5000 1 350 19:18 05.05.2020
3721 Haze 35 1008 30 5000 1 350 18:55 05.05.2020
3722 Haze 35 1008 30 5000 1 350 18:37 05.05.2020
3723 Haze 36 1007 23 5000 1 20 18:18 05.05.2020
3724 Haze 38 1006 18 5000 2.1 320 17:42 05.05.2020
3725 Haze 38 1006 18 5000 2.1 320 17:24 05.05.2020
3726 Haze 38 1006 18 5000 2.1 320 16:58 05.05.2020
3727 Haze 38 1006 18 5000 2.1 320 16:37 05.05.2020
3728 Clear 36 1004 14 0 1.79 303 16:18 05.05.2020
3729 Clear 36 1004 14 0 1.79 303 15:55 05.05.2020
3730 Haze 40 1004 16 5000 1 340 15:37 05.05.2020
3731 Haze 40 1004 16 5000 1 340 15:19 05.05.2020
3732 Haze 40 1004 16 5000 1 340 14:42 05.05.2020
3733 Haze 40 1004 16 5000 1 340 14:24 05.05.2020
3734 Haze 40 1004 19 5000 1.5 300 13:58 05.05.2020
3735 Haze 40 1004 19 5000 1.5 300 13:40 05.05.2020
3736 Clouds 40 1005 20 6000 2.1 30 13:21 05.05.2020
3737 Clouds 40 1005 20 6000 2.1 30 12:59 05.05.2020
3738 Clouds 40 1005 20 6000 2.1 30 12:39 05.05.2020
3739 Clouds 40 1005 20 6000 2.1 30 12:20 05.05.2020
3740 Clouds 40 1006 19 6000 1.5 30 11:57 05.05.2020
3741 Clouds 40 1006 19 6000 1.5 30 11:39 05.05.2020
3742 Clouds 39 1007 22 6000 1 20 11:18 05.05.2020
3743 Clouds 39 1007 22 6000 1 20 11:18 05.05.2020
3744 Clouds 39 1007 22 6000 1 20 10:39 05.05.2020
3745 Clouds 39 1007 22 6000 1 20 10:39 05.05.2020
3746 Clouds 39 1007 22 6000 1 20 10:20 05.05.2020
3747 Clouds 43 1003 9 0 4.23 252 09:59 05.05.2020
3748 Clouds 43 1003 9 0 4.23 252 09:59 05.05.2020
3749 Clouds 43 1003 9 0 4.23 252 09:40 05.05.2020
3750 Clouds 43 1003 9 0 4.23 252 09:40 05.05.2020
3751 Clear 36 1009 32 6000 1 10 09:22 05.05.2020
3752 Clear 36 1009 32 6000 1 10 08:42 05.05.2020
3753 Clear 36 1009 32 6000 1 10 08:21 05.05.2020
3754 Clear 35 1010 34 6000 1 40 07:58 05.05.2020
3755 Clear 35 1010 34 6000 1 40 07:38 05.05.2020
3756 Clear 33 1010 41 6000 1 80 07:19 05.05.2020
3757 Clear 33 1010 41 6000 1 80 06:49 05.05.2020
3758 Clear 33 1010 41 6000 1 80 06:22 05.05.2020
3759 Clear 31 1010 45 6000 3.1 40 05:39 05.05.2020
3760 Haze 29 1009 42 5000 3.6 20 03:36 05.05.2020
3761 Haze 31 1007 27 4000 1.5 330 01:51 05.05.2020
3762 Haze 30 1006 27 4000 1 330 00:54 05.05.2020
3763 Haze 32 1006 24 4000 1 330 00:22 05.05.2020
3764 Haze 32 1006 24 4000 1 330 23:45 04.05.2020
3765 Haze 32 1006 24 4000 1 330 23:23 04.05.2020
3766 Haze 30 1007 35 4000 1 310 22:56 04.05.2020
3767 Haze 30 1007 35 4000 1 310 22:38 04.05.2020
3768 Haze 30 1007 35 4000 1 310 22:19 04.05.2020
3769 Haze 32 1007 29 4000 1 350 21:53 04.05.2020
3770 Haze 32 1007 29 4000 1 350 21:34 04.05.2020
3771 Haze 31 1008 31 4000 2.7 321 20:56 04.05.2020
3772 Haze 31 1008 31 4000 2.7 321 20:38 04.05.2020
3773 Haze 31 1008 31 4000 2.7 321 20:38 04.05.2020
3774 Haze 31 1008 31 4000 2.7 321 20:38 04.05.2020
3775 Haze 31 1008 31 4000 2.7 321 20:38 04.05.2020
3776 Haze 31 1008 31 4000 2.7 321 20:38 04.05.2020
3777 Haze 31 1008 27 4000 3.47 307 20:18 04.05.2020
3778 Haze 31 1008 27 4000 3.47 307 19:42 04.05.2020
3779 Haze 31 1008 27 4000 3.19 296 19:21 04.05.2020
3780 Haze 31 1008 27 4000 3.19 296 19:21 04.05.2020
3781 Haze 33 1007 24 4000 3.19 296 18:56 04.05.2020
3782 Haze 33 1007 24 4000 3.19 296 18:38 04.05.2020
3783 Haze 34 1006 21 4000 3.57 269 18:18 04.05.2020
3784 Haze 34 1006 21 4000 3.57 269 18:18 04.05.2020
3785 Haze 34 1006 21 4000 3.57 269 17:55 04.05.2020
3786 Haze 34 1006 21 4000 3.57 269 17:37 04.05.2020
3787 Clouds 35 1005 20 5000 3.16 259 17:18 04.05.2020
3788 Clouds 35 1005 20 5000 3.16 259 16:42 04.05.2020
3789 Clouds 35 1005 20 5000 3.09 268 16:22 04.05.2020
3790 Clouds 40 1004 14 5000 1 270 15:47 04.05.2020
3791 Clouds 40 1004 14 5000 1 270 15:26 04.05.2020
3792 Clouds 41 1004 12 6000 4.1 270 15:00 04.05.2020
3793 Clouds 41 1004 12 6000 4.1 270 14:41 04.05.2020
3794 Clouds 41 1004 12 6000 4.1 270 14:41 04.05.2020
3795 Clouds 42 1004 10 6000 4.1 270 14:19 04.05.2020
3796 Clouds 43 1005 8 6000 4.6 240 12:49 04.05.2020
3797 Clouds 43 1005 8 6000 4.6 240 12:26 04.05.2020
3798 Clouds 43 1005 8 6000 4.6 240 12:26 04.05.2020
3799 Clouds 43 1005 8 6000 4.6 240 12:26 04.05.2020
3800 Clouds 43 1005 8 6000 4.6 240 12:26 04.05.2020
3801 Clouds 43 1005 8 6000 4.6 240 12:26 04.05.2020
3802 Clouds 41 1007 13 6000 2.6 160 10:36 04.05.2020
3803 Clouds 41 1007 13 6000 2.6 160 10:36 04.05.2020
3804 Clear 40 1009 15 6000 3.1 300 09:26 04.05.2020
3805 Clear 40 1009 15 6000 3.1 300 09:26 04.05.2020
3806 Clear 40 1009 15 6000 3.1 300 09:26 04.05.2020
3807 Clear 40 1009 15 6000 3.1 300 09:26 04.05.2020
3808 Clear 40 1009 15 6000 3.1 300 09:26 04.05.2020
3809 Clear 37 1010 18 6000 1.5 200 07:52 04.05.2020
3810 Clear 37 1010 18 6000 1.5 200 07:33 04.05.2020
3811 Clear 37 1010 18 6000 1.5 200 07:33 04.05.2020
3812 Clear 37 1010 18 6000 1.5 200 07:33 04.05.2020
3813 Clear 37 1010 18 6000 1.5 200 07:33 04.05.2020
3814 Clear 37 1010 18 6000 1.5 200 07:33 04.05.2020
3815 Haze 33 1010 22 5000 1.5 180 04:59 04.05.2020
3816 Haze 29 1008 28 4000 1.5 100 03:28 04.05.2020
3817 Haze 30 1007 27 4000 2.1 320 02:32 04.05.2020
3818 Haze 28 1006 30 4000 0.57 293 00:58 04.05.2020
3819 Haze 27 1006 30 4000 1.23 275 23:46 03.05.2020
3820 Haze 27 1006 30 4000 1.52 260 23:26 03.05.2020
3821 Haze 28 1006 30 4000 1 350 22:59 03.05.2020
3822 Haze 28 1006 30 4000 1 350 22:59 03.05.2020
3823 Haze 28 1006 30 4000 1 350 22:40 03.05.2020
3824 Haze 28 1006 30 4000 1 350 22:22 03.05.2020
3825 Haze 28 1006 26 4000 0.79 338 21:42 03.05.2020
3826 Haze 28 1006 26 4000 0.79 338 21:42 03.05.2020
3827 Haze 28 1006 26 4000 2.49 326 21:21 03.05.2020
3828 Haze 29 1007 25 4000 2.49 326 20:48 03.05.2020
3829 Haze 29 1007 25 4000 3.22 306 20:23 03.05.2020
3830 Haze 29 1007 25 4000 3.22 306 19:57 03.05.2020
3831 Haze 30 1007 23 4000 3.22 306 19:38 03.05.2020
3832 Haze 33 1006 19 5000 3.18 306 19:18 03.05.2020
3833 Haze 33 1006 19 5000 3.18 306 18:39 03.05.2020
3834 Haze 33 1006 19 5000 3.29 325 18:20 03.05.2020
3835 Haze 33 1006 19 5000 3.29 325 18:20 03.05.2020
3836 Haze 33 1005 16 5000 1.5 240 17:56 03.05.2020
3837 Haze 33 1005 16 5000 1.5 240 17:56 03.05.2020
3838 Haze 33 1005 16 5000 1.5 240 17:38 03.05.2020
3839 Haze 33 1005 16 5000 1.5 240 17:19 03.05.2020
3840 Clear 35 1004 15 6000 3.71 335 16:44 03.05.2020
3841 Clear 35 1004 15 6000 3.53 324 16:19 03.05.2020
3842 Clear 39 1004 10 6000 2.1 280 15:57 03.05.2020
3843 Clear 39 1004 10 6000 2.1 280 15:38 03.05.2020
3844 Clear 39 1004 10 6000 2.1 280 15:19 03.05.2020
3845 Clouds 42 1003 9 6000 4.6 280 14:56 03.05.2020
3846 Clouds 42 1003 9 6000 4.6 280 14:38 03.05.2020
3847 Clouds 42 1003 9 6000 4.6 280 14:19 03.05.2020
3848 Clouds 42 1003 9 6000 4.6 280 14:19 03.05.2020
3849 Clouds 42 1003 10 6000 3.6 290 13:38 03.05.2020
3850 Clouds 42 1003 10 6000 3.6 290 13:38 03.05.2020
3851 Clouds 42 1003 10 6000 3.6 290 13:38 03.05.2020
3852 Clouds 43 1004 10 6000 3.6 270 12:56 03.05.2020
3853 Clouds 43 1004 10 6000 3.6 270 12:56 03.05.2020
3854 Clouds 43 1004 10 6000 3.6 270 12:56 03.05.2020
3855 Clouds 43 1004 10 6000 3.6 270 12:37 03.05.2020
3856 Clouds 42 1005 11 6000 2.6 270 11:58 03.05.2020
3857 Clouds 42 1005 11 6000 2.6 270 11:40 03.05.2020
3858 Clouds 42 1005 11 6000 2.6 270 11:40 03.05.2020
3859 Clouds 42 1005 11 6000 2.6 270 11:40 03.05.2020
3860 Clouds 42 1005 11 6000 2.6 270 11:21 03.05.2020
3861 Clear 41 1006 12 6000 1.5 280 10:55 03.05.2020
3862 Clear 41 1006 12 6000 1.5 280 10:25 03.05.2020
3863 Clear 41 1007 12 6000 3.1 330 09:41 03.05.2020
3864 Clear 41 1007 12 6000 3.1 330 09:41 03.05.2020
3865 Clear 40 1008 13 6000 1 310 09:00 03.05.2020
3866 Clear 40 1008 13 6000 1 310 09:00 03.05.2020
3867 Clear 40 1008 13 6000 1 310 08:35 03.05.2020
3868 Clear 38 1009 15 6000 3.1 330 07:45 03.05.2020
3869 Clear 38 1009 15 6000 3.1 330 07:45 03.05.2020
3870 Clear 38 1009 15 6000 3.1 330 07:45 03.05.2020
3871 Clear 38 1009 15 6000 3.1 330 07:45 03.05.2020
3872 Clear 38 1009 15 6000 3.1 330 07:45 03.05.2020
3873 Clear 36 1009 16 6000 1.5 250 07:00 03.05.2020
3874 Clear 36 1009 16 6000 1.5 250 07:00 03.05.2020
3875 Clear 36 1009 16 6000 1.5 250 07:00 03.05.2020
3876 Clear 36 1009 16 6000 1.5 250 07:00 03.05.2020
3877 Clear 36 1009 16 6000 1.5 250 07:00 03.05.2020
3878 Clear 34 1009 18 6000 2.6 250 05:57 03.05.2020
3879 Clear 34 1009 18 6000 2.6 250 05:38 03.05.2020
3880 Haze 31 1008 29 5000 1.49 28 04:28 03.05.2020
3881 Haze 26 1007 47 5000 1.49 28 03:46 03.05.2020
3882 Haze 26 1007 47 5000 1.49 28 03:46 03.05.2020
3883 Haze 26 1007 44 4000 2.6 50 02:32 03.05.2020
3884 Haze 27 1006 42 4000 1.5 270 01:59 03.05.2020
3885 Haze 27 1006 42 4000 1.5 270 01:39 03.05.2020
3886 Haze 27 1006 42 4000 1.5 270 01:21 03.05.2020
3887 Haze 25 1006 47 4000 2.6 220 00:38 03.05.2020
3888 Haze 25 1006 47 4000 2.6 220 00:20 03.05.2020
3889 Haze 29 1006 37 4000 0.86 284 23:46 02.05.2020
3890 Haze 29 1006 37 4000 1.24 269 23:28 02.05.2020
3891 Haze 31 1006 31 4000 3.6 270 22:57 02.05.2020
3892 Haze 31 1006 31 4000 3.6 270 22:57 02.05.2020
3893 Haze 31 1006 31 4000 3.6 270 22:39 02.05.2020
3894 Haze 31 1006 31 4000 3.6 270 22:20 02.05.2020
3895 Haze 31 1006 33 4000 1 280 21:41 02.05.2020
3896 Haze 31 1006 33 4000 1 280 21:20 02.05.2020
3897 Haze 32 1007 25 4000 1 200 20:58 02.05.2020
3898 Haze 32 1007 25 4000 1 200 20:58 02.05.2020
3899 Haze 32 1007 25 4000 1 200 20:38 02.05.2020
3900 Haze 32 1007 25 4000 1 200 20:20 02.05.2020
3901 Clear 31 1005 15 0 0.78 203 19:58 02.05.2020
3902 Haze 31 1006 27 4000 0.78 203 19:39 02.05.2020
3903 Haze 31 1006 27 4000 0.09 319 19:20 02.05.2020
3904 Haze 31 1006 27 4000 0.09 319 18:56 02.05.2020
3905 Haze 31 1006 27 4000 0.09 319 18:38 02.05.2020
3906 Haze 31 1006 27 4000 0.8 41 18:19 02.05.2020
3907 Haze 32 1006 24 4000 0.8 41 17:55 02.05.2020
3908 Haze 32 1006 24 4000 0.8 41 17:37 02.05.2020
3909 Haze 32 1006 24 4000 1.52 7 17:19 02.05.2020
3910 Haze 35 1005 21 4000 1.52 7 16:44 02.05.2020
3911 Haze 35 1005 21 4000 2.73 321 16:25 02.05.2020
3912 Haze 39 1004 15 4000 1 10 15:55 02.05.2020
3913 Haze 39 1004 15 4000 1 10 15:36 02.05.2020
3914 Haze 39 1003 16 5000 1 70 15:18 02.05.2020
3915 Haze 39 1003 16 5000 1 70 14:41 02.05.2020
3916 Haze 39 1003 16 5000 1 70 14:22 02.05.2020
3917 Haze 41 1003 12 5000 2.1 50 13:55 02.05.2020
3918 Haze 41 1003 12 5000 2.1 50 13:37 02.05.2020
3919 Haze 41 1004 12 5000 5.23 343 13:18 02.05.2020
3920 Haze 41 1004 12 5000 5.23 343 13:18 02.05.2020
3921 Haze 41 1004 12 5000 5.23 343 12:40 02.05.2020
3922 Haze 41 1004 12 5000 3.35 8 12:20 02.05.2020
3923 Haze 41 1005 12 5000 1.5 30 11:55 02.05.2020
3924 Haze 41 1005 12 5000 1.5 30 11:37 02.05.2020
3925 Haze 40 1006 19 5000 1 60 11:18 02.05.2020
3926 Haze 40 1006 19 5000 1 60 10:40 02.05.2020
3927 Haze 40 1006 19 5000 1 60 10:21 02.05.2020
3928 Haze 38 1008 24 5000 2.1 80 09:58 02.05.2020
3929 Haze 38 1008 24 5000 2.1 80 09:39 02.05.2020
3930 Haze 38 1008 24 5000 2.1 80 09:21 02.05.2020
3931 Haze 36 1008 26 5000 2.1 30 08:51 02.05.2020
3932 Haze 36 1008 26 5000 2.1 30 08:31 02.05.2020
3933 Haze 34 1009 32 5000 2.1 350 07:49 02.05.2020
3934 Haze 34 1009 32 5000 2.1 350 07:30 02.05.2020
3935 Haze 33 1009 33 5000 0.38 205 06:54 02.05.2020
3936 Haze 33 1009 33 5000 1.11 286 06:23 02.05.2020
3937 Haze 30 1009 42 4000 1.31 319 05:27 02.05.2020
3938 Haze 28 1009 51 4000 0.5 60 04:26 02.05.2020
3939 Haze 25 1008 61 4000 0.5 40 03:36 02.05.2020
3940 Haze 24 1007 64 4000 1.5 60 02:39 02.05.2020
3941 Haze 25 1006 57 4000 0.49 348 01:52 02.05.2020
3942 Haze 24 1006 57 4000 1.81 43 00:58 02.05.2020
3943 Haze 24 1006 57 4000 1.81 43 00:40 02.05.2020
3944 Haze 24 1006 57 4000 1.16 28 00:19 02.05.2020
3945 Clear 28 1004 22 0 1.16 28 23:40 01.05.2020
3946 Clear 28 1004 22 0 1.16 28 23:40 01.05.2020
3947 Haze 28 1006 42 4000 0.8 330 23:20 01.05.2020
3948 Haze 28 1006 42 4000 0.8 330 22:58 01.05.2020
3949 Haze 28 1006 42 4000 0.8 330 22:38 01.05.2020
3950 Haze 28 1006 42 4000 1.56 304 22:19 01.05.2020
3951 Haze 28 1007 42 4000 1 260 21:57 01.05.2020
3952 Haze 28 1007 42 4000 1 260 21:39 01.05.2020
3953 Haze 28 1007 45 4000 1.5 240 21:18 01.05.2020
3954 Haze 28 1007 45 4000 1.5 240 20:56 01.05.2020
3955 Haze 28 1007 45 4000 1.5 240 20:37 01.05.2020
3956 Haze 28 1007 45 4000 1.5 240 20:37 01.05.2020
3957 Haze 28 1008 45 4000 1 220 20:19 01.05.2020
3958 Haze 28 1008 45 4000 1 220 19:42 01.05.2020
3959 Haze 28 1008 45 4000 1 220 19:23 01.05.2020
3960 Haze 29 1007 42 4000 2.92 317 18:59 01.05.2020
3961 Haze 29 1007 42 4000 2.92 317 18:40 01.05.2020
3962 Haze 29 1007 42 4000 2.09 321 18:21 01.05.2020
3963 Haze 31 1007 35 4000 1.5 280 17:58 01.05.2020
3964 Haze 31 1007 35 4000 1.5 280 17:39 01.05.2020
3965 Haze 31 1007 35 4000 1.5 280 17:21 01.05.2020
3966 Haze 31 1006 40 4000 1.6 334 16:56 01.05.2020
3967 Haze 31 1006 40 4000 1.6 334 16:38 01.05.2020
3968 Haze 31 1006 40 4000 1.95 344 16:19 01.05.2020
3969 Haze 33 1006 31 5000 1 200 15:55 01.05.2020
3970 Haze 33 1006 31 5000 1 200 15:36 01.05.2020
3971 Haze 35 1005 26 5000 1 120 15:18 01.05.2020
3972 Haze 35 1005 26 5000 1 120 14:41 01.05.2020
3973 Haze 35 1005 26 5000 1 120 14:23 01.05.2020
3974 Haze 34 1006 30 5000 3.6 140 13:41 01.05.2020
3975 Haze 34 1006 30 5000 3.6 140 13:23 01.05.2020
3976 Thunderstorm 27 1008 57 2500 6.2 60 12:58 01.05.2020
3977 Thunderstorm 27 1008 57 2500 6.2 60 12:40 01.05.2020
3978 Thunderstorm 27 1008 57 2500 6.2 60 12:20 01.05.2020
3979 Clouds 40 1007 17 6000 1 110 11:58 01.05.2020
3980 Clouds 40 1007 17 6000 1 110 11:58 01.05.2020
3981 Clouds 40 1007 17 6000 1 110 11:39 01.05.2020
3982 Clouds 39 1008 20 6000 5.1 260 11:19 01.05.2020
3983 Clouds 39 1008 20 6000 5.1 260 10:41 01.05.2020
3984 Clouds 39 1008 20 6000 5.1 260 10:20 01.05.2020
3985 Clouds 38 1009 25 6000 3.1 220 09:55 01.05.2020
3986 Clouds 38 1009 25 6000 3.1 220 09:37 01.05.2020
3987 Clouds 36 1011 30 6000 3.6 240 09:18 01.05.2020
3988 Clouds 36 1011 30 6000 3.6 240 08:42 01.05.2020
3989 Clouds 36 1011 30 6000 3.6 240 08:24 01.05.2020
3990 Clouds 35 1012 30 6000 2.1 230 07:47 01.05.2020
3991 Clouds 35 1012 30 6000 2.1 230 07:23 01.05.2020
3992 Clouds 33 1012 38 6000 2.1 140 06:56 01.05.2020
3993 Haze 29 1012 48 5000 3.6 160 05:39 01.05.2020
3994 Haze 29 1012 48 5000 2.1 160 05:19 01.05.2020
3995 Haze 25 1011 69 5000 1 90 03:34 01.05.2020
3996 Haze 24 1011 73 4000 1 110 02:48 01.05.2020
3997 Haze 24 1011 73 4000 1 110 02:29 01.05.2020
3998 Haze 26 1010 61 4000 0.49 166 01:36 01.05.2020
3999 Haze 24 1009 69 4000 0.81 267 01:18 01.05.2020
4000 Haze 24 1009 69 4000 0.81 267 00:38 01.05.2020
4001 Haze 24 1009 69 4000 0.81 267 00:38 01.05.2020
4002 Haze 24 1009 69 4000 0.66 265 00:20 01.05.2020
4003 Haze 24 1009 69 4000 0.66 265 23:56 30.04.2020
4004 Haze 24 1009 69 4000 0.66 265 23:38 30.04.2020
4005 Haze 24 1009 69 4000 0.86 242 23:19 30.04.2020
4006 Haze 24 1009 69 4000 0.86 242 22:41 30.04.2020
4007 Haze 24 1009 69 4000 0.99 215 22:21 30.04.2020
4008 Haze 27 1010 54 4000 1 30 21:57 30.04.2020
4009 Haze 27 1010 54 4000 1 30 21:38 30.04.2020
4010 Haze 27 1010 54 4000 1 30 21:19 30.04.2020
4011 Haze 28 1011 51 4000 1.5 60 20:54 30.04.2020
4012 Haze 28 1011 51 4000 1.5 60 20:36 30.04.2020
4013 Haze 27 1010 57 4000 1 50 20:18 30.04.2020
4014 Haze 27 1010 57 4000 1 50 19:42 30.04.2020
4015 Haze 27 1010 57 4000 1 50 19:24 30.04.2020
4016 Haze 27 1010 57 4000 2.22 359 18:56 30.04.2020
4017 Haze 27 1010 57 4000 2.22 359 18:37 30.04.2020
4018 Haze 27 1010 57 4000 1.56 2 18:19 30.04.2020
4019 Haze 28 1009 58 4000 1.56 2 17:56 30.04.2020
4020 Haze 28 1009 58 4000 1.56 2 17:38 30.04.2020
4021 Haze 29 1009 51 5000 1.67 25 17:19 30.04.2020
4022 Haze 29 1009 51 5000 1.67 25 16:54 30.04.2020
4023 Haze 29 1009 51 5000 1.67 25 16:36 30.04.2020
4024 Haze 30 1008 48 5000 2.1 110 16:18 30.04.2020
4025 Haze 30 1008 48 5000 2.1 110 15:44 30.04.2020
4026 Haze 31 1008 43 5000 1 140 15:21 30.04.2020
4027 Haze 31 1008 43 5000 1 140 14:42 30.04.2020
4028 Haze 31 1008 43 5000 1 140 14:22 30.04.2020
4029 Thunderstorm 39 1009 31 3000 2.6 120 13:59 30.04.2020
4030 Thunderstorm 39 1009 31 3000 2.6 120 13:40 30.04.2020
4031 Thunderstorm 39 1009 31 3000 2.6 120 13:40 30.04.2020
4032 Thunderstorm 39 1009 31 3000 2.6 120 13:22 30.04.2020
4033 Thunderstorm 33 1008 36 3000 7.7 300 12:58 30.04.2020
4034 Thunderstorm 33 1008 36 3000 7.7 300 12:40 30.04.2020
4035 Haze 39 1008 17 5000 3.1 60 12:18 30.04.2020
4036 Haze 39 1008 17 5000 3.1 60 11:38 30.04.2020
4037 Haze 39 1008 17 5000 3.1 60 11:19 30.04.2020
4038 Haze 39 1009 20 5000 2.6 100 10:57 30.04.2020
4039 Haze 39 1009 20 5000 2.6 100 10:38 30.04.2020
4040 Haze 39 1009 20 5000 2.6 100 10:19 30.04.2020
4041 Haze 39 1010 21 5000 2.1 190 09:55 30.04.2020
4042 Haze 39 1010 21 5000 2.1 190 09:36 30.04.2020
4043 Haze 37 1011 25 5000 2.1 270 09:18 30.04.2020
4044 Haze 37 1011 25 5000 2.1 270 08:42 30.04.2020
4045 Haze 35 1012 32 5000 1.5 50 08:23 30.04.2020
4046 Haze 35 1012 32 5000 1.5 50 07:43 30.04.2020
4047 Haze 35 1012 32 5000 1.5 50 07:25 30.04.2020
4048 Haze 33 1012 38 5000 1.5 80 06:48 30.04.2020
4049 Haze 31 1012 43 4000 1.5 70 05:50 30.04.2020
4050 Haze 31 1012 43 4000 1.5 70 05:30 30.04.2020
4051 Haze 28 1011 51 4000 0.5 70 04:33 30.04.2020
4052 Haze 25 1010 61 4000 2.47 101 03:53 30.04.2020
4053 Haze 27 1010 54 5000 2.24 86 02:43 30.04.2020
4054 Haze 27 1010 54 5000 2.76 77 02:23 30.04.2020
4055 Haze 26 1009 61 5000 1 40 01:35 30.04.2020
4056 Haze 26 1009 61 5000 1 10 00:42 30.04.2020
4057 Haze 26 1009 61 5000 1 10 00:19 30.04.2020
4058 Haze 27 1009 54 5000 1 20 23:56 29.04.2020
4059 Haze 27 1009 54 5000 1 20 23:36 29.04.2020
4060 Haze 26 1009 61 5000 1.62 26 23:18 29.04.2020
4061 Haze 26 1009 61 5000 1.62 26 23:18 29.04.2020
4062 Haze 26 1009 61 5000 1.62 26 22:40 29.04.2020
4063 Haze 26 1009 61 5000 1.11 37 22:21 29.04.2020
4064 Haze 27 1009 57 5000 1.11 37 21:57 29.04.2020
4065 Haze 27 1009 57 5000 1.11 37 21:57 29.04.2020
4066 Haze 27 1009 57 5000 2.01 50 21:36 29.04.2020
4067 Haze 27 1009 61 5000 1.48 6 21:18 29.04.2020
4068 Haze 27 1009 61 5000 1.48 6 20:40 29.04.2020
4069 Haze 27 1009 61 5000 1.58 5 20:20 29.04.2020
4070 Haze 28 1009 54 5000 1 70 19:58 29.04.2020
4071 Haze 28 1009 54 5000 1 70 19:40 29.04.2020
4072 Haze 28 1009 54 5000 1 70 19:40 29.04.2020
4073 Haze 27 1009 54 5000 1.84 43 19:19 29.04.2020
4074 Haze 27 1009 54 5000 1.84 43 18:43 29.04.2020
4075 Haze 27 1009 54 5000 2.57 21 18:24 29.04.2020
4076 Haze 28 1008 48 5000 2.1 50 17:57 29.04.2020
4077 Haze 28 1008 48 5000 2.1 50 17:39 29.04.2020
4078 Haze 28 1008 48 5000 2.1 50 17:20 29.04.2020
4079 Haze 31 1007 40 5000 2.18 349 16:39 29.04.2020
4080 Haze 31 1007 40 5000 2.18 349 16:39 29.04.2020
4081 Haze 31 1007 40 5000 0.85 318 16:19 29.04.2020
4082 Haze 34 1006 30 5000 0.85 318 15:57 29.04.2020
4083 Haze 34 1006 30 5000 0.85 318 15:39 29.04.2020
4084 Haze 34 1006 30 5000 0.77 255 15:20 29.04.2020
4085 Clouds 37 1006 20 6000 1.5 170 14:57 29.04.2020
4086 Clouds 37 1006 20 6000 1.5 170 14:38 29.04.2020
4087 Clouds 37 1006 20 6000 1.5 170 14:38 29.04.2020
4088 Clouds 36 1007 19 6000 2.6 150 14:18 29.04.2020
4089 Clouds 36 1007 19 6000 2.6 150 13:42 29.04.2020
4090 Clouds 36 1007 19 6000 2.6 150 13:20 29.04.2020
4091 Clouds 31 1007 33 6000 5.1 180 12:57 29.04.2020
4092 Clouds 31 1007 33 6000 5.1 180 12:39 29.04.2020
4093 Thunderstorm 28 1008 48 6000 4.6 200 12:18 29.04.2020
4094 Thunderstorm 37 1008 20 4000 3.1 270 11:40 29.04.2020
4095 Thunderstorm 37 1008 20 4000 3.1 270 11:21 29.04.2020
4096 Haze 38 1008 21 5000 3.1 330 10:57 29.04.2020
4097 Clouds 38 1009 21 6000 2.1 220 10:37 29.04.2020
4098 Haze 37 1010 22 5000 2.1 220 10:19 29.04.2020
4099 Haze 37 1010 22 5000 2.1 220 09:42 29.04.2020
4100 Haze 35 1011 26 5000 2.1 200 09:23 29.04.2020
4101 Haze 35 1011 26 5000 2.1 200 08:56 29.04.2020
4102 Haze 35 1011 26 5000 2.1 200 08:37 29.04.2020
4103 Haze 35 1011 26 5000 2.1 200 08:19 29.04.2020
4104 Haze 34 1012 34 5000 2.6 230 07:41 29.04.2020
4105 Haze 34 1012 34 5000 2.6 230 07:23 29.04.2020
4106 Haze 34 1012 34 5000 2.6 230 07:23 29.04.2020
4107 Haze 32 1012 40 5000 3.1 210 06:50 29.04.2020
4108 Haze 32 1012 40 5000 3.1 210 06:30 29.04.2020
4109 Haze 29 1012 48 5000 1 200 05:21 29.04.2020
4110 Haze 25 1012 65 5000 2.28 80 04:38 29.04.2020
4111 Haze 24 1011 73 5000 2.32 60 04:18 29.04.2020
4112 Haze 23 1010 69 4000 1.47 63 02:39 29.04.2020
4113 Haze 23 1009 73 4000 1.34 52 01:44 29.04.2020
4114 Haze 23 1009 73 4000 1.41 78 01:21 29.04.2020
4115 Haze 21 1010 88 4000 1.41 78 00:40 29.04.2020
4116 Haze 22 1010 83 4000 1.54 50 00:19 29.04.2020
4117 Haze 22 1010 83 4000 1.54 50 23:48 28.04.2020
4118 Haze 22 1010 83 4000 1.08 7 23:23 28.04.2020
4119 Haze 22 1010 83 4000 1.08 7 22:55 28.04.2020
4120 Haze 22 1010 83 4000 1.08 7 22:37 28.04.2020
4121 Haze 22 1010 83 4000 1.23 309 22:18 28.04.2020
4122 Haze 22 1010 83 4000 1.23 309 21:54 28.04.2020
4123 Haze 22 1010 83 4000 1.23 309 21:36 28.04.2020
4124 Haze 24 1010 78 4000 1.09 335 21:18 28.04.2020
4125 Haze 24 1010 78 4000 1.09 335 20:40 28.04.2020
4126 Haze 24 1010 78 4000 1.67 327 20:21 28.04.2020
4127 Haze 26 1010 65 4000 2.6 330 19:58 28.04.2020
4128 Haze 26 1010 65 4000 2.6 330 19:40 28.04.2020
4129 Haze 26 1010 65 4000 2.6 330 19:21 28.04.2020
4130 Haze 25 1010 73 4000 1 320 18:58 28.04.2020
4131 Haze 25 1010 73 4000 1 320 18:38 28.04.2020
4132 Haze 26 1009 69 4000 1.5 280 18:19 28.04.2020
4133 Haze 26 1009 69 4000 1.5 280 17:38 28.04.2020
4134 Haze 26 1009 69 4000 1.5 280 17:20 28.04.2020
4135 Haze 26 1009 69 4000 1.43 183 16:59 28.04.2020
4136 Haze 26 1009 69 4000 1.43 183 16:40 28.04.2020
4137 Haze 26 1009 69 4000 1.15 179 16:22 28.04.2020
4138 Haze 26 1008 57 4000 1 90 15:57 28.04.2020
4139 Haze 26 1008 57 4000 1 90 15:38 28.04.2020
4140 Haze 26 1009 57 3000 1 90 15:20 28.04.2020
4141 Haze 26 1009 57 3000 1 90 14:56 28.04.2020
4142 Haze 26 1009 57 3000 1 90 14:56 28.04.2020
4143 Haze 25 1009 65 1500 1.5 90 14:38 28.04.2020
4144 Thunderstorm 26 1011 65 1500 7.2 30 14:19 28.04.2020
4145 Thunderstorm 26 1011 65 1500 7.2 30 13:56 28.04.2020
4146 Thunderstorm 26 1011 65 1500 7.2 30 13:37 28.04.2020
4147 Thunderstorm 35 1008 30 2500 1 120 13:19 28.04.2020
4148 Thunderstorm 35 1008 30 2500 1 120 12:43 28.04.2020
4149 Thunderstorm 35 1008 30 2500 1 120 12:43 28.04.2020
4150 Thunderstorm 35 1008 30 2500 1 120 12:23 28.04.2020
4151 Haze 36 1009 30 4000 3.6 90 11:43 28.04.2020
4152 Haze 36 1009 30 4000 3.6 90 11:23 28.04.2020
4153 Clouds 35 1011 30 8000 1.5 220 10:58 28.04.2020
4154 Clouds 35 1011 30 8000 1.5 220 10:38 28.04.2020
4155 Clouds 34 1012 34 8000 1.5 220 10:19 28.04.2020
4156 Clouds 34 1012 34 8000 1.5 220 09:45 28.04.2020
4157 Clear 33 1013 41 8000 2.02 16 09:26 28.04.2020
4158 Clear 33 1013 41 8000 2.02 16 08:57 28.04.2020
4159 Clear 33 1013 41 8000 2.02 16 08:38 28.04.2020
4160 Clear 33 1013 41 8000 0.95 199 08:20 28.04.2020
4161 Clear 31 1013 45 8000 1 240 07:44 28.04.2020
4162 Clear 30 1014 48 8000 1.5 250 07:19 28.04.2020
4163 Clear 29 1014 54 7000 3.52 191 06:44 28.04.2020
4164 Haze 27 1014 61 5000 4.25 185 05:56 28.04.2020
4165 Haze 27 1014 61 5000 4.25 185 05:37 28.04.2020
4166 Mist 25 1014 69 4000 1 340 04:39 28.04.2020
4167 Mist 23 1012 78 4000 1 10 02:39 28.04.2020
4168 Haze 23 1011 83 4000 1 270 01:58 28.04.2020
4169 Haze 23 1011 83 4000 1 270 01:22 28.04.2020
4170 Haze 23 1012 83 4000 1.5 200 00:45 28.04.2020
4171 Thunderstorm 23 1012 73 4000 3.6 310 00:18 28.04.2020
4172 Thunderstorm 23 1012 73 4000 3.6 310 23:43 27.04.2020
4173 Thunderstorm 23 1012 73 4000 3.6 310 23:21 27.04.2020
4174 Haze 22 1012 83 4000 2.88 61 22:43 27.04.2020
4175 Haze 22 1012 83 4000 2.88 61 22:43 27.04.2020
4176 Haze 22 1012 83 4000 2.58 80 22:23 27.04.2020
4177 Haze 22 1012 83 4000 2.58 80 22:23 27.04.2020
4178 Haze 23 1013 78 4000 2.58 80 21:57 27.04.2020
4179 Haze 23 1013 78 4000 2.58 80 21:39 27.04.2020
4180 Haze 23 1013 78 4000 1.61 22 21:20 27.04.2020
4181 Haze 25 1013 61 4000 1.61 22 20:57 27.04.2020
4182 Haze 25 1013 61 4000 1.61 22 20:39 27.04.2020
4183 Haze 25 1013 61 4000 2.09 4 20:21 27.04.2020
4184 Haze 25 1012 65 4000 1 30 19:56 27.04.2020
4185 Haze 25 1012 65 4000 1 30 19:37 27.04.2020
4186 Haze 25 1012 65 4000 1 30 19:37 27.04.2020
4187 Haze 25 1012 65 4000 1 30 19:37 27.04.2020
4188 Haze 26 1012 61 3000 1.5 30 19:19 27.04.2020
4189 Haze 26 1012 61 3000 1.5 30 18:55 27.04.2020
4190 Haze 26 1012 61 3000 1.5 30 18:37 27.04.2020
4191 Haze 26 1011 65 3000 1.5 20 18:18 27.04.2020
4192 Haze 26 1011 65 3000 1.5 20 17:41 27.04.2020
4193 Haze 27 1010 57 3000 3.6 90 17:19 27.04.2020
4194 Haze 27 1010 57 3000 3.6 90 16:41 27.04.2020
4195 Haze 27 1010 57 3000 3.6 90 16:22 27.04.2020
4196 Haze 27 1009 57 3000 2.1 50 15:59 27.04.2020
4197 Haze 27 1009 57 3000 2.1 50 15:41 27.04.2020
4198 Haze 27 1009 57 3000 2.1 50 15:21 27.04.2020
4199 Haze 27 1008 61 3000 3.6 100 14:58 27.04.2020
4200 Haze 27 1008 61 3000 3.6 100 14:40 27.04.2020
4201 Haze 27 1008 61 3000 3.6 100 14:19 27.04.2020
4202 Thunderstorm 27 1009 65 2500 5.7 360 13:57 27.04.2020
4203 Thunderstorm 27 1009 65 2500 5.7 360 13:37 27.04.2020
4204 Thunderstorm 37 1008 27 4000 2.1 220 13:18 27.04.2020
4205 Thunderstorm 37 1008 27 4000 2.1 220 12:43 27.04.2020
4206 Thunderstorm 37 1008 27 4000 2.1 220 12:21 27.04.2020
4207 Clouds 37 1009 29 6000 2.1 90 11:43 27.04.2020
4208 Clouds 37 1009 29 6000 2.1 90 11:22 27.04.2020
4209 Clouds 36 1010 32 6000 1.5 80 10:59 27.04.2020
4210 Clouds 36 1010 32 6000 1.5 80 10:41 27.04.2020
4211 Clouds 35 1012 36 6000 1.5 30 10:23 27.04.2020
4212 Clouds 35 1012 36 6000 1.5 30 09:56 27.04.2020
4213 Clouds 35 1012 36 6000 1.5 30 09:36 27.04.2020
4214 Clouds 34 1012 38 6000 2.1 90 09:18 27.04.2020
4215 Clouds 34 1012 38 6000 2.1 90 08:46 27.04.2020
4216 Clouds 34 1012 38 6000 2.1 90 08:27 27.04.2020
4217 Clouds 33 1013 43 6000 2.6 70 07:45 27.04.2020
4218 Clouds 33 1013 43 6000 2.6 70 07:23 27.04.2020
4219 Clouds 32 1013 49 6000 3.1 110 06:57 27.04.2020
4220 Clouds 32 1013 49 6000 3.1 110 06:28 27.04.2020
4221 Clouds 30 1012 51 6000 5.1 80 05:55 27.04.2020
4222 Clouds 29 1012 54 6000 2.6 50 04:55 27.04.2020
4223 Clouds 29 1012 54 6000 2.6 50 04:36 27.04.2020
4224 Haze 29 1011 51 5000 3.1 50 03:43 27.04.2020
4225 Haze 29 1009 39 4000 2.6 30 01:45 27.04.2020
4226 Haze 29 1009 39 4000 2.6 30 01:19 27.04.2020
4227 Haze 31 1008 25 4000 4.1 10 00:21 27.04.2020
4228 Haze 29 1007 26 4000 1 210 23:59 26.04.2020
4229 Haze 29 1007 26 4000 1 210 23:41 26.04.2020
4230 Haze 29 1007 25 4000 1 190 23:22 26.04.2020
4231 Haze 29 1007 25 4000 1 190 22:58 26.04.2020
4232 Haze 29 1007 25 4000 1 190 22:39 26.04.2020
4233 Haze 29 1007 25 4000 1 190 22:21 26.04.2020
4234 Haze 31 1008 20 4000 1 300 21:58 26.04.2020
4235 Haze 31 1008 20 4000 1 300 21:38 26.04.2020
4236 Haze 31 1008 20 4000 1.5 300 21:18 26.04.2020
4237 Haze 31 1008 20 4000 1.5 300 20:54 26.04.2020
4238 Haze 31 1008 20 4000 1.5 300 20:36 26.04.2020
4239 Haze 29 1008 25 4000 1.5 270 20:18 26.04.2020
4240 Haze 29 1008 25 4000 1.5 270 19:56 26.04.2020
4241 Haze 29 1008 25 4000 1.5 270 19:56 26.04.2020
4242 Haze 29 1008 25 4000 1.5 270 19:36 26.04.2020
4243 Haze 31 1007 20 4000 1 240 19:18 26.04.2020
4244 Haze 31 1007 20 4000 1 240 19:18 26.04.2020
4245 Haze 31 1007 20 4000 1 240 19:18 26.04.2020
4246 Haze 31 1007 20 4000 1 240 18:41 26.04.2020
4247 Haze 31 1007 20 4000 1 240 18:23 26.04.2020
4248 Haze 33 1007 18 4000 2.6 210 17:42 26.04.2020
4249 Haze 33 1007 18 4000 2.6 210 17:22 26.04.2020
4250 Haze 34 1006 16 5000 2.6 220 16:56 26.04.2020
4251 Haze 34 1006 16 5000 2.6 220 16:38 26.04.2020
4252 Haze 36 1006 11 5000 3.1 230 16:19 26.04.2020
4253 Haze 36 1006 11 5000 3.1 230 15:56 26.04.2020
4254 Haze 36 1006 11 5000 3.1 230 15:37 26.04.2020
4255 Haze 36 1006 11 5000 3.1 230 15:37 26.04.2020
4256 Clouds 39 1005 10 6000 5.1 260 15:18 26.04.2020
4257 Clouds 39 1005 10 6000 5.1 260 14:41 26.04.2020
4258 Clouds 39 1005 10 6000 5.1 260 14:41 26.04.2020
4259 Clouds 39 1006 10 6000 5.7 240 14:19 26.04.2020
4260 Clouds 39 1005 10 6000 5.1 260 14:19 26.04.2020
4261 Clouds 39 1006 10 6000 5.7 240 13:58 26.04.2020
4262 Clouds 39 1006 10 6000 5.7 240 13:40 26.04.2020
4263 Clouds 39 1006 10 6000 5.1 270 13:21 26.04.2020
4264 Clouds 39 1006 10 6000 5.1 270 12:56 26.04.2020
4265 Clouds 39 1006 10 6000 5.1 270 12:37 26.04.2020
4266 Clouds 39 1006 10 6000 5.1 270 12:19 26.04.2020
4267 Clouds 39 1007 11 6000 4.6 260 11:54 26.04.2020
4268 Clouds 39 1007 11 6000 4.6 260 11:36 26.04.2020
4269 Clouds 39 1008 13 6000 7.2 260 11:18 26.04.2020
4270 Clouds 39 1008 13 6000 7.2 260 10:41 26.04.2020
4271 Clouds 39 1008 13 6000 7.2 260 10:23 26.04.2020
4272 Clouds 37 1009 17 6000 1 330 09:57 26.04.2020
4273 Clear 36 1010 19 6000 1.5 190 09:37 26.04.2020
4274 Clear 36 1010 19 6000 1.5 190 09:19 26.04.2020
4275 Clear 36 1010 19 6000 1.5 190 08:41 26.04.2020
4276 Clear 36 1010 19 6000 1.5 190 08:41 26.04.2020
4277 Clear 36 1010 19 6000 1.5 190 08:22 26.04.2020
4278 Clear 34 1011 24 6000 2.6 290 07:48 26.04.2020
4279 Clear 34 1011 24 6000 2.6 290 07:48 26.04.2020
4280 Clear 34 1011 24 6000 2.6 290 07:23 26.04.2020
4281 Clear 33 1011 24 6000 1.5 290 06:47 26.04.2020
4282 Clear 33 1011 24 6000 1.5 290 06:21 26.04.2020
4283 Clear 32 1011 24 6000 2.6 190 05:49 26.04.2020
4284 Clear 32 1011 24 6000 2.6 190 05:28 26.04.2020
4285 Haze 29 1010 28 5000 1.5 180 04:37 26.04.2020
4286 Haze 26 1010 34 5000 1 210 03:39 26.04.2020
4287 Haze 26 1008 31 5000 1 320 02:37 26.04.2020
4288 Haze 26 1007 29 5000 1.77 176 02:19 26.04.2020
4289 Haze 26 1007 29 5000 1.77 176 01:36 26.04.2020
4290 Haze 28 1007 26 5000 2.1 300 00:41 26.04.2020
4291 Haze 28 1007 26 5000 2.1 300 00:21 26.04.2020
4292 Haze 30 1007 22 5000 3.6 320 23:55 25.04.2020
4293 Haze 30 1007 22 5000 3.6 320 23:36 25.04.2020
4294 Haze 29 1007 25 5000 2.6 320 23:18 25.04.2020
4295 Haze 29 1007 25 5000 2.6 320 22:42 25.04.2020
4296 Haze 29 1007 25 5000 2.6 320 22:20 25.04.2020
4297 Haze 30 1008 23 5000 2.1 310 21:58 25.04.2020
4298 Haze 30 1008 23 5000 2.1 310 21:38 25.04.2020
4299 Haze 32 1008 19 5000 2.1 310 21:18 25.04.2020
4300 Haze 32 1008 19 5000 2.1 310 20:43 25.04.2020
4301 Haze 32 1008 19 5000 2.1 310 20:23 25.04.2020
4302 Haze 32 1008 19 5000 3.1 290 19:59 25.04.2020
4303 Haze 32 1008 19 5000 3.1 290 19:39 25.04.2020
4304 Haze 32 1008 19 5000 3.1 290 19:20 25.04.2020
4305 Haze 33 1007 18 5000 5.1 280 18:44 25.04.2020
4306 Haze 33 1007 18 5000 5.1 280 18:22 25.04.2020
4307 Haze 33 1006 19 5000 2.6 250 17:59 25.04.2020
4308 Haze 33 1006 19 5000 2.6 250 17:40 25.04.2020
4309 Haze 33 1006 19 5000 2.6 250 17:22 25.04.2020
4310 Clouds 36 1005 16 5000 2.6 250 16:59 25.04.2020
4311 Clouds 36 1005 16 5000 2.6 250 16:41 25.04.2020
4312 Clouds 36 1005 16 5000 2.6 250 16:23 25.04.2020
4313 Clouds 38 1004 14 6000 4.1 250 15:55 25.04.2020
4314 Clouds 38 1004 14 6000 4.1 250 15:37 25.04.2020
4315 Clouds 39 1004 13 6000 2.6 240 15:18 25.04.2020
4316 Clouds 39 1004 13 6000 2.6 240 14:40 25.04.2020
4317 Clouds 39 1004 13 6000 2.6 240 14:21 25.04.2020
4318 Clouds 40 1004 13 8000 4.6 290 13:59 25.04.2020
4319 Clouds 40 1004 13 8000 4.6 290 13:59 25.04.2020
4320 Clouds 40 1004 13 8000 4.6 290 13:41 25.04.2020
4321 Clouds 40 1004 13 8000 4.6 290 13:18 25.04.2020
4322 Clouds 40 1004 13 8000 4.6 290 12:55 25.04.2020
4323 Clouds 39 1005 14 10000 4.6 270 12:37 25.04.2020
4324 Clouds 40 1006 12 10000 6.2 300 12:18 25.04.2020
4325 Clouds 40 1006 12 10000 6.2 300 12:18 25.04.2020
4326 Clouds 40 1006 12 10000 6.2 300 11:42 25.04.2020
4327 Clouds 40 1006 12 10000 6.2 300 11:24 25.04.2020
4328 Clouds 39 1007 13 10000 3.6 280 10:57 25.04.2020
4329 Clouds 39 1007 13 10000 3.6 280 10:38 25.04.2020
4330 Clouds 38 1008 14 10000 2.6 330 10:19 25.04.2020
4331 Clouds 38 1008 14 10000 2.6 330 09:43 25.04.2020
4332 Clouds 38 1008 14 10000 2.6 330 09:22 25.04.2020
4333 Clouds 38 1009 15 8000 2.6 330 08:55 25.04.2020
4334 Clouds 38 1009 15 8000 2.6 330 08:37 25.04.2020
4335 Clouds 37 1009 18 6000 4.1 330 08:19 25.04.2020
4336 Clouds 37 1009 18 6000 4.1 330 07:43 25.04.2020
4337 Clouds 37 1009 18 6000 4.1 330 07:22 25.04.2020
4338 Haze 36 1009 19 5000 2.6 310 06:42 25.04.2020
4339 Haze 36 1009 19 5000 2.6 310 06:42 25.04.2020
4340 Clear 35 1008 16 0 2.23 288 05:46 25.04.2020
4341 Haze 31 1008 25 5000 2.6 290 05:27 25.04.2020
4342 Haze 31 1008 25 5000 2.6 290 04:24 25.04.2020
4343 Haze 25 1007 50 4000 2.6 200 02:44 25.04.2020
4344 Haze 25 1006 50 4000 2.1 180 02:19 25.04.2020
4345 Haze 25 1006 50 4000 2.1 180 01:49 25.04.2020
4346 Haze 25 1006 50 4000 2.1 180 01:19 25.04.2020
4347 Haze 26 1006 50 4000 2.6 230 00:46 25.04.2020
4348 Haze 26 1006 50 4000 2.6 230 00:28 25.04.2020
4349 Haze 26 1005 54 4000 1.5 160 23:42 24.04.2020
4350 Haze 26 1005 54 4000 1.5 160 23:21 24.04.2020
4351 Haze 28 1006 45 4000 2.34 193 22:41 24.04.2020
4352 Haze 28 1006 45 4000 2.34 193 22:21 24.04.2020
4353 Haze 29 1006 48 4000 2.34 193 21:59 24.04.2020
4354 Haze 29 1006 48 4000 2.34 193 21:59 24.04.2020
4355 Haze 29 1006 48 4000 2.34 193 21:41 24.04.2020
4356 Haze 29 1006 48 4000 1.53 167 21:23 24.04.2020
4357 Clouds 30 1005 26 0 1.53 167 20:59 24.04.2020
4358 Clouds 30 1005 26 0 1.53 167 20:59 24.04.2020
4359 Clouds 30 1005 26 0 1.53 167 20:40 24.04.2020
4360 Haze 31 1006 40 4000 2.6 190 20:19 24.04.2020
4361 Haze 31 1006 40 4000 2.6 190 19:54 24.04.2020
4362 Haze 31 1006 40 4000 2.6 190 19:36 24.04.2020
4363 Haze 31 1006 22 4000 1 220 19:18 24.04.2020
4364 Haze 31 1006 22 4000 1 220 18:40 24.04.2020
4365 Haze 31 1006 22 4000 1 220 18:22 24.04.2020
4366 Haze 34 1005 18 4000 3.1 260 17:43 24.04.2020
4367 Haze 34 1005 18 4000 3.1 260 17:24 24.04.2020
4368 Haze 36 1004 15 4000 2.6 270 16:59 24.04.2020
4369 Haze 36 1004 15 4000 2.6 270 16:59 24.04.2020
4370 Haze 36 1004 15 4000 2.6 270 16:41 24.04.2020
4371 Haze 36 1004 15 4000 2.6 270 16:22 24.04.2020
4372 Haze 38 1003 15 4000 3.1 240 15:59 24.04.2020
4373 Haze 38 1003 15 4000 3.1 240 15:38 24.04.2020
4374 Haze 40 1003 13 5000 6.7 260 15:18 24.04.2020
4375 Haze 40 1003 13 5000 6.7 260 14:40 24.04.2020
4376 Haze 40 1003 13 5000 6.7 260 14:21 24.04.2020
4377 Haze 41 1003 13 5000 5.1 260 13:57 24.04.2020
4378 Haze 41 1003 13 5000 5.1 260 13:38 24.04.2020
4379 Haze 39 1004 17 5000 5.1 220 13:19 24.04.2020
4380 Haze 39 1004 17 5000 5.1 220 12:42 24.04.2020
4381 Haze 39 1004 17 5000 5.1 220 12:23 24.04.2020
4382 Haze 41 1005 14 5000 3.1 320 11:58 24.04.2020
4383 Haze 41 1005 14 5000 3.1 320 11:38 24.04.2020
4384 Haze 41 1005 14 5000 3.1 320 11:20 24.04.2020
4385 Haze 40 1006 15 5000 5.1 270 10:54 24.04.2020
4386 Haze 40 1006 15 5000 5.1 270 10:36 24.04.2020
4387 Haze 39 1007 16 5000 2.6 320 10:18 24.04.2020
4388 Haze 39 1007 16 5000 2.6 320 09:45 24.04.2020
4389 Haze 39 1007 16 5000 2.6 320 09:24 24.04.2020
4390 Haze 38 1008 18 5000 3.1 250 08:58 24.04.2020
4391 Haze 38 1008 18 5000 3.1 250 08:37 24.04.2020
4392 Haze 37 1009 18 5000 2.6 270 08:18 24.04.2020
4393 Haze 37 1009 18 5000 2.6 270 08:18 24.04.2020
4394 Haze 37 1009 18 5000 2.6 270 07:44 24.04.2020
4395 Haze 37 1009 18 5000 2.6 270 07:26 24.04.2020
4396 Haze 35 1009 20 5000 2.6 260 06:51 24.04.2020
4397 Haze 35 1009 20 5000 2.6 260 06:32 24.04.2020
4398 Haze 33 1009 26 5000 1 230 05:44 24.04.2020
4399 Haze 29 1009 35 5000 1.26 140 04:26 24.04.2020
4400 Haze 26 1007 39 4000 0.5 270 02:59 24.04.2020
4401 Haze 26 1007 39 4000 0.5 270 02:38 24.04.2020
4402 Haze 26 1007 39 4000 0.5 270 02:20 24.04.2020
4403 Haze 28 1006 34 4000 1 280 01:18 24.04.2020
4404 Haze 28 1006 34 4000 1 280 00:36 24.04.2020
4405 Haze 29 1006 32 4000 1 300 00:18 24.04.2020
4406 Haze 29 1006 32 4000 1 300 23:42 23.04.2020
4407 Haze 29 1006 32 4000 1 300 23:23 23.04.2020
4408 Haze 29 1006 32 4000 1.5 300 22:55 23.04.2020
4409 Haze 29 1006 32 4000 1.5 300 22:36 23.04.2020
4410 Haze 29 1007 32 4000 1 360 22:18 23.04.2020
4411 Haze 29 1007 32 4000 1 360 21:55 23.04.2020
4412 Haze 29 1007 32 4000 1 360 21:37 23.04.2020
4413 Haze 29 1007 32 4000 1 360 21:19 23.04.2020
4414 Haze 27 1007 36 5000 1 170 20:41 23.04.2020
4415 Haze 27 1007 36 5000 1 170 20:22 23.04.2020
4416 Haze 31 1007 27 5000 0.79 33 19:58 23.04.2020
4417 Haze 31 1007 27 5000 0.79 33 19:40 23.04.2020
4418 Haze 31 1007 27 5000 0.79 33 19:21 23.04.2020
4419 Haze 31 1007 29 5000 1 80 18:56 23.04.2020
4420 Haze 31 1007 29 5000 1 80 18:38 23.04.2020
4421 Haze 33 1006 22 5000 1 290 18:19 23.04.2020
4422 Haze 33 1006 22 5000 1 290 17:55 23.04.2020
4423 Haze 33 1006 22 5000 1 290 17:36 23.04.2020
4424 Haze 33 1006 22 5000 1 290 17:36 23.04.2020
4425 Haze 34 1006 20 5000 0.72 146 17:18 23.04.2020
4426 Haze 34 1006 20 5000 0.72 146 16:42 23.04.2020
4427 Haze 38 1004 14 5000 1 310 16:19 23.04.2020
4428 Haze 38 1004 14 5000 1 310 15:42 23.04.2020
4429 Haze 38 1004 14 5000 1 310 15:23 23.04.2020
4430 Haze 39 1004 13 5000 2.1 300 14:58 23.04.2020
4431 Haze 40 1004 11 5000 1.5 280 14:38 23.04.2020
4432 Haze 40 1004 11 5000 1.5 280 14:20 23.04.2020
4433 Haze 40 1004 11 5000 1.5 280 14:20 23.04.2020
4434 Clouds 40 1004 11 5000 2.6 320 13:56 23.04.2020
4435 Clouds 40 1004 11 6000 1.5 290 13:38 23.04.2020
4436 Clouds 40 1004 11 6000 1.5 290 13:38 23.04.2020
4437 Clouds 41 1005 12 6000 3.1 280 13:19 23.04.2020
4438 Clouds 41 1005 12 6000 3.1 280 12:44 23.04.2020
4439 Clouds 41 1005 12 6000 3.1 280 12:25 23.04.2020
4440 Clouds 40 1006 13 7000 1.5 300 11:58 23.04.2020
4441 Clouds 40 1006 13 7000 1.5 300 11:40 23.04.2020
4442 Clouds 41 1004 11 0 2.67 256 11:21 23.04.2020
4443 Clouds 38 1009 21 6000 1 250 10:41 23.04.2020
4444 Clouds 38 1009 21 6000 1 250 10:22 23.04.2020
4445 Clouds 38 1009 21 6000 1 250 09:55 23.04.2020
4446 Clouds 38 1009 21 6000 1 250 09:37 23.04.2020
4447 Clouds 37 1010 30 6000 2.1 210 09:18 23.04.2020
4448 Clouds 37 1010 30 6000 2.1 210 08:42 23.04.2020
4449 Clouds 37 1010 30 6000 2.1 210 08:23 23.04.2020
4450 Clouds 34 1010 38 6000 2.1 200 07:42 23.04.2020
4451 Clouds 34 1010 38 6000 2.1 200 07:23 23.04.2020
4452 Clouds 33 1011 41 6000 2.6 230 06:49 23.04.2020
4453 Clouds 33 1011 41 6000 2.6 230 06:22 23.04.2020
4454 Clouds 31 1011 45 6000 3.6 170 05:29 23.04.2020
4455 Clouds 29 1010 45 6000 1 140 04:51 23.04.2020
4456 Haze 26 1009 54 5000 1.5 120 02:24 23.04.2020
4457 Haze 27 1008 54 4000 1.21 173 01:49 23.04.2020
4458 Haze 27 1008 54 4000 1.21 173 01:25 23.04.2020
4459 Haze 27 1007 47 4000 1 320 00:45 23.04.2020
4460 Haze 28 1007 45 4000 1 240 00:18 23.04.2020
4461 Haze 28 1007 45 4000 1 240 23:48 22.04.2020
4462 Haze 28 1007 45 4000 1 240 23:23 22.04.2020
4463 Haze 28 1008 45 4000 1 210 22:55 22.04.2020
4464 Haze 28 1008 45 4000 1 210 22:36 22.04.2020
4465 Haze 29 1008 45 4000 1 220 22:18 22.04.2020
4466 Haze 29 1008 45 4000 1 220 21:55 22.04.2020
4467 Haze 29 1008 45 4000 1 220 21:37 22.04.2020
4468 Haze 31 1009 38 4000 1.5 280 21:18 22.04.2020
4469 Haze 31 1009 38 4000 1.5 280 20:43 22.04.2020
4470 Haze 32 1009 35 4000 1 240 20:19 22.04.2020
4471 Haze 32 1009 35 4000 1 240 19:57 22.04.2020
4472 Haze 32 1009 35 4000 1 240 19:38 22.04.2020
4473 Haze 31 1009 38 4000 1.5 150 19:18 22.04.2020
4474 Haze 31 1009 38 4000 1.5 150 19:18 22.04.2020
4475 Haze 31 1009 38 4000 1.5 150 18:58 22.04.2020
4476 Haze 31 1009 38 4000 1.5 150 18:40 22.04.2020
4477 Haze 31 1009 38 4000 1.5 150 18:40 22.04.2020
4478 Haze 31 1009 38 4000 1.5 150 18:22 22.04.2020
4479 Haze 33 1008 33 4000 1.5 90 17:45 22.04.2020
4480 Haze 33 1008 33 4000 1.5 90 17:45 22.04.2020
4481 Haze 33 1008 33 4000 1.5 90 17:26 22.04.2020
4482 Haze 34 1008 32 4000 1 120 16:58 22.04.2020
4483 Haze 34 1008 32 4000 1 120 16:40 22.04.2020
4484 Haze 34 1008 32 4000 1 120 16:22 22.04.2020
4485 Haze 35 1007 26 5000 3.1 150 15:42 22.04.2020
4486 Haze 35 1007 26 5000 3.1 150 15:42 22.04.2020
4487 Haze 35 1007 26 5000 3.1 150 15:23 22.04.2020
4488 Haze 36 1006 22 5000 1 110 14:58 22.04.2020
4489 Haze 37 1006 19 5000 1 80 14:38 22.04.2020
4490 Haze 38 1006 17 5000 1 100 14:20 22.04.2020
4491 Haze 38 1006 17 5000 1 100 13:55 22.04.2020
4492 Haze 38 1006 17 5000 1 150 13:37 22.04.2020
4493 Haze 38 1006 18 5000 1 20 13:19 22.04.2020
4494 Haze 38 1006 17 5000 2.6 360 12:40 22.04.2020
4495 Haze 39 1007 16 5000 1.5 300 12:22 22.04.2020
4496 Haze 38 1007 17 5000 1.5 350 11:40 22.04.2020
4497 Haze 38 1007 17 5000 1.5 350 11:22 22.04.2020
4498 Haze 37 1008 20 5000 2.1 100 10:59 22.04.2020
4499 Haze 38 1008 18 5000 1.5 60 10:39 22.04.2020
4500 Haze 38 1008 18 5000 1.5 60 10:20 22.04.2020
4501 Haze 37 1009 20 5000 2.6 60 09:39 22.04.2020
4502 Haze 37 1009 20 5000 2.6 60 09:21 22.04.2020
4503 Haze 37 1010 20 5000 1 50 08:57 22.04.2020
4504 Haze 36 1010 23 5000 1.5 30 08:38 22.04.2020
4505 Haze 36 1010 23 5000 1.5 30 08:20 22.04.2020
4506 Haze 35 1010 26 5000 2.1 80 07:53 22.04.2020
4507 Haze 33 1011 27 5000 1 20 07:28 22.04.2020
4508 Haze 33 1011 27 5000 1 20 07:28 22.04.2020
4509 Haze 33 1011 27 5000 1 20 06:53 22.04.2020
4510 Haze 33 1011 27 5000 1 20 06:53 22.04.2020
4511 Haze 31 1011 31 5000 1.5 10 06:18 22.04.2020
4512 Haze 31 1011 31 5000 1.5 10 05:35 22.04.2020
4513 Haze 29 1010 35 4000 0.5 10 04:20 22.04.2020
4514 Haze 25 1008 44 5000 1.96 49 02:43 22.04.2020
4515 Haze 26 1008 41 5000 2.23 46 01:50 22.04.2020
4516 Haze 26 1008 41 5000 2.23 46 01:25 22.04.2020
4517 Haze 26 1008 39 5000 2.23 46 00:47 22.04.2020
4518 Haze 26 1008 39 5000 2.15 30 00:22 22.04.2020
4519 Haze 26 1008 34 5000 2.15 30 23:59 21.04.2020
4520 Haze 26 1008 34 5000 2.15 30 23:40 21.04.2020
4521 Haze 26 1008 34 5000 2.15 30 23:18 21.04.2020
4522 Haze 26 1008 34 5000 2.15 30 22:40 21.04.2020
4523 Haze 26 1008 34 5000 2.15 30 22:21 21.04.2020
4524 Haze 27 1009 30 5000 2.15 30 21:58 21.04.2020
4525 Haze 27 1009 30 5000 2.15 30 21:40 21.04.2020
4526 Haze 27 1009 30 5000 2.15 30 21:40 21.04.2020
4527 Haze 27 1009 30 5000 2.73 330 21:22 21.04.2020
4528 Haze 31 1009 25 5000 1 360 20:54 21.04.2020
4529 Haze 31 1009 25 5000 1 360 20:36 21.04.2020
4530 Haze 31 1009 25 5000 1 360 20:36 21.04.2020
4531 Haze 33 1009 21 5000 2.1 340 20:18 21.04.2020
4532 Haze 33 1009 21 5000 2.1 340 19:40 21.04.2020
4533 Haze 32 1009 19 5000 2.1 310 19:19 21.04.2020
4534 Haze 32 1009 19 5000 2.1 310 18:56 21.04.2020
4535 Haze 32 1009 19 5000 2.1 310 18:38 21.04.2020
4536 Haze 33 1008 16 5000 2.1 310 18:18 21.04.2020
4537 Haze 33 1008 16 5000 2.1 310 18:18 21.04.2020
4538 Haze 33 1008 16 5000 2.1 310 17:41 21.04.2020
4539 Haze 33 1008 16 5000 2.1 310 17:22 21.04.2020
4540 Haze 35 1007 13 5000 3.6 260 16:59 21.04.2020
4541 Haze 35 1007 13 5000 3.6 260 16:38 21.04.2020
4542 Haze 36 1007 12 5000 2.6 240 16:19 21.04.2020
4543 Haze 36 1007 12 5000 2.6 240 15:55 21.04.2020
4544 Haze 37 1007 11 5000 3.6 250 15:37 21.04.2020
4545 Haze 39 1006 10 5000 4.6 250 15:19 21.04.2020
4546 Haze 39 1006 10 5000 5.7 200 14:45 21.04.2020
4547 Haze 39 1006 10 5000 5.7 200 14:25 21.04.2020
4548 Haze 39 1006 10 5000 4.6 230 13:58 21.04.2020
4549 Haze 40 1006 11 5000 6.2 250 13:38 21.04.2020
4550 Haze 40 1006 11 5000 5.1 260 13:19 21.04.2020
4551 Haze 40 1006 11 5000 4.6 250 12:40 21.04.2020
4552 Haze 40 1006 11 5000 4.6 250 12:20 21.04.2020
4553 Haze 40 1006 11 5000 1.5 270 11:58 21.04.2020
4554 Haze 40 1007 11 5000 5.1 270 11:39 21.04.2020
4555 Haze 40 1007 13 5000 6.7 280 11:19 21.04.2020
4556 Haze 40 1007 13 5000 6.7 280 10:59 21.04.2020
4557 Haze 40 1008 12 5000 6.2 250 10:40 21.04.2020
4558 Haze 40 1008 12 5000 6.2 250 10:22 21.04.2020
4559 Haze 39 1009 14 5000 3.1 320 09:59 21.04.2020
4560 Haze 39 1009 14 5000 3.1 320 09:37 21.04.2020
4561 Haze 38 1010 16 5000 3.6 290 09:18 21.04.2020
4562 Haze 38 1010 16 5000 3.6 290 08:46 21.04.2020
4563 Haze 38 1010 16 5000 3.6 290 08:27 21.04.2020
4564 Haze 37 1011 18 5000 2.1 330 07:55 21.04.2020
4565 Haze 37 1011 18 5000 2.1 330 07:28 21.04.2020
4566 Haze 36 1011 19 5000 2.1 300 06:54 21.04.2020
4567 Haze 36 1011 19 5000 2.1 300 06:36 21.04.2020
4568 Haze 34 1010 23 5000 2.1 40 05:51 21.04.2020
4569 Haze 34 1010 23 5000 2.1 40 05:20 21.04.2020
4570 Haze 28 1009 48 4000 2.6 270 03:47 21.04.2020
4571 Haze 29 1008 45 4000 3.6 250 02:47 21.04.2020
4572 Haze 28 1008 48 4000 3.1 230 01:32 21.04.2020
4573 Haze 29 1008 45 4000 3.1 240 00:39 21.04.2020
4574 Haze 28 1008 48 3500 1 210 00:19 21.04.2020
4575 Haze 28 1008 48 3500 1 210 23:43 20.04.2020
4576 Haze 28 1008 48 3500 1 210 23:21 20.04.2020
4577 Haze 29 1009 45 3500 0.87 321 22:56 20.04.2020
4578 Haze 29 1009 45 3500 0.87 321 22:36 20.04.2020
4579 Haze 29 1009 42 3500 0.87 321 22:18 20.04.2020
4580 Haze 29 1009 42 3500 0.87 321 21:54 20.04.2020
4581 Haze 29 1009 42 3500 0.87 321 21:36 20.04.2020
4582 Haze 31 1009 38 3500 1 240 21:18 20.04.2020
4583 Haze 31 1009 38 3500 1 240 20:42 20.04.2020
4584 Haze 31 1009 38 3500 1 240 20:20 20.04.2020
4585 Haze 31 1010 40 3500 3.1 220 19:59 20.04.2020
4586 Haze 31 1010 40 3500 3.1 220 19:41 20.04.2020
4587 Haze 31 1010 40 3500 3.1 220 19:41 20.04.2020
4588 Haze 31 1010 40 3500 3.1 220 19:22 20.04.2020
4589 Haze 32 1009 35 4000 2.1 230 18:58 20.04.2020
4590 Haze 33 1009 36 4000 2.6 230 18:39 20.04.2020
4591 Haze 33 1009 36 4000 2.6 230 18:20 20.04.2020
4592 Haze 33 1009 36 4000 2.6 230 18:20 20.04.2020
4593 Haze 33 1009 26 4000 2.6 180 17:54 20.04.2020
4594 Haze 32 1008 27 4000 2.65 310 17:36 20.04.2020
4595 Haze 32 1007 24 4000 2.65 310 17:18 20.04.2020
4596 Haze 33 1007 24 4000 2.65 310 16:41 20.04.2020
4597 Haze 33 1007 24 4000 2.65 310 16:20 20.04.2020
4598 Haze 34 1007 21 4000 2.65 310 15:56 20.04.2020
4599 Haze 37 1007 17 4000 1 220 15:38 20.04.2020
4600 Haze 37 1007 17 4000 1 220 15:38 20.04.2020
4601 Haze 37 1007 17 4000 1 220 15:19 20.04.2020
4602 Haze 39 1006 11 5000 3.6 270 14:42 20.04.2020
4603 Haze 39 1006 11 5000 3.6 270 14:19 20.04.2020
4604 Haze 40 1006 11 5000 3.1 250 13:58 20.04.2020
4605 Haze 40 1006 11 5000 3.1 250 13:58 20.04.2020
4606 Haze 40 1006 11 5000 3.1 250 13:39 20.04.2020
4607 Haze 40 1006 11 5000 3.1 250 13:20 20.04.2020
4608 Clouds 39 1007 14 6000 1 300 12:44 20.04.2020
4609 Clouds 39 1007 14 6000 1 300 12:23 20.04.2020
4610 Clouds 38 1008 21 6000 1 340 11:58 20.04.2020
4611 Clouds 38 1008 21 6000 1 340 11:38 20.04.2020
4612 Clouds 38 1008 22 6000 2.6 170 11:18 20.04.2020
4613 Clouds 38 1008 22 6000 2.6 170 10:54 20.04.2020
4614 Clouds 38 1008 22 6000 2.6 170 10:54 20.04.2020
4615 Clouds 38 1009 22 6000 2.6 210 10:36 20.04.2020
4616 Clouds 38 1009 25 6000 1.5 60 10:18 20.04.2020
4617 Clouds 37 1010 27 6000 1.5 260 09:44 20.04.2020
4618 Clouds 37 1010 27 6000 1.5 260 09:25 20.04.2020
4619 Clouds 37 1010 27 6000 1 20 08:58 20.04.2020
4620 Clouds 37 1010 27 6000 1 20 08:58 20.04.2020
4621 Clouds 37 1011 25 6000 2.1 80 08:39 20.04.2020
4622 Clouds 35 1012 32 6000 3.32 235 08:18 20.04.2020
4623 Clouds 35 1012 32 6000 3.32 235 07:51 20.04.2020
4624 Clouds 35 1012 32 6000 3.32 235 07:28 20.04.2020
4625 Clouds 34 1012 36 6000 3.1 240 06:38 20.04.2020
4626 Clouds 31 1012 43 6000 1.5 250 06:19 20.04.2020
4627 Clouds 31 1012 43 6000 1.5 250 05:20 20.04.2020
4628 Haze 25 1010 65 4000 1.74 202 02:52 20.04.2020
4629 Haze 25 1010 65 4000 1.96 203 02:33 20.04.2020
4630 Haze 25 1009 61 4000 0.5 290 01:30 20.04.2020
4631 Haze 26 1009 57 4000 1.96 203 00:47 20.04.2020
4632 Haze 26 1009 57 4000 1.58 185 00:25 20.04.2020
4633 Haze 26 1009 57 4000 1.58 185 23:41 19.04.2020
4634 Haze 26 1009 57 4000 1.58 185 23:22 19.04.2020
4635 Haze 27 1010 54 4000 1.5 230 22:59 19.04.2020
4636 Haze 27 1010 54 4000 1.5 230 22:38 19.04.2020
4637 Haze 27 1010 54 4000 1.5 230 22:19 19.04.2020
4638 Haze 27 1010 54 4000 1 220 21:43 19.04.2020
4639 Haze 27 1010 54 4000 1 220 21:25 19.04.2020
4640 Haze 28 1011 51 4000 1 220 20:59 19.04.2020
4641 Haze 28 1011 51 4000 1 220 20:41 19.04.2020
4642 Haze 28 1011 51 4000 1 220 20:20 19.04.2020
4643 Haze 29 1011 48 5000 1.5 150 19:57 19.04.2020
4644 Haze 29 1011 48 5000 1.5 150 19:39 19.04.2020
4645 Haze 29 1011 48 5000 1.5 150 19:21 19.04.2020
4646 Haze 30 1011 45 5000 1.5 150 18:57 19.04.2020
4647 Haze 30 1011 45 5000 1.5 150 18:39 19.04.2020
4648 Haze 31 1010 43 5000 1.5 110 18:19 19.04.2020
4649 Haze 31 1010 43 5000 1.5 110 18:19 19.04.2020
4650 Haze 31 1010 43 5000 1.5 110 17:56 19.04.2020
4651 Haze 31 1010 43 5000 1.5 110 17:38 19.04.2020
4652 Haze 31 1010 43 5000 1.5 110 17:19 19.04.2020
4653 Haze 31 1010 43 5000 1.5 110 17:19 19.04.2020
4654 Haze 32 1009 40 5000 1 120 16:41 19.04.2020
4655 Haze 33 1008 38 5000 1 100 16:21 19.04.2020
4656 Haze 33 1008 38 5000 1 100 15:59 19.04.2020
4657 Haze 33 1008 38 5000 1 100 15:40 19.04.2020
4658 Haze 35 1008 30 5000 3.35 302 15:19 19.04.2020
4659 Haze 35 1008 30 5000 3.35 302 14:39 19.04.2020
4660 Haze 35 1008 30 5000 0.92 246 14:21 19.04.2020
4661 Haze 36 1008 28 5000 0.92 246 13:57 19.04.2020
4662 Haze 36 1008 28 5000 0.92 246 13:37 19.04.2020
4663 Haze 36 1008 28 5000 1.5 330 13:18 19.04.2020
4664 Haze 35 1009 30 5000 1 180 12:46 19.04.2020
4665 Haze 35 1009 30 5000 1 180 12:24 19.04.2020
4666 Haze 35 1009 30 5000 1 270 11:55 19.04.2020
4667 Haze 35 1010 32 5000 4.1 210 11:37 19.04.2020
4668 Haze 35 1011 32 5000 4.1 230 11:18 19.04.2020
4669 Clouds 38 1006 15 0 4.52 290 10:41 19.04.2020
4670 Haze 34 1012 36 5000 5.1 210 10:21 19.04.2020
4671 Haze 34 1012 36 5000 5.1 210 09:59 19.04.2020
4672 Haze 34 1012 36 5000 5.1 210 09:41 19.04.2020
4673 Haze 34 1012 36 5000 5.1 210 09:41 19.04.2020
4674 Haze 31 1013 43 5000 2.6 220 09:19 19.04.2020
4675 Haze 31 1013 43 5000 2.6 220 08:40 19.04.2020
4676 Haze 29 1014 48 4000 2.6 150 08:21 19.04.2020
4677 Haze 29 1014 48 4000 2.6 150 07:55 19.04.2020
4678 Haze 29 1014 48 4000 2.6 150 07:37 19.04.2020
4679 Haze 26 1014 61 4000 3.6 180 07:18 19.04.2020
4680 Haze 26 1014 61 4000 3.6 180 06:24 19.04.2020
4681 Thunderstorm 25 1014 69 4000 4.1 200 05:35 19.04.2020
4682 Thunderstorm 24 1012 73 2000 3.1 240 03:54 19.04.2020
4683 Haze 25 1010 69 3000 3.1 200 02:49 19.04.2020
4684 Haze 25 1009 61 3000 1.78 155 02:18 19.04.2020
4685 Haze 25 1009 61 3000 1.78 155 01:22 19.04.2020
4686 Rain 26 1009 57 3000 1.5 140 00:41 19.04.2020
4687 Rain 26 1009 57 3000 1.5 140 00:41 19.04.2020
4688 Rain 26 1009 57 3000 1.5 140 00:20 19.04.2020
4689 Haze 26 1009 65 3000 1.74 17 23:43 18.04.2020
4690 Haze 26 1009 65 3000 1.74 17 23:19 18.04.2020
4691 Haze 28 1009 48 3000 1 150 22:55 18.04.2020
4692 Haze 28 1009 48 3000 1 150 22:37 18.04.2020
4693 Haze 29 1010 39 3000 1.5 110 22:18 18.04.2020
4694 Haze 29 1010 39 3000 1.5 110 21:42 18.04.2020
4695 Haze 29 1010 39 3000 1.5 110 21:22 18.04.2020
4696 Thunderstorm 29 1012 48 3000 6.2 320 20:59 18.04.2020
4697 Thunderstorm 29 1012 48 3000 6.2 320 20:40 18.04.2020
4698 Thunderstorm 29 1012 48 3000 6.2 320 20:21 18.04.2020
4699 Haze 32 1010 27 3000 1.5 80 19:42 18.04.2020
4700 Haze 32 1010 27 3000 1.5 80 19:24 18.04.2020
4701 Haze 33 1009 27 3000 1 50 18:40 18.04.2020
4702 Haze 35 1009 23 4000 2.6 20 18:20 18.04.2020
4703 Haze 35 1009 23 4000 2.6 20 17:58 18.04.2020
4704 Haze 35 1009 23 4000 2.6 20 17:40 18.04.2020
4705 Haze 35 1009 23 4000 2.6 20 17:20 18.04.2020
4706 Haze 35 1008 23 5000 1.5 60 16:43 18.04.2020
4707 Haze 35 1008 23 5000 1.5 60 16:22 18.04.2020
4708 Haze 36 1007 22 5000 2.1 80 15:56 18.04.2020
4709 Haze 36 1007 22 5000 2.1 80 15:38 18.04.2020
4710 Haze 36 1007 22 5000 2.1 80 15:19 18.04.2020
4711 Haze 38 1007 19 5000 1.5 110 14:44 18.04.2020
4712 Haze 38 1007 19 5000 1.5 110 14:24 18.04.2020
4713 Haze 40 1007 14 5000 2.1 110 13:44 18.04.2020
4714 Haze 40 1007 14 5000 2.1 110 13:23 18.04.2020
4715 Haze 40 1007 14 5000 1 80 12:55 18.04.2020
4716 Haze 40 1008 14 5000 1 50 12:36 18.04.2020
4717 Clouds 40 1008 14 6000 1 80 12:18 18.04.2020
4718 Clouds 40 1008 14 6000 1 80 11:42 18.04.2020
4719 Clouds 40 1008 14 6000 1 80 11:22 18.04.2020
4720 Clear 40 1009 14 6000 1.5 60 10:57 18.04.2020
4721 Clear 40 1009 14 6000 1.5 60 10:37 18.04.2020
4722 Clear 40 1010 16 6000 1.5 360 10:18 18.04.2020
4723 Clear 39 1011 17 6000 3.1 350 09:41 18.04.2020
4724 Clear 39 1011 17 6000 3.1 350 09:23 18.04.2020
4725 Clear 38 1012 21 6000 2.1 10 08:43 18.04.2020
4726 Clear 38 1012 21 6000 2.1 10 08:24 18.04.2020
4727 Clear 36 1012 22 6000 2.1 10 07:52 18.04.2020
4728 Clear 34 1012 28 6000 1 40 07:33 18.04.2020
4729 Clear 34 1012 28 6000 1 40 06:53 18.04.2020
4730 Haze 32 1012 33 4000 1 50 05:50 18.04.2020
4731 Haze 32 1012 33 4000 1 50 05:23 18.04.2020
4732 Haze 29 1011 42 4000 1.6 35 04:45 18.04.2020
4733 Haze 29 1011 42 4000 1.6 35 04:24 18.04.2020
4734 Haze 27 1009 42 4000 2.1 240 02:45 18.04.2020
4735 Haze 27 1009 42 4000 2.1 240 02:21 18.04.2020
4736 Haze 27 1009 42 4000 2.1 240 02:21 18.04.2020
4737 Haze 27 1009 42 4000 2.1 240 02:21 18.04.2020
4738 Haze 27 1008 44 4000 2.6 220 01:51 18.04.2020
4739 Haze 27 1008 44 4000 2.6 220 01:28 18.04.2020
4740 Haze 29 1008 39 4000 1 250 00:38 18.04.2020
4741 Haze 29 1008 39 4000 1 250 00:20 18.04.2020
4742 Haze 29 1008 39 4000 1 240 23:41 17.04.2020
4743 Haze 29 1008 39 4000 1 240 23:20 17.04.2020
4744 Haze 29 1008 35 5000 1 210 23:00 17.04.2020
4745 Haze 29 1008 35 5000 1 210 22:40 17.04.2020
4746 Haze 29 1008 35 5000 1 210 22:21 17.04.2020
4747 Haze 30 1009 30 5000 1 260 21:58 17.04.2020
4748 Haze 30 1009 30 5000 1 260 21:40 17.04.2020
4749 Haze 30 1009 30 5000 1 260 21:20 17.04.2020
4750 Haze 32 1009 25 5000 1.5 100 20:56 17.04.2020
4751 Haze 32 1009 25 5000 1.5 100 20:56 17.04.2020
4752 Haze 32 1009 25 5000 1.5 100 20:37 17.04.2020
4753 Haze 31 1009 25 5000 1 320 20:18 17.04.2020
4754 Haze 31 1009 25 5000 1 320 19:55 17.04.2020
4755 Haze 31 1009 25 5000 1 320 19:37 17.04.2020
4756 Haze 32 1008 24 5000 1 270 19:18 17.04.2020
4757 Haze 32 1008 24 5000 1 270 18:40 17.04.2020
4758 Haze 32 1008 24 5000 1 270 18:20 17.04.2020
4759 Haze 34 1008 21 5000 1 300 17:38 17.04.2020
4760 Haze 34 1008 21 5000 1 300 17:20 17.04.2020
4761 Haze 34 1008 21 5000 1 300 17:20 17.04.2020
4762 Haze 35 1007 19 5000 1.5 290 16:58 17.04.2020
4763 Haze 35 1007 19 5000 1.5 290 16:39 17.04.2020
4764 Haze 35 1007 19 5000 1.5 290 16:21 17.04.2020
4765 Haze 39 1006 13 5000 2.1 310 15:39 17.04.2020
4766 Haze 39 1006 13 5000 2.1 310 15:21 17.04.2020
4767 Clouds 41 1006 12 6000 4.1 320 14:42 17.04.2020
4768 Clouds 41 1006 12 6000 4.1 320 14:24 17.04.2020
4769 Clouds 41 1005 11 6000 4.1 320 13:59 17.04.2020
4770 Clouds 41 1005 11 6000 4.1 320 13:39 17.04.2020
4771 Clouds 41 1005 11 6000 4.1 320 13:20 17.04.2020
4772 Clouds 42 1005 9 6000 5.7 300 12:48 17.04.2020
4773 Clouds 42 1005 9 6000 5.7 300 12:27 17.04.2020
4774 Clouds 41 1006 11 6000 6.2 280 11:58 17.04.2020
4775 Clouds 41 1006 11 6000 6.2 280 11:38 17.04.2020
4776 Clouds 40 1007 13 6000 1.5 340 11:19 17.04.2020
4777 Clouds 40 1007 13 6000 1.5 340 10:40 17.04.2020
4778 Clouds 40 1008 12 6000 2.6 320 10:20 17.04.2020
4779 Clouds 40 1008 12 6000 2.6 320 09:55 17.04.2020
4780 Clouds 40 1008 12 6000 2.6 320 09:36 17.04.2020
4781 Clouds 38 1010 15 6000 1 20 09:18 17.04.2020
4782 Clouds 38 1010 15 6000 1 20 08:45 17.04.2020
4783 Clouds 38 1010 15 6000 1 20 08:26 17.04.2020
4784 Haze 37 1010 16 5000 2.6 340 07:54 17.04.2020
4785 Haze 37 1010 16 5000 2.6 340 07:36 17.04.2020
4786 Haze 36 1011 18 5000 1 300 07:18 17.04.2020
4787 Haze 36 1011 18 5000 1 300 06:40 17.04.2020
4788 Haze 33 1011 31 5000 1 240 05:49 17.04.2020
4789 Haze 25 1009 53 4000 1 270 03:22 17.04.2020
4790 Haze 26 1008 50 4000 1.5 230 02:49 17.04.2020
4791 Haze 26 1008 44 4000 1 210 01:30 17.04.2020
4792 Haze 27 1008 42 4000 1.5 240 00:59 17.04.2020
4793 Haze 28 1008 39 4000 1.5 240 00:20 17.04.2020
4794 Haze 28 1008 39 4000 1.5 240 23:46 16.04.2020
4795 Haze 28 1008 39 4000 1.5 240 23:24 16.04.2020
4796 Haze 29 1008 37 4000 1.5 220 22:59 16.04.2020
4797 Haze 29 1008 37 4000 1.5 220 22:39 16.04.2020
4798 Haze 29 1008 37 4000 1.5 220 22:39 16.04.2020
4799 Haze 29 1008 37 4000 1.5 220 22:39 16.04.2020
4800 Haze 29 1008 37 4000 1.5 220 22:20 16.04.2020
4801 Haze 30 1009 35 4000 2.6 230 21:57 16.04.2020
4802 Haze 30 1009 35 4000 2.6 230 21:38 16.04.2020
4803 Haze 30 1009 35 4000 2.6 230 21:18 16.04.2020
4804 Haze 30 1009 35 4000 1.6 244 20:41 16.04.2020
4805 Haze 30 1009 35 4000 1.6 244 20:22 16.04.2020
4806 Haze 30 1009 33 4000 1.5 170 19:57 16.04.2020
4807 Haze 30 1009 33 4000 1.5 170 19:38 16.04.2020
4808 Haze 30 1009 37 4000 1.6 244 19:19 16.04.2020
4809 Haze 30 1009 37 4000 1.6 244 18:46 16.04.2020
4810 Haze 33 1008 29 4000 0.42 259 18:27 16.04.2020
4811 Haze 33 1008 29 4000 0.42 259 17:59 16.04.2020
4812 Haze 33 1008 29 4000 0.42 259 17:40 16.04.2020
4813 Haze 33 1008 29 4000 0.42 259 17:21 16.04.2020
4814 Haze 34 1007 26 4000 1 140 16:45 16.04.2020
4815 Haze 34 1007 26 4000 1 140 16:45 16.04.2020
4816 Haze 34 1007 26 4000 1 140 16:26 16.04.2020
4817 Haze 36 1006 23 4000 1.5 120 15:58 16.04.2020
4818 Haze 36 1006 23 4000 1.5 120 15:39 16.04.2020
4819 Haze 36 1006 23 4000 1.5 120 15:19 16.04.2020
4820 Haze 38 1006 19 5000 1 80 14:45 16.04.2020
4821 Haze 38 1006 19 5000 1 80 14:25 16.04.2020
4822 Haze 39 1006 17 5000 1.5 50 13:59 16.04.2020
4823 Haze 39 1006 17 5000 1.5 50 13:41 16.04.2020
4824 Haze 39 1006 17 5000 1.5 50 13:23 16.04.2020
4825 Haze 40 1007 16 5000 1.5 60 12:58 16.04.2020
4826 Haze 40 1007 16 5000 1.5 60 12:39 16.04.2020
4827 Haze 39 1008 17 5000 1 300 12:20 16.04.2020
4828 Haze 39 1008 17 5000 1 300 12:20 16.04.2020
4829 Haze 39 1008 17 5000 1 300 11:59 16.04.2020
4830 Haze 39 1008 17 5000 1 300 11:59 16.04.2020
4831 Haze 39 1008 17 5000 1 300 11:40 16.04.2020
4832 Haze 38 1009 19 5000 1 290 11:20 16.04.2020
4833 Haze 38 1009 19 5000 1 290 10:55 16.04.2020
4834 Haze 38 1009 19 5000 1 290 10:37 16.04.2020
4835 Haze 38 1009 19 5000 1 290 10:18 16.04.2020
4836 Haze 37 1010 22 5000 2.1 280 09:39 16.04.2020
4837 Haze 37 1010 22 5000 2.1 280 09:20 16.04.2020
4838 Haze 37 1010 22 5000 2.1 280 09:20 16.04.2020
4839 Haze 37 1011 22 5000 3.6 240 08:56 16.04.2020
4840 Haze 37 1011 22 5000 3.6 240 08:37 16.04.2020
4841 Haze 37 1011 22 5000 3.6 240 08:19 16.04.2020
4842 Haze 35 1012 26 5000 4.6 200 07:43 16.04.2020
4843 Haze 35 1012 26 5000 4.6 200 07:21 16.04.2020
4844 Haze 32 1012 33 5000 1.5 150 06:41 16.04.2020
4845 Haze 32 1012 33 5000 1.5 150 06:23 16.04.2020
4846 Haze 27 1012 54 4000 2.63 245 04:53 16.04.2020
4847 Haze 24 1011 60 4000 1.76 250 03:28 16.04.2020
4848 Haze 24 1011 60 4000 1 210 02:59 16.04.2020
4849 Haze 24 1011 60 4000 1 210 02:38 16.04.2020
4850 Haze 26 1010 50 4000 1.55 232 01:40 16.04.2020
4851 Haze 27 1009 44 2500 1 10 00:57 16.04.2020
4852 Haze 27 1009 44 2500 1 10 00:25 16.04.2020
4853 Haze 27 1009 44 2500 1.5 260 23:55 15.04.2020
4854 Haze 27 1009 44 2500 1.5 260 23:36 15.04.2020
4855 Haze 27 1009 44 2500 1.5 260 23:18 15.04.2020
4856 Haze 28 1009 39 2500 1.5 200 22:39 15.04.2020
4857 Haze 28 1009 39 2500 1.5 200 22:20 15.04.2020
4858 Haze 30 1010 35 2500 4.6 140 21:56 15.04.2020
4859 Haze 30 1010 35 2500 4.6 140 21:37 15.04.2020
4860 Haze 30 1010 35 2500 4.6 140 21:37 15.04.2020
4861 Haze 30 1010 35 2500 4.6 140 21:19 15.04.2020
4862 Thunderstorm 31 1011 33 2500 4.1 110 20:54 15.04.2020
4863 Thunderstorm 31 1011 33 2500 4.1 110 20:54 15.04.2020
4864 Thunderstorm 31 1011 33 2500 4.1 110 20:36 15.04.2020
4865 Thunderstorm 29 1014 45 2500 5.1 280 20:18 15.04.2020
4866 Thunderstorm 29 1014 45 2500 5.1 280 19:41 15.04.2020
4867 Haze 32 1010 35 4000 2.6 80 19:20 15.04.2020
4868 Haze 32 1010 35 4000 2.6 80 18:42 15.04.2020
4869 Haze 32 1010 33 4000 1 60 18:23 15.04.2020
4870 Haze 32 1010 33 4000 1 60 17:58 15.04.2020
4871 Haze 32 1010 33 4000 1 60 17:39 15.04.2020
4872 Haze 32 1010 33 4000 1 60 17:20 15.04.2020
4873 Haze 33 1010 29 4000 2.6 60 16:56 15.04.2020
4874 Haze 33 1010 29 4000 2.6 50 16:37 15.04.2020
4875 Haze 33 1010 29 4000 2.6 50 16:19 15.04.2020
4876 Haze 34 1009 26 5000 2.1 110 15:57 15.04.2020
4877 Haze 35 1009 24 5000 1 110 15:38 15.04.2020
4878 Haze 35 1009 24 5000 1 110 15:19 15.04.2020
4879 Haze 37 1008 20 5000 1.5 150 14:57 15.04.2020
4880 Haze 38 1008 18 5000 2.1 180 14:38 15.04.2020
4881 Haze 38 1008 18 5000 2.1 180 14:20 15.04.2020
4882 Haze 39 1008 18 5000 3.1 160 13:57 15.04.2020
4883 Haze 39 1008 17 5000 2.1 190 13:38 15.04.2020
4884 Haze 39 1008 16 5000 3.6 210 13:19 15.04.2020
4885 Haze 39 1008 16 5000 3.1 180 12:42 15.04.2020
4886 Haze 39 1008 16 5000 3.1 180 12:23 15.04.2020
4887 Haze 39 1008 16 5000 3.1 180 12:23 15.04.2020
4888 Haze 39 1009 18 5000 4.6 210 11:59 15.04.2020
4889 Haze 39 1009 18 5000 4.6 210 11:59 15.04.2020
4890 Haze 39 1009 17 5000 4.1 210 11:40 15.04.2020
4891 Haze 39 1009 17 5000 4.1 210 11:22 15.04.2020
4892 Haze 38 1011 18 5000 3.1 180 10:40 15.04.2020
4893 Haze 38 1011 18 5000 3.1 180 10:22 15.04.2020
4894 Haze 38 1012 19 5000 2.1 240 09:58 15.04.2020
4895 Haze 38 1012 19 5000 2.1 240 09:40 15.04.2020
4896 Haze 38 1012 19 5000 2.1 240 09:22 15.04.2020
4897 Haze 36 1013 23 5000 1.5 200 08:58 15.04.2020
4898 Haze 36 1013 23 5000 1.5 200 08:40 15.04.2020
4899 Haze 36 1013 23 5000 1.5 200 08:19 15.04.2020
4900 Haze 35 1014 26 5000 1.5 170 07:53 15.04.2020
4901 Haze 35 1014 26 5000 1.5 170 07:31 15.04.2020
4902 Haze 33 1014 29 5000 1.5 160 06:33 15.04.2020
4903 Haze 30 1014 37 5000 1 120 05:50 15.04.2020
4904 Haze 30 1014 37 5000 1 120 05:18 15.04.2020
4905 Haze 27 1014 47 5000 1 340 04:43 15.04.2020
4906 Haze 24 1013 53 5000 1 90 03:26 15.04.2020
4907 Haze 24 1013 53 5000 1 90 02:53 15.04.2020
4908 Haze 25 1012 47 4000 2.68 155 01:56 15.04.2020
4909 Haze 25 1012 47 4000 2.68 155 01:27 15.04.2020
4910 Haze 27 1012 42 4000 1.5 90 00:54 15.04.2020
4911 Haze 27 1012 42 4000 1.5 90 00:31 15.04.2020
4912 Haze 27 1012 42 4000 1.5 90 23:57 14.04.2020
4913 Haze 27 1012 42 4000 1.5 90 23:57 14.04.2020
4914 Haze 27 1012 42 4000 1.5 90 23:39 14.04.2020
4915 Haze 27 1012 42 4000 1.5 90 23:21 14.04.2020
4916 Haze 26 1012 44 4000 0.96 29 22:58 14.04.2020
4917 Haze 26 1012 44 4000 0.96 29 22:40 14.04.2020
4918 Haze 26 1012 44 4000 0.96 29 22:21 14.04.2020
4919 Haze 29 1013 35 4000 1.5 310 21:59 14.04.2020
4920 Haze 29 1013 35 4000 1.5 310 21:40 14.04.2020
4921 Haze 29 1013 35 4000 1.5 310 21:20 14.04.2020
4922 Haze 29 1013 37 4000 0.77 263 21:00 14.04.2020
4923 Haze 29 1013 37 4000 1.17 208 20:40 14.04.2020
4924 Haze 29 1013 37 4000 0.77 263 20:21 14.04.2020
4925 Haze 29 1012 35 4000 1 190 19:57 14.04.2020
4926 Haze 29 1012 35 4000 1 190 19:38 14.04.2020
4927 Haze 31 1012 29 5000 2.6 200 19:19 14.04.2020
4928 Haze 31 1012 29 5000 2.6 200 18:41 14.04.2020
4929 Haze 31 1012 29 5000 2.6 200 18:22 14.04.2020
4930 Haze 33 1012 26 4000 2.6 50 17:58 14.04.2020
4931 Haze 33 1012 26 4000 2.6 50 17:58 14.04.2020
4932 Haze 33 1012 26 4000 2.6 50 17:39 14.04.2020
4933 Haze 33 1012 26 4000 2.6 50 17:21 14.04.2020
4934 Haze 32 1011 31 4000 3.6 70 16:58 14.04.2020
4935 Haze 32 1011 31 4000 3.6 70 16:39 14.04.2020
4936 Haze 32 1011 31 4000 3.6 70 16:20 14.04.2020
4937 Haze 32 1011 31 4000 3.6 70 16:20 14.04.2020
4938 Haze 35 1009 23 4000 4.6 60 15:56 14.04.2020
4939 Haze 35 1009 23 4000 4.6 60 15:38 14.04.2020
4940 Haze 35 1009 23 4000 4.6 60 15:18 14.04.2020
4941 Haze 37 1008 16 4000 2.6 210 14:56 14.04.2020
4942 Haze 37 1008 16 4000 2.6 210 14:38 14.04.2020
4943 Haze 37 1008 16 4000 2.6 210 14:19 14.04.2020
4944 Haze 36 1008 19 4000 6.7 250 13:43 14.04.2020
4945 Haze 36 1008 19 4000 6.7 250 13:24 14.04.2020
4946 Haze 39 1008 16 4000 2.6 210 12:56 14.04.2020
4947 Haze 39 1008 16 4000 2.6 210 12:38 14.04.2020
4948 Haze 39 1008 16 4000 1.5 110 12:18 14.04.2020
4949 Haze 39 1008 16 5000 2.6 80 11:41 14.04.2020
4950 Haze 39 1008 16 5000 2.6 80 11:22 14.04.2020
4951 Haze 39 1008 16 5000 2.6 80 11:22 14.04.2020
4952 Clouds 39 1009 17 6000 1.5 100 10:55 14.04.2020
4953 Clouds 39 1009 17 6000 1.5 100 10:37 14.04.2020
4954 Clouds 39 1009 17 6000 1.5 100 10:18 14.04.2020
4955 Clouds 39 1010 18 6000 2.6 200 09:41 14.04.2020
4956 Clear 39 1010 18 6000 2.6 200 09:22 14.04.2020
4957 Clear 37 1011 18 6000 4.1 200 08:55 14.04.2020
4958 Clear 37 1011 18 6000 4.1 200 08:36 14.04.2020
4959 Clear 40 1009 10 0 3.28 207 08:18 14.04.2020
4960 Clear 37 1012 20 6000 3.6 210 07:49 14.04.2020
4961 Clear 37 1012 20 6000 3.6 210 07:25 14.04.2020
4962 Haze 34 1012 26 5000 2.1 270 06:45 14.04.2020
4963 Haze 32 1012 33 5000 1 10 05:40 14.04.2020
4964 Haze 25 1011 50 4000 0.64 184 03:27 14.04.2020
4965 Haze 26 1010 47 4000 1 250 02:33 14.04.2020
4966 Haze 26 1009 44 4000 1 240 01:27 14.04.2020
4967 Haze 27 1009 42 4000 1 223 00:50 14.04.2020
4968 Haze 27 1009 42 4000 0.68 179 00:24 14.04.2020
4969 Haze 27 1009 44 4000 2.1 200 23:56 13.04.2020
4970 Haze 27 1009 44 4000 2.1 200 23:37 13.04.2020
4971 Haze 27 1009 44 4000 2.1 200 23:18 13.04.2020
4972 Haze 26 1010 44 4000 1.5 220 22:42 13.04.2020
4973 Haze 26 1010 44 4000 1.5 220 22:42 13.04.2020
4974 Haze 26 1010 44 4000 1.5 220 22:22 13.04.2020
4975 Haze 29 1010 32 4000 1.5 130 21:58 13.04.2020
4976 Haze 29 1010 32 4000 1.5 130 21:39 13.04.2020
4977 Haze 29 1010 32 4000 1.5 130 21:20 13.04.2020
4978 Haze 34 1010 20 4000 1.5 200 20:56 13.04.2020
4979 Haze 34 1010 20 4000 1.5 200 20:56 13.04.2020
4980 Haze 34 1010 20 4000 1.5 200 20:38 13.04.2020
4981 Haze 34 1010 20 4000 1.5 200 20:19 13.04.2020
4982 Haze 32 1010 29 4000 2.1 210 19:54 13.04.2020
4983 Haze 32 1010 29 4000 2.1 210 19:36 13.04.2020
4984 Haze 33 1010 27 4000 1.5 120 19:18 13.04.2020
4985 Haze 33 1010 27 4000 1.5 120 18:54 13.04.2020
4986 Haze 33 1010 27 4000 1.5 120 18:36 13.04.2020
4987 Haze 33 1009 27 5000 1.5 110 18:18 13.04.2020
4988 Haze 33 1009 27 5000 1.5 110 18:18 13.04.2020
4989 Haze 33 1009 27 5000 1.5 110 17:54 13.04.2020
4990 Haze 33 1009 27 5000 1.5 110 17:36 13.04.2020
4991 Haze 33 1009 27 5000 1.5 110 17:18 13.04.2020
4992 Haze 34 1008 28 5000 1 140 16:55 13.04.2020
4993 Haze 34 1008 28 5000 1 140 16:36 13.04.2020
4994 Haze 34 1008 28 5000 1 140 16:36 13.04.2020
4995 Haze 34 1008 28 5000 1 140 16:18 13.04.2020
4996 Haze 34 1008 28 5000 1 140 16:18 13.04.2020
4997 Haze 34 1008 28 5000 1 90 15:43 13.04.2020
4998 Haze 34 1008 28 5000 1 90 15:25 13.04.2020
4999 Haze 38 1007 22 5000 2.09 349 14:56 13.04.2020
5000 Haze 38 1007 22 5000 2.09 349 14:38 13.04.2020
5001 Haze 39 1007 16 5000 1.5 100 14:20 13.04.2020
5002 Haze 39 1007 16 5000 1.5 100 13:55 13.04.2020
5003 Haze 39 1007 16 5000 1.5 100 13:55 13.04.2020
5004 Haze 39 1007 16 5000 1.5 100 13:37 13.04.2020
5005 Haze 39 1007 16 5000 1.5 100 13:37 13.04.2020
5006 Haze 39 1007 15 5000 1.5 100 13:19 13.04.2020
5007 Haze 39 1007 15 5000 1.5 100 12:57 13.04.2020
5008 Haze 39 1007 15 5000 1.5 100 12:57 13.04.2020
5009 Haze 39 1007 15 5000 1.5 100 12:38 13.04.2020
5010 Haze 39 1008 17 5000 1 360 12:19 13.04.2020
5011 Haze 39 1008 17 5000 1 360 11:43 13.04.2020
5012 Haze 39 1008 17 5000 1 360 11:19 13.04.2020
5013 Haze 38 1009 22 5000 0.38 296 10:56 13.04.2020
5014 Haze 38 1009 22 5000 0.38 296 10:38 13.04.2020
5015 Haze 38 1009 22 5000 2.75 206 10:19 13.04.2020
5016 Haze 37 1011 23 5000 1 80 09:55 13.04.2020
5017 Haze 37 1011 23 5000 1 80 09:55 13.04.2020
5018 Haze 37 1011 23 5000 1 80 09:36 13.04.2020
5019 Haze 37 1011 23 5000 1 80 09:18 13.04.2020
5020 Haze 36 1012 26 5000 1.5 180 08:42 13.04.2020
5021 Haze 36 1012 26 5000 1.5 180 08:42 13.04.2020
5022 Haze 36 1012 26 5000 1.5 180 08:24 13.04.2020
5023 Haze 35 1012 28 5000 2.1 220 07:42 13.04.2020
5024 Haze 35 1012 28 5000 2.1 220 07:24 13.04.2020
5025 Haze 33 1012 36 4000 1 120 06:47 13.04.2020
5026 Haze 33 1012 36 4000 1 120 06:26 13.04.2020
5027 Haze 31 1012 40 4000 1 80 05:38 13.04.2020
5028 Haze 31 1012 40 4000 1 80 05:18 13.04.2020
5029 Haze 27 1012 47 4000 1 100 04:24 13.04.2020
5030 Haze 25 1011 57 4000 2.1 110 03:49 13.04.2020
5031 Haze 26 1010 50 4000 1 330 03:00 13.04.2020
5032 Haze 26 1010 50 4000 1 330 02:38 13.04.2020
5033 Haze 29 1009 42 3000 1.5 330 01:44 13.04.2020
5034 Haze 29 1009 42 3000 1.5 330 01:25 13.04.2020
5035 Haze 27 1009 47 3000 1.5 230 00:43 13.04.2020
5036 Haze 27 1009 47 3000 1.5 230 00:22 13.04.2020
5037 Haze 27 1009 44 3000 1.5 240 23:49 12.04.2020
5038 Haze 27 1009 44 3000 1.5 240 23:23 12.04.2020
5039 Haze 28 1010 45 3000 1.14 229 22:59 12.04.2020
5040 Haze 28 1010 45 3000 1.14 229 22:38 12.04.2020
5041 Haze 28 1010 45 3000 1.14 229 22:19 12.04.2020
5042 Haze 29 1011 42 3000 1.14 229 21:54 12.04.2020
5043 Haze 29 1011 42 3000 1.14 229 21:36 12.04.2020
5044 Haze 29 1011 42 3000 0.8 170 21:18 12.04.2020
5045 Haze 30 1011 40 3000 0.8 170 20:41 12.04.2020
5046 Haze 30 1011 40 3000 0.8 170 20:22 12.04.2020
5047 Haze 30 1011 40 3000 0.8 170 20:22 12.04.2020
5048 Haze 32 1011 35 3000 1.5 200 19:56 12.04.2020
5049 Haze 32 1011 35 3000 1.5 200 19:56 12.04.2020
5050 Haze 32 1011 35 3000 1.5 200 19:38 12.04.2020
5051 Haze 34 1011 28 3000 4.6 190 19:18 12.04.2020
5052 Haze 34 1011 28 3000 4.6 190 18:41 12.04.2020
5053 Thunderstorm 35 1011 20 3000 7.2 220 18:23 12.04.2020
5054 Thunderstorm 35 1011 20 3000 7.2 220 17:57 12.04.2020
5055 Thunderstorm 35 1011 20 3000 7.2 220 17:38 12.04.2020
5056 Thunderstorm 35 1011 20 3000 7.2 220 17:20 12.04.2020
5057 Haze 34 1009 24 4000 1.5 170 16:57 12.04.2020
5058 Haze 34 1009 24 4000 1.5 170 16:38 12.04.2020
5059 Haze 34 1009 24 4000 1.5 170 16:19 12.04.2020
5060 Haze 35 1009 24 5000 1 160 15:45 12.04.2020
5061 Haze 35 1009 24 5000 1 160 15:27 12.04.2020
5062 Clouds 38 1008 17 6000 1.5 160 14:41 12.04.2020
5063 Clouds 38 1008 17 6000 1.5 160 14:22 12.04.2020
5064 Clouds 39 1008 17 6000 1.5 160 13:59 12.04.2020
5065 Clouds 39 1008 17 6000 1.5 160 13:40 12.04.2020
5066 Clouds 39 1008 17 6000 1.5 160 13:22 12.04.2020
5067 Clouds 40 1008 15 6000 1.5 160 12:47 12.04.2020
5068 Clouds 40 1008 15 6000 1.5 160 12:22 12.04.2020
5069 Clouds 40 1009 15 6000 1 20 11:59 12.04.2020
5070 Clouds 40 1009 15 6000 1 20 11:39 12.04.2020
5071 Clouds 40 1009 15 6000 1 20 11:21 12.04.2020
5072 Clouds 40 1009 15 6000 1 20 11:21 12.04.2020
5073 Haze 39 1011 20 5000 2.6 150 10:58 12.04.2020
5074 Haze 39 1011 20 5000 2.6 150 10:39 12.04.2020
5075 Haze 39 1011 20 5000 2.6 150 10:20 12.04.2020
5076 Haze 38 1012 19 4000 1 210 09:58 12.04.2020
5077 Haze 38 1012 19 4000 1 210 09:39 12.04.2020
5078 Haze 38 1012 19 4000 1 210 09:19 12.04.2020
5079 Haze 36 1014 25 4000 1.5 210 08:51 12.04.2020
5080 Haze 36 1014 25 4000 1.5 210 08:32 12.04.2020
5081 Haze 35 1014 30 4000 1.5 110 07:47 12.04.2020
5082 Haze 32 1015 33 4000 1 120 07:20 12.04.2020
5083 Haze 32 1015 33 4000 1 120 06:59 12.04.2020
5084 Haze 32 1015 33 4000 1 120 06:31 12.04.2020
5085 Haze 30 1014 37 4000 1 10 05:49 12.04.2020
5086 Haze 27 1014 44 4000 1 50 04:53 12.04.2020
5087 Haze 25 1013 53 4000 0.95 345 03:31 12.04.2020
5088 Haze 25 1012 50 4000 0.87 16 02:49 12.04.2020
5089 Haze 25 1012 50 4000 0.87 16 02:30 12.04.2020
5090 Haze 26 1011 44 4000 0.73 325 01:26 12.04.2020
5091 Haze 26 1011 41 4000 1 290 00:44 12.04.2020
5092 Haze 26 1011 41 4000 1 290 00:21 12.04.2020
5093 Haze 25 1012 44 4000 0.39 205 23:59 11.04.2020
5094 Haze 25 1012 44 4000 0.39 205 23:40 11.04.2020
5095 Haze 25 1012 44 4000 0.39 205 23:22 11.04.2020
5096 Haze 25 1012 44 4000 0.39 205 23:22 11.04.2020
5097 Haze 26 1012 41 4000 0.39 205 22:39 11.04.2020
5098 Haze 26 1012 41 4000 0.39 205 22:20 11.04.2020
5099 Haze 28 1013 34 4000 0.39 205 21:56 11.04.2020
5100 Haze 28 1013 34 4000 0.13 235 21:37 11.04.2020
5101 Haze 28 1014 34 4000 2.1 300 21:18 11.04.2020
5102 Haze 28 1014 34 4000 2.1 300 20:56 11.04.2020
5103 Haze 28 1014 34 4000 2.1 300 20:38 11.04.2020
5104 Haze 28 1014 34 4000 2.1 300 20:19 11.04.2020
5105 Haze 27 1014 39 4000 1 210 19:57 11.04.2020
5106 Haze 27 1014 39 4000 1 210 19:38 11.04.2020
5107 Haze 27 1014 39 4000 1 210 19:38 11.04.2020
5108 Haze 31 1013 25 5000 0.5 167 19:18 11.04.2020
5109 Haze 31 1013 25 5000 0.5 167 19:18 11.04.2020
5110 Haze 31 1013 25 5000 0.5 167 18:55 11.04.2020
5111 Haze 31 1013 25 5000 0.5 167 18:37 11.04.2020
5112 Haze 31 1013 25 5000 0.5 167 18:37 11.04.2020
5113 Haze 30 1013 27 5000 0.5 140 18:18 11.04.2020
5114 Haze 30 1013 27 5000 0.5 140 17:58 11.04.2020
5115 Haze 30 1013 27 5000 0.5 140 17:38 11.04.2020
5116 Haze 30 1013 27 5000 0.5 140 17:19 11.04.2020
5117 Clouds 33 1012 22 0 1 100 16:42 11.04.2020
5118 Clouds 33 1012 22 0 1 100 16:21 11.04.2020
5119 Clouds 34 1011 21 0 1 100 15:42 11.04.2020
5120 Clouds 34 1011 21 0 1 100 15:22 11.04.2020
5121 Clouds 37 1011 16 6000 1 60 14:59 11.04.2020
5122 Clouds 37 1011 16 6000 1 60 14:40 11.04.2020
5123 Clouds 37 1011 16 6000 1 60 14:22 11.04.2020
5124 Clouds 38 1011 14 6000 1.5 20 13:46 11.04.2020
5125 Clouds 38 1011 14 6000 1.5 20 13:26 11.04.2020
5126 Clouds 38 1011 12 6000 1 10 12:59 11.04.2020
5127 Clouds 38 1011 12 6000 1 10 12:38 11.04.2020
5128 Clouds 38 1012 15 6000 1 40 12:18 11.04.2020
5129 Clouds 38 1012 15 6000 1 40 11:54 11.04.2020
5130 Clouds 38 1012 15 6000 1 40 11:36 11.04.2020
5131 Clouds 38 1012 15 6000 1 40 11:18 11.04.2020
5132 Clear 37 1013 20 6000 1 130 10:41 11.04.2020
5133 Clear 37 1013 20 6000 1 130 10:21 11.04.2020
5134 Clear 37 1013 20 6000 1 130 10:21 11.04.2020
5135 Clear 36 1014 25 6000 1.5 160 09:57 11.04.2020
5136 Clear 36 1014 25 6000 1.5 160 09:39 11.04.2020
5137 Clear 36 1014 25 6000 1.5 160 09:20 11.04.2020
5138 Clear 35 1016 28 6000 3.1 190 08:45 11.04.2020
5139 Clear 35 1016 28 6000 3.1 190 08:27 11.04.2020
5140 Clear 33 1016 33 6000 1.5 170 07:49 11.04.2020
5141 Clear 33 1016 33 6000 1.5 170 07:28 11.04.2020
5142 Clear 31 1017 33 6000 1 80 06:47 11.04.2020
5143 Clear 30 1016 35 6000 2.95 59 06:18 11.04.2020
5144 Haze 27 1016 44 5000 2.95 59 04:35 11.04.2020
5145 Haze 24 1015 53 5000 1 50 03:40 11.04.2020
5146 Haze 26 1014 41 4000 1 90 01:53 11.04.2020
5147 Haze 26 1014 41 4000 1 90 01:20 11.04.2020
5148 Haze 25 1013 44 4000 2.04 42 00:44 11.04.2020
5149 Haze 26 1013 39 4000 0.4 302 00:19 11.04.2020
5150 Haze 26 1013 39 4000 0.4 302 23:56 10.04.2020
5151 Haze 26 1013 39 4000 0.4 302 23:56 10.04.2020
5152 Haze 26 1013 39 4000 0.4 302 23:37 10.04.2020
5153 Haze 26 1013 39 4000 0.4 302 23:18 10.04.2020
5154 Haze 27 1014 39 4000 2.6 100 22:43 10.04.2020
5155 Haze 27 1014 39 4000 2.6 100 22:21 10.04.2020
5156 Haze 27 1014 42 4000 2.1 60 21:58 10.04.2020
5157 Haze 27 1014 42 4000 2.1 60 21:39 10.04.2020
5158 Haze 27 1014 42 4000 2.1 60 21:20 10.04.2020
5159 Haze 27 1014 42 4000 1 60 20:41 10.04.2020
5160 Haze 27 1014 42 4000 1 60 20:23 10.04.2020
5161 Haze 29 1014 37 4000 1 90 19:58 10.04.2020
5162 Haze 29 1014 37 4000 1 90 19:40 10.04.2020
5163 Haze 30 1014 35 4000 1.5 90 19:20 10.04.2020
5164 Haze 30 1014 35 4000 1.5 90 18:57 10.04.2020
5165 Haze 30 1014 35 4000 1.5 90 18:39 10.04.2020
5166 Clear 32 1011 17 0 2.3 127 18:21 10.04.2020
5167 Clear 32 1011 17 0 2.3 127 17:58 10.04.2020
5168 Haze 31 1012 31 5000 1 90 17:39 10.04.2020
5169 Haze 31 1012 31 5000 1 90 17:20 10.04.2020
5170 Haze 31 1012 31 5000 1 90 16:56 10.04.2020
5171 Haze 31 1012 31 5000 1 90 16:37 10.04.2020
5172 Haze 31 1012 31 5000 1 90 16:19 10.04.2020
5173 Haze 33 1011 24 5000 3.1 90 15:55 10.04.2020
5174 Haze 33 1011 24 5000 3.1 90 15:36 10.04.2020
5175 Haze 33 1011 24 5000 3.1 90 15:18 10.04.2020
5176 Haze 36 1010 19 5000 4.1 50 14:54 10.04.2020
5177 Haze 36 1010 19 5000 4.1 50 14:36 10.04.2020
5178 Haze 36 1010 19 5000 4.1 50 14:18 10.04.2020
5179 Haze 38 1009 14 5000 2.1 160 13:42 10.04.2020
5180 Haze 37 1010 19 5000 3.1 180 13:21 10.04.2020
5181 Haze 37 1010 19 5000 3.1 180 12:43 10.04.2020
5182 Haze 37 1010 19 5000 3.1 180 12:23 10.04.2020
5183 Clouds 37 1011 19 6000 3.1 200 11:55 10.04.2020
5184 Clouds 37 1011 19 6000 3.1 200 11:37 10.04.2020
5185 Clouds 37 1011 19 6000 3.1 200 11:18 10.04.2020
5186 Clouds 36 1012 25 6000 3.1 170 10:43 10.04.2020
5187 Clouds 36 1012 25 6000 3.1 170 10:23 10.04.2020
5188 Clouds 35 1013 28 6000 3.1 110 09:56 10.04.2020
5189 Clouds 35 1013 28 6000 3.1 110 09:38 10.04.2020
5190 Clear 35 1013 28 6000 3.1 110 09:18 10.04.2020
5191 Clear 34 1014 34 6000 2.1 140 08:42 10.04.2020
5192 Clear 34 1014 34 6000 2.1 140 08:21 10.04.2020
5193 Clear 32 1015 40 6000 1.5 160 07:45 10.04.2020
5194 Clear 32 1015 40 6000 1.5 160 07:23 10.04.2020
5195 Clear 30 1015 48 6000 1.5 60 06:48 10.04.2020
5196 Clear 30 1015 48 6000 1.5 60 06:27 10.04.2020
5197 Clear 28 1014 54 6000 1.5 90 05:40 10.04.2020
5198 Haze 26 1014 57 5000 1.5 90 04:57 10.04.2020
5199 Haze 25 1012 57 4000 1 70 03:45 10.04.2020
5200 Haze 25 1012 57 4000 1 70 03:24 10.04.2020
5201 Haze 24 1012 53 4000 1.42 97 02:48 10.04.2020
5202 Haze 24 1012 53 4000 0.83 122 02:28 10.04.2020
5203 Haze 24 1011 50 4000 3.6 90 01:30 10.04.2020
5204 Haze 23 1010 53 4000 1 230 00:49 10.04.2020
5205 Haze 23 1010 53 4000 1 230 00:23 10.04.2020
5206 Haze 25 1011 50 4000 0.83 91 23:44 09.04.2020
5207 Haze 25 1011 50 4000 0.83 91 23:26 09.04.2020
5208 Haze 27 1011 39 4000 0.83 91 22:59 09.04.2020
5209 Haze 27 1011 39 4000 0.83 91 22:41 09.04.2020
5210 Haze 27 1011 39 4000 0.83 91 22:22 09.04.2020
5211 Haze 27 1012 36 4000 0.83 91 21:45 09.04.2020
5212 Haze 27 1012 36 4000 1.54 10 21:26 09.04.2020
5213 Haze 27 1012 34 4000 1.54 10 20:57 09.04.2020
5214 Haze 27 1012 34 4000 1.54 10 20:38 09.04.2020
5215 Haze 27 1012 34 4000 1.54 10 20:19 09.04.2020
5216 Haze 29 1011 25 4000 1 90 19:41 09.04.2020
5217 Haze 29 1011 25 4000 1.5 70 19:23 09.04.2020
5218 Haze 29 1011 25 4000 1.5 70 18:58 09.04.2020
5219 Haze 29 1011 25 4000 1.5 70 18:40 09.04.2020
5220 Haze 29 1010 26 4000 1.54 342 18:18 09.04.2020
5221 Haze 29 1010 26 4000 1.54 342 18:18 09.04.2020
5222 Haze 29 1010 26 4000 1.54 342 17:39 09.04.2020
5223 Haze 29 1010 26 4000 1.54 342 17:21 09.04.2020
5224 Haze 32 1010 18 4000 1.54 342 16:41 09.04.2020
5225 Haze 32 1010 18 4000 1.54 342 16:20 09.04.2020
5226 Haze 33 1009 18 4000 0.5 110 15:57 09.04.2020
5227 Haze 36 1008 15 4000 1.54 342 15:39 09.04.2020
5228 Haze 36 1008 15 4000 3.24 300 15:20 09.04.2020
5229 Haze 36 1008 15 4000 3.24 300 14:59 09.04.2020
5230 Haze 36 1008 15 4000 3.7 312 14:38 09.04.2020
5231 Haze 36 1008 15 4000 3.7 312 14:20 09.04.2020
5232 Haze 37 1008 12 4000 1.5 80 13:42 09.04.2020
5233 Haze 37 1008 12 4000 1.5 80 13:24 09.04.2020
5234 Haze 37 1009 12 4000 1 80 12:59 09.04.2020
5235 Haze 37 1009 12 4000 1 80 12:39 09.04.2020
5236 Haze 37 1010 13 4000 2.45 286 12:20 09.04.2020
5237 Haze 37 1010 13 4000 2.45 286 12:20 09.04.2020
5238 Haze 37 1010 13 4000 2.45 286 11:55 09.04.2020
5239 Haze 37 1010 13 4000 2.45 286 11:36 09.04.2020
5240 Haze 37 1010 13 4000 2.45 286 11:18 09.04.2020
5241 Clear 37 1011 18 6000 1 310 10:41 09.04.2020
5242 Clear 37 1011 18 6000 1 310 10:22 09.04.2020
5243 Clear 37 1011 18 6000 1 310 10:22 09.04.2020
5244 Clear 36 1012 19 6000 1 20 09:58 09.04.2020
5245 Clear 36 1012 19 6000 1 20 09:39 09.04.2020
5246 Clear 36 1012 19 6000 1 20 09:21 09.04.2020
5247 Clear 34 1013 24 6000 2.36 204 08:44 09.04.2020
5248 Clear 34 1013 24 6000 2.36 204 08:24 09.04.2020
5249 Clear 32 1013 29 8000 1 70 07:59 09.04.2020
5250 Clear 32 1013 29 8000 1 70 07:37 09.04.2020
5251 Clear 30 1013 35 8000 1.5 90 07:18 09.04.2020
5252 Clear 30 1013 35 8000 1.5 90 06:28 09.04.2020
5253 Clear 28 1013 34 8000 2.1 90 05:49 09.04.2020
5254 Clear 28 1013 34 8000 2.1 90 05:20 09.04.2020
5255 Haze 26 1010 27 4000 2.6 330 02:35 09.04.2020
5256 Haze 27 1009 24 4000 3.1 330 01:45 09.04.2020
5257 Haze 27 1009 24 4000 3.1 330 01:27 09.04.2020
5258 Haze 28 1009 23 4000 4.1 340 00:44 09.04.2020
5259 Haze 27 1009 24 4000 1.5 320 00:20 09.04.2020
5260 Haze 27 1009 24 4000 1.5 320 23:59 08.04.2020
5261 Haze 27 1009 24 4000 1.5 320 23:41 08.04.2020
5262 Haze 27 1010 22 4000 2.1 310 23:22 08.04.2020
5263 Haze 27 1010 22 4000 2.1 310 22:44 08.04.2020
5264 Haze 26 1010 27 4000 2.1 320 22:24 08.04.2020
5265 Haze 26 1010 27 4000 2.1 320 21:57 08.04.2020
5266 Haze 26 1010 27 4000 2.1 320 21:39 08.04.2020
5267 Haze 26 1010 27 4000 2.1 320 21:20 08.04.2020
5268 Haze 27 1011 24 4000 1.5 320 20:58 08.04.2020
5269 Haze 27 1011 24 4000 1.5 320 20:39 08.04.2020
5270 Haze 27 1011 24 4000 1.5 320 20:20 08.04.2020
5271 Haze 28 1011 23 4000 2.1 300 19:57 08.04.2020
5272 Haze 28 1011 23 4000 2.1 300 19:37 08.04.2020
5273 Haze 31 1011 16 4000 2.6 310 19:19 08.04.2020
5274 Haze 31 1011 16 4000 2.6 310 18:42 08.04.2020
5275 Haze 31 1009 19 4000 3.1 250 18:23 08.04.2020
5276 Haze 31 1009 19 4000 3.1 250 17:54 08.04.2020
5277 Haze 31 1009 19 4000 3.1 250 17:54 08.04.2020
5278 Haze 31 1009 19 4000 3.1 250 17:36 08.04.2020
5279 Haze 33 1009 18 4000 2.6 250 17:18 08.04.2020
5280 Haze 33 1009 18 4000 2.6 250 16:42 08.04.2020
5281 Haze 33 1009 18 4000 2.6 250 16:42 08.04.2020
5282 Haze 35 1008 16 4000 3.1 260 16:23 08.04.2020
5283 Haze 35 1008 16 4000 3.1 260 15:55 08.04.2020
5284 Haze 35 1008 16 4000 3.1 260 15:37 08.04.2020
5285 Haze 35 1008 16 4000 3.1 260 15:18 08.04.2020
5286 Haze 37 1008 13 5000 4.1 260 14:42 08.04.2020
5287 Haze 37 1008 13 5000 4.1 260 14:24 08.04.2020
5288 Haze 38 1008 15 5000 3.6 300 13:45 08.04.2020
5289 Haze 38 1008 15 5000 3.6 300 13:23 08.04.2020
5290 Haze 38 1008 15 5000 3.6 300 13:23 08.04.2020
5291 Haze 38 1008 14 5000 3.1 260 13:00 08.04.2020
5292 Haze 38 1008 14 5000 3.1 260 12:41 08.04.2020
5293 Haze 38 1009 14 5000 1.5 250 12:18 08.04.2020
5294 Haze 38 1009 14 5000 1.5 250 11:55 08.04.2020
5295 Haze 38 1009 14 5000 1.5 250 11:37 08.04.2020
5296 Haze 37 1011 16 5000 2.1 250 11:19 08.04.2020
5297 Haze 37 1011 16 5000 2.1 250 10:54 08.04.2020
5298 Haze 37 1011 16 5000 2.1 250 10:36 08.04.2020
5299 Haze 36 1012 15 5000 3.6 280 10:18 08.04.2020
5300 Haze 36 1012 15 5000 3.6 280 09:42 08.04.2020
5301 Haze 36 1012 15 5000 3.6 280 09:20 08.04.2020
5302 Haze 35 1012 17 5000 2.1 340 08:58 08.04.2020
5303 Haze 35 1012 17 5000 2.1 340 08:58 08.04.2020
5304 Haze 35 1012 17 5000 2.1 340 08:40 08.04.2020
5305 Haze 35 1012 17 5000 2.1 340 08:21 08.04.2020
5306 Haze 35 1013 20 5000 5.1 280 07:43 08.04.2020
5307 Haze 32 1012 29 5000 3.6 260 07:22 08.04.2020
5308 Haze 32 1012 29 5000 3.6 260 06:33 08.04.2020
5309 Haze 30 1012 40 5000 5.7 270 05:22 08.04.2020
5310 Haze 25 1010 50 4000 2.1 210 02:51 08.04.2020
5311 Haze 25 1010 50 4000 2.1 210 02:22 08.04.2020
5312 Haze 24 1010 38 4000 1 200 01:56 08.04.2020
5313 Haze 24 1010 38 4000 1 200 01:28 08.04.2020
5314 Haze 25 1010 33 4000 2.1 250 00:49 08.04.2020
5315 Haze 25 1010 33 4000 2.1 250 00:31 08.04.2020
5316 Haze 25 1009 33 4000 1 270 23:57 07.04.2020
5317 Haze 25 1009 33 4000 1 270 23:38 07.04.2020
5318 Haze 24 1009 33 4000 1.5 120 23:19 07.04.2020
5319 Haze 24 1009 33 4000 1.5 120 22:56 07.04.2020
5320 Haze 24 1009 33 4000 1.5 120 22:38 07.04.2020
5321 Haze 24 1009 33 4000 1.5 120 22:18 07.04.2020
5322 Haze 28 1009 24 4000 1.5 300 21:42 07.04.2020
5323 Haze 28 1009 24 4000 1.5 300 21:22 07.04.2020
5324 Haze 29 1009 23 4000 1 270 20:59 07.04.2020
5325 Haze 29 1009 23 4000 1 270 20:41 07.04.2020
5326 Haze 29 1009 23 4000 1 270 20:21 07.04.2020
5327 Haze 28 1010 26 4000 1 270 19:58 07.04.2020
5328 Haze 28 1010 26 4000 1 270 19:38 07.04.2020
5329 Haze 28 1010 26 4000 1 270 19:38 07.04.2020
5330 Haze 28 1010 26 4000 1 270 19:38 07.04.2020
5331 Haze 28 1010 26 4000 1 270 19:20 07.04.2020
5332 Haze 31 1009 19 4000 2.1 280 18:59 07.04.2020
5333 Haze 31 1009 19 4000 2.1 280 18:40 07.04.2020
5334 Haze 31 1009 19 4000 2.1 280 18:21 07.04.2020
5335 Haze 31 1008 19 4000 1 250 17:47 07.04.2020
5336 Haze 31 1008 19 4000 1 250 17:24 07.04.2020
5337 Haze 33 1007 17 4000 1 250 16:55 07.04.2020
5338 Haze 33 1007 17 4000 1 250 16:55 07.04.2020
5339 Haze 33 1007 17 4000 1 250 16:37 07.04.2020
5340 Haze 35 1007 15 4000 1.5 290 16:19 07.04.2020
5341 Haze 35 1007 15 4000 1.5 290 15:43 07.04.2020
5342 Haze 38 1006 12 5000 4.1 280 15:24 07.04.2020
5343 Haze 38 1006 12 5000 4.1 280 14:43 07.04.2020
5344 Haze 38 1006 12 5000 4.1 280 14:23 07.04.2020
5345 Clouds 38 1006 14 6000 5.1 230 13:58 07.04.2020
5346 Clouds 38 1006 14 6000 5.1 230 13:39 07.04.2020
5347 Clouds 38 1007 19 6000 3.6 170 13:19 07.04.2020
5348 Clouds 38 1007 19 6000 3.6 170 12:56 07.04.2020
5349 Clouds 38 1007 19 6000 3.6 170 12:37 07.04.2020
5350 Clouds 38 1008 21 6000 3.1 160 12:18 07.04.2020
5351 Clouds 38 1008 21 6000 3.1 160 11:44 07.04.2020
5352 Clouds 38 1008 21 6000 3.1 160 11:26 07.04.2020
5353 Clouds 36 1009 28 6000 3.1 170 10:59 07.04.2020
5354 Clouds 36 1009 28 6000 3.1 170 10:38 07.04.2020
5355 Clouds 36 1009 28 6000 3.1 170 10:19 07.04.2020
5356 Clouds 35 1011 32 6000 2.1 230 09:46 07.04.2020
5357 Clouds 35 1011 32 6000 2.1 230 09:20 07.04.2020
5358 Clouds 33 1012 36 6000 2.1 210 08:57 07.04.2020
5359 Clouds 33 1012 36 6000 2.1 210 08:38 07.04.2020
5360 Clouds 33 1012 36 6000 2.1 210 08:19 07.04.2020
5361 Clouds 32 1012 40 6000 2.1 240 07:43 07.04.2020
5362 Clouds 32 1012 40 6000 2.1 240 07:25 07.04.2020
5363 Clouds 30 1012 45 6000 1.5 160 06:51 07.04.2020
5364 Clouds 30 1012 45 6000 1.5 160 06:25 07.04.2020
5365 Haze 28 1012 51 5000 4.55 225 05:46 07.04.2020
5366 Haze 28 1012 51 5000 4.55 225 05:22 07.04.2020
5367 Haze 23 1011 69 5000 4.55 225 03:32 07.04.2020
5368 Haze 22 1010 73 4000 2.19 239 02:59 07.04.2020
5369 Haze 24 1010 64 4000 1 260 01:58 07.04.2020
5370 Haze 24 1010 64 4000 1 260 01:32 07.04.2020
5371 Haze 24 1010 64 4000 1 200 00:29 07.04.2020
5372 Haze 25 1010 61 4000 1 200 23:57 06.04.2020
5373 Haze 25 1010 61 4000 1 200 23:38 06.04.2020
5374 Haze 25 1010 61 4000 1 200 23:20 06.04.2020
5375 Haze 25 1011 61 4000 1.5 160 22:41 06.04.2020
5376 Haze 25 1011 61 4000 1.5 160 22:22 06.04.2020
5377 Haze 28 1012 51 4000 2.1 340 21:58 06.04.2020
5378 Haze 28 1012 51 4000 2.1 340 21:40 06.04.2020
5379 Haze 28 1012 51 4000 2.1 340 21:19 06.04.2020
5380 Haze 27 1012 51 4000 1 140 20:56 06.04.2020
5381 Haze 27 1012 51 4000 1 140 20:38 06.04.2020
5382 Haze 28 1012 48 4000 1.5 90 20:19 06.04.2020
5383 Haze 28 1012 48 4000 1.5 90 19:54 06.04.2020
5384 Haze 28 1012 48 4000 1.5 90 19:36 06.04.2020
5385 Haze 29 1013 42 4000 2.6 120 19:18 06.04.2020
5386 Haze 29 1013 42 4000 2.6 120 18:41 06.04.2020
5387 Haze 29 1013 42 4000 2.6 120 18:41 06.04.2020
5388 Haze 28 1011 45 4000 1.5 360 18:23 06.04.2020
5389 Haze 28 1011 45 4000 1.5 360 17:55 06.04.2020
5390 Haze 28 1011 45 4000 1.5 360 17:55 06.04.2020
5391 Haze 28 1011 45 4000 1.5 360 17:36 06.04.2020
5392 Haze 29 1010 39 4000 1 210 17:18 06.04.2020
5393 Haze 29 1010 39 4000 1 210 17:18 06.04.2020
5394 Haze 29 1010 39 4000 1 210 16:45 06.04.2020
5395 Haze 29 1010 39 4000 1 210 16:27 06.04.2020
5396 Thunderstorm 35 1009 28 4000 1.5 350 14:45 06.04.2020
5397 Thunderstorm 35 1009 28 4000 1.5 350 14:45 06.04.2020
5398 Thunderstorm 35 1009 28 4000 1.5 350 14:45 06.04.2020
5399 Thunderstorm 35 1009 28 4000 1.5 350 14:45 06.04.2020
5400 Thunderstorm 35 1009 28 4000 1.5 350 14:45 06.04.2020
5401 Haze 37 1009 23 5000 1.96 263 13:44 06.04.2020
5402 Haze 37 1009 23 5000 1.96 263 13:44 06.04.2020
5403 Haze 37 1009 23 5000 1.96 263 13:44 06.04.2020
5404 Haze 37 1009 23 5000 1.96 263 13:44 06.04.2020
5405 Haze 37 1009 23 5000 1.96 263 13:44 06.04.2020
5406 Haze 37 1009 23 5000 1.96 263 13:21 06.04.2020
5407 Haze 37 1009 23 5000 1.96 263 13:21 06.04.2020
5408 Haze 37 1009 23 5000 1.96 263 13:21 06.04.2020
5409 Haze 37 1009 23 5000 1.96 263 13:21 06.04.2020
5410 Clouds 37 1009 23 6000 1.5 160 12:28 06.04.2020
5411 Clouds 37 1011 23 6000 2.1 150 12:02 06.04.2020
5412 Clouds 37 1011 23 6000 2.1 150 11:40 06.04.2020
5413 Clouds 37 1011 23 6000 2.1 150 11:40 06.04.2020
5414 Clouds 37 1011 23 6000 2.1 150 11:40 06.04.2020
5415 Clouds 37 1011 23 6000 2.1 150 11:40 06.04.2020
5416 Clouds 37 1011 23 6000 2.1 150 11:40 06.04.2020
5417 Clouds 37 1012 22 6000 3.1 200 10:53 06.04.2020
5418 Clouds 37 1012 22 6000 3.1 200 10:53 06.04.2020
5419 Clouds 37 1012 22 6000 3.1 200 10:53 06.04.2020
5420 Clouds 37 1012 22 6000 3.1 200 10:53 06.04.2020
5421 Clouds 37 1012 22 6000 3.1 200 10:53 06.04.2020
5422 Clouds 37 1012 22 6000 3.1 200 10:23 06.04.2020
5423 Clouds 37 1012 22 6000 3.1 200 10:23 06.04.2020
5424 Clouds 37 1012 22 6000 3.1 200 10:23 06.04.2020
5425 Clouds 37 1012 22 6000 3.1 200 10:23 06.04.2020
5426 Clouds 37 1012 22 6000 3.1 200 10:23 06.04.2020
5427 Clouds 36 1013 25 6000 2.6 130 09:55 06.04.2020
5428 Clouds 36 1013 25 6000 2.6 130 09:55 06.04.2020
5429 Clouds 36 1013 25 6000 2.6 130 09:54 06.04.2020
5430 Clouds 36 1013 25 6000 2.6 130 09:54 06.04.2020
5431 Clouds 36 1013 25 6000 2.6 130 09:54 06.04.2020
5432 Clouds 36 1013 25 6000 2.6 130 09:24 06.04.2020
5433 Clouds 35 1014 28 6000 2.1 200 08:55 06.04.2020
5434 Clouds 35 1014 28 6000 2.1 200 08:55 06.04.2020
5435 Clouds 35 1014 28 6000 2.1 200 08:35 06.04.2020
5436 Clouds 35 1014 28 6000 2.1 200 08:35 06.04.2020
5437 Clouds 35 1014 28 6000 2.1 200 08:35 06.04.2020
5438 Clouds 33 1014 36 6000 1.5 110 07:55 06.04.2020
5439 Clouds 33 1014 36 6000 1.5 110 07:18 06.04.2020
5440 Clouds 31 1015 43 6000 1 100 06:25 06.04.2020
5441 Haze 29 1014 51 4000 0.5 60 05:22 06.04.2020
5442 Haze 29 1014 51 4000 0.5 60 05:22 06.04.2020
5443 Haze 26 1014 61 4000 1 350 05:03 06.04.2020
5444 Haze 23 1013 73 4000 2.65 119 03:28 06.04.2020
5445 Haze 23 1012 69 4000 0.81 72 02:48 06.04.2020
5446 Haze 24 1012 69 4000 1 270 01:52 06.04.2020
5447 Haze 23 1011 69 4000 0.59 42 00:49 06.04.2020
5448 Haze 23 1011 69 4000 0.59 42 00:26 06.04.2020
5449 Haze 25 1012 61 4000 1.4 125 23:47 05.04.2020
5450 Haze 25 1012 61 4000 1.4 125 23:29 05.04.2020
5451 Haze 25 1012 61 4000 1.4 125 23:29 05.04.2020
5452 Haze 25 1012 61 4000 1.4 125 23:29 05.04.2020
5453 Haze 27 1013 54 4000 1 20 22:56 05.04.2020
5454 Haze 27 1013 54 4000 1 20 22:38 05.04.2020
5455 Haze 27 1013 54 4000 1 20 22:19 05.04.2020
5456 Haze 27 1013 54 4000 1 20 21:57 05.04.2020
5457 Haze 27 1013 54 4000 1 20 21:39 05.04.2020
5458 Haze 27 1013 54 4000 2.1 20 21:20 05.04.2020
5459 Haze 27 1013 54 4000 2.1 20 21:20 05.04.2020
5460 Haze 27 1013 54 4000 2.1 20 21:20 05.04.2020
5461 -273 0 0 0 0 0 21:20 05.04.2020
5462 Haze 29 1014 48 4000 3.1 340 20:20 05.04.2020
5463 Haze 29 1014 48 4000 3.1 340 20:20 05.04.2020
5464 Haze 29 1014 48 4000 3.1 340 20:20 05.04.2020
5465 Haze 28 1013 45 4000 1 80 19:40 05.04.2020
5466 Haze 28 1013 45 4000 1 80 19:22 05.04.2020
5467 Haze 28 1013 51 5000 1 100 18:44 05.04.2020
5468 Haze 30 1012 42 5000 2.64 49 17:58 05.04.2020
5469 Haze 30 1012 42 5000 2.64 49 17:58 05.04.2020
5470 Haze 30 1012 42 5000 2.64 49 17:39 05.04.2020
5471 Haze 30 1012 42 5000 2.64 49 17:39 05.04.2020
5472 Haze 30 1012 42 5000 2.64 49 17:39 05.04.2020
5473 Haze 30 1012 42 5000 2.64 49 17:39 05.04.2020
5474 Haze 30 1012 42 5000 2.64 49 17:39 05.04.2020
5475 Haze 30 1012 42 5000 2.64 49 17:20 05.04.2020
5476 Haze 30 1012 42 5000 2.64 49 17:20 05.04.2020
5477 Haze 31 1012 43 5000 2.64 49 16:21 05.04.2020
5478 Haze 33 1011 38 5000 1.5 30 15:55 05.04.2020
5479 Haze 33 1011 38 5000 1.5 30 15:37 05.04.2020
5480 Haze 33 1011 38 5000 1.5 30 15:19 05.04.2020
5481 Haze 35 1011 32 5000 1 20 14:47 05.04.2020
5482 Haze 35 1011 32 5000 1 20 14:47 05.04.2020
5483 Haze 35 1011 32 5000 1 20 14:47 05.04.2020
5484 Haze 35 1011 32 5000 1 20 14:47 05.04.2020
5485 Haze 35 1011 32 5000 1 20 14:47 05.04.2020
5486 Clouds 36 1011 26 6000 1.5 130 13:44 05.04.2020
5487 Clouds 36 1011 23 6000 1.5 200 12:54 05.04.2020
5488 Clouds 36 1011 23 6000 1.5 200 12:54 05.04.2020
5489 Clouds 36 1011 23 6000 1.5 200 12:54 05.04.2020
5490 Clouds 36 1011 23 6000 1.5 200 12:54 05.04.2020
5491 Clouds 36 1011 23 6000 1.5 200 12:54 05.04.2020
5492 Clouds 35 1012 30 6000 3.21 229 11:44 05.04.2020
5493 Clouds 35 1012 30 6000 3.21 229 11:21 05.04.2020
5494 Clouds 34 1013 34 6000 1 180 10:59 05.04.2020
5495 Clouds 34 1013 34 6000 1 180 10:41 05.04.2020
5496 Clouds 34 1013 34 6000 1 180 10:18 05.04.2020
5497 Clouds 33 1014 38 6000 1.5 90 09:43 05.04.2020
5498 Clouds 33 1014 38 6000 1.5 90 09:24 05.04.2020
5499 Clouds 33 1014 38 6000 1.5 90 09:24 05.04.2020
5500 Clouds 33 1014 38 6000 1.5 90 09:24 05.04.2020
5501 Clouds 33 1014 38 6000 1.5 90 09:24 05.04.2020
5502 Clouds 33 1014 38 6000 1.5 90 09:24 05.04.2020
5503 Clear 30 1016 55 6000 1.5 90 07:42 05.04.2020
5504 Haze 25 1015 73 4000 2.1 50 04:36 05.04.2020
5505 Haze 23 1014 78 3000 1.5 60 03:33 05.04.2020
5506 Haze 23 1012 83 3000 1 30 02:52 05.04.2020
5507 Haze 23 1012 83 3000 1.5 40 01:48 05.04.2020
5508 Haze 23 1012 83 3000 1.5 40 01:28 05.04.2020
5509 Haze 23 1012 83 3000 1.5 50 00:44 05.04.2020
5510 Haze 23 1012 83 3000 1.5 50 00:21 05.04.2020
5511 Haze 23 1012 83 3000 1.82 102 23:55 04.04.2020
5512 Haze 23 1012 83 3000 1.82 102 23:37 04.04.2020
5513 Haze 23 1012 83 3000 1.82 102 23:19 04.04.2020
5514 Haze 23 1013 83 3000 1.82 102 22:40 04.04.2020
5515 Haze 23 1013 83 3000 1.82 102 22:22 04.04.2020
5516 Haze 23 1013 83 3000 1.82 102 21:59 04.04.2020
5517 Haze 23 1013 83 3000 1.82 102 21:59 04.04.2020
5518 Haze 23 1013 83 3000 1.82 102 21:40 04.04.2020
5519 Haze 23 1013 83 3000 3.02 75 21:19 04.04.2020
5520 Haze 24 1013 88 3000 3.02 75 20:59 04.04.2020
5521 Haze 24 1013 88 3000 3.02 75 20:40 04.04.2020
5522 Haze 24 1013 88 3000 3.02 75 20:21 04.04.2020
5523 Thunderstorm 23 1013 88 3000 2.1 160 19:57 04.04.2020
5524 Thunderstorm 23 1013 88 3000 2.1 160 19:37 04.04.2020
5525 Thunderstorm 23 1013 88 3000 2.1 160 19:19 04.04.2020
5526 Thunderstorm 24 1014 78 3000 1.5 320 18:56 04.04.2020
5527 Thunderstorm 25 1014 69 3000 1 300 18:38 04.04.2020
5528 Thunderstorm 25 1014 69 3000 1 300 18:19 04.04.2020
5529 Thunderstorm 26 1013 69 3000 3.1 350 17:41 04.04.2020
5530 Thunderstorm 25 1013 73 3000 3.1 20 17:21 04.04.2020
5531 Thunderstorm 25 1012 69 3000 3.6 10 16:59 04.04.2020
5532 Thunderstorm 25 1012 69 3000 3.6 10 16:41 04.04.2020
5533 Haze 26 1012 65 3000 3.6 50 16:22 04.04.2020
5534 Haze 26 1011 65 3000 3.1 60 15:55 04.04.2020
5535 Haze 26 1010 69 3000 5.1 30 15:36 04.04.2020
5536 Haze 26 1010 69 3000 5.1 30 15:18 04.04.2020
5537 Thunderstorm 28 1010 61 3000 5.1 60 14:42 04.04.2020
5538 Haze 35 1009 30 4000 3.1 190 14:22 04.04.2020
5539 Haze 36 1009 32 4000 4.1 200 13:56 04.04.2020
5540 Haze 36 1009 32 4000 4.1 200 13:37 04.04.2020
5541 Haze 36 1009 32 4000 4.1 200 13:19 04.04.2020
5542 Haze 36 1009 28 4000 4.1 220 12:44 04.04.2020
5543 Haze 36 1009 28 4000 4.1 220 12:24 04.04.2020
5544 Haze 36 1011 25 4000 3.1 170 11:59 04.04.2020
5545 Haze 36 1011 25 4000 3.1 170 11:38 04.04.2020
5546 Haze 36 1011 25 4000 3.1 170 11:19 04.04.2020
5547 Haze 35 1012 30 4000 3.1 190 10:56 04.04.2020
5548 Haze 35 1012 30 4000 3.1 190 10:37 04.04.2020
5549 Haze 35 1012 30 4000 3.1 190 10:19 04.04.2020
5550 Haze 35 1013 32 4000 5.1 140 09:54 04.04.2020
5551 Haze 35 1013 32 4000 5.1 140 09:36 04.04.2020
5552 Haze 35 1013 32 4000 5.1 140 09:18 04.04.2020
5553 Haze 33 1014 38 4000 3.6 140 08:41 04.04.2020
5554 Haze 33 1014 38 4000 3.6 140 08:21 04.04.2020
5555 Haze 32 1014 43 4000 2.1 70 07:44 04.04.2020
5556 Haze 32 1014 43 4000 2.1 70 07:26 04.04.2020
5557 Haze 30 1015 51 4000 1.5 90 06:53 04.04.2020
5558 Haze 30 1015 51 4000 1.5 90 06:20 04.04.2020
5559 Haze 28 1014 58 4000 1 80 05:42 04.04.2020
5560 Haze 28 1014 58 4000 1 80 05:24 04.04.2020
5561 Haze 25 1013 69 3000 1 80 04:31 04.04.2020
5562 Mist 23 1012 78 3000 0.5 70 03:51 04.04.2020
5563 Mist 22 1012 83 3000 1.77 53 02:52 04.04.2020
5564 Mist 22 1012 83 3000 1.77 53 02:33 04.04.2020
5565 Mist 22 1012 83 3000 1.43 51 01:55 04.04.2020
5566 Mist 22 1012 83 3000 1.43 51 01:25 04.04.2020
5567 Mist 23 1011 78 3000 1.43 51 00:49 04.04.2020
5568 Mist 23 1011 78 3000 1.43 51 00:30 04.04.2020
5569 Haze 25 1011 65 3000 1.5 20 23:40 03.04.2020
5570 Haze 25 1011 65 3000 1.5 20 23:21 03.04.2020
5571 Haze 25 1012 69 3000 1.5 20 22:58 03.04.2020
5572 Haze 25 1012 69 3000 1.5 20 22:39 03.04.2020
5573 Haze 25 1012 69 3000 1.5 20 22:18 03.04.2020
5574 Haze 25 1012 69 3000 1.5 20 22:18 03.04.2020
5575 Haze 23 1012 78 3000 1 120 21:44 03.04.2020
5576 Haze 23 1012 78 3000 1 120 21:25 03.04.2020
5577 Haze 25 1012 65 3000 1.55 111 20:57 03.04.2020
5578 Haze 25 1012 65 3000 1.55 111 20:37 03.04.2020
5579 Haze 25 1012 65 3000 1.55 111 20:19 03.04.2020
5580 Haze 26 1012 65 3000 1 90 19:57 03.04.2020
5581 Haze 26 1012 65 3000 1 90 19:39 03.04.2020
5582 Haze 26 1012 65 3000 1 90 19:21 03.04.2020
5583 Haze 27 1012 57 3000 1.5 90 18:59 03.04.2020
5584 Haze 27 1012 57 3000 1.5 90 18:41 03.04.2020
5585 Haze 27 1012 57 3000 1.5 90 18:22 03.04.2020
5586 Haze 29 1012 51 3000 7.7 160 17:55 03.04.2020
5587 Haze 29 1012 51 3000 7.7 160 17:37 03.04.2020
5588 Haze 29 1012 51 3000 7.7 160 17:18 03.04.2020
5589 Haze 31 1011 43 3000 7.7 170 16:44 03.04.2020
5590 Haze 31 1010 45 4000 0.5 80 16:22 03.04.2020
5591 Haze 33 1009 41 4000 1 50 15:58 03.04.2020
5592 Haze 33 1009 41 4000 1 50 15:39 03.04.2020
5593 Haze 33 1009 41 4000 1 50 15:20 03.04.2020
5594 Clouds 36 1008 18 0 1.04 199 14:55 03.04.2020
5595 Clouds 36 1008 18 0 1.04 199 14:37 03.04.2020
5596 Haze 35 1009 36 5000 1 10 14:19 03.04.2020
5597 Haze 35 1009 36 5000 1 10 13:42 03.04.2020
5598 Haze 35 1009 36 5000 1 10 13:24 03.04.2020
5599 Haze 36 1009 32 5000 1 110 12:45 03.04.2020
5600 Haze 36 1009 32 5000 1 110 12:21 03.04.2020
5601 Haze 35 1010 34 5000 2.11 165 11:59 03.04.2020
5602 Haze 35 1010 34 5000 2.11 165 11:40 03.04.2020
5603 Haze 35 1010 34 5000 2.11 165 11:21 03.04.2020
5604 Haze 35 1011 32 5000 2.1 70 10:59 03.04.2020
5605 Haze 35 1011 32 5000 2.1 70 10:39 03.04.2020
5606 Haze 35 1011 32 5000 2.1 70 10:20 03.04.2020
5607 Haze 34 1012 36 5000 2.6 90 09:59 03.04.2020
5608 Haze 34 1012 36 5000 2.6 90 09:40 03.04.2020
5609 Haze 34 1012 36 5000 2.1 120 09:22 03.04.2020
5610 Haze 33 1013 36 5000 4.1 120 08:56 03.04.2020
5611 Haze 33 1013 36 5000 4.1 120 08:38 03.04.2020
5612 Haze 33 1013 36 5000 4.1 120 08:20 03.04.2020
5613 Haze 33 1013 29 5000 4.1 100 07:46 03.04.2020
5614 Haze 33 1013 29 5000 4.1 100 07:28 03.04.2020
5615 Haze 31 1014 27 5000 2.6 60 06:41 03.04.2020
5616 Haze 31 1014 27 5000 2.6 60 06:22 03.04.2020
5617 Haze 29 1013 25 5000 3.6 60 05:39 03.04.2020
5618 Haze 25 1013 33 5000 1 20 03:42 03.04.2020
5619 Haze 25 1011 36 4000 1.5 20 02:56 03.04.2020
5620 Haze 26 1011 39 4000 1.5 20 02:18 03.04.2020
5621 Haze 26 1010 39 4000 1 10 01:22 03.04.2020
5622 Haze 24 1010 47 4000 3.54 31 00:34 03.04.2020
5623 Haze 23 1010 53 4000 4.14 23 23:58 02.04.2020
5624 Haze 23 1010 53 4000 4.14 23 23:39 02.04.2020
5625 Haze 27 1010 36 4000 1 20 23:21 02.04.2020
5626 Haze 27 1010 39 4000 1 10 22:57 02.04.2020
5627 Haze 25 1010 50 4000 1 340 22:37 02.04.2020
5628 Haze 25 1010 50 4000 1 340 22:18 02.04.2020
5629 Haze 29 1010 32 4000 1 30 21:38 02.04.2020
5630 Haze 29 1010 32 4000 1 30 21:19 02.04.2020
5631 Haze 29 1010 35 4000 1.5 30 20:57 02.04.2020
5632 Haze 29 1010 35 4000 1.5 30 20:39 02.04.2020
5633 Haze 29 1011 35 4000 2.1 20 20:19 02.04.2020
5634 Haze 30 1011 35 4000 2.1 330 19:43 02.04.2020
5635 Haze 29 1011 35 4000 1 20 19:21 02.04.2020
5636 Haze 31 1011 31 4000 2.1 280 19:21 02.04.2020
5637 Haze 31 1011 31 4000 2.1 280 18:58 02.04.2020
5638 Haze 31 1011 33 4000 1 310 18:39 02.04.2020
5639 Haze 29 1010 39 4000 2.1 140 18:20 02.04.2020
5640 Haze 29 1010 39 4000 2.1 140 17:55 02.04.2020
5641 Haze 30 1010 30 4000 1.76 310 17:37 02.04.2020
5642 Haze 30 1010 30 4000 1.76 310 17:18 02.04.2020
5643 Haze 31 1009 31 4000 1.76 310 16:55 02.04.2020
5644 Haze 32 1009 27 4000 1.76 310 16:36 02.04.2020
5645 Haze 32 1009 27 4000 1.76 310 16:36 02.04.2020
5646 Haze 32 1009 27 4000 1.76 310 16:18 02.04.2020
5647 Haze 32 1009 29 4000 1.76 310 15:43 02.04.2020
5648 Haze 32 1009 29 4000 1.76 310 15:43 02.04.2020
5649 Haze 33 1008 26 5000 2.9 263 15:20 02.04.2020
5650 Haze 34 1008 28 5000 2.9 263 14:58 02.04.2020
5651 Haze 34 1008 28 5000 2.9 263 14:58 02.04.2020
5652 Haze 34 1008 28 5000 2.9 263 14:39 02.04.2020
5653 Haze 37 1008 18 5000 1 110 14:19 02.04.2020
5654 Haze 37 1008 18 5000 1 110 13:55 02.04.2020
5655 Haze 37 1008 17 5000 3.87 274 13:37 02.04.2020
5656 Haze 37 1008 17 5000 3.87 274 13:19 02.04.2020
5657 Haze 37 1008 16 5000 1.5 150 12:46 02.04.2020
5658 Haze 37 1008 16 5000 1.5 290 12:20 02.04.2020
5659 Haze 37 1008 16 5000 1.5 290 12:20 02.04.2020
5660 Haze 37 1008 17 5000 1 260 11:58 02.04.2020
5661 Haze 37 1009 16 5000 2.1 340 11:39 02.04.2020
5662 Haze 37 1008 17 5000 1 260 11:39 02.04.2020
5663 Haze 37 1008 17 5000 1 260 11:39 02.04.2020
5664 Haze 37 1009 16 5000 2.1 340 11:21 02.04.2020
5665 Haze 37 1009 16 5000 3.85 256 10:57 02.04.2020
5666 Haze 37 1010 16 4000 2.1 350 10:39 02.04.2020
5667 Haze 37 1010 16 4000 2.1 350 10:21 02.04.2020
5668 Haze 36 1011 18 4000 1 60 09:59 02.04.2020
5669 Haze 36 1011 18 4000 1 60 09:41 02.04.2020
5670 Haze 36 1011 18 4000 1 60 09:21 02.04.2020
5671 Haze 34 1012 21 4000 1 110 08:48 02.04.2020
5672 Haze 34 1012 21 4000 1 110 08:28 02.04.2020
5673 Haze 33 1012 22 4000 1.5 50 07:59 02.04.2020
5674 Haze 33 1012 22 4000 1.5 50 07:40 02.04.2020
5675 Haze 33 1012 22 4000 1.5 50 07:19 02.04.2020
5676 Haze 31 1013 29 4000 1 60 06:25 02.04.2020
5677 Haze 28 1012 39 4000 4.31 39 05:46 02.04.2020
5678 Haze 25 1011 41 4000 4.31 39 04:58 02.04.2020
5679 Haze 24 1009 38 4000 1 300 02:21 02.04.2020
5680 Haze 24 1008 44 4000 3.12 351 01:27 02.04.2020
5681 Haze 23 1008 46 4000 3.12 351 00:41 02.04.2020
5682 Haze 24 1009 38 4000 1 290 00:20 02.04.2020
5683 Haze 24 1009 38 4000 1 290 23:39 01.04.2020
5684 Haze 25 1009 38 4000 2.28 337 23:19 01.04.2020
5685 Haze 25 1009 38 4000 1 310 22:57 01.04.2020
5686 Haze 25 1009 38 4000 1 310 22:57 01.04.2020
5687 Haze 25 1009 38 4000 1 310 22:38 01.04.2020
5688 Haze 25 1010 38 4000 2.1 310 22:19 01.04.2020
5689 Haze 25 1010 38 4000 2.1 310 22:19 01.04.2020
5690 Haze 25 1010 50 4000 1.5 300 21:41 01.04.2020
5691 Haze 25 1010 50 4000 1.5 300 21:19 01.04.2020
5692 Haze 25 1010 50 4000 1.5 300 20:56 01.04.2020
5693 Haze 25 1010 50 4000 1.5 300 20:38 01.04.2020
5694 Haze 25 1010 53 4000 2.8 321 20:19 01.04.2020
5695 Haze 25 1011 53 4000 1 250 19:58 01.04.2020
5696 Haze 25 1011 57 4000 1 190 19:38 01.04.2020
5697 Haze 25 1011 57 4000 1 190 19:19 01.04.2020
5698 Haze 27 1011 44 4000 2.8 321 18:42 01.04.2020
5699 Haze 29 1011 39 4000 1.5 300 18:23 01.04.2020
5700 Haze 29 1011 42 4000 3.69 327 17:57 01.04.2020
5701 Haze 29 1010 37 4000 3.69 327 17:37 01.04.2020
5702 Haze 29 1010 37 4000 3.69 327 17:19 01.04.2020
5703 Haze 29 1010 35 4000 3.69 327 16:57 01.04.2020
5704 Haze 30 1010 33 4000 1 200 16:39 01.04.2020
5705 Haze 30 1010 33 4000 1 200 16:20 01.04.2020
5706 Haze 32 1009 27 4000 0.5 240 15:56 01.04.2020
5707 Haze 34 1009 24 5000 2.1 280 15:37 01.04.2020
5708 Haze 34 1009 24 5000 2.1 280 15:18 01.04.2020
5709 Haze 36 1009 20 5000 2.6 270 14:40 01.04.2020
5710 Haze 37 1009 19 5000 3.6 280 14:22 01.04.2020
5711 Haze 37 1009 19 5000 3.1 270 13:59 01.04.2020
5712 Clouds 37 1009 19 6000 2.1 270 13:39 01.04.2020
5713 Clouds 37 1009 19 6000 2.1 270 13:20 01.04.2020
5714 Clouds 37 1009 19 6000 1 240 12:58 01.04.2020
5715 Clouds 36 1009 23 6000 1.5 170 12:40 01.04.2020
5716 Clouds 36 1009 23 6000 1.5 170 12:21 01.04.2020
5717 Clouds 37 1009 22 6000 1.5 120 11:56 01.04.2020
5718 Clouds 37 1010 25 6000 3.1 170 11:37 01.04.2020
5719 Clouds 37 1010 25 6000 3.1 170 11:18 01.04.2020
5720 Clouds 37 1010 25 6000 3.1 170 10:39 01.04.2020
5721 Clouds 36 1011 25 6000 3.1 170 10:21 01.04.2020
5722 Clear 36 1011 25 6000 1.5 270 09:59 01.04.2020
5723 Clear 36 1011 25 6000 1.5 270 09:59 01.04.2020
5724 Clear 36 1011 25 6000 1.5 270 09:40 01.04.2020
5725 Clear 35 1012 26 6000 1.5 220 09:20 01.04.2020
5726 Clear 34 1013 30 6000 2.1 220 08:44 01.04.2020
5727 Clear 34 1013 30 6000 2.1 220 08:19 01.04.2020
5728 Clear 34 1013 28 6000 3.1 190 07:56 01.04.2020
5729 Clear 33 1014 33 6000 2.1 240 07:38 01.04.2020
5730 Clear 33 1014 33 6000 2.1 240 07:18 01.04.2020
5731 Clear 31 1014 38 6000 2.1 180 06:41 01.04.2020
5732 Clear 31 1014 38 6000 2.1 180 06:20 01.04.2020
5733 Clear 29 1014 42 6000 1 240 05:24 01.04.2020
5734 Haze 21 1012 77 4000 2.12 307 03:39 01.04.2020
5735 Haze 22 1012 73 4000 0.82 224 02:59 01.04.2020
5736 Haze 22 1012 73 4000 0.82 224 02:31 01.04.2020
5737 Haze 21 1011 77 4000 2.1 200 01:49 01.04.2020
5738 Haze 21 1011 77 4000 2.1 200 01:24 01.04.2020
5739 Haze 23 1011 69 4000 1.15 275 00:47 01.04.2020
5740 Haze 23 1011 69 4000 1.15 275 00:21 01.04.2020
5741 Haze 25 1011 61 4000 1.11 227 23:54 31.03.2020
5742 Haze 25 1011 61 4000 1.11 227 23:36 31.03.2020
5743 Haze 25 1011 61 4000 1.11 227 23:18 31.03.2020
5744 Haze 26 1011 57 4000 1 20 22:40 31.03.2020
5745 Haze 26 1011 57 4000 1 20 22:40 31.03.2020
5746 Haze 26 1011 57 4000 1 20 22:20 31.03.2020
5747 Haze 26 1011 57 4000 1 20 21:58 31.03.2020
5748 Haze 27 1012 51 4000 1.5 320 21:39 31.03.2020
5749 Haze 27 1012 51 4000 1.5 320 21:21 31.03.2020
5750 Haze 27 1013 47 4000 1.5 30 20:56 31.03.2020
5751 Haze 27 1013 47 4000 1.5 30 20:37 31.03.2020
5752 Haze 27 1013 47 4000 1.5 30 20:18 31.03.2020
5753 Haze 27 1013 51 4000 1 200 19:55 31.03.2020
5754 Haze 27 1013 51 4000 1 200 19:37 31.03.2020
5755 Haze 27 1012 54 4000 1 80 19:18 31.03.2020
5756 Haze 27 1012 54 4000 1 80 18:41 31.03.2020
5757 Haze 29 1012 42 4000 1 20 18:20 31.03.2020
5758 Haze 29 1012 42 4000 1 20 17:56 31.03.2020
5759 Haze 29 1012 42 4000 1 20 17:56 31.03.2020
5760 Haze 29 1012 42 4000 1 20 17:56 31.03.2020
5761 Haze 29 1012 42 4000 1 20 17:38 31.03.2020
5762 Haze 29 1012 42 4000 1 20 17:20 31.03.2020
5763 Haze 30 1012 37 4000 2.01 314 16:42 31.03.2020
5764 Haze 31 1011 33 4000 2.6 50 16:20 31.03.2020
5765 Haze 31 1011 31 5000 1 50 15:59 31.03.2020
5766 Haze 31 1011 31 5000 1 50 15:41 31.03.2020
5767 Haze 33 1011 29 5000 1 290 15:23 31.03.2020
5768 Haze 35 1010 23 5000 3.1 320 14:58 31.03.2020
5769 Haze 35 1010 23 5000 3.1 320 14:40 31.03.2020
5770 Haze 35 1010 30 5000 2.1 180 14:21 31.03.2020
5771 Clouds 35 1009 30 6000 3.6 190 13:44 31.03.2020
5772 Clouds 36 1009 28 6000 2.1 210 13:20 31.03.2020
5773 Clouds 36 1009 28 6000 3.1 180 12:59 31.03.2020
5774 Clouds 36 1010 28 6000 4.1 250 12:40 31.03.2020
5775 Clouds 36 1010 28 6000 4.1 250 12:19 31.03.2020
5776 Clouds 36 1010 28 6000 4.1 250 12:19 31.03.2020
5777 Clouds 37 1010 29 6000 4.1 230 11:41 31.03.2020
5778 Clouds 36 1011 30 6000 2.6 190 11:21 31.03.2020
5779 Clouds 36 1011 30 6000 2.6 210 10:59 31.03.2020
5780 Clouds 36 1012 32 6000 2.6 180 10:41 31.03.2020
5781 Clouds 36 1012 32 6000 2.6 180 10:22 31.03.2020
5782 Clouds 34 1013 36 6000 1 180 09:59 31.03.2020
5783 Clouds 34 1013 36 6000 1 180 09:41 31.03.2020
5784 Clouds 34 1013 36 6000 1 180 09:22 31.03.2020
5785 Clouds 33 1014 36 6000 2.6 200 08:57 31.03.2020
5786 Clouds 33 1014 36 6000 2.6 200 08:38 31.03.2020
5787 Clouds 33 1014 36 6000 2.6 200 08:19 31.03.2020
5788 Clouds 31 1015 38 6000 1 180 07:56 31.03.2020
5789 Clouds 31 1015 38 6000 1 180 07:38 31.03.2020
5790 Clouds 31 1015 38 6000 1 180 07:19 31.03.2020
5791 Clouds 28 1015 48 6000 1 310 06:46 31.03.2020
5792 Clouds 28 1015 48 6000 1 310 06:20 31.03.2020
5793 Clouds 32 1013 27 0 2.22 285 05:39 31.03.2020
5794 Haze 23 1013 69 4000 2.1 290 03:34 31.03.2020
5795 Haze 24 1012 60 3000 3.1 210 02:18 31.03.2020
5796 Haze 23 1012 69 3000 3.1 270 01:45 31.03.2020
5797 Haze 24 1012 64 3000 4.1 220 00:47 31.03.2020
5798 Haze 24 1012 64 3000 4.1 220 00:25 31.03.2020
5799 Thunderstorm 24 1013 73 3000 7.7 220 23:42 30.03.2020
5800 Thunderstorm 24 1013 73 3000 7.7 220 23:42 30.03.2020
5801 Thunderstorm 24 1013 73 3000 7.7 220 23:21 30.03.2020
5802 Haze 24 1012 78 3000 1 270 22:59 30.03.2020
5803 Haze 24 1012 78 3000 1 270 22:41 30.03.2020
5804 Haze 24 1012 78 3000 1 270 22:22 30.03.2020
5805 Haze 26 1012 65 3000 4.14 255 21:58 30.03.2020
5806 Haze 26 1012 65 3000 4.14 255 21:39 30.03.2020
5807 Haze 26 1012 65 3000 4.14 255 21:21 30.03.2020
5808 Haze 26 1012 61 3000 1.02 292 20:59 30.03.2020
5809 Haze 26 1012 61 3000 1.02 292 20:39 30.03.2020
5810 Haze 26 1012 61 3000 1.02 292 20:21 30.03.2020
5811 Haze 27 1013 65 3000 1.5 300 19:58 30.03.2020
5812 Haze 27 1013 65 3000 1.5 300 19:39 30.03.2020
5813 Haze 27 1013 65 3000 1.5 300 19:21 30.03.2020
5814 Haze 26 1013 65 4000 1.02 292 18:56 30.03.2020
5815 Haze 26 1013 65 4000 1.02 292 18:36 30.03.2020
5816 Haze 26 1013 65 4000 1.14 313 18:18 30.03.2020
5817 Haze 28 1012 61 4000 1.14 313 17:55 30.03.2020
5818 Haze 28 1012 61 4000 1.14 313 17:36 30.03.2020
5819 Haze 28 1012 61 4000 1.14 313 17:18 30.03.2020
5820 Haze 30 1011 48 4000 1 180 16:41 30.03.2020
5821 Haze 30 1011 48 4000 1 180 16:21 30.03.2020
5822 Haze 30 1011 48 4000 1 180 16:21 30.03.2020
5823 Haze 31 1011 45 5000 1 190 15:56 30.03.2020
5824 Haze 31 1011 45 5000 1 190 15:38 30.03.2020
5825 Haze 31 1011 45 5000 1 190 15:20 30.03.2020
5826 Clouds 34 1010 32 6000 2.1 180 14:58 30.03.2020
5827 Clouds 34 1010 32 6000 2.1 180 14:38 30.03.2020
5828 Clouds 34 1010 32 6000 2.1 180 14:19 30.03.2020
5829 Clouds 34 1010 30 7000 3.1 180 13:57 30.03.2020
5830 Clouds 34 1010 30 7000 3.1 180 13:38 30.03.2020
5831 Clouds 34 1010 30 7000 3.1 180 13:19 30.03.2020
5832 Clouds 35 1011 26 7000 3.1 180 12:45 30.03.2020
5833 Clouds 35 1011 26 7000 3.1 180 12:21 30.03.2020
5834 Clouds 35 1011 26 7000 3.1 180 12:21 30.03.2020
5835 Clouds 34 1012 34 7000 1 190 11:58 30.03.2020
5836 Clouds 34 1012 34 7000 1 190 11:58 30.03.2020
5837 Clouds 34 1012 34 7000 1 190 11:40 30.03.2020
5838 Clouds 34 1012 34 7000 1 190 11:21 30.03.2020
5839 Haze 32 1013 33 5000 2.1 240 10:55 30.03.2020
5840 Haze 32 1013 33 5000 2.1 240 10:37 30.03.2020
5841 Haze 32 1013 33 5000 2.1 240 10:18 30.03.2020
5842 Haze 31 1013 40 5000 2.1 220 09:40 30.03.2020
5843 Haze 30 1014 48 5000 3.1 112 09:19 30.03.2020
5844 Haze 28 1015 54 4000 3.1 112 08:54 30.03.2020
5845 Haze 27 1015 54 3000 1 120 08:36 30.03.2020
5846 Haze 27 1015 54 3000 1 120 08:18 30.03.2020
5847 Haze 25 1015 73 3000 1 40 07:41 30.03.2020
5848 Haze 25 1015 73 3000 1 40 07:20 30.03.2020
5849 Haze 23 1015 78 3000 3.1 112 06:39 30.03.2020
5850 Haze 23 1015 78 3000 3.15 80 06:19 30.03.2020
5851 Haze 22 1016 83 3000 3.15 80 05:39 30.03.2020
5852 Haze 21 1015 88 3000 3.15 80 04:28 30.03.2020
5853 Rain 22 1015 83 3000 3.15 80 03:53 30.03.2020
5854 Haze 23 1012 73 3000 3.1 360 02:44 30.03.2020
5855 Mist 22 1013 78 3000 3.1 320 01:54 30.03.2020
5856 Thunderstorm 23 1013 73 3000 4.1 250 00:57 30.03.2020
5857 Thunderstorm 23 1013 73 3000 4.1 250 00:26 30.03.2020
5858 Thunderstorm 23 1013 78 3000 1 300 23:55 29.03.2020
5859 Haze 22 1012 88 3000 1 300 23:36 29.03.2020
5860 Haze 22 1012 88 3000 1 300 23:18 29.03.2020
5861 Haze 22 1012 78 3000 1 30 22:40 29.03.2020
5862 Haze 23 1012 73 3000 1 40 22:20 29.03.2020
5863 Haze 23 1012 78 3000 1.5 10 21:59 29.03.2020
5864 Haze 23 1012 78 3000 1.5 10 21:37 29.03.2020
5865 Haze 22 1012 83 3000 1 120 21:19 29.03.2020
5866 Haze 22 1013 88 3000 2.1 150 20:55 29.03.2020
5867 Haze 22 1013 88 3000 2.1 10 20:37 29.03.2020
5868 Haze 22 1013 88 3000 2.1 10 20:18 29.03.2020
5869 Haze 22 1013 88 3000 2.1 10 20:18 29.03.2020
5870 Haze 22 1013 88 3000 2.1 10 20:18 29.03.2020
5871 Haze 22 1013 94 3000 1 150 19:55 29.03.2020
5872 Haze 22 1014 88 3000 1 360 19:37 29.03.2020
5873 Haze 22 1013 88 3000 2.1 100 19:19 29.03.2020
5874 Haze 22 1013 88 3000 2.1 100 18:55 29.03.2020
5875 Haze 22 1013 88 3000 2.1 100 18:55 29.03.2020
5876 Thunderstorm 21 1013 94 2000 2.1 90 18:37 29.03.2020
5877 Thunderstorm 21 1014 94 1200 2.1 90 18:18 29.03.2020
5878 Thunderstorm 21 1014 94 1200 2.1 90 17:54 29.03.2020
5879 Thunderstorm 21 1015 94 1200 3.1 270 17:36 29.03.2020
5880 Thunderstorm 21 1015 94 1200 3.1 270 17:18 29.03.2020
5881 Thunderstorm 21 1015 94 1200 3.1 270 17:18 29.03.2020
5882 Thunderstorm 24 1014 73 2000 2.1 320 16:55 29.03.2020
5883 Thunderstorm 25 1011 61 3000 3.1 340 16:36 29.03.2020
5884 Thunderstorm 25 1011 61 3000 3.1 340 16:36 29.03.2020
5885 Thunderstorm 25 1011 61 3000 3.1 340 16:36 29.03.2020
5886 Thunderstorm 25 1011 61 3000 3.1 340 16:36 29.03.2020
5887 Thunderstorm 25 1011 61 3000 3.1 340 16:36 29.03.2020
5888 Thunderstorm 25 1011 61 3000 3.1 340 16:18 29.03.2020
5889 Haze 26 1010 57 3000 4.6 360 15:40 29.03.2020
5890 Haze 26 1010 57 3000 4.6 360 15:22 29.03.2020
5891 Haze 26 1010 57 3000 4.1 30 14:57 29.03.2020
5892 Thunderstorm 25 1010 61 2500 7.7 10 14:38 29.03.2020
5893 Thunderstorm 25 1010 61 2500 7.7 10 14:19 29.03.2020
5894 Thunderstorm 26 1010 57 2500 7.7 320 13:56 29.03.2020
5895 Haze 35 1009 32 5000 1.5 190 13:37 29.03.2020
5896 Haze 36 1009 28 5000 1.5 190 13:19 29.03.2020
5897 Haze 35 1009 30 5000 1.5 150 12:54 29.03.2020
5898 Haze 35 1009 30 5000 1.5 150 12:36 29.03.2020
5899 Haze 35 1010 32 5000 3.1 150 12:18 29.03.2020
5900 Haze 35 1010 32 5000 1 220 11:39 29.03.2020
5901 Haze 35 1010 32 5000 1 220 11:21 29.03.2020
5902 Haze 35 1011 30 5000 1.5 50 10:55 29.03.2020
5903 Clouds 35 1011 30 6000 1.5 120 10:37 29.03.2020
5904 Clouds 35 1011 30 6000 1.5 120 10:18 29.03.2020
5905 Clouds 34 1013 32 6000 1 60 09:39 29.03.2020
5906 Clouds 34 1013 32 6000 1 60 09:19 29.03.2020
5907 Clouds 33 1014 31 6000 1 60 08:52 29.03.2020
5908 Clouds 33 1014 31 6000 1 60 08:28 29.03.2020
5909 Clouds 32 1014 33 6000 1.5 50 07:56 29.03.2020
5910 Clouds 32 1014 33 6000 1.5 50 07:38 29.03.2020
5911 Clouds 31 1014 35 6000 1.5 20 07:19 29.03.2020
5912 Haze 25 1013 65 3000 2.1 10 04:59 29.03.2020
5913 Haze 24 1012 73 3000 1 30 03:42 29.03.2020
5914 Haze 24 1012 73 3000 1 30 03:24 29.03.2020
5915 Clear 25 1009 34 0 2.31 35 01:50 29.03.2020
5916 Haze 25 1011 78 3000 1.5 300 01:23 29.03.2020
5917 Haze 25 1011 78 3000 1.5 300 00:53 29.03.2020
5918 Haze 25 1011 78 3000 1.5 300 00:29 29.03.2020
5919 Haze 25 1010 78 3000 1.84 39 23:42 28.03.2020
5920 Haze 25 1010 78 3000 1.84 39 23:23 28.03.2020
5921 Haze 23 1011 88 3000 2.92 16 22:57 28.03.2020
5922 Haze 23 1011 88 3000 2.92 16 22:37 28.03.2020
5923 Haze 23 1011 88 3000 2.92 16 22:18 28.03.2020
5924 Haze 24 1012 83 3000 2.92 16 21:41 28.03.2020
5925 Haze 24 1012 83 3000 2.92 16 21:23 28.03.2020
5926 Haze 24 1012 88 3000 2.92 16 20:58 28.03.2020
5927 Haze 24 1012 88 3000 2.92 16 20:39 28.03.2020
5928 Haze 24 1012 88 3000 2.61 14 20:21 28.03.2020
5929 Haze 26 1012 74 3000 3.45 1 19:56 28.03.2020
5930 Haze 26 1012 74 3000 3.45 1 19:37 28.03.2020
5931 Haze 26 1012 74 3000 3.45 1 19:37 28.03.2020
5932 Haze 26 1012 74 3000 3.45 1 19:18 28.03.2020
5933 Haze 27 1013 69 3000 3.45 1 18:47 28.03.2020
5934 Haze 27 1013 69 3000 3.45 1 18:22 28.03.2020
5935 Rain 28 1011 33 0 3.45 1 17:58 28.03.2020
5936 Rain 28 1011 33 0 3.45 1 17:38 28.03.2020
5937 Haze 28 1012 65 3000 3.35 4 17:19 28.03.2020
5938 Haze 28 1012 65 3000 3.35 4 16:42 28.03.2020
5939 Haze 28 1012 65 3000 3.35 4 16:20 28.03.2020
5940 Haze 28 1011 69 3000 3.35 4 15:56 28.03.2020
5941 Haze 28 1011 69 3000 3.35 4 15:37 28.03.2020
5942 Haze 28 1011 69 3000 3.35 4 15:18 28.03.2020
5943 Haze 31 1011 48 3000 3.35 4 14:42 28.03.2020
5944 Haze 31 1011 48 3000 3.35 4 14:22 28.03.2020
5945 Thunderstorm 33 1010 43 4000 2.57 2 13:56 28.03.2020
5946 Thunderstorm 33 1010 43 4000 2.57 2 13:37 28.03.2020
5947 Thunderstorm 33 1010 43 4000 2.57 2 13:18 28.03.2020
5948 Thunderstorm 33 1010 43 4000 2.57 2 13:18 28.03.2020
5949 Haze 33 1010 41 5000 1.5 350 12:38 28.03.2020
5950 Haze 33 1010 41 5000 1.5 350 12:19 28.03.2020
5951 Haze 34 1010 38 5000 1.5 350 11:42 28.03.2020
5952 Haze 34 1011 38 5000 2.1 360 11:21 28.03.2020
5953 Haze 34 1011 38 5000 2.1 360 10:44 28.03.2020
5954 Haze 34 1011 38 5000 2.1 360 10:25 28.03.2020
5955 Haze 34 1012 38 5000 1.5 360 09:59 28.03.2020
5956 Haze 34 1012 38 5000 1.5 360 09:40 28.03.2020
5957 Haze 33 1012 38 5000 2.1 360 09:21 28.03.2020
5958 Haze 33 1013 41 5000 1.5 80 08:43 28.03.2020
5959 Haze 33 1014 41 5000 2.1 80 08:24 28.03.2020
5960 Haze 32 1014 43 5000 2.1 80 07:58 28.03.2020
5961 Haze 32 1015 43 5000 2.1 10 07:40 28.03.2020
5962 Haze 31 1015 45 5000 2.6 30 06:53 28.03.2020
5963 Haze 31 1015 45 5000 2.6 50 06:26 28.03.2020
5964 Haze 29 1016 51 5000 2.6 40 05:30 28.03.2020
5965 Haze 29 1016 51 5000 2.6 40 05:30 28.03.2020
5966 Haze 28 1016 54 4000 3.1 20 04:58 28.03.2020
5967 Haze 27 1015 57 4000 2.1 30 04:39 28.03.2020
5968 Haze 24 1014 69 4000 2.6 350 02:51 28.03.2020
5969 Haze 23 1014 73 4000 2.79 36 01:48 28.03.2020
5970 Haze 24 1013 69 4000 2.25 33 01:23 28.03.2020
5971 Haze 24 1013 69 4000 1 10 00:51 28.03.2020
5972 Haze 24 1013 69 4000 2.25 33 00:25 28.03.2020
5973 Haze 25 1013 65 4000 2.1 350 23:44 27.03.2020
5974 Haze 25 1013 65 4000 2.1 350 23:26 27.03.2020
5975 Haze 25 1013 61 4000 2.1 10 22:57 27.03.2020
5976 Haze 25 1013 61 4000 1.5 10 22:39 27.03.2020
5977 Haze 25 1013 61 4000 1.5 10 22:20 27.03.2020
5978 Haze 26 1013 57 4000 1.5 40 21:58 27.03.2020
5979 Haze 26 1013 57 4000 1.5 40 21:40 27.03.2020
5980 Haze 26 1013 57 4000 1.5 40 21:22 27.03.2020
5981 Haze 26 1013 57 4000 1.5 40 21:22 27.03.2020
5982 Haze 26 1014 61 4000 2.6 50 20:56 27.03.2020
5983 Haze 26 1014 61 4000 2.6 50 20:37 27.03.2020
5984 Haze 26 1014 61 4000 2.6 50 20:19 27.03.2020
5985 Haze 26 1014 61 4000 2.6 50 19:43 27.03.2020
5986 Haze 27 1014 61 4000 1 30 19:23 27.03.2020
5987 Haze 28 1015 58 4000 1 20 18:57 27.03.2020
5988 Haze 28 1014 58 4000 2.6 20 18:39 27.03.2020
5989 Haze 28 1014 58 4000 2.6 20 18:20 27.03.2020
5990 Haze 29 1014 54 4000 3.1 10 17:40 27.03.2020
5991 Haze 29 1014 54 4000 3.1 10 17:20 27.03.2020
5992 Haze 29 1014 54 4000 3.1 330 16:57 27.03.2020
5993 Haze 30 1013 51 4000 2.6 330 16:38 27.03.2020
5994 Haze 30 1013 51 4000 2.6 330 16:20 27.03.2020
5995 Haze 31 1011 40 4000 3.01 340 15:42 27.03.2020
5996 Haze 31 1011 40 4000 3.01 340 15:24 27.03.2020
5997 Haze 30 1011 42 4000 3.01 340 14:48 27.03.2020
5998 Haze 31 1011 52 4000 3.01 340 14:25 27.03.2020
5999 Haze 35 1011 32 4000 1 250 13:58 27.03.2020
6000 Haze 35 1011 32 4000 1 250 13:40 27.03.2020
6001 Haze 35 1011 32 4000 1 250 13:21 27.03.2020
6002 Haze 35 1011 30 4000 2.6 290 12:57 27.03.2020
6003 Haze 35 1011 30 4000 2.6 290 12:39 27.03.2020
6004 Haze 35 1011 32 4000 1 250 12:18 27.03.2020
6005 Haze 34 1011 36 5000 2.6 310 11:41 27.03.2020
6006 Haze 35 1012 36 5000 2.1 180 11:23 27.03.2020
6007 Haze 35 1012 36 5000 2.1 180 10:55 27.03.2020
6008 Haze 35 1012 36 5000 2.1 180 10:37 27.03.2020
6009 Haze 35 1012 36 5000 2.1 180 10:18 27.03.2020
6010 Haze 35 1012 36 5000 3.1 180 09:56 27.03.2020
6011 Haze 35 1013 36 5000 3.1 210 09:37 27.03.2020
6012 Haze 35 1013 36 5000 3.1 210 09:18 27.03.2020
6013 Haze 35 1014 36 5000 4.6 190 08:56 27.03.2020
6014 Haze 34 1014 38 5000 4.1 180 08:37 27.03.2020
6015 Haze 34 1014 38 5000 4.1 180 08:19 27.03.2020
6016 Haze 33 1014 41 5000 2.1 170 07:50 27.03.2020
6017 Haze 33 1015 43 4000 2.6 160 07:23 27.03.2020
6018 Haze 32 1015 43 4000 2.6 200 06:51 27.03.2020
6019 Haze 32 1015 43 4000 2.6 200 06:33 27.03.2020
6020 Haze 26 1015 69 3000 2.26 113 04:23 27.03.2020
6021 Mist 21 1013 94 2000 0.5 120 02:25 27.03.2020
6022 Haze 22 1012 88 3000 1.63 75 01:23 27.03.2020
6023 Haze 22 1012 88 3000 1.37 52 00:48 27.03.2020
6024 Haze 22 1012 88 3000 1.37 52 00:23 27.03.2020
6025 Haze 23 1012 83 3000 1.37 52 23:43 26.03.2020
6026 Haze 23 1012 83 3000 1.37 52 23:21 26.03.2020
6027 Haze 23 1012 83 3000 1.79 15 22:58 26.03.2020
6028 Haze 23 1012 83 3000 1.79 15 22:37 26.03.2020
6029 Haze 23 1012 83 3000 1.79 15 22:19 26.03.2020
6030 Haze 24 1012 78 3000 1.79 15 21:55 26.03.2020
6031 Haze 24 1012 78 3000 1.79 15 21:37 26.03.2020
6032 Haze 24 1012 78 3000 1.79 15 21:18 26.03.2020
6033 Haze 24 1013 78 3000 1.79 15 20:41 26.03.2020
6034 Haze 24 1013 78 3000 1.79 15 20:23 26.03.2020
6035 Haze 24 1013 78 3000 1.79 15 20:23 26.03.2020
6036 Haze 24 1013 78 3000 1.79 15 20:23 26.03.2020
6037 Haze 24 1013 78 3000 1.93 347 19:58 26.03.2020
6038 Haze 25 1013 73 3000 1.93 347 19:40 26.03.2020
6039 Haze 25 1013 73 3000 1.93 347 19:40 26.03.2020
6040 Haze 25 1013 73 3000 1.93 347 19:22 26.03.2020
6041 Haze 25 1013 73 3000 1 40 18:59 26.03.2020
6042 Haze 25 1013 69 3000 1 70 18:41 26.03.2020
6043 Haze 25 1013 69 3000 1 70 18:23 26.03.2020
6044 Haze 25 1013 73 3000 1 70 17:45 26.03.2020
6045 Haze 25 1013 73 3000 0.5 80 17:20 26.03.2020
6046 Haze 25 1013 73 3000 0.5 80 16:59 26.03.2020
6047 Haze 26 1012 69 3000 0.5 80 16:39 26.03.2020
6048 Haze 26 1012 69 3000 0.5 80 16:21 26.03.2020
6049 Haze 26 1012 69 3000 1 70 15:56 26.03.2020
6050 Haze 26 1012 69 3000 1 80 15:38 26.03.2020
6051 Haze 26 1012 69 3000 1 80 15:19 26.03.2020
6052 Haze 27 1011 65 3000 0.5 20 14:43 26.03.2020
6053 Haze 28 1011 61 3500 1 80 14:25 26.03.2020
6054 Haze 29 1011 58 3500 1 70 13:56 26.03.2020
6055 Haze 29 1011 58 3500 1 70 13:56 26.03.2020
6056 Haze 31 1011 52 3500 1.5 70 13:38 26.03.2020
6057 Haze 31 1011 52 3500 1.5 70 13:20 26.03.2020
6058 Haze 31 1011 48 3500 1.5 60 12:39 26.03.2020
6059 Haze 30 1011 51 4000 1 90 12:20 26.03.2020
6060 Haze 30 1011 51 4000 1 90 11:55 26.03.2020
6061 Clouds 34 1008 26 0 1.73 276 11:37 26.03.2020
6062 Haze 29 1012 54 4000 1 330 11:18 26.03.2020
6063 Haze 28 1012 58 4000 1.5 60 10:42 26.03.2020
6064 Haze 28 1012 58 4000 1.5 60 10:20 26.03.2020
6065 Haze 28 1012 58 4000 1.5 60 10:20 26.03.2020
6066 Haze 28 1012 58 4000 1.5 60 09:45 26.03.2020
6067 Haze 27 1013 61 4000 3.03 245 09:24 26.03.2020
6068 Haze 25 1013 73 3000 2.1 10 08:58 26.03.2020
6069 Clouds 34 1008 25 0 3.03 245 08:39 26.03.2020
6070 Haze 24 1014 78 3000 1 230 08:20 26.03.2020
6071 Haze 24 1014 78 3000 1 230 07:46 26.03.2020
6072 Haze 24 1014 78 3000 1 230 07:24 26.03.2020
6073 Haze 22 1014 88 3000 1 190 06:59 26.03.2020
6074 Haze 22 1014 88 3000 1 190 06:32 26.03.2020
6075 Haze 22 1015 88 3000 1.5 240 05:29 26.03.2020
6076 Drizzle 21 1014 100 2000 1 270 03:45 26.03.2020
6077 Drizzle 21 1014 94 2000 3.56 23 02:57 26.03.2020
6078 Drizzle 20 1013 100 2000 2.57 345 01:51 26.03.2020
6079 Drizzle 20 1013 100 2000 2.78 21 01:18 26.03.2020
6080 Haze 20 1013 94 2000 2.78 21 00:23 26.03.2020
6081 Drizzle 20 1013 94 2000 2.78 21 23:42 25.03.2020
6082 Thunderstorm 20 1014 94 2000 4.1 350 23:22 25.03.2020
6083 Thunderstorm 20 1014 94 2000 4.1 350 22:42 25.03.2020
6084 Thunderstorm 20 1014 94 2000 4.1 350 22:22 25.03.2020
6085 Thunderstorm 20 1014 94 2000 3.6 350 21:57 25.03.2020
6086 Thunderstorm 20 1015 94 2000 3.6 20 21:38 25.03.2020
6087 Thunderstorm 20 1015 94 2000 3.6 20 21:20 25.03.2020
6088 Thunderstorm 20 1015 94 2000 5.1 10 20:56 25.03.2020
6089 Thunderstorm 20 1016 94 2000 5.1 320 20:37 25.03.2020
6090 Thunderstorm 20 1016 94 2000 5.1 320 20:18 25.03.2020
6091 Thunderstorm 20 1016 94 2000 5.1 320 20:18 25.03.2020
6092 Thunderstorm 20 1016 94 2000 5.1 320 19:43 25.03.2020
6093 Thunderstorm 20 1017 94 2000 3.6 320 19:23 25.03.2020
6094 Thunderstorm 21 1016 88 2000 4.6 330 18:59 25.03.2020
6095 Thunderstorm 21 1016 88 2000 4.6 330 18:40 25.03.2020
6096 Haze 26 1012 54 2500 2.1 50 18:22 25.03.2020
6097 Haze 26 1012 54 2500 2.1 50 17:56 25.03.2020
6098 Haze 26 1012 54 2500 2.1 50 17:38 25.03.2020
6099 Haze 26 1012 54 2500 2.1 50 17:38 25.03.2020
6100 Haze 26 1011 54 2500 2.6 50 17:20 25.03.2020
6101 Haze 26 1011 54 2500 2.6 50 16:44 25.03.2020
6102 Haze 26 1011 54 2500 2.6 50 16:24 25.03.2020
6103 Haze 26 1011 54 2500 3.1 10 15:59 25.03.2020
6104 Thunderstorm 25 1011 61 2500 3.6 10 15:41 25.03.2020
6105 Thunderstorm 25 1011 61 2500 3.6 10 15:20 25.03.2020
6106 Thunderstorm 27 1011 51 2500 5.1 290 14:42 25.03.2020
6107 Thunderstorm 27 1011 51 2500 6.2 10 14:22 25.03.2020
6108 Haze 30 1009 40 2500 5.1 30 13:59 25.03.2020
6109 Haze 30 1009 40 2500 5.1 30 13:41 25.03.2020
6110 Haze 35 1008 26 5000 1.5 90 13:22 25.03.2020
6111 Haze 35 1008 24 5000 3.1 150 12:38 25.03.2020
6112 Haze 35 1008 24 5000 3.1 150 12:19 25.03.2020
6113 Clouds 35 1008 26 6000 2.1 120 11:55 25.03.2020
6114 Clouds 35 1008 26 6000 2.1 120 11:36 25.03.2020
6115 Clouds 36 1010 26 6000 1 80 11:18 25.03.2020
6116 Clouds 36 1010 26 6000 1 80 10:56 25.03.2020
6117 Clouds 36 1010 26 6000 1 80 10:37 25.03.2020
6118 Clouds 36 1010 26 6000 1 80 10:18 25.03.2020
6119 Clouds 34 1011 30 6000 1.69 49 09:42 25.03.2020
6120 Clouds 34 1011 30 6000 1.69 49 09:23 25.03.2020
6121 Clouds 34 1011 30 6000 0.5 160 08:56 25.03.2020
6122 Clouds 33 1012 31 6000 1.5 340 08:38 25.03.2020
6123 Clouds 33 1012 31 6000 1.5 340 08:38 25.03.2020
6124 Clear 33 1012 31 6000 1.5 340 08:19 25.03.2020
6125 Clear 34 1012 32 6000 2.1 60 07:40 25.03.2020
6126 Clear 33 1013 33 6000 1 30 07:20 25.03.2020
6127 Clear 32 1013 35 6000 1.5 80 06:47 25.03.2020
6128 Clear 32 1013 35 6000 2.1 60 06:26 25.03.2020
6129 Haze 29 1013 45 5000 1.5 90 05:53 25.03.2020
6130 Haze 28 1013 48 5000 1.5 70 04:59 25.03.2020
6131 Haze 28 1013 48 5000 1.5 70 04:39 25.03.2020
6132 Haze 25 1012 61 4000 2.46 58 03:36 25.03.2020
6133 Haze 23 1010 69 4000 1.5 20 01:58 25.03.2020
6134 Haze 22 1010 73 4000 1.5 10 01:21 25.03.2020
6135 Haze 22 1010 73 4000 1.15 31 00:48 25.03.2020
6136 Haze 22 1010 73 4000 1.15 31 00:19 25.03.2020
6137 Haze 24 1010 60 4000 1 20 23:45 24.03.2020
6138 Haze 24 1010 60 4000 1 20 23:25 24.03.2020
6139 Haze 23 1010 69 4000 1.41 37 22:56 24.03.2020
6140 Haze 23 1010 69 4000 1.41 37 22:37 24.03.2020
6141 Haze 23 1010 69 4000 1.41 37 22:19 24.03.2020
6142 Haze 24 1010 60 4000 1.41 37 21:55 24.03.2020
6143 Haze 24 1010 60 4000 1.41 37 21:37 24.03.2020
6144 Haze 24 1010 60 4000 1.41 37 21:18 24.03.2020
6145 Haze 24 1010 60 4000 1.41 37 21:18 24.03.2020
6146 Haze 24 1011 60 4000 1 280 20:43 24.03.2020
6147 Haze 24 1011 60 4000 1 280 20:24 24.03.2020
6148 Haze 25 1011 57 4000 0.79 81 19:57 24.03.2020
6149 Haze 25 1011 57 4000 0.79 81 19:39 24.03.2020
6150 Haze 25 1011 57 4000 0.79 81 19:18 24.03.2020
6151 Haze 25 1011 57 4000 0.79 81 18:55 24.03.2020
6152 Haze 25 1011 57 4000 0.79 81 18:36 24.03.2020
6153 Haze 26 1011 54 4000 1 100 18:18 24.03.2020
6154 Haze 27 1011 51 4000 2.1 90 17:42 24.03.2020
6155 Haze 27 1011 51 4000 2.1 90 17:22 24.03.2020
6156 Haze 29 1011 45 4000 2.1 80 16:58 24.03.2020
6157 Haze 29 1010 42 4000 1.5 100 16:39 24.03.2020
6158 Haze 29 1010 42 4000 1.5 100 16:20 24.03.2020
6159 Haze 29 1010 42 4000 1.5 100 16:20 24.03.2020
6160 Haze 29 1010 39 4000 1.5 90 15:57 24.03.2020
6161 Haze 29 1009 39 4000 2.1 140 15:37 24.03.2020
6162 Haze 29 1009 39 4000 2.1 140 15:19 24.03.2020
6163 Haze 29 1009 42 4000 1.55 291 14:42 24.03.2020
6164 Thunderstorm 31 1009 29 4000 1.1 197 14:18 24.03.2020
6165 Haze 31 1009 35 4000 3.1 290 13:42 24.03.2020
6166 Thunderstorm 31 1009 35 4000 2.1 230 13:24 24.03.2020
6167 Thunderstorm 30 1008 37 4000 3.1 230 12:54 24.03.2020
6168 Thunderstorm 34 1008 28 4000 1.89 236 12:36 24.03.2020
6169 Thunderstorm 34 1008 28 4000 1.89 236 12:18 24.03.2020
6170 Haze 35 1009 28 4000 2.6 160 11:39 24.03.2020
6171 Haze 35 1009 28 4000 2.6 160 11:19 24.03.2020
6172 Haze 36 1009 25 5000 3.6 180 10:43 24.03.2020
6173 Haze 35 1009 30 5000 1.5 280 10:43 24.03.2020
6174 Haze 35 1009 30 5000 1.5 280 10:20 24.03.2020
6175 Haze 35 1010 30 5000 2.6 150 09:58 24.03.2020
6176 Haze 35 1010 30 5000 2.6 150 09:39 24.03.2020
6177 Haze 35 1010 30 5000 2.6 260 09:21 24.03.2020
6178 Haze 34 1012 32 5000 2.1 170 08:38 24.03.2020
6179 Haze 34 1012 32 5000 2.1 170 08:20 24.03.2020
6180 Haze 33 1012 33 5000 1.5 180 07:48 24.03.2020
6181 Haze 32 1013 40 5000 2.1 160 07:24 24.03.2020
6182 Haze 31 1014 45 5000 1.5 240 06:53 24.03.2020
6183 Haze 30 1014 48 5000 1 200 06:27 24.03.2020
6184 Haze 28 1014 51 4000 1 30 04:57 24.03.2020
6185 Haze 25 1013 57 4000 1.5 60 03:48 24.03.2020
6186 Haze 20 1012 77 4000 2.45 127 03:18 24.03.2020
6187 Haze 20 1011 72 4000 1.61 25 01:45 24.03.2020
6188 Haze 20 1011 72 4000 1.5 20 00:46 24.03.2020
6189 Haze 22 1010 60 4000 1.21 41 00:24 24.03.2020
6190 Haze 23 1011 60 4000 1.21 41 23:44 23.03.2020
6191 Haze 23 1011 60 4000 1.21 41 23:26 23.03.2020
6192 Haze 22 1011 60 4000 1.36 231 22:55 23.03.2020
6193 Haze 22 1011 60 4000 1.36 231 22:55 23.03.2020
6194 Haze 24 1011 50 4000 1.36 231 22:37 23.03.2020
6195 Haze 24 1011 50 4000 1.36 231 22:19 23.03.2020
6196 Haze 22 1011 60 4000 1.36 231 21:43 23.03.2020
6197 Haze 23 1012 56 4000 1.36 231 21:20 23.03.2020
6198 Haze 23 1012 53 4000 1.36 231 20:57 23.03.2020
6199 Haze 24 1012 50 4000 1 220 20:39 23.03.2020
6200 Haze 24 1012 50 4000 1 220 20:19 23.03.2020
6201 Haze 24 1012 50 4000 2.21 107 19:45 23.03.2020
6202 Haze 24 1012 50 4000 2.21 107 19:45 23.03.2020
6203 Haze 26 1012 44 4000 1 100 19:27 23.03.2020
6204 Haze 27 1012 42 4000 1 110 18:59 23.03.2020
6205 Haze 26 1012 41 4000 1 100 18:40 23.03.2020
6206 Haze 27 1012 39 4000 1.5 110 18:21 23.03.2020
6207 Haze 27 1012 39 4000 1.5 110 17:43 23.03.2020
6208 Haze 28 1012 37 4000 1 60 17:21 23.03.2020
6209 Haze 28 1012 37 4000 1 60 16:59 23.03.2020
6210 Haze 28 1012 37 4000 1 80 16:39 23.03.2020
6211 Haze 28 1012 37 4000 1 80 16:20 23.03.2020
6212 Haze 29 1011 35 4000 1 90 15:42 23.03.2020
6213 Haze 29 1011 35 4000 1 90 15:42 23.03.2020
6214 Haze 29 1011 35 4000 1 110 15:20 23.03.2020
6215 Haze 30 1010 30 4000 1 90 14:55 23.03.2020
6216 Haze 31 1010 29 5000 1 90 14:36 23.03.2020
6217 Haze 31 1010 29 5000 1 90 14:18 23.03.2020
6218 Haze 33 1010 26 5000 1 60 13:40 23.03.2020
6219 Haze 33 1010 26 5000 1 60 13:21 23.03.2020
6220 Clouds 34 1010 21 6000 1 100 12:45 23.03.2020
6221 Clouds 34 1010 21 6000 1 100 12:45 23.03.2020
6222 Clouds 34 1010 21 6000 1 130 12:25 23.03.2020
6223 Clouds 34 1010 21 6000 2.1 60 11:59 23.03.2020
6224 Clouds 34 1010 21 6000 2.1 60 11:59 23.03.2020
6225 Clouds 35 1010 20 6000 1 60 11:40 23.03.2020
6226 Clouds 34 1011 21 6000 1 360 11:20 23.03.2020
6227 Clouds 34 1011 21 6000 1 360 11:20 23.03.2020
6228 Clouds 34 1011 21 6000 1 360 10:58 23.03.2020
6229 Haze 34 1011 21 5000 1.5 150 10:38 23.03.2020
6230 Haze 34 1011 21 5000 1.5 150 10:38 23.03.2020
6231 Haze 34 1011 21 5000 1.5 150 10:20 23.03.2020
6232 Haze 35 1012 19 5000 1.5 110 09:44 23.03.2020
6233 Haze 34 1012 20 5000 1.5 100 09:21 23.03.2020
6234 Haze 34 1013 21 5000 1.5 120 08:57 23.03.2020
6235 Haze 34 1013 21 5000 2.1 140 08:36 23.03.2020
6236 Haze 34 1013 21 5000 2.1 140 08:18 23.03.2020
6237 Haze 32 1014 29 5000 2.6 150 07:42 23.03.2020
6238 Haze 32 1014 29 5000 2.6 150 07:23 23.03.2020
6239 Haze 31 1014 35 5000 1.5 190 06:49 23.03.2020
6240 Haze 29 1014 37 5000 1.5 100 05:54 23.03.2020
6241 Haze 29 1014 37 5000 1.5 100 05:29 23.03.2020
6242 Haze 23 1013 56 5000 1 320 03:28 23.03.2020
6243 Haze 20 1012 60 4000 1.06 164 01:51 23.03.2020
6244 Haze 18 1012 68 4000 1.33 69 01:32 23.03.2020
6245 Haze 20 1011 64 4000 1.33 69 00:36 23.03.2020
6246 Haze 19 1011 63 4000 1.33 69 23:47 22.03.2020
6247 Haze 19 1011 63 4000 1.33 69 23:26 22.03.2020
6248 Haze 21 1012 56 4000 1.44 8 22:45 22.03.2020
6249 Haze 21 1012 56 4000 1.44 8 22:24 22.03.2020
6250 Haze 21 1012 56 4000 1.44 8 21:56 22.03.2020
6251 Haze 21 1012 56 4000 1.44 8 21:37 22.03.2020
6252 Haze 21 1012 56 4000 1.44 8 21:19 22.03.2020
6253 Haze 21 1012 60 4000 1.44 8 20:46 22.03.2020
6254 Haze 24 1013 50 4000 2.23 26 20:25 22.03.2020
6255 Haze 25 1013 47 4000 0.5 350 19:58 22.03.2020
6256 Haze 25 1013 47 4000 0.5 350 19:40 22.03.2020
6257 Haze 25 1013 44 4000 1 280 19:20 22.03.2020
6258 Haze 25 1013 44 4000 1 280 19:20 22.03.2020
6259 Haze 25 1013 44 4000 2.05 29 18:59 22.03.2020
6260 Haze 24 1013 47 4000 2.05 29 18:41 22.03.2020
6261 Haze 24 1013 47 4000 2.05 29 18:41 22.03.2020
6262 Haze 24 1013 47 4000 2.05 29 18:22 22.03.2020
6263 Haze 24 1013 47 4000 2.05 29 18:22 22.03.2020
6264 Haze 26 1013 39 4000 1 60 17:59 22.03.2020
6265 Haze 26 1013 39 4000 1 90 17:39 22.03.2020
6266 Haze 26 1013 39 4000 1 90 17:20 22.03.2020
6267 Haze 27 1013 36 4000 0.5 80 16:58 22.03.2020
6268 Haze 27 1013 36 4000 0.5 80 16:58 22.03.2020
6269 Haze 27 1012 36 4000 1 70 16:40 22.03.2020
6270 Haze 27 1012 36 4000 1 70 16:21 22.03.2020
6271 Haze 28 1012 32 4000 1.5 80 15:56 22.03.2020
6272 Haze 28 1012 34 4000 1.5 80 15:38 22.03.2020
6273 Haze 29 1011 30 5000 1 80 14:46 22.03.2020
6274 Haze 29 1011 30 5000 1.5 70 14:19 22.03.2020
6275 Haze 32 1011 18 5000 1 30 13:55 22.03.2020
6276 Clouds 33 1011 18 6000 1 30 13:37 22.03.2020
6277 Clouds 33 1011 18 6000 1 30 13:18 22.03.2020
6278 Clouds 34 1011 15 6000 1.5 40 12:43 22.03.2020
6279 Clouds 34 1011 16 6000 1.5 20 12:20 22.03.2020
6280 Clouds 34 1011 16 6000 2.1 110 11:55 22.03.2020
6281 Clouds 34 1011 15 6000 1.5 240 11:36 22.03.2020
6282 Clouds 34 1011 15 6000 1.5 240 11:18 22.03.2020
6283 Clouds 34 1012 18 6000 1 50 10:42 22.03.2020
6284 Clouds 34 1012 18 6000 1 50 10:23 22.03.2020
6285 Clouds 33 1012 21 6000 1.5 10 09:47 22.03.2020
6286 Clouds 33 1013 19 6000 1.5 60 09:28 22.03.2020
6287 Clouds 33 1013 19 6000 1 100 08:53 22.03.2020
6288 Clouds 33 1013 19 6000 1 100 08:53 22.03.2020
6289 Clear 32 1014 25 6000 1 230 08:33 22.03.2020
6290 Clear 32 1014 29 6000 1.5 10 07:59 22.03.2020
6291 Clear 32 1014 29 6000 1.5 10 07:41 22.03.2020
6292 Clear 30 1015 35 6000 2.1 60 06:48 22.03.2020
6293 Clear 29 1015 45 6000 1 70 05:54 22.03.2020
6294 Haze 26 1014 50 5000 1 350 04:39 22.03.2020
6295 Haze 20 1013 56 4000 1 350 02:34 22.03.2020
6296 Haze 18 1012 68 4000 2.38 342 01:19 22.03.2020
6297 Haze 19 1012 63 4000 2.02 353 00:34 22.03.2020
6298 Haze 19 1012 63 4000 2.02 353 23:47 21.03.2020
6299 Haze 19 1012 63 4000 2.02 353 23:23 21.03.2020
6300 Haze 18 1012 68 4000 1 130 22:59 21.03.2020
6301 Haze 23 1012 46 4000 1 360 22:38 21.03.2020
6302 Haze 23 1012 46 4000 1 360 22:20 21.03.2020
6303 Haze 23 1012 49 4000 1 360 21:59 21.03.2020
6304 Haze 23 1012 49 4000 1 360 21:39 21.03.2020
6305 Haze 24 1012 44 4000 1 360 21:20 21.03.2020
6306 Haze 24 1012 44 4000 1 360 21:20 21.03.2020
6307 Haze 24 1012 41 4000 1 10 20:44 21.03.2020
6308 Haze 25 1013 41 4000 1 360 20:22 21.03.2020
6309 Haze 23 1013 53 4000 1 260 19:56 21.03.2020
6310 Haze 26 1013 39 4000 1 350 19:38 21.03.2020
6311 Haze 26 1013 39 4000 1 350 19:19 21.03.2020
6312 Haze 25 1013 53 4000 1 300 18:54 21.03.2020
6313 Haze 25 1013 57 4000 1 270 18:36 21.03.2020
6314 Haze 25 1013 57 4000 1 270 18:18 21.03.2020
6315 Haze 27 1012 51 4000 1 360 17:42 21.03.2020
6316 Haze 27 1012 51 4000 1 360 17:22 21.03.2020
6317 Haze 26 1011 41 4000 1.68 313 16:43 21.03.2020
6318 Haze 26 1011 41 4000 1.68 313 16:24 21.03.2020
6319 Haze 26 1011 44 4000 1 130 15:59 21.03.2020
6320 Haze 26 1011 44 4000 1 130 15:41 21.03.2020
6321 Haze 28 1011 39 4000 1 70 15:23 21.03.2020
6322 Haze 29 1010 37 4000 1.68 313 14:57 21.03.2020
6323 Haze 30 1010 37 4000 1.68 313 14:39 21.03.2020
6324 Haze 30 1010 37 4000 4.86 292 14:20 21.03.2020
6325 Haze 31 1010 35 5000 1.5 140 13:58 21.03.2020
6326 Haze 32 1009 31 5000 1 160 13:39 21.03.2020
6327 Haze 32 1009 31 5000 1 160 13:21 21.03.2020
6328 Haze 33 1009 29 5000 1.5 210 12:57 21.03.2020
6329 Haze 33 1009 29 5000 2.6 190 12:37 21.03.2020
6330 Haze 33 1009 29 5000 2.6 200 12:19 21.03.2020
6331 Haze 33 1009 29 5000 2.6 200 11:55 21.03.2020
6332 Haze 33 1009 29 5000 1.5 180 11:37 21.03.2020
6333 Haze 32 1010 33 5000 1.5 230 11:18 21.03.2020
6334 Haze 32 1010 33 5000 1.5 230 10:56 21.03.2020
6335 Haze 32 1010 33 5000 2.6 280 10:38 21.03.2020
6336 Haze 32 1010 33 5000 2.6 280 10:18 21.03.2020
6337 Clouds 31 1011 38 6000 1 240 09:40 21.03.2020
6338 Clouds 31 1012 40 6000 1.5 240 09:21 21.03.2020
6339 Clouds 31 1012 40 6000 2.1 230 08:58 21.03.2020
6340 Clouds 31 1012 40 6000 2.1 230 08:39 21.03.2020
6341 Clouds 30 1013 45 6000 0.5 280 08:21 21.03.2020
6342 Clouds 29 1013 48 6000 1 120 07:42 21.03.2020
6343 Clouds 28 1014 54 6000 2.1 150 07:23 21.03.2020
6344 Clouds 27 1015 57 6000 1 110 06:45 21.03.2020
6345 Clouds 27 1015 57 6000 1 110 06:45 21.03.2020
6346 Clouds 27 1015 57 6000 1 110 06:26 21.03.2020
6347 Clear 26 1014 57 6000 1 130 05:41 21.03.2020
6348 Clear 25 1014 61 6000 1 50 04:34 21.03.2020
6349 Haze 21 1013 68 4000 1 350 02:39 21.03.2020
6350 Haze 20 1012 77 4000 2.06 17 01:54 21.03.2020
6351 Haze 21 1012 73 4000 1 300 01:28 21.03.2020
6352 Haze 20 1011 77 4000 1.5 290 00:43 21.03.2020
6353 Haze 20 1011 77 4000 1.5 290 00:43 21.03.2020
6354 Haze 22 1011 68 4000 2.06 42 00:24 21.03.2020
6355 Haze 22 1011 68 4000 1 70 23:45 20.03.2020
6356 Haze 22 1011 68 4000 1 70 23:22 20.03.2020
6357 Haze 22 1011 64 4000 1 80 22:44 20.03.2020
6358 Haze 21 1011 68 4000 1 40 22:25 20.03.2020
6359 Haze 21 1011 68 4000 1 20 21:59 20.03.2020
6360 Haze 21 1011 68 4000 1 20 21:41 20.03.2020
6361 Haze 22 1012 64 4000 1 50 21:20 20.03.2020
6362 Haze 22 1012 64 4000 1 70 20:59 20.03.2020
6363 Haze 22 1012 64 4000 1 70 20:41 20.03.2020
6364 Haze 23 1012 60 4000 2.1 80 20:20 20.03.2020
6365 Haze 23 1012 60 4000 1.5 60 19:49 20.03.2020
6366 Haze 23 1012 60 4000 1.5 80 19:22 20.03.2020
6367 Haze 23 1012 60 4000 1.5 70 18:59 20.03.2020
6368 Haze 23 1012 60 4000 1.5 80 18:39 20.03.2020
6369 Haze 23 1012 60 4000 1.5 80 18:20 20.03.2020
6370 Haze 24 1012 57 4000 2.1 80 17:56 20.03.2020
6371 Haze 25 1012 53 4000 2.6 60 17:38 20.03.2020
6372 Haze 26 1011 50 4000 2.1 50 17:19 20.03.2020
6373 Haze 28 1011 54 4000 1.5 20 16:42 20.03.2020
6374 Haze 28 1011 54 4000 1.5 20 16:21 20.03.2020
6375 Thunderstorm 28 1011 54 4000 2.6 10 15:56 20.03.2020
6376 Thunderstorm 29 1010 51 4000 1.5 80 15:37 20.03.2020
6377 Thunderstorm 29 1010 51 4000 1.5 80 15:19 20.03.2020
6378 Haze 30 1009 48 4000 2.1 80 14:42 20.03.2020
6379 Haze 30 1009 45 4000 1.5 80 14:21 20.03.2020
6380 Haze 31 1008 43 5000 2.1 90 13:50 20.03.2020
6381 Haze 31 1008 43 5000 2.1 90 13:50 20.03.2020
6382 Haze 32 1009 40 5000 2.1 70 13:25 20.03.2020
6383 Clouds 33 1009 33 6000 2.1 80 12:58 20.03.2020
6384 Clouds 33 1009 33 6000 2.1 90 12:38 20.03.2020
6385 Clouds 33 1009 33 6000 2.1 90 12:20 20.03.2020
6386 Clouds 33 1009 33 6000 1.5 140 11:40 20.03.2020
6387 Clouds 33 1010 36 6000 2.6 60 11:21 20.03.2020
6388 Clouds 33 1010 36 6000 2.6 60 10:57 20.03.2020
6389 Clouds 33 1010 36 6000 1.5 80 10:38 20.03.2020
6390 Clouds 33 1010 36 6000 1.5 80 10:18 20.03.2020
6391 Clouds 33 1011 36 6000 1.5 140 09:46 20.03.2020
6392 Clouds 33 1012 36 6000 3.1 150 09:21 20.03.2020
6393 Clouds 32 1013 38 6000 3.6 120 08:58 20.03.2020
6394 Clouds 32 1013 38 6000 3.1 100 08:39 20.03.2020
6395 Clouds 32 1013 38 6000 3.1 100 08:19 20.03.2020
6396 Haze 29 1014 48 5000 3.1 90 07:41 20.03.2020
6397 Haze 29 1014 48 5000 3.1 90 07:23 20.03.2020
6398 Haze 27 1015 54 5000 2.1 110 06:42 20.03.2020
6399 Haze 27 1015 54 5000 2.1 110 06:42 20.03.2020
6400 Haze 27 1015 54 5000 2.1 110 06:22 20.03.2020
6401 Haze 24 1015 60 4000 1.5 50 04:39 20.03.2020
6402 Haze 21 1014 73 4000 1 30 02:51 20.03.2020
6403 Haze 20 1013 77 3000 1 30 01:50 20.03.2020
6404 Haze 21 1012 77 3000 1.5 20 00:45 20.03.2020
6405 Haze 21 1012 77 3000 1.5 20 00:24 20.03.2020
6406 Haze 21 1012 73 3000 1 60 23:42 19.03.2020
6407 Haze 21 1013 73 3000 1.5 60 23:23 19.03.2020
6408 Haze 21 1013 73 3000 1 60 22:41 19.03.2020
6409 Haze 21 1013 73 3000 1 60 22:23 19.03.2020
6410 Haze 21 1013 73 3000 2.1 60 21:58 19.03.2020
6411 Haze 21 1013 73 3000 1 50 21:38 19.03.2020
6412 Haze 21 1013 73 3000 1 50 21:19 19.03.2020
6413 Haze 21 1013 73 3000 1 60 20:44 19.03.2020
6414 Haze 22 1013 73 3000 3.48 91 20:25 19.03.2020
6415 Haze 22 1013 68 3000 4.43 33 19:59 19.03.2020
6416 Haze 21 1013 73 3000 4.43 33 19:39 19.03.2020
6417 Haze 21 1013 73 3000 4.43 33 19:20 19.03.2020
6418 Haze 23 1013 64 3000 4.43 33 18:58 19.03.2020
6419 Haze 24 1013 60 3000 1 40 18:40 19.03.2020
6420 Haze 24 1013 60 3000 1.5 40 18:21 19.03.2020
6421 Haze 24 1013 60 3000 1.5 40 18:21 19.03.2020
6422 Haze 24 1013 60 3000 1.5 40 17:44 19.03.2020
6423 Thunderstorm 25 1013 53 3000 2.6 50 17:20 19.03.2020
6424 Thunderstorm 25 1013 53 3000 2.6 50 16:58 19.03.2020
6425 Thunderstorm 26 1012 54 3000 2.6 40 16:39 19.03.2020
6426 Thunderstorm 26 1012 54 3000 2.6 40 16:21 19.03.2020
6427 Thunderstorm 27 1011 51 4000 3.6 30 15:42 19.03.2020
6428 Thunderstorm 27 1011 51 4000 3.6 30 15:23 19.03.2020
6429 Haze 29 1010 42 4000 1.5 50 14:43 19.03.2020
6430 Haze 30 1009 28 5000 6.11 275 14:22 19.03.2020
6431 Clouds 33 1009 21 6000 1.5 270 13:56 19.03.2020
6432 Clouds 35 1008 19 6000 3.1 270 13:37 19.03.2020
6433 Clouds 35 1008 19 6000 3.1 270 13:18 19.03.2020
6434 Clouds 35 1008 21 6000 4.1 240 12:40 19.03.2020
6435 Clouds 35 1008 24 6000 4.1 260 12:22 19.03.2020
6436 Clouds 35 1008 24 6000 4.1 260 11:57 19.03.2020
6437 Clouds 35 1008 24 6000 4.1 260 11:38 19.03.2020
6438 Clouds 35 1009 34 6000 4.1 180 11:19 19.03.2020
6439 Clouds 34 1009 36 6000 4.1 180 10:41 19.03.2020
6440 Clouds 34 1009 36 6000 4.1 180 10:20 19.03.2020
6441 Clouds 34 1010 36 6000 4.1 180 09:57 19.03.2020
6442 Clouds 34 1011 34 6000 4.6 180 09:37 19.03.2020
6443 Clouds 34 1011 34 6000 4.6 180 09:18 19.03.2020
6444 Clouds 34 1012 32 6000 3.6 220 08:42 19.03.2020
6445 Clouds 34 1012 32 6000 3.6 220 08:21 19.03.2020
6446 Clouds 33 1013 33 6000 4.6 200 07:46 19.03.2020
6447 Clouds 33 1013 33 6000 3.6 200 07:28 19.03.2020
6448 Haze 29 1014 51 5000 2.6 200 06:43 19.03.2020
6449 Haze 27 1015 57 5000 2.1 190 05:48 19.03.2020
6450 Haze 26 1015 61 4000 2.1 170 04:57 19.03.2020
6451 Haze 24 1015 73 3000 2.6 150 04:39 19.03.2020
6452 Mist 22 1014 83 3000 2.88 85 02:49 19.03.2020
6453 Mist 21 1013 88 4000 1.44 101 01:21 19.03.2020
6454 Mist 22 1013 83 4000 1.44 101 00:28 19.03.2020
6455 Mist 21 1013 88 4000 1.44 101 23:48 18.03.2020
6456 Mist 21 1013 88 4000 1.44 101 23:29 18.03.2020
6457 Mist 21 1013 88 4000 2.37 64 22:56 18.03.2020
6458 Mist 21 1012 83 4000 2.37 64 22:38 18.03.2020
6459 Mist 21 1012 83 4000 2.37 64 22:20 18.03.2020
6460 Mist 21 1012 88 4000 1 110 21:42 18.03.2020
6461 Haze 22 1013 83 4000 1 150 21:21 18.03.2020
6462 Haze 23 1013 73 4000 1 350 20:57 18.03.2020
6463 Haze 23 1013 73 4000 1 350 20:39 18.03.2020
6464 Haze 22 1013 83 4000 5.16 7 20:20 18.03.2020
6465 Haze 24 1014 69 4000 5.16 7 19:56 18.03.2020
6466 Haze 25 1014 65 4000 1 360 19:37 18.03.2020
6467 Haze 25 1014 65 4000 1 360 19:19 18.03.2020
6468 Haze 24 1013 64 4000 1.5 100 18:41 18.03.2020
6469 Haze 25 1014 61 4000 1 70 18:20 18.03.2020
6470 Haze 25 1014 61 4000 1 70 17:58 18.03.2020
6471 Haze 25 1014 65 4000 1 70 17:39 18.03.2020
6472 Haze 25 1014 65 4000 1.5 40 17:21 18.03.2020
6473 Haze 25 1014 65 4000 1.5 40 16:54 18.03.2020
6474 Haze 26 1014 65 4000 1 30 16:36 18.03.2020
6475 Haze 26 1014 65 4000 1 30 16:18 18.03.2020
6476 Haze 26 1014 65 4000 1.5 50 15:44 18.03.2020
6477 Haze 26 1013 65 4000 1 50 15:20 18.03.2020
6478 Haze 27 1013 61 4000 1 70 14:45 18.03.2020
6479 Haze 27 1013 61 4000 1 70 14:22 18.03.2020
6480 Haze 28 1012 58 4000 1.5 70 13:56 18.03.2020
6481 Haze 29 1012 54 4000 2.1 90 13:36 18.03.2020
6482 Haze 29 1012 54 4000 2.1 90 13:18 18.03.2020
6483 Haze 30 1013 45 4000 1.5 50 12:41 18.03.2020
6484 Haze 30 1013 48 4000 2.6 60 12:19 18.03.2020
6485 Haze 30 1013 51 3000 2.1 60 11:40 18.03.2020
6486 Haze 29 1014 54 3000 1.5 60 11:21 18.03.2020
6487 Haze 29 1014 54 3000 1.5 60 10:58 18.03.2020
6488 Haze 29 1014 54 3000 4.88 230 10:39 18.03.2020
6489 Haze 29 1014 54 3000 4.88 230 10:20 18.03.2020
6490 Haze 29 1015 54 3000 1 10 09:43 18.03.2020
6491 Haze 28 1016 54 3000 1.5 350 09:25 18.03.2020
6492 Haze 28 1016 54 3000 1 120 08:57 18.03.2020
6493 Haze 27 1017 57 3000 1 80 08:39 18.03.2020
6494 Haze 27 1017 57 3000 1 80 08:39 18.03.2020
6495 Haze 27 1017 57 3000 1 80 08:20 18.03.2020
6496 Thunderstorm 26 1018 65 2500 1 70 07:46 18.03.2020
6497 Haze 25 1018 69 3000 1 30 07:28 18.03.2020
6498 Haze 24 1018 78 3000 3.07 138 06:44 18.03.2020
6499 Thunderstorm 23 1019 78 3000 1 210 06:22 18.03.2020
6500 Thunderstorm 23 1019 78 3000 1 210 05:35 18.03.2020
6501 Haze 22 1018 88 3000 1.5 190 04:27 18.03.2020
6502 Mist 20 1016 94 2000 1 240 02:48 18.03.2020
6503 Mist 20 1015 94 3000 2.73 45 01:48 18.03.2020
6504 Mist 21 1015 88 3000 1 90 01:27 18.03.2020
6505 Thunderstorm 22 1016 78 4000 2.1 320 00:25 18.03.2020
6506 Mist 21 1014 88 4000 1.5 110 23:50 17.03.2020
6507 Mist 22 1014 83 4000 1 30 23:28 17.03.2020
6508 Mist 22 1014 83 4000 1 30 22:59 17.03.2020
6509 Haze 21 1014 88 4000 1 30 22:40 17.03.2020
6510 Haze 21 1014 88 4000 1 30 22:22 17.03.2020
6511 Haze 21 1015 88 4000 1 40 21:40 17.03.2020
6512 Thunderstorm 21 1016 88 3000 2.1 340 21:21 17.03.2020
6513 Thunderstorm 21 1016 88 3000 2.1 340 20:41 17.03.2020
6514 Thunderstorm 21 1015 88 3000 7.7 120 20:22 17.03.2020
6515 Thunderstorm 22 1016 88 3000 1 100 19:59 17.03.2020
6516 Thunderstorm 25 1016 69 4000 4.1 350 19:40 17.03.2020
6517 Thunderstorm 28 1016 54 4000 2.1 350 19:18 17.03.2020
6518 Thunderstorm 28 1016 54 4000 2.1 350 18:56 17.03.2020
6519 Haze 28 1015 54 4000 1.5 60 18:37 17.03.2020
6520 Haze 28 1015 54 4000 1.5 60 18:37 17.03.2020
6521 Haze 27 1016 57 4000 1 50 18:19 17.03.2020
6522 Haze 28 1015 54 4000 1.5 80 17:40 17.03.2020
6523 Haze 28 1015 54 4000 1.5 80 17:22 17.03.2020
6524 Haze 29 1015 51 4000 1.5 90 16:55 17.03.2020
6525 Haze 29 1015 48 4000 1.5 70 16:37 17.03.2020
6526 Haze 29 1015 48 4000 1.5 70 16:18 17.03.2020
6527 Haze 29 1015 48 5000 1.5 70 15:43 17.03.2020
6528 Haze 29 1014 45 5000 1.5 90 15:21 17.03.2020
6529 Haze 30 1014 42 5000 1 70 14:43 17.03.2020
6530 Haze 30 1014 42 5000 1 70 14:42 17.03.2020
6531 Haze 30 1014 40 5000 1 50 14:21 17.03.2020
6532 Haze 31 1014 43 5000 1 60 13:45 17.03.2020
6533 Haze 33 1013 36 5000 0.91 250 13:27 17.03.2020
6534 Haze 33 1013 36 5000 1 340 12:58 17.03.2020
6535 Haze 34 1013 34 5000 1 320 12:40 17.03.2020
6536 Clouds 34 1013 32 5000 1 20 12:22 17.03.2020
6537 Clouds 33 1013 33 6000 1 320 11:46 17.03.2020
6538 Clouds 33 1013 33 6000 1 320 11:28 17.03.2020
6539 Clouds 34 1014 34 6000 1.5 360 10:58 17.03.2020
6540 Clouds 34 1014 34 6000 1.5 90 10:38 17.03.2020
6541 Clouds 34 1014 34 6000 1.5 90 10:20 17.03.2020
6542 Clouds 33 1014 36 6000 1.5 360 09:57 17.03.2020
6543 Clear 33 1015 36 6000 1 20 09:39 17.03.2020
6544 Clear 33 1015 36 6000 1 20 09:18 17.03.2020
6545 Clear 32 1016 35 6000 1.23 296 08:43 17.03.2020
6546 Clouds 32 1016 35 6000 1.44 159 08:21 17.03.2020
6547 Clear 30 1017 37 6000 3.15 137 07:50 17.03.2020
6548 Clear 30 1017 37 6000 3.15 137 07:26 17.03.2020
6549 Clear 29 1018 35 6000 1.5 80 06:58 17.03.2020
6550 Clouds 29 1018 30 6000 2.6 70 06:33 17.03.2020
6551 Clear 27 1018 34 6000 2.1 360 05:46 17.03.2020
6552 Haze 24 1017 44 5000 1 360 03:40 17.03.2020
6553 Haze 20 1016 60 4000 1 20 02:45 17.03.2020
6554 Haze 20 1015 64 4000 3.08 46 01:42 17.03.2020
6555 Haze 20 1014 60 4000 3.08 46 01:24 17.03.2020
6556 Haze 21 1014 60 4000 2.71 63 00:25 17.03.2020
6557 Haze 22 1014 60 4000 2.71 63 23:45 16.03.2020
6558 Haze 22 1014 60 4000 2.71 63 23:23 16.03.2020
6559 Haze 24 1014 47 4000 1 50 22:40 16.03.2020
6560 Haze 24 1014 47 4000 1 50 22:22 16.03.2020
6561 Haze 24 1014 53 4000 1 30 21:55 16.03.2020
6562 Haze 24 1015 57 4000 1 20 21:36 16.03.2020
6563 Haze 24 1015 57 4000 1 20 21:18 16.03.2020
6564 Haze 25 1015 57 4000 1 20 20:43 16.03.2020
6565 Haze 25 1015 61 4000 1.5 30 20:24 16.03.2020
6566 Haze 25 1015 65 4000 1.5 20 19:56 16.03.2020
6567 Haze 26 1015 61 4000 1.5 60 19:37 16.03.2020
6568 Haze 26 1015 61 4000 1.5 60 19:18 16.03.2020
6569 Haze 26 1015 61 4000 3.61 15 18:41 16.03.2020
6570 Haze 26 1015 61 4000 1 70 18:20 16.03.2020
6571 Haze 27 1015 57 4000 1 80 17:46 16.03.2020
6572 Haze 27 1015 57 4000 1 80 17:26 16.03.2020
6573 Haze 27 1015 57 4000 1 70 16:58 16.03.2020
6574 Haze 27 1015 57 4000 1 90 16:40 16.03.2020
6575 Haze 27 1015 57 4000 1 90 16:22 16.03.2020
6576 Haze 27 1014 57 4000 1.5 80 15:43 16.03.2020
6577 Haze 28 1014 51 4000 1 70 15:25 16.03.2020
6578 Haze 28 1014 51 4000 1 70 14:48 16.03.2020
6579 Haze 29 1014 48 4000 1 100 14:24 16.03.2020
6580 Haze 31 1013 43 4000 1.55 337 13:53 16.03.2020
6581 Haze 32 1013 35 4000 1.55 337 13:30 16.03.2020
6582 Haze 32 1013 35 5000 1.33 333 12:58 16.03.2020
6583 Haze 32 1013 35 5000 1.33 333 12:40 16.03.2020
6584 Haze 33 1013 31 5000 1 200 12:20 16.03.2020
6585 Haze 32 1013 35 5000 1.33 333 12:20 16.03.2020
6586 Haze 33 1013 31 5000 3.1 270 11:44 16.03.2020
6587 Haze 33 1013 31 5000 3.1 270 11:26 16.03.2020
6588 Haze 32 1013 35 5000 2.1 290 10:45 16.03.2020
6589 Clouds 33 1014 33 6000 2.1 260 10:25 16.03.2020
6590 Clouds 32 1014 35 6000 1.31 276 09:59 16.03.2020
6591 Clouds 31 1014 38 6000 1 350 09:38 16.03.2020
6592 Clouds 31 1014 38 6000 1 350 09:19 16.03.2020
6593 Clear 30 1016 40 6000 2.6 130 08:43 16.03.2020
6594 Clouds 30 1016 40 6000 2.6 130 08:23 16.03.2020
6595 Clouds 29 1017 37 6000 2.1 10 07:43 16.03.2020
6596 Clouds 29 1017 37 6000 2.1 10 07:21 16.03.2020
6597 Haze 27 1018 36 5000 2.6 50 06:41 16.03.2020
6598 Haze 27 1018 36 5000 2.6 50 06:22 16.03.2020
6599 Haze 23 1016 46 5000 2.6 20 04:26 16.03.2020
6600 Haze 20 1015 49 3000 1 40 01:46 16.03.2020
6601 Haze 21 1014 46 3000 1.5 50 00:45 16.03.2020
6602 Haze 21 1014 46 3000 1 40 00:26 16.03.2020
6603 Haze 21 1014 46 3000 1 40 23:40 15.03.2020
6604 Haze 21 1014 46 3000 1 40 23:19 15.03.2020
6605 Haze 22 1014 43 3000 1 40 22:42 15.03.2020
6606 Haze 23 1014 43 3000 2.6 10 22:21 15.03.2020
6607 Haze 23 1014 43 3000 2.1 10 21:39 15.03.2020
6608 Haze 23 1014 40 3000 3.1 20 21:21 15.03.2020
6609 Haze 24 1014 38 3000 2.6 20 20:58 15.03.2020
6610 Haze 24 1014 38 3000 2.6 20 20:39 15.03.2020
6611 Haze 24 1014 44 3000 2.1 30 20:19 15.03.2020
6612 Haze 24 1015 53 3000 2.6 20 19:55 15.03.2020
6613 Haze 25 1015 53 3000 2.6 360 19:37 15.03.2020
6614 Haze 25 1015 53 3000 2.6 360 19:18 15.03.2020
6615 Haze 26 1015 50 4000 1.5 10 18:41 15.03.2020
6616 Haze 26 1015 50 4000 1.5 10 18:23 15.03.2020
6617 Haze 26 1015 50 4000 1 40 17:58 15.03.2020
6618 Haze 26 1015 50 4000 1.5 60 17:38 15.03.2020
6619 Haze 26 1015 50 4000 1.5 60 17:19 15.03.2020
6620 Haze 26 1014 50 4000 1.03 323 16:44 15.03.2020
6621 Haze 26 1014 50 4000 1.03 323 16:44 15.03.2020
6622 Haze 26 1014 50 4000 1 80 16:26 15.03.2020
6623 Haze 27 1014 47 4000 1.5 90 15:59 15.03.2020
6624 Haze 27 1014 47 4000 1.5 90 15:41 15.03.2020
6625 Haze 27 1013 44 5000 1.03 323 15:20 15.03.2020
6626 Haze 27 1013 42 5000 1 90 14:46 15.03.2020
6627 Haze 29 1013 32 5000 1 30 14:25 15.03.2020
6628 Haze 29 1012 32 5000 1 50 13:59 15.03.2020
6629 Haze 30 1012 30 5000 1 20 13:38 15.03.2020
6630 Haze 30 1012 30 5000 1 20 13:20 15.03.2020
6631 Haze 32 1012 25 5000 1 20 12:44 15.03.2020
6632 Haze 32 1012 25 5000 1 20 12:44 15.03.2020
6633 Clouds 32 1012 25 6000 1 20 12:26 15.03.2020
6634 -273 0 0 0 0 0 11:57 15.03.2020
6635 Clouds 32 1012 25 6000 1.5 50 11:39 15.03.2020
6636 Clouds 31 1012 29 6000 1 70 11:20 15.03.2020
6637 Clouds 31 1012 29 6000 1 70 10:56 15.03.2020
6638 Clouds 31 1013 31 6000 1 20 10:36 15.03.2020
6639 Clouds 31 1013 31 6000 1 20 10:18 15.03.2020
6640 Clouds 31 1014 29 6000 1 50 09:40 15.03.2020
6641 Clouds 31 1014 29 6000 1 50 09:21 15.03.2020
6642 Clouds 31 1014 31 6000 3.1 30 08:42 15.03.2020
6643 Clouds 30 1015 33 6000 1 60 08:20 15.03.2020
6644 Clouds 30 1015 30 6000 4.31 52 07:51 15.03.2020
6645 Clouds 29 1016 32 6000 1 60 07:29 15.03.2020
6646 Clouds 28 1016 37 6000 3.1 20 06:49 15.03.2020
6647 Clouds 26 1016 39 6000 2.6 20 05:50 15.03.2020
6648 Clouds 24 1016 41 6000 1.5 20 05:18 15.03.2020
6649 Clouds 24 1016 41 6000 1.5 20 04:41 15.03.2020
6650 Clouds 24 1016 41 6000 1.5 20 04:41 15.03.2020
6651 Haze 23 1016 38 5000 2.6 20 04:23 15.03.2020
6652 Haze 21 1015 40 5000 2.1 20 03:38 15.03.2020
6653 Haze 20 1014 40 4000 1 360 02:37 15.03.2020
6654 Haze 19 1014 48 4000 1 360 01:34 15.03.2020
6655 Haze 21 1013 46 4000 1 360 00:45 15.03.2020
6656 Haze 19 1013 52 4000 1 360 00:22 15.03.2020
6657 Haze 21 1013 46 4000 1.5 360 23:42 14.03.2020
6658 Haze 21 1013 46 4000 1.5 360 23:22 14.03.2020
6659 Haze 22 1013 46 4000 1.5 330 22:58 14.03.2020
6660 Haze 21 1013 64 4000 1 190 22:40 14.03.2020
6661 Haze 21 1013 64 4000 1 190 22:22 14.03.2020
6662 Haze 23 1013 60 4000 2.6 360 21:56 14.03.2020
6663 Haze 23 1013 60 4000 2.6 360 21:56 14.03.2020
6664 Mist 23 1013 60 4000 2.6 340 21:36 14.03.2020
6665 Mist 23 1013 60 4000 2.6 340 21:18 14.03.2020
6666 Mist 23 1013 78 4000 2.1 330 20:58 14.03.2020
6667 Mist 23 1013 78 4000 1 320 20:39 14.03.2020
6668 Mist 23 1013 78 4000 1 320 20:19 14.03.2020
6669 Mist 23 1013 78 4000 1 320 19:42 14.03.2020
6670 Mist 23 1014 78 4000 5.94 1 19:24 14.03.2020
6671 Mist 24 1013 73 5000 5.94 1 18:41 14.03.2020
6672 Haze 25 1013 73 5000 5.94 1 18:22 14.03.2020
6673 Haze 25 1013 73 5000 1 220 17:55 14.03.2020
6674 Haze 25 1013 73 5000 1 220 17:37 14.03.2020
6675 Haze 26 1013 69 5000 2.84 268 17:19 14.03.2020
6676 Haze 26 1013 69 5000 1 120 16:40 14.03.2020
6677 Haze 26 1013 69 5000 1 120 16:22 14.03.2020
6678 Haze 27 1013 65 5000 1.5 140 15:52 14.03.2020
6679 Haze 27 1012 65 5000 1.5 120 15:25 14.03.2020
6680 Haze 28 1012 61 5000 2.6 110 14:46 14.03.2020
6681 Haze 28 1012 61 5000 2.6 110 14:23 14.03.2020
6682 Clouds 29 1011 54 6000 1.5 130 13:57 14.03.2020
6683 Clouds 30 1011 45 6000 2.1 160 13:39 14.03.2020
6684 Clouds 30 1011 45 6000 2.1 160 13:20 14.03.2020
6685 Clouds 30 1011 45 6000 1 80 12:46 14.03.2020
6686 Clouds 30 1011 45 6000 1 80 12:27 14.03.2020
6687 Clouds 31 1011 43 6000 1.5 150 11:56 14.03.2020
6688 Clouds 31 1011 43 6000 1.5 150 11:56 14.03.2020
6689 Clouds 31 1011 43 6000 1.5 150 11:38 14.03.2020
6690 Clouds 31 1011 45 6000 1 20 11:19 14.03.2020
6691 Clouds 30 1012 48 6000 2.1 80 10:42 14.03.2020
6692 Clouds 30 1012 48 6000 2.1 80 10:42 14.03.2020
6693 Clouds 30 1012 48 6000 2.1 80 10:23 14.03.2020
6694 Clouds 30 1012 48 6000 3.1 70 09:47 14.03.2020
6695 Clouds 29 1013 51 6000 2.1 110 09:24 14.03.2020
6696 Clouds 29 1014 48 6000 2.6 90 08:54 14.03.2020
6697 Clouds 29 1014 48 6000 2.6 110 08:35 14.03.2020
6698 Clouds 29 1015 48 6000 2.1 60 07:56 14.03.2020
6699 Clouds 28 1015 48 6000 2.1 30 07:38 14.03.2020
6700 Clouds 28 1015 48 6000 2.1 30 07:19 14.03.2020
6701 Haze 26 1016 54 5000 1 70 06:40 14.03.2020
6702 Haze 26 1016 54 5000 1 70 06:40 14.03.2020
6703 Haze 24 1016 60 5000 1 30 05:43 14.03.2020
6704 Haze 22 1015 64 4000 2.1 10 03:49 14.03.2020
6705 Haze 22 1015 64 4000 1.5 40 03:24 14.03.2020
6706 Haze 22 1014 64 4000 3.1 360 02:23 14.03.2020
6707 Haze 22 1013 68 4000 4.1 10 00:49 14.03.2020
6708 Haze 23 1013 64 4000 3.1 30 23:50 13.03.2020
6709 Haze 23 1013 64 4000 1 30 23:30 13.03.2020
6710 Haze 23 1013 64 4000 2.6 30 22:52 13.03.2020
6711 Haze 24 1013 57 4000 3.1 180 22:26 13.03.2020
6712 Haze 24 1013 57 4000 2.1 10 21:44 13.03.2020
6713 Haze 23 1013 69 4000 2.6 10 21:22 13.03.2020
6714 Haze 22 1014 73 4000 1.5 50 20:59 13.03.2020
6715 Haze 23 1015 69 4000 1.5 50 20:40 13.03.2020
6716 Haze 23 1015 69 4000 1.5 50 20:20 13.03.2020
6717 Haze 23 1015 73 4000 1.5 120 19:48 13.03.2020
6718 Haze 25 1015 65 4000 1.5 40 19:30 13.03.2020
6719 Haze 26 1014 65 4000 3.6 10 18:49 13.03.2020
6720 Haze 26 1014 65 4000 3.6 10 18:31 13.03.2020
6721 Haze 28 1014 54 4000 2.6 320 17:57 13.03.2020
6722 Haze 27 1014 61 4000 5.6 10 17:38 13.03.2020
6723 Haze 28 1013 58 4000 0.86 203 17:20 13.03.2020
6724 Haze 28 1013 58 4000 0.86 203 16:42 13.03.2020
6725 Haze 28 1013 58 4000 0.86 203 16:24 13.03.2020
6726 Haze 27 1013 61 4000 0.86 203 15:56 13.03.2020
6727 Haze 28 1012 58 4000 0.86 203 15:37 13.03.2020
6728 Haze 28 1012 58 4000 0.86 203 15:19 13.03.2020
6729 Haze 28 1012 54 4000 1 190 14:41 13.03.2020
6730 Haze 29 1012 51 4000 2.1 180 14:22 13.03.2020
6731 Haze 30 1011 48 4000 1.5 200 13:57 13.03.2020
6732 Haze 31 1011 45 4000 3.1 200 13:38 13.03.2020
6733 Haze 31 1011 45 4000 3.1 200 13:19 13.03.2020
6734 Haze 31 1011 45 5000 3.1 170 12:40 13.03.2020
6735 Haze 31 1011 48 5000 4.1 190 12:22 13.03.2020
6736 Haze 31 1011 48 5000 4.1 190 11:59 13.03.2020
6737 Haze 31 1011 48 5000 4.1 190 11:41 13.03.2020
6738 Haze 31 1011 48 5000 4.1 190 11:41 13.03.2020
6739 Haze 31 1012 48 5000 4.1 200 11:22 13.03.2020
6740 Haze 31 1012 48 5000 4.1 200 10:48 13.03.2020
6741 Haze 31 1012 48 5000 3.1 200 10:28 13.03.2020
6742 Haze 31 1012 48 5000 3.1 200 10:28 13.03.2020
6743 Haze 31 1013 48 5000 3.1 170 09:58 13.03.2020
6744 Haze 31 1013 48 4000 2.1 200 09:39 13.03.2020
6745 Haze 31 1013 48 4000 2.1 200 09:20 13.03.2020
6746 Haze 30 1014 48 4000 1 300 08:45 13.03.2020
6747 Haze 30 1014 55 4000 1 330 08:23 13.03.2020
6748 Haze 29 1015 58 5000 1.5 280 07:50 13.03.2020
6749 Haze 29 1015 58 5000 1.5 280 07:28 13.03.2020
6750 Haze 29 1016 54 5000 1.5 360